# Wetter Temperatur Luftdruck Luftfeuchtigkeit Sichtweite Windgeschwindigkeit Windrichtung Zeit
1 Snow -9 991 92 3600 4 200 22:25 24.01.2020
2 Clouds -8 991 92 10000 5 200 21:56 24.01.2020
3 Clouds -8 991 92 10000 5 210 21:37 24.01.2020
4 Clouds -8 991 92 10000 5 210 21:18 24.01.2020
5 Clouds -7 991 85 10000 5 210 20:42 24.01.2020
6 Clouds -7 991 85 10000 5 210 20:21 24.01.2020
7 Clouds -7 991 85 10000 4 210 19:57 24.01.2020
8 Clouds -7 991 85 10000 5 210 19:39 24.01.2020
9 Clouds -7 991 85 10000 5 210 19:21 24.01.2020
10 Clouds -7 991 85 10000 6 220 18:43 24.01.2020
11 Clouds -7 991 85 10000 5 220 18:24 24.01.2020
12 Clouds -6 991 85 10000 5 210 17:56 24.01.2020
13 Snow -6 990 85 7000 5 220 17:38 24.01.2020
14 Snow -6 990 85 7000 5 220 17:18 24.01.2020
15 Snow -6 990 85 8000 5 230 16:39 24.01.2020
16 Snow -6 990 85 8000 5 230 16:39 24.01.2020
17 Snow -6 990 85 8000 5 230 16:21 24.01.2020
18 Snow -6 990 85 2500 5 220 15:55 24.01.2020
19 Clouds -6 990 85 10000 5 230 15:37 24.01.2020
20 Clouds -6 990 85 10000 5 230 15:18 24.01.2020
21 Clouds -6 989 79 10000 5 230 14:41 24.01.2020
22 Clouds -6 989 79 10000 5 230 14:22 24.01.2020
23 Clouds -6 989 85 10000 5 230 13:44 24.01.2020
24 Snow -6 989 85 7000 6 230 13:23 24.01.2020
25 Snow -6 989 100 10000 4 220 12:45 24.01.2020
26 Clouds -6 989 92 10000 5 230 12:23 24.01.2020
27 Clouds -6 988 92 10000 5 230 11:58 24.01.2020
28 Clouds -6 988 85 10000 6 230 11:39 24.01.2020
29 Clouds -6 988 85 10000 6 230 11:18 24.01.2020
30 Clouds -6 988 85 10000 7 240 10:42 24.01.2020
31 Clouds -6 988 85 10000 7 240 10:42 24.01.2020
32 Clouds -6 988 85 10000 7 240 10:21 24.01.2020
33 Clouds -7 987 85 10000 7 240 09:55 24.01.2020
34 Clouds -7 987 85 10000 7 240 09:37 24.01.2020
35 Clouds -7 987 85 10000 7 240 09:18 24.01.2020
36 Clouds -7 987 85 10000 7 240 09:18 24.01.2020
37 Snow -6 986 85 9000 7 240 08:39 24.01.2020
38 Snow -6 986 85 9000 7 240 08:19 24.01.2020
39 Snow -6 986 85 9000 7 240 07:48 24.01.2020
40 Snow -6 986 100 1100 4 240 07:24 24.01.2020
41 Snow -6 986 92 3000 6 240 06:45 24.01.2020
42 Snow -6 985 92 3000 6 240 06:24 24.01.2020
43 Snow -5 985 92 2600 6 230 05:37 24.01.2020
44 Snow -4 984 92 2400 5 230 03:47 24.01.2020
45 Snow -5 983 100 4000 4 220 02:41 24.01.2020
46 Snow -5 983 100 4000 4 220 02:22 24.01.2020
47 Snow -4 983 100 5000 5 230 01:39 24.01.2020
48 Snow -4 983 100 5000 5 230 00:54 24.01.2020
49 Snow -4 983 100 2200 4 220 00:19 24.01.2020
50 Snow -4 983 100 2100 3 200 23:45 23.01.2020
51 Snow -4 983 100 9000 4 190 23:26 23.01.2020
52 Snow -4 983 100 9000 4 180 22:59 23.01.2020
53 Snow -5 983 100 2100 3 150 22:37 23.01.2020
54 Snow -5 983 100 2100 3 150 22:18 23.01.2020
55 Snow -5 983 100 9000 3 150 21:55 23.01.2020
56 Snow -5 983 100 8000 3 150 21:37 23.01.2020
57 Snow -5 983 100 8000 3 150 21:19 23.01.2020
58 Snow -5 983 100 6000 3 140 20:55 23.01.2020
59 Snow -5 983 100 9000 4 150 20:37 23.01.2020
60 Snow -5 983 100 9000 4 150 20:18 23.01.2020
61 Snow -5 983 100 2800 3 150 19:44 23.01.2020
62 Snow -5 984 100 3700 4 150 19:23 23.01.2020
63 Snow -5 984 100 3600 3 150 18:58 23.01.2020
64 Snow -5 984 100 3100 3 150 18:39 23.01.2020
65 Snow -5 984 100 3100 3 150 18:20 23.01.2020
66 Snow -5 984 100 3200 3 150 17:56 23.01.2020
67 Snow -5 984 100 4400 3 150 17:37 23.01.2020
68 Snow -5 984 100 4400 3 150 17:18 23.01.2020
69 Snow -5 985 100 10000 4 160 16:39 23.01.2020
70 Snow -5 985 100 10000 4 160 16:20 23.01.2020
71 Clouds -5 985 100 10000 4 160 15:58 23.01.2020
72 Snow -5 985 92 9000 4 150 15:40 23.01.2020
73 Snow -5 985 92 9000 4 150 15:19 23.01.2020
74 Snow -5 985 92 9000 4 150 14:59 23.01.2020
75 Clouds -5 986 92 10000 3 150 14:41 23.01.2020
76 Clouds -5 986 92 10000 3 150 14:22 23.01.2020
77 Snow -6 986 100 9000 4 160 13:56 23.01.2020
78 Snow -6 986 100 6000 4 150 13:37 23.01.2020
79 Snow -6 986 100 6000 4 150 13:18 23.01.2020
80 Snow -6 986 100 7000 5 150 12:43 23.01.2020
81 Snow -6 986 100 3400 4 150 12:24 23.01.2020
82 Snow -6 986 100 7000 5 150 11:56 23.01.2020
83 Snow -6 986 92 9000 5 150 11:37 23.01.2020
84 Snow -6 986 92 9000 5 150 11:18 23.01.2020
85 Snow -5 987 85 8000 5 150 10:43 23.01.2020
86 Snow -5 987 85 3900 5 150 10:19 23.01.2020
87 Snow -5 987 92 3500 5 150 09:43 23.01.2020
88 Snow -5 987 92 3500 5 150 09:25 23.01.2020
89 Snow -5 988 85 4900 5 150 08:59 23.01.2020
90 Snow -6 988 92 6000 5 160 08:40 23.01.2020
91 Snow -6 988 92 6000 5 160 08:21 23.01.2020
92 Snow -6 988 92 4500 5 150 07:44 23.01.2020
93 Snow -6 989 92 9000 6 160 07:24 23.01.2020
94 Clouds -7 989 100 10000 6 160 06:51 23.01.2020
95 Clouds -7 989 92 10000 5 160 06:22 23.01.2020
96 Snow -7 989 100 9000 5 160 05:44 23.01.2020
97 Snow -8 990 100 8000 5 140 04:24 23.01.2020
98 Clouds -9 991 100 10000 5 160 02:34 23.01.2020
99 Clouds -9 991 100 10000 5 150 01:19 23.01.2020
100 Snow -9 992 92 10000 4 160 00:27 23.01.2020
101 Snow -9 992 92 3900 4 160 23:48 22.01.2020
102 Clouds -9 993 85 10000 5 160 23:29 22.01.2020
103 Clouds -9 993 85 10000 4 160 22:59 22.01.2020
104 Snow -10 993 92 10000 5 170 22:40 22.01.2020
105 Snow -10 993 92 10000 5 170 22:22 22.01.2020
106 Snow -10 993 92 9000 5 170 21:40 22.01.2020
107 Snow -10 993 92 9000 5 170 21:22 22.01.2020
108 Snow -10 993 85 9000 6 160 20:57 22.01.2020
109 Snow -10 994 85 9000 6 160 20:37 22.01.2020
110 Snow -10 994 85 9000 6 160 20:19 22.01.2020
111 Clouds -11 994 92 10000 5 160 19:56 22.01.2020
112 Clouds -11 994 85 10000 5 160 19:37 22.01.2020
113 Clouds -11 994 85 10000 5 160 19:18 22.01.2020
114 Clouds -12 994 85 10000 5 160 18:56 22.01.2020
115 Clouds -12 995 85 10000 5 160 18:37 22.01.2020
116 Clouds -13 996 92 10000 4 160 18:19 22.01.2020
117 Snow -13 996 92 10000 4 160 17:40 22.01.2020
118 Snow -13 996 92 10000 4 160 17:21 22.01.2020
119 Snow -13 996 84 10000 5 160 16:58 22.01.2020
120 Snow -13 997 92 9000 5 170 16:39 22.01.2020
121 Snow -13 997 92 9000 5 170 16:21 22.01.2020
122 Clouds -12 997 85 10000 4 160 15:56 22.01.2020
123 Clouds -12 997 85 10000 6 170 15:38 22.01.2020
124 Clouds -12 997 85 10000 6 170 15:19 22.01.2020
125 Snow -12 998 85 8000 5 160 14:40 22.01.2020
126 Snow -12 998 85 8000 5 160 14:21 22.01.2020
127 Clouds -13 998 92 10000 5 160 13:59 22.01.2020
128 Clouds -12 998 85 10000 5 150 13:38 22.01.2020
129 Clouds -12 998 85 10000 5 150 13:19 22.01.2020
130 Clouds -12 999 85 10000 5 160 12:57 22.01.2020
131 Clouds -12 999 85 10000 4 160 12:39 22.01.2020
132 Clouds -12 999 85 10000 4 160 12:19 22.01.2020
133 Clouds -12 999 85 10000 3 160 11:58 22.01.2020
134 Clouds -12 999 85 10000 5 160 11:39 22.01.2020
135 Clouds -12 999 85 10000 5 160 11:19 22.01.2020
136 Clouds -12 999 85 10000 5 160 11:19 22.01.2020
137 Clouds -12 999 85 10000 5 160 11:19 22.01.2020
138 Clouds -13 1000 92 10000 5 160 10:54 22.01.2020
139 Clouds -13 1000 84 10000 5 160 10:36 22.01.2020
140 Clouds -13 1000 84 10000 5 160 10:18 22.01.2020
141 Clouds -13 1001 84 10000 5 150 09:41 22.01.2020
142 Clouds -13 1001 84 10000 5 150 09:23 22.01.2020
143 Clouds -13 1001 84 10000 5 160 08:56 22.01.2020
144 Snow -13 1001 84 5000 5 170 08:37 22.01.2020
145 Snow -13 1001 84 5000 5 170 08:19 22.01.2020
146 Snow -13 1001 84 5000 5 170 08:19 22.01.2020
147 Clouds -13 1002 84 10000 4 170 07:44 22.01.2020
148 Clouds -14 1002 84 10000 5 180 07:26 22.01.2020
149 Clouds -14 1003 84 10000 6 190 06:37 22.01.2020
150 Clouds -14 1003 84 10000 6 190 06:18 22.01.2020
151 Clouds -16 1004 84 10000 5 180 04:27 22.01.2020
152 Clouds -17 1004 84 10000 4 180 03:27 22.01.2020
153 Clouds -18 1005 84 10000 5 180 02:48 22.01.2020
154 Clouds -17 1006 84 10000 6 190 00:48 22.01.2020
155 Clouds -17 1006 91 10000 5 190 00:28 22.01.2020
156 Snow -16 1006 91 10000 6 190 23:59 21.01.2020
157 Snow -15 1006 84 9000 6 180 23:37 21.01.2020
158 Snow -15 1006 84 9000 6 180 23:19 21.01.2020
159 Snow -15 1006 77 10000 5 190 22:42 21.01.2020
160 Snow -15 1006 77 10000 5 190 22:23 21.01.2020
161 Snow -15 1007 77 8000 5 190 21:58 21.01.2020
162 Snow -15 1007 77 5000 5 190 21:39 21.01.2020
163 Snow -15 1007 77 5000 5 190 21:20 21.01.2020
164 Snow -16 1007 84 7000 5 190 20:57 21.01.2020
165 Snow -16 1008 84 7000 5 190 20:39 21.01.2020
166 Snow -16 1008 84 7000 5 190 20:20 21.01.2020
167 Snow -17 1008 84 5000 5 190 19:58 21.01.2020
168 Snow -17 1009 77 5000 5 190 19:39 21.01.2020
169 Snow -17 1009 77 5000 5 190 19:20 21.01.2020
170 Clouds -16 1009 77 10000 5 200 18:56 21.01.2020
171 Clouds -16 1009 77 10000 5 190 18:38 21.01.2020
172 Clouds -16 1009 77 10000 5 190 18:20 21.01.2020
173 Clouds -17 1009 77 10000 5 180 17:45 21.01.2020
174 Clouds -18 1010 84 10000 4 180 17:21 21.01.2020
175 Clouds -18 1010 77 10000 3 200 16:59 21.01.2020
176 Clouds -18 1011 77 10000 3 200 16:37 21.01.2020
177 Clouds -18 1011 77 10000 3 200 16:19 21.01.2020
178 Clouds -18 1011 77 10000 4 190 15:57 21.01.2020
179 Clouds -18 1011 84 10000 4 190 15:37 21.01.2020
180 Clouds -18 1011 84 10000 4 190 15:19 21.01.2020
181 Clouds -18 1012 84 10000 3 190 14:39 21.01.2020
182 Clear -18 1012 84 10000 3 190 14:20 21.01.2020
183 Clear -18 1012 84 10000 3 200 13:43 21.01.2020
184 Clear -19 1012 91 10000 3 200 13:20 21.01.2020
185 Clouds -19 1012 84 10000 3 210 12:57 21.01.2020
186 Clear -19 1012 84 10000 3 210 12:39 21.01.2020
187 Clear -19 1012 84 10000 3 210 12:21 21.01.2020
188 Clear -18 1012 84 10000 3 220 11:41 21.01.2020
189 Clear -18 1012 84 10000 3 220 11:22 21.01.2020
190 Clear -18 1012 84 10000 3 220 11:00 21.01.2020
191 Clear -18 1012 84 10000 2 210 10:41 21.01.2020
192 Clear -18 1012 84 10000 2 210 10:22 21.01.2020
193 Clear -18 1013 84 10000 2 230 09:43 21.01.2020
194 Clear -18 1013 84 10000 3 250 09:23 21.01.2020
195 Clear -18 1013 77 10000 3 240 08:56 21.01.2020
196 Clear -19 1013 84 10000 3 250 08:38 21.01.2020
197 Clouds -19 1013 84 10000 3 250 08:19 21.01.2020
198 Clouds -20 1013 91 10000 4 250 07:41 21.01.2020
199 Clouds -20 1013 91 10000 4 250 07:22 21.01.2020
200 Clouds -20 1013 83 10000 4 250 06:55 21.01.2020
201 Clouds -21 1013 83 10000 4 250 06:37 21.01.2020
202 Clouds -22 1012 83 10000 3 250 05:50 21.01.2020
203 Clouds -21 1013 83 10000 4 270 04:41 21.01.2020
204 Clouds -20 1012 83 10000 4 270 03:40 21.01.2020
205 Clouds -19 1013 84 10000 4 270 02:26 21.01.2020
206 Snow -18 1012 77 10000 5 280 01:28 21.01.2020
207 Snow -15 1012 71 10000 6 280 00:40 21.01.2020
208 Snow -15 1012 77 10000 6 280 23:59 20.01.2020
209 Clouds -14 1012 71 10000 7 280 23:41 20.01.2020
210 Clouds -14 1012 71 10000 7 280 23:19 20.01.2020
211 Clouds -13 1012 71 10000 7 280 22:59 20.01.2020
212 Snow -13 1012 78 9000 8 280 22:39 20.01.2020
213 Snow -13 1012 78 9000 8 280 22:21 20.01.2020
214 Snow -12 1011 78 2400 6 280 21:58 20.01.2020
215 Snow -12 1011 78 9000 7 280 21:38 20.01.2020
216 Snow -12 1011 78 9000 7 280 21:19 20.01.2020
217 Clouds -11 1011 72 10000 7 280 20:57 20.01.2020
218 Clouds -12 1011 78 10000 7 280 20:38 20.01.2020
219 Clouds -12 1011 78 10000 7 280 20:19 20.01.2020
220 Snow -12 1011 78 10000 7 280 19:56 20.01.2020
221 Snow -12 1011 78 10000 7 280 19:56 20.01.2020
222 Snow -11 1011 78 10000 8 280 19:38 20.01.2020
223 Snow -11 1011 78 10000 8 280 19:18 20.01.2020
224 Clouds -11 1011 78 10000 8 280 18:44 20.01.2020
225 Clouds -11 1011 78 10000 7 280 18:23 20.01.2020
226 Clouds -10 1011 78 10000 8 280 17:58 20.01.2020
227 Clouds -10 1010 78 10000 8 290 17:36 20.01.2020
228 Clouds -10 1010 78 10000 8 290 17:36 20.01.2020
229 Clouds -10 1010 78 10000 8 290 17:18 20.01.2020
230 Clouds -10 1010 72 10000 9 290 16:43 20.01.2020
231 Clouds -9 1010 72 10000 10 280 16:25 20.01.2020
232 Clouds -10 1010 78 10000 7 290 15:58 20.01.2020
233 Clouds -11 1010 78 10000 7 270 15:39 20.01.2020
234 Clouds -11 1010 78 10000 7 270 15:21 20.01.2020
235 Clouds -11 1010 78 10000 8 280 14:42 20.01.2020
236 Clouds -11 1010 78 10000 8 280 14:24 20.01.2020
237 Clouds -11 1009 78 9000 9 280 13:59 20.01.2020
238 Clouds -11 1009 85 10000 8 260 13:40 20.01.2020
239 Clouds -11 1009 85 10000 8 260 13:22 20.01.2020
240 Snow -11 1009 85 7000 8 270 12:47 20.01.2020
241 Clouds -12 1009 85 1900 7 270 12:29 20.01.2020
242 Clouds -12 1009 85 1900 7 270 12:29 20.01.2020
243 Clouds -12 1010 78 4500 8 250 11:59 20.01.2020
244 Clouds -13 1010 84 2500 8 250 11:40 20.01.2020
245 Clouds -13 1010 84 2500 8 250 11:21 20.01.2020
246 Snow -13 1010 78 10000 7 250 10:57 20.01.2020
247 Clouds -13 1010 78 10000 7 240 10:39 20.01.2020
248 Clouds -13 1010 78 10000 7 240 10:19 20.01.2020
249 Clouds -13 1010 78 10000 7 240 10:19 20.01.2020
250 Snow -14 1011 84 10000 6 240 09:40 20.01.2020
251 Snow -14 1011 84 10000 6 240 09:40 20.01.2020
252 Snow -14 1011 84 10000 6 240 09:20 20.01.2020
253 Snow -14 1012 77 10000 5 240 08:46 20.01.2020
254 Clouds -14 1012 77 10000 5 250 08:28 20.01.2020
255 Clouds -15 1013 84 10000 6 250 07:46 20.01.2020
256 Clouds -15 1013 84 10000 6 250 07:26 20.01.2020
257 Clouds -15 1013 84 10000 4 250 06:54 20.01.2020
258 Clouds -15 1013 84 10000 5 250 06:28 20.01.2020
259 Clouds -15 1013 84 10000 5 250 05:43 20.01.2020
260 Clouds -15 1013 84 10000 5 250 05:43 20.01.2020
261 Clouds -16 1013 84 10000 5 260 05:23 20.01.2020
262 Clouds -16 1014 84 10000 5 260 04:48 20.01.2020
263 Clouds -19 1014 91 10000 5 260 02:58 20.01.2020
264 Clouds -19 1014 91 10000 5 260 02:58 20.01.2020
265 Snow -18 1014 84 10000 5 250 01:55 20.01.2020
266 Snow -18 1014 84 2400 5 250 01:37 20.01.2020
267 Snow -18 1014 84 2400 5 250 00:45 20.01.2020
268 Clouds -18 1014 84 10000 6 260 00:24 20.01.2020
269 Clouds -20 1014 83 10000 6 280 23:39 19.01.2020
270 Clouds -20 1014 83 10000 6 280 23:20 19.01.2020
271 Clouds -19 1014 84 10000 6 280 22:57 19.01.2020
272 Clouds -18 1015 84 10000 6 280 22:39 19.01.2020
273 Clouds -18 1015 84 10000 6 280 22:39 19.01.2020
274 Clouds -18 1015 84 10000 6 280 22:20 19.01.2020
275 Clouds -18 1015 84 10000 6 280 22:20 19.01.2020
276 Clouds -19 1015 84 10000 5 280 21:57 19.01.2020
277 Clouds -20 1014 83 10000 5 280 21:38 19.01.2020
278 Clouds -20 1014 83 10000 5 280 21:20 19.01.2020
279 Snow -18 1014 77 7000 6 280 20:57 19.01.2020
280 Snow -19 1014 84 8000 6 280 20:39 19.01.2020
281 Snow -19 1014 84 8000 6 280 20:20 19.01.2020
282 Clouds -19 1014 77 10000 6 280 19:57 19.01.2020
283 Clouds -20 1014 76 10000 5 280 19:39 19.01.2020
284 Clouds -20 1014 76 10000 5 280 19:20 19.01.2020
285 Clouds -22 1014 83 10000 5 260 18:57 19.01.2020
286 Clouds -22 1014 83 10000 5 260 18:39 19.01.2020
287 Clouds -22 1014 83 10000 5 260 18:20 19.01.2020
288 Clouds -22 1015 83 10000 5 270 17:58 19.01.2020
289 Clouds -22 1015 83 10000 5 270 17:58 19.01.2020
290 Clouds -21 1015 76 10000 6 270 17:40 19.01.2020
291 Clear -21 1015 76 10000 6 270 17:21 19.01.2020
292 Clear -21 1015 76 10000 7 280 16:59 19.01.2020
293 Clear -22 1015 83 10000 7 280 16:39 19.01.2020
294 Clear -22 1015 83 10000 7 280 16:21 19.01.2020
295 Clear -22 1015 76 10000 7 280 15:58 19.01.2020
296 Clear -22 1015 76 10000 6 280 15:39 19.01.2020
297 Clear -22 1015 76 10000 6 280 15:20 19.01.2020
298 Clear -22 1015 76 10000 6 270 14:58 19.01.2020
299 Clouds -21 1015 76 10000 6 260 14:39 19.01.2020
300 Clouds -21 1015 76 10000 6 260 14:18 19.01.2020
301 Clouds -22 1015 83 10000 3 240 13:57 19.01.2020
302 Clouds -22 1015 83 10000 5 250 13:38 19.01.2020
303 Clouds -22 1015 83 10000 5 250 13:19 19.01.2020
304 Clouds -22 1015 76 10000 5 250 12:55 19.01.2020
305 Clear -22 1015 76 10000 5 250 12:37 19.01.2020
306 Clear -22 1015 76 10000 5 250 12:19 19.01.2020
307 Clear -23 1015 83 10000 5 280 11:42 19.01.2020
308 Clear -23 1015 83 10000 5 280 11:20 19.01.2020
309 Clear -22 1015 76 10000 6 290 10:56 19.01.2020
310 Clear -22 1015 76 10000 6 290 10:56 19.01.2020
311 Clear -22 1015 76 10000 5 290 10:38 19.01.2020
312 Clear -21 1014 70 10000 5 300 10:19 19.01.2020
313 Clear -21 1014 70 10000 5 300 09:55 19.01.2020
314 Clear -21 1014 70 10000 5 300 09:55 19.01.2020
315 Clear -21 1014 70 10000 5 300 09:55 19.01.2020
316 Clear -21 1014 70 10000 5 300 09:55 19.01.2020
317 Clear -21 1014 70 10000 6 320 09:36 19.01.2020
318 Clear -21 1014 70 10000 6 320 09:18 19.01.2020
319 Clear -21 1013 70 10000 6 310 08:44 19.01.2020
320 Clear -21 1013 70 10000 6 320 08:26 19.01.2020
321 Clouds -21 1013 70 10000 7 330 07:42 19.01.2020
322 Clouds -20 1012 70 10000 7 330 07:22 19.01.2020
323 Clouds -20 1011 70 10000 8 330 06:53 19.01.2020
324 Clouds -18 1011 77 10000 7 330 06:21 19.01.2020
325 Clouds -17 1007 84 10000 7 310 02:44 19.01.2020
326 Snow -17 1006 84 7000 6 320 02:21 19.01.2020
327 Clouds -17 1005 84 10000 6 310 01:25 19.01.2020
328 Clouds -17 1004 91 10000 5 310 00:50 19.01.2020
329 Clouds -17 1004 91 10000 5 310 00:29 19.01.2020
330 Clouds -17 1004 91 10000 5 310 23:58 18.01.2020
331 Clouds -16 1004 84 10000 4 310 23:40 18.01.2020
332 Clouds -16 1004 84 10000 5 300 23:21 18.01.2020
333 Clouds -16 1004 84 10000 5 300 22:55 18.01.2020
334 Clouds -16 1003 84 10000 5 290 22:37 18.01.2020
335 -273 0 0 0 0 0 22:37 18.01.2020
336 Clouds -16 1003 84 10000 5 290 22:19 18.01.2020
337 Clouds -15 1003 84 10000 4 290 21:57 18.01.2020
338 Snow -16 1003 91 7000 4 290 21:37 18.01.2020
339 Snow -16 1003 91 7000 4 290 21:37 18.01.2020
340 Snow -16 1003 91 7000 4 290 21:19 18.01.2020
341 Clouds -15 1003 84 10000 5 290 20:43 18.01.2020
342 Snow -13 1003 84 4200 4 280 20:21 18.01.2020
343 Snow -13 1003 84 4200 4 280 19:57 18.01.2020
344 Snow -13 1003 92 2200 5 280 19:39 18.01.2020
345 Snow -13 1003 92 2200 5 280 19:39 18.01.2020
346 Snow -13 1003 92 2200 5 280 19:21 18.01.2020
347 Snow -12 1003 85 4000 3 250 18:42 18.01.2020
348 Snow -12 1003 85 2700 3 240 18:21 18.01.2020
349 Snow -12 1003 85 1800 3 230 17:55 18.01.2020
350 Snow -12 1004 85 2300 3 220 17:37 18.01.2020
351 Snow -12 1004 85 2300 3 220 17:18 18.01.2020
352 Snow -12 1004 85 3300 5 210 16:42 18.01.2020
353 Snow -12 1004 85 3300 5 210 16:24 18.01.2020
354 Snow -12 1005 85 3000 5 220 15:59 18.01.2020
355 Snow -12 1005 85 1700 5 210 15:41 18.01.2020
356 Snow -12 1005 85 1700 5 210 15:22 18.01.2020
357 Snow -12 1005 78 4000 5 200 14:54 18.01.2020
358 Snow -12 1005 72 9000 4 190 14:36 18.01.2020
359 Snow -12 1005 72 9000 4 190 14:18 18.01.2020
360 Clouds -12 1006 72 10000 4 210 13:43 18.01.2020
361 Clouds -12 1007 72 10000 4 210 13:24 18.01.2020
362 Clouds -12 1007 72 10000 3 210 12:56 18.01.2020
363 Clouds -12 1008 72 10000 4 220 12:38 18.01.2020
364 Clouds -12 1008 72 10000 4 220 12:19 18.01.2020
365 Clouds -12 1008 72 10000 5 210 11:44 18.01.2020
366 Snow -12 1008 72 10000 6 210 11:21 18.01.2020
367 Snow -12 1009 72 10000 7 230 10:56 18.01.2020
368 Snow -12 1009 72 10000 6 230 10:38 18.01.2020
369 Snow -12 1009 72 10000 6 230 10:18 18.01.2020
370 Snow -12 1009 72 10000 6 230 10:18 18.01.2020
371 Snow -12 1009 72 10000 6 230 09:42 18.01.2020
372 Snow -13 1009 78 10000 6 220 09:20 18.01.2020
373 Snow -13 1010 71 10000 5 230 08:55 18.01.2020
374 Snow -14 1010 77 10000 5 230 08:37 18.01.2020
375 Snow -14 1010 77 10000 5 230 08:18 18.01.2020
376 Clouds -15 1010 77 10000 5 220 07:40 18.01.2020
377 Clouds -16 1010 84 10000 5 230 07:21 18.01.2020
378 Clouds -17 1010 84 10000 5 240 06:45 18.01.2020
379 Snow -17 1010 84 8000 5 230 05:53 18.01.2020
380 Clouds -18 1010 84 10000 5 230 04:28 18.01.2020
381 Clouds -18 1010 91 10000 5 250 02:49 18.01.2020
382 Clouds -18 1010 91 10000 5 240 01:47 18.01.2020
383 Clouds -18 1009 84 10000 5 250 00:40 18.01.2020
384 Clouds -18 1009 84 10000 5 250 00:21 18.01.2020
385 Clouds -19 1009 84 10000 4 250 23:59 17.01.2020
386 Clouds -19 1009 84 10000 5 250 23:40 17.01.2020
387 Clear -19 1009 84 10000 5 250 23:18 17.01.2020
388 Clear -19 1009 84 10000 5 250 22:42 17.01.2020
389 Clear -19 1009 84 10000 5 250 22:20 17.01.2020
390 Clear -18 1009 77 10000 6 250 21:57 17.01.2020
391 Clear -19 1008 84 10000 5 250 21:38 17.01.2020
392 Clear -19 1008 84 10000 5 250 21:20 17.01.2020
393 Clear -19 1008 84 10000 4 250 20:55 17.01.2020
394 Clouds -19 1008 84 10000 5 250 20:36 17.01.2020
395 Clouds -19 1008 84 10000 5 250 20:18 17.01.2020
396 Clear -21 1008 83 10000 5 280 19:54 17.01.2020
397 Clear -21 1007 83 10000 5 280 19:36 17.01.2020
398 Clear -21 1007 83 10000 5 280 19:18 17.01.2020
399 Clear -20 1007 76 10000 5 280 18:41 17.01.2020
400 Clear -20 1007 76 10000 5 280 18:23 17.01.2020
401 Clear -19 1007 77 10000 5 290 17:54 17.01.2020
402 Clear -19 1006 77 10000 6 290 17:36 17.01.2020
403 Clear -19 1006 77 10000 6 290 17:18 17.01.2020
404 Clear -18 1005 70 10000 5 310 16:41 17.01.2020
405 Clear -18 1005 70 10000 5 310 16:19 17.01.2020
406 Clear -17 1005 64 10000 7 310 15:48 17.01.2020
407 Clear -17 1004 64 10000 6 320 15:26 17.01.2020
408 Clear -17 1003 64 10000 8 320 14:54 17.01.2020
409 Clear -17 1002 70 10000 8 320 14:36 17.01.2020
410 Snow -17 1002 70 10000 8 320 14:18 17.01.2020
411 Snow -17 1002 70 10000 8 320 14:18 17.01.2020
412 Snow -15 1000 65 10000 8 320 13:38 17.01.2020
413 Snow -15 1000 65 10000 8 320 13:19 17.01.2020
414 Snow -14 999 65 10000 10 320 12:45 17.01.2020
415 Snow -13 998 71 9000 9 330 12:22 17.01.2020
416 Snow -11 995 78 2600 8 330 11:40 17.01.2020
417 Snow -11 995 78 2600 8 330 11:19 17.01.2020
418 Clouds -11 994 85 1600 9 330 10:45 17.01.2020
419 Clouds -11 992 85 1100 9 330 10:23 17.01.2020
420 Clouds -10 991 78 2000 10 330 09:59 17.01.2020
421 Clouds -10 991 78 2000 10 330 09:59 17.01.2020
422 Clouds -10 990 85 1500 10 330 09:41 17.01.2020
423 Clouds -10 990 85 1500 10 330 09:20 17.01.2020
424 Clouds -10 990 85 1500 10 330 09:20 17.01.2020
425 Clouds -8 989 92 1800 10 330 08:46 17.01.2020
426 Snow -4 987 92 1800 8 310 08:25 17.01.2020
427 Snow -4 987 92 1800 8 310 08:25 17.01.2020
428 Snow -4 987 100 1400 6 290 07:56 17.01.2020
429 Snow -4 987 100 1400 6 290 07:56 17.01.2020
430 Snow -4 986 100 2400 7 290 07:34 17.01.2020
431 Clouds -5 985 100 10000 6 280 06:59 17.01.2020
432 Snow -5 985 100 7000 5 280 06:41 17.01.2020
433 Snow -6 985 100 10000 4 270 05:57 17.01.2020
434 Snow -5 984 96 0 2.51 222 03:39 17.01.2020
435 Snow -5 984 96 0 2.51 222 02:55 17.01.2020
436 Snow -6 986 95 0 4.27 212 01:48 17.01.2020
437 Snow -6 986 95 0 4.23 211 01:30 17.01.2020
438 Snow -6 986 95 0 4.23 211 00:55 17.01.2020
439 Snow -6 986 100 9000 4 190 00:28 17.01.2020
440 Snow -6 986 100 9000 4 190 23:46 16.01.2020
441 Snow -6 986 100 9000 4 190 23:26 16.01.2020
442 Clouds -6 986 100 10000 4 190 22:58 16.01.2020
443 Clouds -6 987 100 10000 4 190 22:40 16.01.2020
444 Clouds -6 987 100 10000 5 190 22:21 16.01.2020
445 Clouds -6 987 100 10000 5 190 21:55 16.01.2020
446 Snow -6 987 100 7000 4 190 21:37 16.01.2020
447 Snow -6 987 100 7000 4 190 21:18 16.01.2020
448 Snow -6 988 100 3200 5 190 20:56 16.01.2020
449 Snow -6 988 100 3000 5 190 20:36 16.01.2020
450 Snow -6 988 100 3000 5 190 20:18 16.01.2020
451 Snow -6 988 100 3500 5 190 20:18 16.01.2020
452 Snow -6 989 92 5000 5 190 19:41 16.01.2020
453 Snow -6 989 92 5000 5 190 19:23 16.01.2020
454 Snow -6 989 100 2200 6 190 18:58 16.01.2020
455 Snow -7 990 100 3300 5 190 18:39 16.01.2020
456 Snow -7 990 100 3300 5 190 18:21 16.01.2020
457 Snow -7 990 100 6000 5 190 17:59 16.01.2020
458 Snow -7 991 92 4400 5 190 17:41 16.01.2020
459 Snow -7 991 92 4400 5 190 17:41 16.01.2020
460 Snow -7 991 92 4400 5 190 17:21 16.01.2020
461 Snow -7 991 100 2200 5 190 16:56 16.01.2020
462 Snow -7 992 92 2800 6 190 16:36 16.01.2020
463 Snow -7 992 92 1900 5 190 16:18 16.01.2020
464 Snow -8 993 100 2500 5 190 15:42 16.01.2020
465 Snow -8 993 100 2500 5 190 15:21 16.01.2020
466 Snow -8 994 100 3500 5 190 14:55 16.01.2020
467 Snow -8 994 100 1600 6 190 14:37 16.01.2020
468 Snow -8 994 100 1600 6 190 14:18 16.01.2020
469 Snow -9 995 100 1600 5 190 13:43 16.01.2020
470 Snow -9 995 100 2500 5 190 13:24 16.01.2020
471 Snow -10 996 100 5000 5 190 12:45 16.01.2020
472 Snow -10 996 100 5000 5 190 12:27 16.01.2020
473 Snow -10 997 92 2300 6 190 11:55 16.01.2020
474 Snow -10 997 92 5000 7 190 11:37 16.01.2020
475 Snow -10 997 92 5000 7 190 11:19 16.01.2020
476 Snow -10 998 85 7000 6 190 10:39 16.01.2020
477 Snow -10 998 85 7000 6 190 10:20 16.01.2020
478 Snow -11 999 92 8000 7 190 09:57 16.01.2020
479 Snow -11 1000 92 8000 6 190 09:38 16.01.2020
480 Snow -11 1000 92 8000 6 190 09:19 16.01.2020
481 Snow -11 1000 92 4500 5 190 08:51 16.01.2020
482 Snow -12 1001 92 7000 5 180 08:30 16.01.2020
483 Snow -12 1001 92 6000 6 180 07:58 16.01.2020
484 Snow -13 1002 100 3500 6 180 07:38 16.01.2020
485 Snow -13 1002 100 3500 6 180 07:19 16.01.2020
486 Snow -14 1003 92 9000 6 180 06:42 16.01.2020
487 Snow -14 1004 92 3500 5 190 05:59 16.01.2020
488 Clouds -14 1004 92 10000 6 180 05:40 16.01.2020
489 Clouds -14 1006 92 10000 4 180 04:37 16.01.2020
490 Clouds -14 1006 92 10000 4 180 04:37 16.01.2020
491 Clouds -14 1006 92 10000 4 180 04:37 16.01.2020
492 Clouds -15 1007 92 10000 5 180 03:28 16.01.2020
493 Clouds -15 1007 92 10000 5 180 02:42 16.01.2020
494 Clouds -18 1010 91 10000 3 190 00:53 16.01.2020
495 Clouds -18 1010 84 10000 3 190 00:24 16.01.2020
496 Clouds -19 1010 91 10000 3 190 23:50 15.01.2020
497 Clouds -18 1010 84 10000 3 190 23:50 15.01.2020
498 Clouds -19 1010 91 10000 3 190 23:23 15.01.2020
499 Clouds -19 1010 84 10000 3 190 22:58 15.01.2020
500 Clouds -21 1011 83 10000 2 190 22:40 15.01.2020
501 Clouds -21 1011 83 10000 2 190 22:19 15.01.2020
502 Clear -22 1011 76 10000 2 200 21:58 15.01.2020
503 Clear -22 1011 83 10000 2 230 21:40 15.01.2020
504 Clear -22 1011 83 10000 2 230 21:21 15.01.2020
505 Clouds -23 1011 83 10000 2 210 20:58 15.01.2020
506 Clouds -23 1011 83 10000 2 210 20:58 15.01.2020
507 Clouds -24 1011 83 10000 2 220 20:40 15.01.2020
508 Clouds -24 1011 83 10000 2 220 20:21 15.01.2020
509 Clear -24 1012 83 10000 2 230 19:55 15.01.2020
510 Clear -24 1012 83 10000 2 220 19:37 15.01.2020
511 Clear -24 1012 83 10000 2 220 19:19 15.01.2020
512 Clear -25 1012 75 10000 1 210 18:57 15.01.2020
513 Clear -24 1012 83 10000 3 250 18:38 15.01.2020
514 Clear -25 1012 83 10000 3 250 18:20 15.01.2020
515 Clear -25 1012 83 10000 3 250 17:58 15.01.2020
516 Clear -24 1012 76 10000 1 0 17:39 15.01.2020
517 Clear -24 1012 76 10000 1 0 17:20 15.01.2020
518 Clear -25 1013 83 10000 2 280 16:42 15.01.2020
519 Clear -25 1013 83 10000 2 280 16:23 15.01.2020
520 Clear -25 1012 83 10000 3 260 15:59 15.01.2020
521 Clear -25 1013 83 10000 3 280 15:41 15.01.2020
522 Clear -25 1013 83 10000 3 280 15:20 15.01.2020
523 Clear -25 1012 83 10000 3 280 14:44 15.01.2020
524 Clouds -23 1012 83 10000 1 0 14:21 15.01.2020
525 Clouds -24 1012 83 10000 2 280 13:56 15.01.2020
526 Clouds -24 1012 83 10000 2 280 13:38 15.01.2020
527 Clouds -24 1012 83 10000 2 280 13:20 15.01.2020
528 Clouds -23 1011 83 10000 4 280 12:55 15.01.2020
529 Clouds -22 1011 83 10000 3 290 12:36 15.01.2020
530 Clouds -22 1011 83 10000 3 290 12:18 15.01.2020
531 Clouds -20 1010 83 10000 3 290 11:38 15.01.2020
532 Clouds -20 1010 83 10000 3 290 11:20 15.01.2020
533 Clouds -19 1010 84 10000 4 290 10:47 15.01.2020
534 Clouds -19 1010 84 10000 2 290 10:28 15.01.2020
535 Clouds -18 1009 84 10000 3 290 09:58 15.01.2020
536 Clouds -18 1009 77 10000 2 280 09:39 15.01.2020
537 Clouds -18 1009 77 10000 2 280 09:19 15.01.2020
538 Clouds -18 1009 84 10000 3 290 08:44 15.01.2020
539 Clouds -17 1009 84 10000 2 300 08:24 15.01.2020
540 Clouds -17 1008 84 10000 3 280 07:54 15.01.2020
541 Clouds -16 1008 84 10000 3 300 07:33 15.01.2020
542 Clouds -16 1008 84 10000 2 320 06:52 15.01.2020
543 Clouds -15 1008 84 10000 2 330 06:28 15.01.2020
544 Clouds -14 1007 92 10000 1 0 04:56 15.01.2020
545 Snow -13 1006 92 10000 3 350 02:48 15.01.2020
546 Clouds -12 1005 92 10000 3 340 01:48 15.01.2020
547 Clouds -12 1005 92 10000 3 350 01:20 15.01.2020
548 Clouds -10 1004 92 10000 3 340 00:37 15.01.2020
549 Clouds -10 1004 92 10000 3 340 00:19 15.01.2020
550 Snow -10 1004 100 10000 2 360 23:46 14.01.2020
551 Snow -10 1004 100 9000 3 350 23:24 14.01.2020
552 Clouds -9 1003 92 10000 3 350 22:56 14.01.2020
553 Clouds -9 1003 100 10000 3 340 22:38 14.01.2020
554 Clouds -9 1003 100 10000 3 340 22:18 14.01.2020
555 Clouds -9 1003 100 10000 3 350 21:55 14.01.2020
556 Clouds -8 1002 100 10000 3 350 21:37 14.01.2020
557 Clouds -7 1002 100 9000 5 340 21:19 14.01.2020
558 Snow -4 1001 100 1900 2 230 20:42 14.01.2020
559 Snow -4 1001 100 1900 2 230 20:42 14.01.2020
560 Snow -4 1001 100 1900 2 230 20:22 14.01.2020
561 Snow -4 1001 100 1900 2 230 19:57 14.01.2020
562 Snow -4 1001 100 3200 2 230 19:38 14.01.2020
563 Snow -4 1001 100 3200 2 230 19:20 14.01.2020
564 Snow -4 1001 100 3200 2 230 19:20 14.01.2020
565 Snow -4 1001 100 4500 2 240 18:58 14.01.2020
566 Mist -4 1000 100 3100 2 240 18:39 14.01.2020
567 Mist -4 1000 100 3100 2 240 18:19 14.01.2020
568 Mist -4 1000 100 3100 2 240 18:19 14.01.2020
569 Mist -4 1000 100 3300 2 240 17:39 14.01.2020
570 Mist -4 1000 100 3300 2 240 17:19 14.01.2020
571 Mist -4 1000 100 2300 3 240 16:59 14.01.2020
572 Mist -4 999 100 2700 3 230 16:41 14.01.2020
573 Mist -4 999 100 2700 3 230 16:21 14.01.2020
574 Mist -4 999 100 3100 3 230 15:55 14.01.2020
575 Mist -4 999 100 4700 3 220 15:37 14.01.2020
576 Mist -4 999 100 4700 3 220 15:18 14.01.2020
577 Clouds -4 999 100 10000 3 220 14:43 14.01.2020
578 Clouds -4 998 100 10000 3 220 14:20 14.01.2020
579 Clouds -4 998 100 10000 3 220 13:43 14.01.2020
580 Snow -4 997 100 10000 3 220 13:20 14.01.2020
581 Snow -5 997 100 10000 3 210 12:59 14.01.2020
582 Snow -5 997 100 10000 3 210 12:40 14.01.2020
583 Snow -5 997 100 10000 3 210 12:20 14.01.2020
584 Snow -5 996 100 8000 3 210 11:42 14.01.2020
585 Snow -5 996 100 8000 3 210 11:23 14.01.2020
586 Snow -5 995 100 9000 4 210 10:58 14.01.2020
587 Snow -5 995 100 10000 4 210 10:39 14.01.2020
588 Snow -5 995 100 10000 4 210 10:19 14.01.2020
589 Snow -5 995 100 10000 4 210 10:19 14.01.2020
590 Snow -5 995 100 10000 4 210 09:56 14.01.2020
591 Snow -5 995 100 9000 4 210 09:38 14.01.2020
592 Snow -5 995 100 9000 4 210 09:20 14.01.2020
593 Snow -6 994 100 8000 4 200 08:42 14.01.2020
594 Snow -6 994 100 8000 4 200 08:23 14.01.2020
595 Snow -6 994 100 10000 4 200 07:53 14.01.2020
596 Snow -6 994 100 9000 5 200 07:31 14.01.2020
597 Snow -6 993 100 10000 5 200 06:50 14.01.2020
598 Snow -6 993 100 8000 5 200 06:23 14.01.2020
599 Snow -6 993 100 9000 4 200 05:21 14.01.2020
600 Snow -6 992 100 10000 4 200 03:51 14.01.2020
601 Snow -6 991 92 9000 5 200 02:42 14.01.2020
602 Snow -6 991 100 10000 5 200 01:35 14.01.2020
603 Snow -6 991 100 10000 5 200 00:49 14.01.2020
604 Snow -6 991 100 10000 5 200 00:28 14.01.2020
605 Snow -6 991 100 9000 5 200 23:48 13.01.2020
606 Snow -6 990 100 4100 5 200 23:20 13.01.2020
607 Snow -6 990 100 2100 5 200 23:00 13.01.2020
608 Snow -6 990 100 3800 6 200 22:40 13.01.2020
609 Snow -6 990 100 3800 6 200 22:20 13.01.2020
610 Snow -6 990 100 3100 6 200 21:56 13.01.2020
611 Snow -6 990 100 5000 6 200 21:37 13.01.2020
612 Snow -6 990 100 5000 6 200 21:18 13.01.2020
613 Snow -6 990 100 4400 5 200 20:57 13.01.2020
614 Snow -6 990 100 4400 5 200 20:57 13.01.2020
615 Snow -6 990 100 3100 6 200 20:38 13.01.2020
616 Snow -6 990 100 3100 6 200 20:20 13.01.2020
617 Snow -6 990 100 2200 5 200 19:56 13.01.2020
618 Snow -6 990 100 1900 5 200 19:38 13.01.2020
619 Snow -6 990 92 7000 5 200 19:18 13.01.2020
620 Snow -6 990 92 7000 5 200 18:56 13.01.2020
621 Snow -6 990 92 7000 5 200 18:56 13.01.2020
622 Snow -6 990 92 2600 6 200 18:37 13.01.2020
623 Snow -6 990 85 8000 6 200 18:18 13.01.2020
624 Snow -7 991 92 9000 6 190 17:40 13.01.2020
625 Snow -7 991 92 9000 6 190 17:40 13.01.2020
626 Snow -7 991 92 9000 6 190 17:22 13.01.2020
627 Snow -7 991 92 9000 6 190 16:56 13.01.2020
628 Snow -9 993 92 0 7.23 202 16:37 13.01.2020
629 Snow -9 993 92 0 7.23 202 16:19 13.01.2020
630 Snow -9 993 92 0 7.23 202 15:43 13.01.2020
631 Snow -9 993 92 0 7.23 202 15:23 13.01.2020
632 Snow -9 993 92 0 7.23 202 14:57 13.01.2020
633 Snow -9 993 92 0 7.23 202 14:37 13.01.2020
634 Snow -9 994 93 0 7.97 194 14:18 13.01.2020
635 Snow -9 994 93 0 7.97 194 13:41 13.01.2020
636 Snow -9 995 93 0 7.87 192 13:23 13.01.2020
637 Snow -7 993 85 2200 6 190 12:58 13.01.2020
638 Snow -7 993 85 2200 6 190 12:40 13.01.2020
639 Snow -7 993 85 2200 6 190 12:22 13.01.2020
640 Snow -7 993 85 2200 6 190 11:56 13.01.2020
641 Snow -7 993 85 7000 6 190 11:37 13.01.2020
642 Snow -7 993 85 7000 6 190 11:18 13.01.2020
643 Snow -7 993 85 8000 7 190 10:55 13.01.2020
644 Snow -8 993 92 4400 7 180 10:36 13.01.2020
645 Snow -8 993 92 4400 7 180 10:18 13.01.2020
646 Clouds -8 994 92 2100 7 180 09:42 13.01.2020
647 Clouds -8 994 92 2100 7 180 09:23 13.01.2020
648 Clouds -8 995 92 10000 7 170 08:44 13.01.2020
649 Clouds -8 995 92 10000 7 170 08:22 13.01.2020
650 Snow -8 996 92 8000 7 180 07:59 13.01.2020
651 Snow -8 996 92 8000 7 180 07:59 13.01.2020
652 Snow -8 997 92 9000 7 180 07:40 13.01.2020
653 Snow -8 997 92 9000 7 180 07:18 13.01.2020
654 Snow -8 998 92 10000 6 190 06:37 13.01.2020
655 Snow -8 998 92 10000 6 190 06:37 13.01.2020
656 Snow -8 999 92 10000 5 180 05:36 13.01.2020
657 Snow -9 999 100 9000 5 180 04:26 13.01.2020
658 Snow -9 1000 100 10000 3 190 03:35 13.01.2020
659 Snow -10 1000 100 10000 4 200 02:49 13.01.2020
660 Snow -10 1001 100 10000 4 200 02:30 13.01.2020
661 Snow -10 1001 100 10000 4 200 02:30 13.01.2020
662 Snow -10 1001 92 9000 5 200 01:33 13.01.2020
663 Snow -10 1002 92 9000 5 200 00:44 13.01.2020
664 Snow -10 1002 85 8000 5 200 00:25 13.01.2020
665 Snow -10 1002 92 9000 4 200 23:57 12.01.2020
666 Snow -10 1002 85 9000 4 200 23:38 12.01.2020
667 Snow -10 1002 85 9000 4 200 23:20 12.01.2020
668 Snow -10 1002 85 5000 4 220 22:43 12.01.2020
669 Snow -10 1002 85 5000 4 220 22:24 12.01.2020
670 Snow -10 1002 85 3900 5 230 21:59 12.01.2020
671 Snow -10 1002 85 3900 5 230 21:59 12.01.2020
672 Snow -10 1002 92 6000 4 210 21:40 12.01.2020
673 Snow -10 1002 92 6000 4 210 21:20 12.01.2020
674 Clouds -10 1002 92 10000 5 210 20:57 12.01.2020
675 Clouds -10 1003 92 10000 4 200 20:39 12.01.2020
676 Clouds -10 1003 92 10000 4 200 20:20 12.01.2020
677 Snow -10 1003 92 7000 4 200 19:56 12.01.2020
678 Snow -10 1003 92 9000 3 210 19:38 12.01.2020
679 Snow -10 1003 92 9000 3 210 19:19 12.01.2020
680 Snow -10 1003 92 10000 4 210 18:58 12.01.2020
681 Snow -10 1003 92 10000 4 210 18:58 12.01.2020
682 Snow -10 1003 92 10000 4 210 18:40 12.01.2020
683 Snow -10 1003 92 10000 4 210 18:21 12.01.2020
684 Snow -10 1003 92 10000 4 200 17:58 12.01.2020
685 Snow -10 1003 92 10000 4 200 17:38 12.01.2020
686 Snow -10 1003 92 10000 4 200 17:19 12.01.2020
687 Snow -10 1004 92 10000 4 210 16:55 12.01.2020
688 Snow -10 1004 92 10000 3 210 16:37 12.01.2020
689 Snow -10 1004 92 10000 3 210 16:19 12.01.2020
690 Snow -10 1004 92 9000 4 210 15:42 12.01.2020
691 Snow -10 1004 92 9000 4 210 15:24 12.01.2020
692 Snow -10 1004 92 8000 4 210 14:57 12.01.2020
693 Snow -10 1004 92 8000 4 210 14:38 12.01.2020
694 Snow -10 1004 92 8000 4 210 14:19 12.01.2020
695 Clouds -9 1004 85 10000 4 210 13:44 12.01.2020
696 Snow -9 1004 85 10000 4 210 13:25 12.01.2020
697 Snow -9 1004 85 10000 4 200 12:59 12.01.2020
698 Snow -9 1004 92 10000 3 200 12:39 12.01.2020
699 Snow -9 1004 92 10000 3 200 12:20 12.01.2020
700 Snow -9 1004 85 10000 4 200 11:58 12.01.2020
701 Snow -9 1004 85 10000 4 210 11:39 12.01.2020
702 Snow -9 1004 85 10000 4 210 11:20 12.01.2020
703 Snow -9 1004 92 10000 4 210 10:41 12.01.2020
704 Snow -9 1004 92 10000 4 210 10:22 12.01.2020
705 Snow -9 1004 92 10000 5 220 09:57 12.01.2020
706 Snow -9 1004 92 10000 4 210 09:38 12.01.2020
707 Snow -9 1004 92 10000 4 210 09:19 12.01.2020
708 Clouds -9 1004 92 7000 5 220 08:45 12.01.2020
709 Clouds -9 1004 92 7000 5 220 08:20 12.01.2020
710 Clouds -9 1004 92 10000 4 210 07:41 12.01.2020
711 Clouds -9 1004 92 10000 4 210 07:23 12.01.2020
712 Clouds -9 1004 92 9000 4 210 06:48 12.01.2020
713 Clouds -9 1004 92 10000 4 220 06:29 12.01.2020
714 Clouds -8 1005 85 9000 5 210 05:32 12.01.2020
715 Clouds -8 1005 92 10000 4 210 04:27 12.01.2020
716 Clouds -8 1005 92 10000 5 210 03:23 12.01.2020
717 Clouds -8 1005 92 10000 5 210 02:33 12.01.2020
718 Clouds -8 1005 92 10000 5 210 01:44 12.01.2020
719 Clouds -8 1005 92 10000 5 210 01:22 12.01.2020
720 Clouds -8 1005 92 10000 4 200 00:41 12.01.2020
721 Clouds -8 1005 92 10000 4 200 00:20 12.01.2020
722 Snow -8 1005 92 4300 5 200 23:42 11.01.2020
723 Snow -8 1005 92 4300 5 200 23:42 11.01.2020
724 Snow -8 1005 92 4300 5 200 23:19 11.01.2020
725 Snow -8 1005 92 3700 5 200 22:58 11.01.2020
726 Clouds -8 1005 92 10000 4 200 22:39 11.01.2020
727 Clouds -8 1005 92 10000 4 200 22:20 11.01.2020
728 Clouds -8 1005 92 10000 4 200 21:58 11.01.2020
729 Snow -8 1005 92 9000 5 200 21:39 11.01.2020
730 Snow -8 1005 92 9000 5 200 21:18 11.01.2020
731 Snow -8 1005 92 5000 4 190 20:40 11.01.2020
732 Snow -8 1005 92 5000 4 190 20:22 11.01.2020
733 Snow -8 1005 92 5000 4 190 19:58 11.01.2020
734 Snow -7 1005 85 3400 5 200 19:39 11.01.2020
735 Snow -7 1005 85 3400 5 200 19:21 11.01.2020
736 Clouds -7 1006 85 10000 5 200 18:58 11.01.2020
737 Clouds -7 1006 85 10000 5 200 18:38 11.01.2020
738 Clouds -7 1006 85 10000 5 200 18:19 11.01.2020
739 Clouds -7 1006 85 10000 6 200 17:57 11.01.2020
740 Clouds -7 1006 92 10000 6 200 17:39 11.01.2020
741 Clouds -7 1006 92 10000 6 200 17:19 11.01.2020
742 Clouds -7 1006 92 10000 5 200 16:45 11.01.2020
743 Clouds -7 1006 92 10000 6 200 16:27 11.01.2020
744 Clouds -6 1006 85 10000 6 200 15:58 11.01.2020
745 Clouds -6 1006 85 10000 5 200 15:40 11.01.2020
746 Clouds -6 1006 85 10000 5 200 15:22 11.01.2020
747 Clouds -6 1006 85 10000 6 210 14:56 11.01.2020
748 Snow -6 1006 85 10000 5 200 14:38 11.01.2020
749 Snow -6 1006 85 10000 5 200 14:19 11.01.2020
750 Snow -6 1007 85 10000 5 200 13:39 11.01.2020
751 Snow -6 1007 85 10000 5 200 13:20 11.01.2020
752 Snow -6 1007 85 10000 5 200 13:20 11.01.2020
753 Snow -7 1007 92 10000 5 200 12:57 11.01.2020
754 Snow -7 1007 92 7000 5 200 12:38 11.01.2020
755 Snow -7 1007 92 7000 5 200 12:20 11.01.2020
756 Snow -7 1007 92 9000 5 200 11:46 11.01.2020
757 Snow -7 1007 92 10000 5 200 11:25 11.01.2020
758 Snow -7 1007 92 9000 5 190 10:50 11.01.2020
759 Snow -7 1007 92 4800 5 200 10:30 11.01.2020
760 Snow -7 1007 92 5000 5 200 09:55 11.01.2020
761 Snow -8 1007 92 4000 5 190 09:37 11.01.2020
762 Snow -8 1007 92 4000 5 190 09:18 11.01.2020
763 Snow -8 1007 92 2700 5 200 08:41 11.01.2020
764 Snow -8 1007 92 2700 5 200 08:21 11.01.2020
765 Snow -8 1007 92 3500 5 190 07:43 11.01.2020
766 Snow -8 1008 92 3900 5 190 07:25 11.01.2020
767 Snow -8 1008 92 6000 5 190 06:45 11.01.2020
768 Snow -8 1008 92 8000 5 190 05:33 11.01.2020
769 Snow -8 1008 92 4700 5 190 04:45 11.01.2020
770 Snow -8 1008 92 4700 5 190 04:27 11.01.2020
771 Clouds -8 1009 85 10000 5 190 02:48 11.01.2020
772 Snow -8 1009 92 8000 5 190 01:51 11.01.2020
773 Snow -8 1009 92 7000 6 190 01:32 11.01.2020
774 Snow -8 1009 92 7000 5 190 00:58 11.01.2020
775 Snow -8 1009 92 9000 5 190 00:32 11.01.2020
776 Snow -8 1009 85 7000 5 190 23:59 10.01.2020
777 Snow -8 1010 85 5000 5 190 23:39 10.01.2020
778 Snow -8 1010 85 5000 5 190 23:39 10.01.2020
779 Snow -8 1010 85 5000 5 190 23:21 10.01.2020
780 Snow -9 1010 92 4000 5 190 22:55 10.01.2020
781 Snow -9 1010 92 10000 5 190 22:37 10.01.2020
782 Snow -9 1010 92 10000 5 190 22:18 10.01.2020
783 Snow -9 1010 92 10000 5 190 21:54 10.01.2020
784 Snow -9 1010 92 10000 5 190 21:36 10.01.2020
785 Snow -9 1010 92 10000 5 190 21:18 10.01.2020
786 Snow -9 1010 85 7000 5 190 20:42 10.01.2020
787 Snow -9 1010 85 7000 5 190 20:24 10.01.2020
788 Snow -9 1010 85 6000 5 190 19:54 10.01.2020
789 Snow -10 1011 92 4300 5 190 19:36 10.01.2020
790 Snow -10 1011 92 4300 5 190 19:18 10.01.2020
791 Snow -10 1011 92 7000 5 190 18:41 10.01.2020
792 Snow -10 1011 92 7000 5 190 18:19 10.01.2020
793 Snow -10 1011 85 3700 5 200 17:57 10.01.2020
794 Snow -10 1011 85 6000 5 200 17:38 10.01.2020
795 Snow -10 1011 85 6000 5 200 17:20 10.01.2020
796 Snow -10 1011 85 9000 6 190 16:55 10.01.2020
797 Snow -10 1011 85 7000 6 200 16:37 10.01.2020
798 Snow -10 1011 85 7000 6 200 16:19 10.01.2020
799 Snow -10 1011 85 10000 6 200 15:55 10.01.2020
800 Snow -10 1011 85 7000 6 200 15:36 10.01.2020
801 Snow -10 1011 85 7000 6 200 15:18 10.01.2020
802 Snow -11 1011 92 9000 5 190 14:42 10.01.2020
803 Snow -11 1011 92 9000 5 190 14:20 10.01.2020
804 Snow -11 1011 92 10000 5 190 13:59 10.01.2020
805 Snow -11 1011 92 10000 5 200 13:41 10.01.2020
806 Snow -11 1011 92 10000 5 200 13:23 10.01.2020
807 Snow -11 1012 92 8000 6 200 12:58 10.01.2020
808 Snow -10 1012 85 7000 5 200 12:38 10.01.2020
809 Snow -10 1012 85 7000 5 200 12:19 10.01.2020
810 Snow -10 1012 85 7000 5 190 11:54 10.01.2020
811 Snow -10 1011 85 8000 5 190 11:36 10.01.2020
812 Snow -10 1011 85 8000 5 190 11:18 10.01.2020
813 Snow -10 1012 85 7000 5 190 10:42 10.01.2020
814 Snow -10 1012 85 7000 5 190 10:24 10.01.2020
815 Snow -10 1012 85 9000 6 200 09:56 10.01.2020
816 Snow -10 1012 85 8000 7 200 09:37 10.01.2020
817 Snow -10 1012 85 8000 7 200 09:19 10.01.2020
818 Snow -10 1011 85 4200 7 200 08:41 10.01.2020
819 Snow -10 1011 85 4200 7 200 08:23 10.01.2020
820 Snow -10 1012 85 5000 6 200 07:45 10.01.2020
821 Snow -10 1011 85 9000 6 200 07:26 10.01.2020
822 Clouds -10 1011 85 10000 6 190 06:46 10.01.2020
823 Clouds -11 1011 85 10000 6 200 06:26 10.01.2020
824 Snow -11 1011 92 8000 7 200 05:48 10.01.2020
825 Clouds -11 1012 92 10000 7 200 03:37 10.01.2020
826 Clouds -11 1012 92 10000 7 200 03:18 10.01.2020
827 Clouds -11 1012 85 10000 8 200 02:47 10.01.2020
828 Snow -11 1012 92 4400 8 200 01:44 10.01.2020
829 Snow -11 1012 92 3100 8 200 01:26 10.01.2020
830 Snow -11 1012 92 6000 8 200 00:40 10.01.2020
831 Clouds -11 1012 92 10000 8 200 23:58 09.01.2020
832 Clouds -11 1012 92 10000 7 200 23:39 09.01.2020
833 Clouds -11 1012 92 10000 7 200 23:20 09.01.2020
834 Snow -11 1013 85 7000 7 200 22:57 09.01.2020
835 Snow -11 1013 85 6000 7 200 22:39 09.01.2020
836 Snow -11 1013 85 6000 7 200 22:19 09.01.2020
837 Snow -11 1013 85 6000 7 200 21:57 09.01.2020
838 Snow -11 1013 85 5000 7 200 21:37 09.01.2020
839 Snow -11 1013 85 5000 7 200 21:37 09.01.2020
840 Snow -11 1013 85 5000 7 200 21:19 09.01.2020
841 Snow -11 1013 85 6000 7 200 20:57 09.01.2020
842 Snow -11 1014 85 5000 8 200 20:39 09.01.2020
843 Snow -11 1014 85 5000 8 200 20:19 09.01.2020
844 Snow -11 1014 85 6000 7 200 19:56 09.01.2020
845 Snow -12 1014 85 6000 5 200 19:37 09.01.2020
846 Snow -12 1014 85 6000 5 200 19:19 09.01.2020
847 Snow -13 1014 92 5000 6 190 18:55 09.01.2020
848 Snow -13 1015 92 5000 6 190 18:36 09.01.2020
849 Snow -13 1015 92 5000 6 190 18:18 09.01.2020
850 Clouds -13 1015 84 10000 5 190 17:41 09.01.2020
851 Clouds -13 1015 84 10000 6 190 17:18 09.01.2020
852 Clouds -13 1015 84 10000 6 180 16:49 09.01.2020
853 Clouds -13 1016 84 10000 6 190 16:24 09.01.2020
854 Clouds -14 1016 92 10000 6 180 15:59 09.01.2020
855 Clouds -14 1016 92 10000 6 180 15:40 09.01.2020
856 Clouds -14 1016 92 10000 6 180 15:19 09.01.2020
857 Clouds -14 1017 84 10000 5 180 14:42 09.01.2020
858 Clouds -14 1017 84 10000 5 180 14:22 09.01.2020
859 Clouds -14 1018 84 10000 5 190 13:57 09.01.2020
860 Clouds -15 1018 92 10000 5 190 13:39 09.01.2020
861 Clouds -15 1018 92 10000 5 190 13:20 09.01.2020
862 Clouds -15 1018 84 10000 4 190 12:58 09.01.2020
863 Clouds -15 1018 84 10000 4 190 12:39 09.01.2020
864 Clouds -15 1019 84 10000 4 180 12:19 09.01.2020
865 Clouds -16 1019 91 10000 4 190 11:56 09.01.2020
866 Clouds -16 1019 84 10000 5 180 11:37 09.01.2020
867 Clouds -16 1019 84 10000 5 180 11:19 09.01.2020
868 Clouds -16 1019 84 10000 4 190 10:43 09.01.2020
869 Clouds -16 1019 84 10000 4 190 10:22 09.01.2020
870 Clouds -17 1019 84 10000 4 190 09:55 09.01.2020
871 Clouds -17 1020 84 9000 4 190 09:37 09.01.2020
872 Clouds -17 1020 84 9000 4 190 09:18 09.01.2020
873 Clouds -17 1020 84 10000 4 180 08:54 09.01.2020
874 Clouds -17 1020 84 8000 4 180 08:36 09.01.2020
875 Clouds -17 1020 84 8000 4 180 08:18 09.01.2020
876 Clouds -16 1021 84 10000 4 200 07:41 09.01.2020
877 Clouds -16 1021 84 10000 4 200 07:23 09.01.2020
878 Clouds -15 1021 84 10000 5 210 06:38 09.01.2020
879 Clouds -15 1021 84 10000 5 210 06:18 09.01.2020
880 Clouds -14 1021 84 10000 5 200 05:43 09.01.2020
881 Clouds -14 1021 92 10000 4 210 04:42 09.01.2020
882 Clouds -14 1021 92 10000 4 210 03:30 09.01.2020
883 Clouds -14 1021 92 10000 4 200 02:48 09.01.2020
884 Clouds -14 1021 92 10000 3 200 02:23 09.01.2020
885 Clouds -14 1021 84 10000 4 210 01:35 09.01.2020
886 Clouds -15 1021 92 10000 3 210 00:40 09.01.2020
887 Clouds -15 1021 92 10000 3 210 00:20 09.01.2020
888 Clouds -15 1021 92 10000 4 210 23:41 08.01.2020
889 Clouds -15 1021 84 10000 3 210 23:23 08.01.2020
890 Clouds -15 1021 84 10000 3 200 22:58 08.01.2020
891 Snow -16 1021 91 10000 2 200 22:38 08.01.2020
892 Snow -16 1021 91 10000 2 200 22:20 08.01.2020
893 Snow -16 1022 91 10000 3 200 21:56 08.01.2020
894 Snow -16 1022 91 10000 3 200 21:56 08.01.2020
895 Snow -16 1022 84 10000 3 210 21:38 08.01.2020
896 Snow -16 1022 84 10000 3 210 21:18 08.01.2020
897 Snow -16 1022 84 10000 3 190 20:57 08.01.2020
898 Clouds -16 1022 84 10000 2 200 20:38 08.01.2020
899 Clouds -16 1022 84 10000 2 200 20:19 08.01.2020
900 Clouds -17 1022 91 10000 2 200 19:55 08.01.2020
901 Clouds -17 1022 91 10000 2 200 19:55 08.01.2020
902 Clouds -17 1022 84 10000 2 190 19:36 08.01.2020
903 Clouds -17 1022 84 10000 2 190 19:18 08.01.2020
904 Clouds -17 1023 84 10000 2 200 18:54 08.01.2020
905 Clouds -17 1023 84 10000 2 200 18:54 08.01.2020
906 Clouds -18 1023 84 10000 2 210 18:36 08.01.2020
907 Clouds -18 1023 84 10000 2 210 18:18 08.01.2020
908 Clouds -18 1023 84 10000 2 210 18:18 08.01.2020
909 Clouds -19 1023 91 10000 3 210 17:42 08.01.2020
910 Clouds -19 1023 84 10000 3 210 17:23 08.01.2020
911 Clouds -19 1024 84 10000 3 230 16:57 08.01.2020
912 Clouds -20 1024 91 10000 3 230 16:38 08.01.2020
913 Clouds -20 1024 91 10000 3 230 16:19 08.01.2020
914 Clouds -20 1024 91 10000 3 220 15:55 08.01.2020
915 Clouds -20 1024 91 10000 2 220 15:37 08.01.2020
916 Clouds -20 1024 91 10000 2 220 15:18 08.01.2020
917 Clouds -19 1024 84 10000 3 220 14:41 08.01.2020
918 Clouds -19 1024 84 10000 3 220 14:21 08.01.2020
919 Clouds -19 1024 84 10000 2 230 13:42 08.01.2020
920 Clouds -19 1024 84 10000 2 230 13:24 08.01.2020
921 Clouds -18 1024 84 10000 2 230 12:59 08.01.2020
922 Clouds -18 1024 84 10000 2 230 12:40 08.01.2020
923 Clouds -19 1024 91 10000 2 210 12:18 08.01.2020
924 Clouds -19 1023 84 10000 2 200 11:48 08.01.2020
925 Clouds -18 1023 84 10000 3 210 11:20 08.01.2020
926 Clouds -18 1023 84 10000 2 210 10:59 08.01.2020
927 Clouds -18 1023 84 10000 2 210 10:41 08.01.2020
928 Clouds -18 1024 91 10000 2 220 10:21 08.01.2020
929 Clouds -17 1024 84 10000 2 220 09:57 08.01.2020
930 Clouds -17 1024 84 10000 2 210 09:36 08.01.2020
931 Clouds -17 1024 84 10000 2 210 09:18 08.01.2020
932 Clouds -17 1024 84 10000 2 210 08:41 08.01.2020
933 Clouds -17 1024 84 10000 2 230 08:22 08.01.2020
934 Clouds -17 1024 84 10000 3 210 07:59 08.01.2020
935 Clouds -17 1024 84 10000 3 210 07:40 08.01.2020
936 Clouds -17 1024 84 10000 3 220 07:19 08.01.2020
937 Clouds -18 1024 91 10000 3 240 06:42 08.01.2020
938 Clouds -18 1024 91 10000 3 220 05:56 08.01.2020
939 Clouds -18 1024 91 10000 3 230 05:27 08.01.2020
940 Clouds -17 1024 84 10000 4 220 04:37 08.01.2020
941 Clouds -18 1024 91 10000 2 240 02:48 08.01.2020
942 Clouds -18 1024 91 10000 2 240 02:30 08.01.2020
943 Clouds -17 1024 91 10000 2 240 01:58 08.01.2020
944 Clouds -17 1024 91 10000 2 240 01:32 08.01.2020
945 Clouds -17 1024 91 10000 3 230 00:51 08.01.2020
946 Clouds -18 1024 91 10000 2 210 00:23 08.01.2020
947 Clouds -18 1024 91 10000 1 230 23:46 07.01.2020
948 Clouds -17 1024 91 10000 2 240 23:21 07.01.2020
949 Clouds -17 1024 91 10000 2 240 23:21 07.01.2020
950 Clouds -17 1024 91 10000 2 240 22:57 07.01.2020
951 Clouds -17 1024 91 10000 3 240 22:38 07.01.2020
952 Clouds -17 1024 91 10000 3 240 22:19 07.01.2020
953 Clouds -17 1024 91 10000 3 240 21:42 07.01.2020
954 Clouds -17 1024 91 10000 3 240 21:22 07.01.2020
955 Clouds -17 1024 91 10000 3 230 20:58 07.01.2020
956 Clouds -16 1024 84 10000 3 240 20:40 07.01.2020
957 Clear -16 1024 84 10000 3 240 20:22 07.01.2020
958 Clear -16 1024 84 10000 2 240 19:57 07.01.2020
959 Clear -16 1024 91 10000 3 240 19:38 07.01.2020
960 Clear -16 1024 91 10000 3 240 19:19 07.01.2020
961 Clear -15 1024 84 10000 4 250 18:56 07.01.2020
962 Clear -15 1024 84 10000 4 240 18:38 07.01.2020
963 Clear -15 1024 84 10000 4 240 18:18 07.01.2020
964 Clear -15 1024 84 10000 4 240 18:18 07.01.2020
965 Clear -15 1024 84 10000 4 240 17:55 07.01.2020
966 Clear -15 1024 84 10000 3 240 17:36 07.01.2020
967 Clear -15 1024 84 10000 3 240 17:18 07.01.2020
968 Clear -15 1024 92 10000 4 250 16:55 07.01.2020
969 Clear -15 1024 92 10000 3 240 16:36 07.01.2020
970 Clear -15 1024 92 10000 3 240 16:18 07.01.2020
971 Clear -15 1024 92 10000 3 240 15:42 07.01.2020
972 Clear -15 1024 92 10000 4 240 15:24 07.01.2020
973 Clear -15 1024 92 10000 3 240 14:58 07.01.2020
974 Clear -15 1024 92 10000 3 230 14:38 07.01.2020
975 Clear -15 1024 92 10000 3 230 14:19 07.01.2020
976 Clear -15 1024 92 10000 3 240 13:46 07.01.2020
977 Clear -15 1024 92 10000 3 230 13:20 07.01.2020
978 Clear -15 1023 92 10000 3 230 12:56 07.01.2020
979 -273 0 0 0 0 0 12:37 07.01.2020
980 Clear -14 1024 92 10000 3 250 12:18 07.01.2020
981 Clear -13 1023 92 10000 3 240 11:41 07.01.2020
982 Clear -13 1023 92 10000 3 240 11:22 07.01.2020
983 Clouds -12 1023 92 10000 5 240 10:56 07.01.2020
984 Clouds -11 1022 92 10000 4 240 10:37 07.01.2020
985 Clouds -11 1022 92 10000 4 240 10:19 07.01.2020
986 Clouds -10 1022 92 10000 5 290 09:39 07.01.2020
987 Clouds -10 1022 92 10000 5 290 09:20 07.01.2020
988 Clouds -10 1022 92 10000 6 280 08:57 07.01.2020
989 Clouds -11 1021 92 10000 7 280 08:37 07.01.2020
990 Clouds -11 1021 92 10000 7 280 08:18 07.01.2020
991 Clouds -11 1021 92 10000 5 280 07:42 07.01.2020
992 Clouds -10 1020 92 10000 8 280 06:57 07.01.2020
993 Clouds -9 1020 92 10000 7 290 06:35 07.01.2020
994 Snow -9 1020 92 10000 6 290 05:59 07.01.2020
995 Snow -9 1020 92 10000 6 290 05:40 07.01.2020
996 Clouds -8 1017 92 10000 8 280 03:45 07.01.2020
997 Clouds -6 1016 92 10000 8 290 02:47 07.01.2020
998 Clouds -6 1015 100 10000 7 280 01:59 07.01.2020
999 Snow -5 1014 92 9000 9 280 01:36 07.01.2020
1000 Snow -5 1014 100 9000 7 270 00:55 07.01.2020
1001 Snow -5 1013 100 8000 7 270 00:20 07.01.2020
1002 Snow -4 1013 100 5000 7 270 23:56 06.01.2020
1003 Snow -4 1012 100 2100 6 250 23:37 06.01.2020
1004 Snow -4 1012 100 2100 6 250 23:19 06.01.2020
1005 Snow -3 1012 92 8000 6 250 22:43 06.01.2020
1006 Snow -3 1012 100 9000 5 230 22:24 06.01.2020
1007 Snow -3 1012 100 9000 5 230 22:24 06.01.2020
1008 Snow -3 1012 100 5000 4 230 21:58 06.01.2020
1009 Snow -3 1011 100 6000 4 230 21:39 06.01.2020
1010 Snow -3 1011 100 6000 4 230 21:20 06.01.2020
1011 Snow -3 1011 100 6000 4 230 21:20 06.01.2020
1012 Snow -3 1011 100 6000 4 230 21:20 06.01.2020
1013 Snow -3 1011 100 6000 4 230 21:20 06.01.2020
1014 Snow -3 1011 100 3700 4 220 20:57 06.01.2020
1015 Clouds -3 1011 100 10000 4 210 20:38 06.01.2020
1016 Clouds -3 1011 100 10000 4 210 20:20 06.01.2020
1017 Clouds -3 1011 100 10000 4 210 19:57 06.01.2020
1018 Clouds -3 1011 100 10000 4 210 19:38 06.01.2020
1019 Clouds -3 1011 100 10000 4 230 19:20 06.01.2020
1020 Clouds -3 1012 100 10000 4 230 18:48 06.01.2020
1021 Clouds -3 1012 100 10000 4 230 18:23 06.01.2020
1022 Clouds -3 1012 100 10000 5 230 17:59 06.01.2020
1023 Clouds -3 1011 100 10000 4 230 17:38 06.01.2020
1024 Clouds -3 1011 100 10000 4 230 17:18 06.01.2020
1025 Clouds -3 1011 100 10000 5 220 16:44 06.01.2020
1026 Clouds -3 1012 100 10000 5 230 16:25 06.01.2020
1027 Clouds -3 1012 100 10000 5 230 16:25 06.01.2020
1028 Clouds -3 1011 100 10000 5 220 15:59 06.01.2020
1029 Clouds -3 1012 100 10000 5 230 15:39 06.01.2020
1030 Clouds -3 1012 100 10000 5 230 15:19 06.01.2020
1031 Clouds -3 1012 100 10000 5 230 14:58 06.01.2020
1032 Clouds -3 1012 100 10000 5 230 14:39 06.01.2020
1033 Clouds -3 1011 100 10000 4 220 14:19 06.01.2020
1034 Clouds -3 1011 100 10000 5 230 13:55 06.01.2020
1035 Clouds -3 1011 100 10000 5 230 13:37 06.01.2020
1036 Clouds -3 1011 100 10000 5 230 13:19 06.01.2020
1037 Clouds -3 1011 100 10000 5 220 12:42 06.01.2020
1038 Clouds -3 1011 100 10000 4 220 12:20 06.01.2020
1039 Clouds -3 1011 100 10000 4 230 11:57 06.01.2020
1040 Snow -3 1011 100 9000 4 230 11:38 06.01.2020
1041 Snow -3 1011 100 9000 4 230 11:20 06.01.2020
1042 Snow -3 1010 100 8000 5 230 10:45 06.01.2020
1043 Snow -3 1010 100 10000 5 230 10:27 06.01.2020
1044 Snow -3 1010 100 10000 5 220 09:57 06.01.2020
1045 Snow -3 1010 100 9000 6 210 09:37 06.01.2020
1046 Snow -3 1010 100 9000 6 210 09:19 06.01.2020
1047 Snow -3 1010 100 9000 5 220 08:43 06.01.2020
1048 Snow -3 1010 100 8000 5 220 08:24 06.01.2020
1049 Snow -3 1009 100 10000 5 230 07:48 06.01.2020
1050 Snow -3 1009 100 10000 5 230 07:23 06.01.2020
1051 Snow -3 1009 100 8000 6 230 06:45 06.01.2020
1052 Clouds -3 1009 100 10000 6 230 06:18 06.01.2020
1053 Clouds -3 1009 100 10000 6 230 05:40 06.01.2020
1054 Snow -3 1008 100 10000 6 220 04:30 06.01.2020
1055 Clouds -3 1008 100 10000 5 220 03:58 06.01.2020
1056 Clouds -3 1008 100 10000 6 220 02:40 06.01.2020
1057 Clouds -3 1008 100 10000 6 230 02:21 06.01.2020
1058 Clouds -3 1008 100 10000 6 220 01:41 06.01.2020
1059 Clouds -3 1008 100 10000 6 220 01:20 06.01.2020
1060 Clouds -3 1008 100 10000 6 230 00:40 06.01.2020
1061 Clouds -3 1008 100 10000 6 230 00:19 06.01.2020
1062 Clouds -3 1008 100 10000 6 230 00:19 06.01.2020
1063 Clouds -3 1007 100 10000 6 230 23:41 05.01.2020
1064 Clouds -3 1007 100 10000 6 220 23:21 05.01.2020
1065 Clouds -3 1007 100 10000 6 230 22:55 05.01.2020
1066 Clouds -3 1007 100 10000 5 230 22:37 05.01.2020
1067 Clouds -3 1007 100 10000 5 230 22:18 05.01.2020
1068 Clouds -3 1007 100 10000 5 230 21:41 05.01.2020
1069 Clouds -3 1007 100 10000 6 220 21:21 05.01.2020
1070 Clouds -3 1006 100 8000 6 230 20:59 05.01.2020
1071 Clouds -3 1006 100 8000 6 230 20:40 05.01.2020
1072 Clouds -3 1006 100 8000 6 230 20:20 05.01.2020
1073 Clouds -3 1006 100 8000 6 230 20:20 05.01.2020
1074 Clouds -2 1006 100 10000 6 230 19:59 05.01.2020
1075 Clouds -2 1006 100 10000 6 230 19:41 05.01.2020
1076 Clouds -2 1006 100 10000 6 230 19:21 05.01.2020
1077 Clouds -3 1006 100 10000 6 230 18:56 05.01.2020
1078 Clouds -2 1006 100 10000 7 230 18:38 05.01.2020
1079 Clouds -2 1006 100 10000 7 230 18:19 05.01.2020
1080 Clouds -2 1006 100 10000 6 230 17:59 05.01.2020
1081 Clouds -2 1006 100 10000 6 230 17:39 05.01.2020
1082 Snow -3 1005 100 10000 6 220 17:20 05.01.2020
1083 Snow -3 1005 100 9000 5 230 16:57 05.01.2020
1084 Snow -3 1005 100 9000 5 230 16:39 05.01.2020
1085 Snow -3 1005 100 9000 5 220 16:20 05.01.2020
1086 Snow -3 1005 100 9000 5 220 15:40 05.01.2020
1087 Snow -3 1005 100 9000 6 210 15:22 05.01.2020
1088 Snow -3 1005 100 9000 5 220 14:57 05.01.2020
1089 Snow -3 1005 100 9000 5 220 14:39 05.01.2020
1090 Snow -3 1005 100 9000 6 220 14:20 05.01.2020
1091 Snow -3 1005 100 6000 5 210 13:57 05.01.2020
1092 Snow -2 1005 100 5000 6 210 13:38 05.01.2020
1093 Snow -2 1005 100 5000 6 210 13:20 05.01.2020
1094 Snow -2 1005 100 7000 5 220 12:56 05.01.2020
1095 Clouds -2 1005 100 10000 6 220 12:38 05.01.2020
1096 Clouds -2 1005 100 10000 6 220 12:19 05.01.2020
1097 Clouds -2 1004 100 10000 5 220 11:54 05.01.2020
1098 Clouds -2 1004 100 10000 6 210 11:36 05.01.2020
1099 Clouds -2 1004 100 10000 6 210 11:18 05.01.2020
1100 Clouds -2 1004 100 10000 6 220 10:40 05.01.2020
1101 Clouds -2 1004 100 10000 6 220 10:20 05.01.2020
1102 Clouds -2 1003 100 10000 6 220 09:43 05.01.2020
1103 Clouds -2 1004 100 10000 6 220 09:22 05.01.2020
1104 Clouds -2 1004 100 10000 6 220 08:56 05.01.2020
1105 Clouds -2 1003 100 10000 6 230 08:38 05.01.2020
1106 Clouds -2 1003 100 10000 6 230 08:20 05.01.2020
1107 Clouds -2 1003 100 10000 6 230 07:39 05.01.2020
1108 Clouds -2 1003 100 10000 6 230 07:21 05.01.2020
1109 Clouds -2 1003 100 10000 5 220 06:47 05.01.2020
1110 Clouds -2 1002 100 10000 6 220 05:39 05.01.2020
1111 Snow -3 1001 100 9000 5 230 04:56 05.01.2020
1112 Snow -3 1001 100 7000 5 230 04:18 05.01.2020
1113 Snow -3 1001 100 8000 6 220 03:31 05.01.2020
1114 Clouds -3 1000 100 10000 6 220 02:33 05.01.2020
1115 Clouds -3 1000 100 10000 6 220 01:49 05.01.2020
1116 Clouds -3 1000 100 10000 6 210 01:20 05.01.2020
1117 Clouds -3 999 100 10000 5 220 00:57 05.01.2020
1118 Clouds -3 999 100 10000 5 220 00:57 05.01.2020
1119 Snow -3 999 100 3300 6 220 00:39 05.01.2020
1120 Snow -3 999 100 3300 6 220 00:19 05.01.2020
1121 Clouds -3 999 100 9000 6 220 23:41 04.01.2020
1122 Clouds -4 999 100 10000 6 210 23:20 04.01.2020
1123 Clouds -4 998 100 10000 6 210 22:56 04.01.2020
1124 Clouds -4 998 100 10000 5 220 22:38 04.01.2020
1125 Clouds -4 998 100 10000 5 220 22:20 04.01.2020
1126 Clouds -4 998 100 10000 6 220 21:55 04.01.2020
1127 Clouds -4 997 100 10000 6 210 21:36 04.01.2020
1128 Clouds -4 997 100 10000 6 210 21:18 04.01.2020
1129 Clouds -5 997 100 10000 5 210 20:41 04.01.2020
1130 Clouds -5 997 100 10000 5 210 20:22 04.01.2020
1131 Clouds -5 997 100 10000 5 210 19:57 04.01.2020
1132 Clouds -5 997 100 10000 6 220 19:39 04.01.2020
1133 Clouds -5 997 100 10000 6 220 19:21 04.01.2020
1134 Snow -5 997 100 7000 5 220 18:57 04.01.2020
1135 Snow -5 997 100 8000 5 220 18:38 04.01.2020
1136 Snow -5 997 100 8000 5 220 18:19 04.01.2020
1137 Snow -6 996 100 6000 6 220 17:42 04.01.2020
1138 Snow -6 996 100 6000 6 220 17:42 04.01.2020
1139 Clouds -6 996 100 10000 6 220 17:24 04.01.2020
1140 Clouds -6 996 100 10000 5 210 16:59 04.01.2020
1141 Clouds -6 996 100 10000 5 210 16:40 04.01.2020
1142 Snow -6 996 100 5000 5 210 16:22 04.01.2020
1143 Snow -6 996 100 5000 5 210 16:22 04.01.2020
1144 Snow -6 996 100 7000 6 210 15:56 04.01.2020
1145 Snow -6 996 100 10000 6 210 15:38 04.01.2020
1146 Snow -6 996 100 10000 6 210 15:19 04.01.2020
1147 Snow -7 996 100 10000 5 200 14:54 04.01.2020
1148 Snow -7 996 100 8000 5 200 14:36 04.01.2020
1149 Snow -7 996 100 8000 5 200 14:18 04.01.2020
1150 Clouds -7 996 92 10000 5 200 13:39 04.01.2020
1151 Clouds -7 996 92 10000 5 200 13:39 04.01.2020
1152 Clouds -7 996 92 10000 5 200 13:20 04.01.2020
1153 Snow -7 996 92 10000 5 200 12:59 04.01.2020
1154 Snow -8 996 92 8000 5 200 12:40 04.01.2020
1155 Snow -7 996 92 10000 5 200 12:40 04.01.2020
1156 Snow -8 996 92 8000 5 200 12:19 04.01.2020
1157 Snow -8 996 92 4400 5 200 11:57 04.01.2020
1158 Snow -8 996 92 4100 5 190 11:38 04.01.2020
1159 Snow -8 996 92 4100 5 190 11:19 04.01.2020
1160 Clouds -8 995 92 10000 6 190 10:41 04.01.2020
1161 Clouds -8 996 92 10000 5 200 10:22 04.01.2020
1162 Snow -8 996 92 9000 5 190 09:50 04.01.2020
1163 Snow -8 996 85 9000 5 200 09:26 04.01.2020
1164 Snow -9 996 92 9000 6 200 08:58 04.01.2020
1165 Snow -9 996 92 9000 6 200 08:39 04.01.2020
1166 Snow -9 996 92 8000 6 200 08:20 04.01.2020
1167 Snow -9 996 92 7000 6 200 07:42 04.01.2020
1168 Snow -10 997 100 3300 5 190 06:52 04.01.2020
1169 Snow -10 997 92 3000 5 190 06:33 04.01.2020
1170 Snow -10 997 85 1400 5 200 05:18 04.01.2020
1171 Snow -11 997 85 5000 5 200 04:33 04.01.2020
1172 Snow -11 998 85 4900 6 200 03:43 04.01.2020
1173 Snow -11 998 85 3300 6 200 03:18 04.01.2020
1174 Snow -12 998 92 2200 6 200 02:21 04.01.2020
1175 Snow -12 998 92 2200 6 200 02:21 04.01.2020
1176 Snow -12 998 85 900 6 200 01:53 04.01.2020
1177 Snow -12 999 85 2100 5 200 01:30 04.01.2020
1178 Snow -12 999 85 3400 5 200 00:41 04.01.2020
1179 Clouds -13 999 84 10000 6 190 00:22 04.01.2020
1180 Clouds -13 1000 84 10000 5 190 23:42 03.01.2020
1181 Snow -13 1000 84 8000 6 190 23:23 03.01.2020
1182 Clouds -13 1000 84 10000 6 200 22:41 03.01.2020
1183 Clouds -13 1000 84 10000 6 200 22:20 03.01.2020
1184 Clouds -13 1001 84 10000 7 200 21:58 03.01.2020
1185 Clouds -13 1001 84 10000 7 200 21:38 03.01.2020
1186 Clouds -13 1001 84 10000 7 200 21:19 03.01.2020
1187 Clouds -13 1001 84 10000 6 200 20:58 03.01.2020
1188 Clouds -13 1001 84 10000 6 200 20:40 03.01.2020
1189 Clouds -14 1002 92 10000 5 200 20:18 03.01.2020
1190 Clouds -14 1002 92 10000 5 190 19:55 03.01.2020
1191 Clouds -14 1002 92 10000 5 190 19:55 03.01.2020
1192 Clouds -14 1002 92 10000 5 190 19:37 03.01.2020
1193 Clouds -14 1002 92 10000 5 190 19:18 03.01.2020
1194 Clouds -14 1003 92 10000 5 190 18:43 03.01.2020
1195 Clouds -14 1003 84 10000 4 190 18:24 03.01.2020
1196 Clouds -14 1003 84 10000 5 190 17:55 03.01.2020
1197 Clouds -14 1004 84 10000 5 190 17:36 03.01.2020
1198 Clouds -14 1004 84 10000 5 190 17:18 03.01.2020
1199 Clouds -15 1004 92 10000 4 180 16:42 03.01.2020
1200 Clouds -15 1005 92 10000 4 190 16:22 03.01.2020
1201 -273 0 0 0 0 0 16:22 03.01.2020
1202 Clouds -14 1005 84 10000 4 190 15:43 03.01.2020
1203 Clouds -14 1006 92 10000 4 190 15:19 03.01.2020
1204 Clouds -14 1006 92 10000 3 190 14:57 03.01.2020
1205 Snow -13 1007 92 3600 3 200 14:38 03.01.2020
1206 Snow -13 1007 92 3600 3 200 14:19 03.01.2020
1207 Snow -14 1007 92 2200 4 200 13:43 03.01.2020
1208 Snow -14 1007 92 3000 4 210 13:23 03.01.2020
1209 Clouds -14 1007 92 10000 4 210 12:57 03.01.2020
1210 Clouds -14 1007 92 10000 3 200 12:38 03.01.2020
1211 Clouds -14 1007 92 10000 3 200 12:20 03.01.2020
1212 Clouds -17 1007 84 10000 3 170 11:44 03.01.2020
1213 Clouds -17 1007 84 10000 2 220 11:19 03.01.2020
1214 Clouds -17 1007 84 10000 2 230 10:44 03.01.2020
1215 Clouds -16 1007 84 10000 2 230 10:25 03.01.2020
1216 Clouds -17 1007 84 10000 2 220 09:57 03.01.2020
1217 Clouds -17 1007 84 10000 2 220 09:39 03.01.2020
1218 Clouds -17 1008 91 10000 3 230 09:21 03.01.2020
1219 Clouds -16 1008 91 10000 3 240 08:56 03.01.2020
1220 Clouds -15 1008 84 10000 2 240 08:36 03.01.2020
1221 Clouds -15 1008 84 10000 2 240 08:18 03.01.2020
1222 Clouds -14 1007 84 10000 3 230 07:39 03.01.2020
1223 Clouds -14 1007 84 10000 3 230 07:18 03.01.2020
1224 Clouds -13 1007 84 10000 3 240 06:47 03.01.2020
1225 Clouds -13 1007 92 10000 3 240 06:28 03.01.2020
1226 Clouds -13 1007 92 10000 3 250 05:30 03.01.2020
1227 Clouds -13 1007 92 10000 3 250 04:18 03.01.2020
1228 Clouds -14 1006 92 10000 3 250 02:56 03.01.2020
1229 Clouds -13 1006 84 10000 3 250 02:26 03.01.2020
1230 Clouds -14 1006 92 10000 3 250 01:39 03.01.2020
1231 Clouds -14 1005 92 10000 3 250 00:49 03.01.2020
1232 Clouds -14 1005 92 10000 3 250 00:29 03.01.2020
1233 Clouds -14 1005 92 10000 3 250 23:55 02.01.2020
1234 Clouds -14 1005 92 10000 2 240 23:37 02.01.2020
1235 Clouds -14 1005 92 10000 2 240 23:18 02.01.2020
1236 Clouds -14 1005 92 10000 3 250 22:44 02.01.2020
1237 Clouds -14 1005 92 10000 2 250 22:20 02.01.2020
1238 Clouds -14 1005 92 10000 2 240 21:57 02.01.2020
1239 Clouds -14 1005 84 10000 2 240 21:38 02.01.2020
1240 Clouds -14 1005 84 10000 2 240 21:38 02.01.2020
1241 Clouds -14 1005 84 10000 2 240 21:20 02.01.2020
1242 Clouds -14 1005 84 10000 2 240 20:57 02.01.2020
1243 Clouds -14 1005 84 10000 2 240 20:38 02.01.2020
1244 Clouds -14 1005 84 10000 2 240 20:20 02.01.2020
1245 Clouds -14 1005 84 10000 2 240 20:20 02.01.2020
1246 Clouds -15 1004 92 10000 2 240 19:55 02.01.2020
1247 Clouds -15 1004 92 10000 3 230 19:36 02.01.2020
1248 Clouds -15 1004 92 10000 3 230 19:18 02.01.2020
1249 Clouds -14 1004 84 10000 2 220 18:54 02.01.2020
1250 Clouds -14 1004 84 10000 2 220 18:36 02.01.2020
1251 Clouds -14 1004 84 10000 2 220 18:18 02.01.2020
1252 Clouds -14 1004 84 10000 2 220 17:55 02.01.2020
1253 Clouds -15 1004 92 10000 2 210 17:36 02.01.2020
1254 Clouds -15 1004 92 10000 2 210 17:18 02.01.2020
1255 Snow -15 1004 92 9000 3 230 16:42 02.01.2020
1256 Snow -15 1004 92 9000 3 230 16:42 02.01.2020
1257 Snow -15 1004 92 9000 3 230 16:42 02.01.2020
1258 Snow -15 1005 92 3900 2 230 16:22 02.01.2020
1259 Snow -15 1005 92 4000 2 220 15:59 02.01.2020
1260 Snow -15 1005 92 5000 1 0 15:41 02.01.2020
1261 Snow -15 1005 92 5000 1 0 15:23 02.01.2020
1262 Snow -15 1005 92 4200 2 210 14:57 02.01.2020
1263 Snow -15 1005 92 4200 2 210 14:57 02.01.2020
1264 Snow -15 1005 84 4800 2 220 14:37 02.01.2020
1265 Snow -15 1005 84 4300 2 200 14:18 02.01.2020
1266 Snow -15 1005 84 4300 2 200 13:55 02.01.2020
1267 Snow -17 1005 84 4500 2.08 207 13:36 02.01.2020
1268 Clouds -19 1005 91 10000 1 160 12:58 02.01.2020
1269 Clouds -18 1005 91 10000 1 180 12:39 02.01.2020
1270 Clouds -18 1005 91 10000 1 180 12:20 02.01.2020
1271 Clouds -18 1005 91 10000 2.08 207 11:41 02.01.2020
1272 Clouds -18 1005 91 10000 2.29 219 11:20 02.01.2020
1273 Clouds -17 1005 84 10000 2.29 219 10:45 02.01.2020
1274 Clouds -17 1004 91 10000 2.29 219 10:27 02.01.2020
1275 Clouds -16 1004 84 10000 1 220 09:56 02.01.2020
1276 Clouds -16 1004 84 10000 2 220 09:35 02.01.2020
1277 Clouds -17 1004 84 10000 2 230 08:53 02.01.2020
1278 Clouds -18 1004 84 10000 2 240 08:32 02.01.2020
1279 Clouds -17 1004 91 10000 3 240 07:57 02.01.2020
1280 Clouds -18 1004 91 10000 1 0 07:31 02.01.2020
1281 Clouds -19 1003 91 10000 2.75 251 06:57 02.01.2020
1282 Clouds -19 1003 91 10000 2.75 251 06:57 02.01.2020
1283 Clouds -19 1003 91 10000 2.75 251 06:57 02.01.2020
1284 Clouds -19 1003 91 10000 2.75 251 06:57 02.01.2020
1285 Clouds -18 1003 91 10000 2 240 06:39 02.01.2020
1286 Clouds -16 1003 84 10000 2 240 05:37 02.01.2020
1287 Clouds -17 1002 91 10000 3 260 04:34 02.01.2020
1288 Clouds -15 1001 92 10000 2 250 03:19 02.01.2020
1289 Snow -12 1000 92 8000 3 250 02:20 02.01.2020
1290 Snow -12 1000 92 7000 2 250 01:47 02.01.2020
1291 Snow -12 1000 85 6000 3 240 01:19 02.01.2020
1292 Clouds -13 999 92 10000 3 250 00:36 02.01.2020
1293 Clouds -13 999 92 10000 3 250 00:18 02.01.2020
1294 Snow -12 998 92 9000 3 250 23:40 01.01.2020
1295 Snow -12 998 92 10000 3 240 23:20 01.01.2020
1296 Snow -12 998 92 10000 3 230 22:38 01.01.2020
1297 Snow -13 997 100 10000 2 210 22:20 01.01.2020
1298 Snow -13 997 92 10000 2 210 21:57 01.01.2020
1299 Snow -13 997 92 10000 2 210 21:38 01.01.2020
1300 Snow -12 997 85 10000 2 230 21:20 01.01.2020
1301 Snow -12 996 85 9000 3 230 20:56 01.01.2020
1302 Snow -12 996 85 10000 3 210 20:38 01.01.2020
1303 Clouds -12 996 85 10000 3 210 20:19 01.01.2020
1304 Clouds -12 996 85 10000 3 210 19:55 01.01.2020
1305 Clouds -12 996 85 10000 3 210 19:55 01.01.2020
1306 Clouds -12 996 85 10000 3 210 19:55 01.01.2020
1307 Clouds -12 996 85 10000 3 210 19:55 01.01.2020
1308 Clouds -13 996 92 10000 3 210 19:37 01.01.2020
1309 Clouds -13 996 92 10000 3 210 19:19 01.01.2020
1310 Clouds -13 995 92 10000 3 220 18:56 01.01.2020
1311 Clouds -12 995 85 10000 3 200 18:36 01.01.2020
1312 Clouds -12 995 85 10000 3 200 18:18 01.01.2020
1313 Clouds -13 995 92 10000 3 200 17:56 01.01.2020
1314 Clouds -13 994 92 10000 3 200 17:38 01.01.2020
1315 Snow -13 994 92 10000 3 200 17:19 01.01.2020
1316 Snow -13 994 92 10000 3 190 16:42 01.01.2020
1317 Snow -13 994 92 7000 3 190 16:23 01.01.2020
1318 Snow -13 994 92 10000 3 190 15:58 01.01.2020
1319 Snow -13 994 92 10000 3 190 15:40 01.01.2020
1320 Snow -12 993 85 9000 3 190 15:21 01.01.2020
1321 Snow -12 993 85 4500 3 190 14:59 01.01.2020
1322 Snow -12 993 85 4500 3 190 14:40 01.01.2020
1323 Snow -12 993 85 4600 3 190 14:21 01.01.2020
1324 Snow -12 993 85 5000 4 190 13:56 01.01.2020
1325 Snow -12 993 85 9000 4 190 13:37 01.01.2020
1326 Snow -12 993 85 9000 4 190 13:37 01.01.2020
1327 Snow -12 993 85 9000 4 190 13:37 01.01.2020
1328 Snow -12 993 85 9000 4 190 13:18 01.01.2020
1329 Snow -12 993 85 8000 4 180 12:56 01.01.2020
1330 Snow -12 993 85 8000 4 180 12:56 01.01.2020
1331 Snow -13 993 92 8000 4 180 12:38 01.01.2020
1332 Snow -13 993 92 8000 4 180 12:18 01.01.2020
1333 Snow -13 992 92 8000 4 190 11:43 01.01.2020
1334 Snow -13 992 92 9000 4 190 11:23 01.01.2020
1335 Snow -13 992 84 9000 4 190 10:59 01.01.2020
1336 Snow -13 992 84 9000 4 190 10:41 01.01.2020
1337 Snow -13 992 84 7000 4 190 10:21 01.01.2020
1338 Snow -13 991 84 9000 5 190 09:57 01.01.2020
1339 Snow -13 991 84 7000 5 180 09:37 01.01.2020
1340 Snow -13 991 84 7000 5 180 09:37 01.01.2020
1341 Snow -13 991 84 7000 5 180 09:18 01.01.2020
1342 Snow -13 991 84 5000 5 180 08:55 01.01.2020
1343 Snow -14 991 84 4700 5 180 08:36 01.01.2020
1344 Snow -14 991 84 4700 5 180 08:36 01.01.2020
1345 Snow -14 991 84 4700 5 180 08:18 01.01.2020
1346 Snow -14 991 84 4400 5 180 07:51 01.01.2020
1347 Snow -14 991 84 3800 6 180 07:32 01.01.2020
1348 Snow -14 991 84 5000 5 190 06:44 01.01.2020
1349 Snow -14 991 84 7000 5 180 06:20 01.01.2020
1350 Snow -14 991 77 10000 5 180 05:21 01.01.2020
1351 Snow -15 991 84 10000 5 190 03:43 01.01.2020
1352 Snow -15 991 84 8000 6 180 03:22 01.01.2020
1353 Snow -15 991 84 4300 5 180 02:57 01.01.2020
1354 Snow -15 991 77 4400 6 180 02:34 01.01.2020
1355 Snow -15 991 77 8000 6 180 01:55 01.01.2020
1356 Snow -16 991 84 1800 6 190 01:36 01.01.2020
1357 Snow -16 991 84 1800 6 190 01:18 01.01.2020
1358 Snow -16 991 84 1600 6 190 00:44 01.01.2020
1359 Snow -16 991 84 1800 5 190 00:24 01.01.2020
1360 Snow -16 992 84 2700 5 170 23:41 31.12.2019
1361 Snow -17 992 84 1400 6 160 23:21 31.12.2019
1362 Snow -17 992 84 2000 6 160 22:57 31.12.2019
1363 Snow -17 992 84 2000 6 160 22:38 31.12.2019
1364 Snow -18 992 91 3700 6 160 22:19 31.12.2019
1365 Snow -18 992 84 1500 6 150 21:57 31.12.2019
1366 Snow -18 992 84 1500 6 150 21:38 31.12.2019
1367 Snow -18 993 84 10000 6 150 21:20 31.12.2019
1368 Snow -18 993 84 9000 6 160 20:55 31.12.2019
1369 Snow -19 994 84 9000 5 150 20:36 31.12.2019
1370 Snow -19 994 84 9000 5 150 20:18 31.12.2019
1371 Snow -19 994 84 5000 6 150 19:42 31.12.2019
1372 Snow -19 994 84 6000 5 150 19:24 31.12.2019
1373 Snow -19 995 84 6000 5 150 18:59 31.12.2019
1374 Snow -20 995 83 6000 5 150 18:40 31.12.2019
1375 Snow -20 995 83 6000 5 150 18:20 31.12.2019
1376 Clouds -20 996 83 6000 6 150 17:57 31.12.2019
1377 Mist -20 996 83 4500 6 150 17:38 31.12.2019
1378 Mist -20 996 83 4500 6 150 17:19 31.12.2019
1379 Mist -20 997 83 5000 6 150 16:57 31.12.2019
1380 Mist -20 998 83 5000 5 150 16:38 31.12.2019
1381 Mist -20 998 83 5000 5 150 16:19 31.12.2019
1382 Mist -20 999 83 6000 6 150 15:57 31.12.2019
1383 Mist -20 1000 83 3500 6 160 15:38 31.12.2019
1384 Mist -20 1000 83 3500 6 160 15:20 31.12.2019
1385 Mist -20 1000 83 1800 6 150 14:58 31.12.2019
1386 Mist -20 1000 83 1800 6 150 14:38 31.12.2019
1387 Mist -20 1001 83 4000 5 150 14:19 31.12.2019
1388 Mist -19 1002 84 1800 5 150 13:57 31.12.2019
1389 Mist -19 1002 84 1800 5 150 13:39 31.12.2019
1390 Clouds -20 1002 83 10000 6 150 13:21 31.12.2019
1391 Clouds -20 1002 83 10000 6 150 13:21 31.12.2019
1392 Clouds -20 1003 83 6000 5 150 12:58 31.12.2019
1393 Clouds -20 1003 83 6000 5 150 12:58 31.12.2019
1394 Clouds -20 1003 83 6000 5 150 12:39 31.12.2019
1395 Mist -20 1003 83 5000 5 150 12:20 31.12.2019
1396 Mist -20 1004 83 4600 4 150 11:56 31.12.2019
1397 Mist -21 1004 83 5000 3 140 11:38 31.12.2019
1398 Mist -21 1004 83 5000 3 140 11:20 31.12.2019
1399 Mist -21 1005 83 5000 3 140 10:57 31.12.2019
1400 Mist -21 1005 83 5000 3 140 10:57 31.12.2019
1401 Clouds -20 1005 83 10000 3 130 10:38 31.12.2019
1402 Clouds -20 1005 83 10000 3 130 10:20 31.12.2019
1403 Clouds -18 1006 84 10000 4 160 09:58 31.12.2019
1404 Clouds -18 1006 84 10000 4 160 09:39 31.12.2019
1405 Clouds -18 1007 84 7000 5 190 09:20 31.12.2019
1406 Clouds -19 1007 84 8000 4 160 08:57 31.12.2019
1407 Clouds -19 1007 91 10000 5 180 08:37 31.12.2019
1408 Clouds -19 1007 91 10000 5 180 08:19 31.12.2019
1409 Clouds -19 1008 84 10000 4 180 07:42 31.12.2019
1410 Clouds -20 1009 83 10000 4 180 07:20 31.12.2019
1411 Clouds -19 1009 84 10000 4 180 06:49 31.12.2019
1412 Clear -19 1009 84 10000 5 180 05:57 31.12.2019
1413 Clear -20 1010 83 10000 4 180 04:28 31.12.2019
1414 Clear -20 1011 83 10000 4 180 03:27 31.12.2019
1415 Clear -20 1012 83 10000 4 190 02:54 31.12.2019
1416 Clear -20 1012 83 10000 4 190 02:54 31.12.2019
1417 Clear -20 1012 83 10000 4 190 02:54 31.12.2019
1418 Clouds -20 1012 83 10000 3 190 01:58 31.12.2019
1419 Clouds -20 1012 83 10000 3 190 01:40 31.12.2019
1420 Clouds -20 1013 83 10000 4 190 01:22 31.12.2019
1421 Clouds -19 1013 77 10000 3 190 00:45 31.12.2019
1422 Clouds -19 1013 77 10000 4 190 00:22 31.12.2019
1423 Clouds -19 1013 77 10000 4 200 23:56 30.12.2019
1424 Clouds -19 1014 77 10000 4 200 23:38 30.12.2019
1425 Clouds -19 1014 77 10000 4 200 23:20 30.12.2019
1426 Clouds -19 1014 77 10000 4 200 22:57 30.12.2019
1427 Clouds -19 1014 77 10000 4 200 22:38 30.12.2019
1428 Clouds -19 1014 77 10000 4 200 22:19 30.12.2019
1429 Clouds -19 1015 77 10000 4 200 21:56 30.12.2019
1430 Clouds -19 1015 77 10000 4 200 21:38 30.12.2019
1431 Clouds -19 1015 77 10000 4 200 21:18 30.12.2019
1432 Clouds -19 1015 77 10000 4 200 21:18 30.12.2019
1433 Clouds -19 1015 77 10000 4 210 20:56 30.12.2019
1434 Clouds -19 1015 77 10000 4 210 20:38 30.12.2019
1435 Clouds -19 1015 77 10000 4 210 20:19 30.12.2019
1436 Clouds -19 1015 77 10000 4 210 19:57 30.12.2019
1437 Clouds -19 1016 77 10000 4 220 19:37 30.12.2019
1438 Clouds -19 1016 77 10000 4 220 19:19 30.12.2019
1439 Clouds -19 1016 77 10000 4 220 19:19 30.12.2019
1440 Clouds -19 1015 77 10000 4 220 18:56 30.12.2019
1441 Clouds -18 1016 77 10000 5 210 18:37 30.12.2019
1442 Clouds -18 1016 77 10000 5 210 18:19 30.12.2019
1443 Clouds -18 1016 77 10000 4 230 17:55 30.12.2019
1444 Clouds -18 1016 77 10000 4 220 17:36 30.12.2019
1445 Clouds -18 1016 77 10000 4 220 17:18 30.12.2019
1446 Clouds -18 1016 77 10000 4 240 16:54 30.12.2019
1447 Clouds -17 1016 77 10000 4 240 16:36 30.12.2019
1448 Clouds -17 1016 77 10000 4 240 16:18 30.12.2019
1449 Clouds -17 1017 77 10000 5 240 15:54 30.12.2019
1450 Clouds -17 1017 77 10000 4 230 15:36 30.12.2019
1451 Clouds -17 1017 77 10000 4 230 15:18 30.12.2019
1452 Clouds -17 1017 84 10000 5 240 14:42 30.12.2019
1453 Clouds -16 1018 77 10000 5 240 14:19 30.12.2019
1454 Clouds -16 1018 77 10000 4 240 13:54 30.12.2019
1455 Clouds -16 1018 84 10000 5 240 13:36 30.12.2019
1456 Clouds -16 1018 84 10000 5 240 13:18 30.12.2019
1457 Clouds -15 1018 77 10000 6 250 12:42 30.12.2019
1458 Clouds -15 1018 77 10000 7 250 12:20 30.12.2019
1459 Clouds -15 1018 77 10000 6 240 11:58 30.12.2019
1460 Clouds -15 1018 77 10000 6 240 11:39 30.12.2019
1461 Clouds -14 1019 77 10000 6 250 11:19 30.12.2019
1462 Clouds -15 1019 77 10000 6 250 10:43 30.12.2019
1463 Clouds -15 1019 77 10000 6 250 10:21 30.12.2019
1464 Clouds -15 1019 77 10000 5 250 09:55 30.12.2019
1465 Clouds -15 1019 77 10000 5 240 09:37 30.12.2019
1466 Clouds -15 1019 77 10000 5 240 09:19 30.12.2019
1467 Clouds -16 1019 84 10000 5 240 08:49 30.12.2019
1468 Clouds -15 1019 77 10000 5 240 08:23 30.12.2019
1469 Clouds -16 1020 84 10000 4 240 07:55 30.12.2019
1470 Clouds -17 1020 84 10000 4 240 07:33 30.12.2019
1471 Clouds -17 1020 84 10000 5 240 06:51 30.12.2019
1472 Clouds -19 1022 84 10000 4 240 04:56 30.12.2019
1473 Clouds -19 1022 84 10000 3 240 03:53 30.12.2019
1474 Clouds -21 1023 83 10000 3 240 02:50 30.12.2019
1475 Clouds -21 1023 76 10000 3 230 02:32 30.12.2019
1476 Clouds -21 1023 83 10000 3 230 01:50 30.12.2019
1477 Clouds -21 1024 83 10000 4 230 01:20 30.12.2019
1478 Clouds -21 1024 76 10000 3 240 00:43 30.12.2019
1479 Clouds -23 1025 83 10000 3 240 23:59 29.12.2019
1480 Clouds -23 1025 76 10000 2 240 23:39 29.12.2019
1481 Clear -23 1025 76 10000 2 240 23:21 29.12.2019
1482 Clear -23 1025 76 10000 3 240 22:42 29.12.2019
1483 Clear -24 1025 83 10000 2 240 22:22 29.12.2019
1484 Clear -24 1026 76 10000 2 240 21:58 29.12.2019
1485 Clear -24 1026 76 10000 2 240 21:40 29.12.2019
1486 Clear -24 1026 76 10000 2 240 21:20 29.12.2019
1487 Clear -24 1026 83 10000 3 240 20:57 29.12.2019
1488 Clear -24 1026 83 10000 2 240 20:38 29.12.2019
1489 Clouds -24 1026 83 10000 2 240 20:20 29.12.2019
1490 Clear -24 1027 76 10000 2 240 19:58 29.12.2019
1491 Clear -24 1027 76 10000 2 240 19:39 29.12.2019
1492 Clear -25 1027 83 10000 2 240 19:20 29.12.2019
1493 Clear -25 1027 75 10000 2 240 18:56 29.12.2019
1494 Clear -26 1027 75 10000 1 240 18:38 29.12.2019
1495 Clear -26 1027 75 10000 1 240 18:19 29.12.2019
1496 Clear -26 1028 75 10000 2 230 17:57 29.12.2019
1497 Clear -27 1028 75 10000 1 0 17:39 29.12.2019
1498 Clouds -27 1028 75 10000 1 0 17:20 29.12.2019
1499 Clouds -26 1028 83 10000 2 250 16:56 29.12.2019
1500 Clouds -28 1028 82 10000 2 250 16:37 29.12.2019
1501 Clouds -28 1028 82 10000 2 250 16:19 29.12.2019
1502 Clouds -28 1028 75 10000 2 260 15:56 29.12.2019
1503 Clouds -28 1028 75 10000 2 250 15:38 29.12.2019
1504 Clouds -28 1028 75 10000 2 250 15:19 29.12.2019
1505 Clouds -28 1029 75 10000 3 280 14:55 29.12.2019
1506 Clouds -27 1029 75 10000 2 280 14:37 29.12.2019
1507 Clear -27 1029 75 10000 2 280 14:18 29.12.2019
1508 Clear -28 1029 75 10000 1 0 13:55 29.12.2019
1509 Clear -28 1029 75 10000 2 260 13:37 29.12.2019
1510 Clear -28 1029 75 10000 2 260 13:18 29.12.2019
1511 Clear -28 1029 75 10000 2 280 12:42 29.12.2019
1512 Clear -28 1029 75 10000 1 260 12:24 29.12.2019
1513 Clear -27 1029 75 10000 1 290 11:56 29.12.2019
1514 Clear -28 1029 75 10000 1 0 11:37 29.12.2019
1515 Clear -28 1029 75 10000 1 0 11:37 29.12.2019
1516 Clear -28 1029 75 10000 1 0 11:37 29.12.2019
1517 Clear -28 1029 75 10000 1 0 11:19 29.12.2019
1518 Clear -28 1029 75 10000 1 0 10:42 29.12.2019
1519 Clear -28 1029 75 10000 2 250 10:22 29.12.2019
1520 Clear -29 1029 75 10000 2 280 09:56 29.12.2019
1521 Clear -28 1029 75 10000 1.74 321 09:38 29.12.2019
1522 Clear -28 1029 75 10000 1.74 321 09:19 29.12.2019
1523 Clear -28 1029 75 10000 1 0 08:46 29.12.2019
1524 Clear -28 1029 75 10000 1 0 08:24 29.12.2019
1525 Clear -27 1029 75 10000 1 0 07:54 29.12.2019
1526 Clear -27 1029 82 10000 2.27 18 07:28 29.12.2019
1527 Clear -30 1029 82 10000 2 310 06:53 29.12.2019
1528 Clear -28 1029 75 10000 1 0 06:24 29.12.2019
1529 Clear -28 1028 75 10000 1 0 05:51 29.12.2019
1530 Clear -27 1028 75 10000 2 360 04:36 29.12.2019
1531 Clear -27 1027 75 10000 1 0 03:43 29.12.2019
1532 Clear -27 1027 82 10000 2 10 03:19 29.12.2019
1533 Clouds -26 1027 83 10000 2 10 02:20 29.12.2019
1534 Clouds -26 1027 83 10000 2 10 02:20 29.12.2019
1535 Clouds -25 1026 75 10000 2 360 01:31 29.12.2019
1536 Clouds -25 1026 75 10000 2 360 01:31 29.12.2019
1537 Clouds -25 1026 83 10000 2 340 00:55 29.12.2019
1538 Clouds -24 1026 76 10000 2 350 00:36 29.12.2019
1539 Clouds -24 1026 76 10000 2 350 00:18 29.12.2019
1540 Clouds -24 1026 83 10000 2 350 23:41 28.12.2019
1541 Clouds -23 1025 83 10000 2 350 23:18 28.12.2019
1542 Clouds -22 1025 76 10000 2 330 22:39 28.12.2019
1543 Clouds -22 1025 83 10000 2 330 22:20 28.12.2019
1544 Clouds -21 1024 83 10000 3 340 21:58 28.12.2019
1545 Clouds -21 1024 83 10000 3 340 21:39 28.12.2019
1546 Clouds -21 1024 83 10000 3 320 21:20 28.12.2019
1547 Clouds -22 1024 83 10000 3 310 20:56 28.12.2019
1548 Clouds -20 1023 83 10000 2 290 20:37 28.12.2019
1549 Clouds -20 1023 83 10000 2 290 20:18 28.12.2019
1550 Clouds -20 1023 83 10000 2 300 19:55 28.12.2019
1551 Clouds -19 1023 91 10000 2 290 19:37 28.12.2019
1552 Clouds -19 1023 91 10000 2 290 19:18 28.12.2019
1553 Clouds -19 1023 91 10000 2 280 18:55 28.12.2019
1554 Clouds -17 1023 84 10000 3 280 18:37 28.12.2019
1555 Clouds -17 1023 84 10000 3 280 18:18 28.12.2019
1556 Clouds -16 1023 84 10000 2 280 17:42 28.12.2019
1557 Snow -16 1022 91 10000 3 260 17:21 28.12.2019
1558 Snow -15 1022 84 7000 3 250 16:55 28.12.2019
1559 Snow -16 1022 91 8000 2 250 16:37 28.12.2019
1560 Snow -16 1022 91 8000 2 250 16:19 28.12.2019
1561 Snow -15 1022 84 6000 3 250 15:43 28.12.2019
1562 Snow -15 1022 84 8000 3 250 15:22 28.12.2019
1563 Snow -15 1022 84 1400 2 240 14:55 28.12.2019
1564 Snow -15 1022 84 1800 3 240 14:36 28.12.2019
1565 Snow -15 1022 84 1800 3 240 14:18 28.12.2019
1566 Snow -15 1022 84 1900 4 240 13:42 28.12.2019
1567 Snow -15 1022 84 2000 3 230 13:21 28.12.2019
1568 Snow -15 1021 84 2200 3 230 12:58 28.12.2019
1569 Snow -15 1021 84 2200 3 230 12:40 28.12.2019
1570 Snow -15 1021 84 2300 3 230 12:21 28.12.2019
1571 Snow -16 1021 91 1700 3 220 11:40 28.12.2019
1572 Snow -16 1021 91 2000 3 210 11:21 28.12.2019
1573 Snow -16 1021 84 3400 4 210 10:56 28.12.2019
1574 Snow -16 1021 84 2000 4 210 10:37 28.12.2019
1575 Snow -16 1021 84 2000 4 210 10:18 28.12.2019
1576 Snow -16 1021 84 2300 4 210 09:46 28.12.2019
1577 Snow -16 1021 84 1900 5 210 09:24 28.12.2019
1578 Snow -16 1021 84 2100 4 200 08:58 28.12.2019
1579 Snow -16 1021 84 2100 4 200 08:40 28.12.2019
1580 Snow -16 1021 84 2000 4 200 08:22 28.12.2019
1581 Snow -16 1021 84 2500 4 190 07:43 28.12.2019
1582 Snow -17 1021 91 2600 3 200 07:22 28.12.2019
1583 Clouds -17 1021 84 10000 3 190 05:46 28.12.2019
1584 Clouds -18 1022 84 10000 3 180 03:48 28.12.2019
1585 Clouds -18 1023 84 10000 3 180 02:51 28.12.2019
1586 Clouds -19 1023 84 10000 4 180 02:20 28.12.2019
1587 Clouds -19 1023 77 10000 3 180 01:55 28.12.2019
1588 Clouds -20 1024 83 10000 3 190 01:23 28.12.2019
1589 Clouds -20 1024 83 10000 3 180 00:45 28.12.2019
1590 Clouds -20 1024 76 10000 3 180 00:27 28.12.2019
1591 Clouds -21 1025 83 10000 3 180 23:58 27.12.2019
1592 Clouds -21 1025 83 10000 3 180 23:58 27.12.2019
1593 Clouds -20 1025 76 10000 3 180 23:38 27.12.2019
1594 Clouds -20 1025 76 10000 3 180 23:18 27.12.2019
1595 Clouds -21 1025 83 10000 2 170 22:55 27.12.2019
1596 Clouds -21 1025 76 10000 4 180 22:37 27.12.2019
1597 Clouds -21 1025 76 10000 4 180 22:19 27.12.2019
1598 Clouds -23 1026 83 10000 3 160 21:43 27.12.2019
1599 Clouds -23 1026 83 10000 3 160 21:24 27.12.2019
1600 Clouds -24 1026 83 10000 2 160 20:45 27.12.2019
1601 Clouds -24 1026 76 10000 2 160 20:26 27.12.2019
1602 Clouds -25 1027 83 10000 2 160 19:59 27.12.2019
1603 Clouds -25 1027 83 10000 2 160 19:40 27.12.2019
1604 Clouds -25 1027 83 10000 2 160 19:19 27.12.2019
1605 Clouds -25 1027 83 10000 2 150 18:56 27.12.2019
1606 Clouds -25 1028 75 10000 2 160 18:37 27.12.2019
1607 Clouds -25 1028 75 10000 2 160 18:18 27.12.2019
1608 Clouds -26 1028 83 10000 3 160 17:55 27.12.2019
1609 Clouds -26 1028 83 6000 2 160 17:37 27.12.2019
1610 Clouds -26 1028 83 6000 2 160 17:18 27.12.2019
1611 Mist -26 1028 83 4800 2 150 16:41 27.12.2019
1612 Clouds -25 1029 75 7000 2 150 16:23 27.12.2019
1613 Clouds -25 1029 75 9000 2 150 15:57 27.12.2019
1614 Clouds -25 1029 75 10000 2 150 15:37 27.12.2019
1615 Clouds -25 1029 75 10000 2 150 15:19 27.12.2019
1616 Clouds -26 1029 83 10000 2 160 14:55 27.12.2019
1617 Clouds -26 1030 83 10000 2 160 14:37 27.12.2019
1618 Clouds -26 1030 83 10000 2 160 14:19 27.12.2019
1619 Clouds -26 1030 83 10000 2 160 14:19 27.12.2019
1620 Clouds -26 1030 75 6000 2 160 13:46 27.12.2019
1621 Mist -26 1030 75 9000 2 150 13:23 27.12.2019
1622 Mist -27 1031 75 10000 2 150 12:49 27.12.2019
1623 Clouds -27 1031 75 8000 2 150 12:29 27.12.2019
1624 Mist -27 1031 75 10000 1 150 11:59 27.12.2019
1625 Mist -27 1031 75 10000 1 150 11:41 27.12.2019
1626 Mist -26 1031 75 8000 2 150 11:20 27.12.2019
1627 Mist -26 1031 75 8000 2 150 11:20 27.12.2019
1628 Mist -26 1031 83 2600 2 150 10:47 27.12.2019
1629 Clouds -25 1031 75 6000 2 150 10:24 27.12.2019
1630 Clouds -25 1031 75 8000 1 0 09:57 27.12.2019
1631 Clouds -25 1031 75 6000 2 170 09:38 27.12.2019
1632 Clouds -25 1031 75 6000 2 170 09:20 27.12.2019
1633 Clouds -26 1032 75 9000 1 0 08:46 27.12.2019
1634 Clouds -26 1032 75 8000 1 0 08:27 27.12.2019
1635 Mist -29 1032 75 7000 1 0 07:41 27.12.2019
1636 Clouds -30 1032 74 9000 1 0 07:22 27.12.2019
1637 Clouds -30 1032 74 7000 1 0 06:27 27.12.2019
1638 Fog -31 1032 74 8000 2.25 190 04:40 27.12.2019
1639 Clouds -33 1032 74 10000 2.25 190 02:29 27.12.2019
1640 Clouds -32 1033 74 10000 1.32 210 01:48 27.12.2019
1641 Clouds -32 1033 74 10000 1 280 01:23 27.12.2019
1642 Clouds -32 1033 74 10000 1 280 00:51 27.12.2019
1643 Clouds -33 1033 74 10000 1.49 205 00:33 27.12.2019
1644 Clouds -33 1032 74 10000 1.49 205 23:57 26.12.2019
1645 Clouds -34 1032 73 10000 1.49 205 23:38 26.12.2019
1646 Clouds -34 1032 73 10000 0.9 253 23:20 26.12.2019
1647 Clouds -33 1032 74 10000 1 300 22:42 26.12.2019
1648 Clouds -33 1032 74 10000 1 290 22:21 26.12.2019
1649 Clouds -33 1032 74 10000 1 280 21:55 26.12.2019
1650 Clouds -33 1032 67 10000 2 270 21:37 26.12.2019
1651 Clouds -33 1032 67 10000 2 270 21:19 26.12.2019
1652 Clouds -33 1032 74 10000 1 280 20:44 26.12.2019
1653 Clouds -33 1032 74 10000 1 270 20:22 26.12.2019
1654 Clouds -33 1032 74 10000 1 290 19:58 26.12.2019
1655 Clouds -33 1032 74 10000 1 290 19:38 26.12.2019
1656 Clear -33 1032 74 10000 1 280 19:20 26.12.2019
1657 Clear -33 1032 74 10000 1 280 18:57 26.12.2019
1658 Clouds -32 1032 67 10000 1 290 18:37 26.12.2019
1659 Clouds -32 1032 67 10000 1 290 18:19 26.12.2019
1660 Clear -32 1032 74 10000 1 280 17:42 26.12.2019
1661 Clear -32 1032 74 10000 1 280 17:42 26.12.2019
1662 Clouds -32 1031 74 10000 1 0 17:22 26.12.2019
1663 Clouds -32 1032 74 10000 1 300 16:54 26.12.2019
1664 Clouds -31 1031 74 10000 2 290 16:36 26.12.2019
1665 Clouds -31 1031 74 10000 2 290 16:36 26.12.2019
1666 Clouds -31 1031 74 10000 2 290 16:18 26.12.2019
1667 Clouds -31 1031 74 10000 2 280 15:40 26.12.2019
1668 Clouds -32 1031 74 10000 2 280 15:19 26.12.2019
1669 Clouds -33 1031 74 10000 2 280 14:54 26.12.2019
1670 Clear -33 1030 74 10000 2 280 14:36 26.12.2019
1671 Clouds -33 1030 74 10000 2 280 14:18 26.12.2019
1672 Clouds -33 1030 74 10000 2 280 13:42 26.12.2019
1673 Clear -32 1030 74 10000 1 290 13:19 26.12.2019
1674 Clear -31 1030 74 10000 1 290 12:56 26.12.2019
1675 Clear -32 1030 74 10000 2 280 12:37 26.12.2019
1676 Clear -32 1030 74 10000 2 280 12:18 26.12.2019
1677 Clear -31 1030 74 10000 1 290 11:42 26.12.2019
1678 Clouds -32 1029 74 10000 2 300 11:23 26.12.2019
1679 Clouds -31 1029 74 10000 2 300 10:57 26.12.2019
1680 Clouds -31 1029 74 10000 2 300 10:57 26.12.2019
1681 Clouds -31 1029 74 10000 2 300 10:39 26.12.2019
1682 Clouds -30 1029 74 10000 2 320 10:18 26.12.2019
1683 Clear -30 1028 74 10000 1 320 09:42 26.12.2019
1684 Clear -30 1028 67 10000 2 290 09:24 26.12.2019
1685 Clouds -30 1028 74 10000 2 300 08:42 26.12.2019
1686 Clouds -31 1028 74 10000 2 290 08:23 26.12.2019
1687 Clouds -30 1028 74 10000 1 290 07:50 26.12.2019
1688 Clouds -30 1027 74 10000 2 300 07:26 26.12.2019
1689 Clouds -30 1027 74 10000 2 300 06:48 26.12.2019
1690 Clouds -31 1027 74 10000 2 290 06:30 26.12.2019
1691 Clouds -31 1027 74 10000 2 300 05:43 26.12.2019
1692 Clouds -30 1026 74 10000 2 300 04:38 26.12.2019
1693 Clouds -29 1026 75 10000 2 300 03:47 26.12.2019
1694 Clouds -31 1025 74 10000 2 290 02:50 26.12.2019
1695 Clouds -31 1025 74 10000 2 300 02:31 26.12.2019
1696 Clouds -31 1025 74 10000 2 300 02:31 26.12.2019
1697 Clouds -30 1025 74 10000 2 300 01:45 26.12.2019
1698 Clouds -30 1024 74 10000 2 300 01:26 26.12.2019
1699 Clouds -30 1024 74 10000 2 300 00:48 26.12.2019
1700 Clouds -30 1024 74 10000 2 290 00:24 26.12.2019
1701 Clouds -30 1024 74 10000 2 290 00:24 26.12.2019
1702 Clouds -30 1024 74 10000 2 290 00:24 26.12.2019
1703 Clear -31 1023 74 10000 2 280 23:58 25.12.2019
1704 Clear -31 1023 74 10000 2 290 23:38 25.12.2019
1705 Clear -31 1023 74 10000 2 290 23:20 25.12.2019
1706 Clear -31 1023 74 10000 2 280 22:57 25.12.2019
1707 Clear -31 1023 74 10000 2 280 22:38 25.12.2019
1708 Clear -31 1023 74 10000 2 280 22:19 25.12.2019
1709 Clouds -31 1022 74 10000 2 290 21:57 25.12.2019
1710 Clouds -31 1022 74 10000 2 290 21:39 25.12.2019
1711 Clear -31 1022 74 10000 2 290 21:19 25.12.2019
1712 Clear -31 1022 74 10000 2 280 20:41 25.12.2019
1713 Clear -30 1021 74 10000 3 280 20:21 25.12.2019
1714 Clear -30 1021 74 10000 3 290 19:59 25.12.2019
1715 Clear -30 1021 74 10000 3 290 19:41 25.12.2019
1716 Clear -31 1021 74 10000 3 280 19:22 25.12.2019
1717 Clear -31 1021 74 10000 3 280 18:54 25.12.2019
1718 Clear -31 1021 74 10000 2 280 18:36 25.12.2019
1719 Clear -31 1021 74 10000 2 280 18:18 25.12.2019
1720 Clear -31 1021 74 10000 3 280 17:40 25.12.2019
1721 Clear -31 1021 74 10000 3 280 17:18 25.12.2019
1722 Clear -31 1020 74 10000 3 280 16:55 25.12.2019
1723 Clear -31 1020 74 10000 3 280 16:36 25.12.2019
1724 Clear -31 1020 74 10000 3 280 16:18 25.12.2019
1725 Clouds -30 1020 74 10000 3 280 15:56 25.12.2019
1726 Clouds -30 1020 74 10000 3 280 15:37 25.12.2019
1727 Clouds -30 1020 74 10000 3 280 15:18 25.12.2019
1728 Clear -31 1019 74 10000 3 280 14:54 25.12.2019
1729 Clear -30 1019 74 10000 3 280 14:36 25.12.2019
1730 Clouds -30 1019 74 10000 3 280 14:18 25.12.2019
1731 Clouds -31 1019 74 10000 3 280 13:41 25.12.2019
1732 Clouds -30 1018 74 10000 3 280 13:20 25.12.2019
1733 Clear -30 1018 74 10000 3 280 12:44 25.12.2019
1734 Clouds -30 1018 74 10000 3 280 12:22 25.12.2019
1735 Clear -29 1018 75 10000 3 280 11:58 25.12.2019
1736 Clear -29 1018 75 10000 3 280 11:58 25.12.2019
1737 Clear -29 1018 75 10000 3 280 11:40 25.12.2019
1738 Clear -30 1017 74 10000 3 280 11:20 25.12.2019
1739 Clouds -29 1017 75 10000 3 290 10:39 25.12.2019
1740 Clouds -28 1017 75 10000 3 280 10:21 25.12.2019
1741 Clouds -29 1016 75 9000 3 280 09:58 25.12.2019
1742 Clouds -29 1016 75 9000 3 280 09:40 25.12.2019
1743 Clouds -29 1016 75 9000 3 280 09:40 25.12.2019
1744 Clouds -29 1016 75 9000 3 280 09:21 25.12.2019
1745 Clouds -30 1016 74 10000 3 280 08:42 25.12.2019
1746 Clear -30 1015 74 10000 3 280 08:23 25.12.2019
1747 Clear -30 1015 74 10000 3 280 07:42 25.12.2019
1748 Clear -31 1015 74 10000 3 280 07:22 25.12.2019
1749 Clear -32 1015 74 10000 3 280 06:24 25.12.2019
1750 Clear -32 1014 74 10000 3 280 05:49 25.12.2019
1751 Clear -32 1014 74 10000 3 280 04:42 25.12.2019
1752 Clear -32 1014 74 10000 3 290 04:24 25.12.2019
1753 Clear -32 1014 74 10000 3 280 03:43 25.12.2019
1754 Clear -32 1013 74 10000 3 280 02:58 25.12.2019
1755 Clear -32 1013 74 10000 3 280 02:29 25.12.2019
1756 Clear -31 1013 74 10000 3 280 01:43 25.12.2019
1757 Clear -32 1013 74 10000 3 280 01:18 25.12.2019
1758 Clear -31 1013 74 10000 3 280 00:41 25.12.2019
1759 Clear -31 1012 74 10000 3 280 00:23 25.12.2019
1760 Clear -31 1012 74 10000 3 280 00:23 25.12.2019
1761 Clear -31 1012 74 10000 2 290 23:39 24.12.2019
1762 Clear -29 1012 75 10000 3 290 23:20 24.12.2019
1763 Clear -31 1012 74 10000 2 290 22:42 24.12.2019
1764 Clear -29 1012 75 10000 2 300 22:24 24.12.2019
1765 Clear -28 1012 75 10000 3 320 21:59 24.12.2019
1766 Clear -28 1012 75 10000 3 320 21:40 24.12.2019
1767 Clear -28 1012 75 10000 3 330 21:19 24.12.2019
1768 Clear -28 1012 75 10000 3 320 20:42 24.12.2019
1769 Clear -31 1011 74 10000 2 300 20:22 24.12.2019
1770 Clear -30 1012 74 10000 2 300 19:49 24.12.2019
1771 Clear -29 1012 75 10000 2 300 19:22 24.12.2019
1772 Clear -29 1011 75 9000 2 280 18:59 24.12.2019
1773 Clear -29 1011 75 9000 2 280 18:40 24.12.2019
1774 Clear -28 1011 75 10000 2 280 18:18 24.12.2019
1775 Clear -28 1011 75 10000 2 280 18:18 24.12.2019
1776 Clear -28 1012 82 10000 3 280 17:44 24.12.2019
1777 Clear -29 1012 82 10000 3 280 17:22 24.12.2019
1778 Clear -27 1012 75 10000 2 270 16:58 24.12.2019
1779 Clear -27 1012 75 10000 2 270 16:39 24.12.2019
1780 Clear -26 1012 83 10000 2 300 16:20 24.12.2019
1781 Clear -27 1012 75 10000 3 270 15:57 24.12.2019
1782 Clouds -26 1012 75 10000 3 280 15:37 24.12.2019
1783 Clouds -26 1012 75 10000 3 280 15:19 24.12.2019
1784 Clear -26 1013 83 10000 2 280 14:58 24.12.2019
1785 Clear -26 1013 83 10000 2 280 14:39 24.12.2019
1786 Clouds -26 1013 83 10000 3 270 14:21 24.12.2019
1787 Clouds -26 1013 83 10000 3 270 14:21 24.12.2019
1788 Clouds -26 1013 83 10000 3 280 13:56 24.12.2019
1789 Clouds -26 1013 83 10000 3 270 13:37 24.12.2019
1790 Clouds -26 1013 83 10000 3 270 13:19 24.12.2019
1791 Clouds -25 1013 75 10000 3 280 12:56 24.12.2019
1792 Clouds -25 1013 75 10000 3 280 12:56 24.12.2019
1793 Clouds -25 1013 75 10000 3 280 12:56 24.12.2019
1794 Clouds -25 1013 75 10000 3 270 12:37 24.12.2019
1795 Clouds -25 1013 75 10000 3 270 12:19 24.12.2019
1796 Clouds -25 1013 75 10000 3 270 12:19 24.12.2019
1797 Clouds -25 1013 75 10000 3 270 12:19 24.12.2019
1798 Clouds -25 1013 83 10000 3 280 11:56 24.12.2019
1799 Clouds -25 1013 83 10000 3 280 11:37 24.12.2019
1800 Clouds -25 1013 83 10000 3 280 11:37 24.12.2019
1801 Clouds -25 1013 83 10000 3 280 11:19 24.12.2019
1802 Clouds -24 1013 76 10000 4 270 10:56 24.12.2019
1803 Clouds -24 1013 76 10000 4 270 10:56 24.12.2019
1804 Clouds -22 1013 83 10000 4 270 10:37 24.12.2019
1805 Clouds -22 1013 83 10000 4 270 10:19 24.12.2019
1806 Clouds -23 1012 83 10000 4 260 09:55 24.12.2019
1807 Clouds -23 1012 83 10000 4 280 09:37 24.12.2019
1808 Clouds -23 1012 83 10000 4 280 09:37 24.12.2019
1809 Clouds -23 1012 83 10000 4 280 09:19 24.12.2019
1810 Clouds -23 1012 83 10000 4 280 08:45 24.12.2019
1811 Clouds -22 1012 83 10000 4 280 08:24 24.12.2019
1812 Clouds -21 1012 83 10000 5 280 07:46 24.12.2019
1813 Clouds -22 1011 83 10000 5 280 07:26 24.12.2019
1814 Clouds -22 1011 83 10000 5 280 06:58 24.12.2019
1815 Clouds -23 1011 83 10000 5 280 06:38 24.12.2019
1816 Clouds -23 1011 83 10000 5 280 06:19 24.12.2019
1817 Clouds -22 1011 83 10000 5 280 05:40 24.12.2019
1818 Clouds -21 1011 83 10000 5 280 05:18 24.12.2019
1819 Snow -17 1010 84 10000 6 280 03:50 24.12.2019
1820 Clouds -18 1010 84 10000 6 280 03:23 24.12.2019
1821 Clouds -18 1010 84 10000 6 280 02:25 24.12.2019
1822 Clouds -18 1010 84 10000 6 280 02:25 24.12.2019
1823 Clear -19 1009 84 10000 6 280 01:51 24.12.2019
1824 Clear -19 1009 84 10000 6 280 01:51 24.12.2019
1825 Clear -18 1009 84 10000 6 290 01:23 24.12.2019
1826 Clear -18 1009 84 10000 6 290 00:46 24.12.2019
1827 Clear -19 1009 91 10000 6 280 00:26 24.12.2019
1828 Clear -19 1008 84 10000 5 280 23:59 23.12.2019
1829 Clear -19 1008 84 10000 5 280 23:40 23.12.2019
1830 Clear -17 1008 84 10000 6 290 23:22 23.12.2019
1831 Clear -17 1008 84 10000 6 290 22:56 23.12.2019
1832 Clear -16 1008 84 10000 5 290 22:37 23.12.2019
1833 Clear -16 1008 84 10000 5 290 22:18 23.12.2019
1834 Clear -16 1007 84 10000 6 290 21:55 23.12.2019
1835 Clear -15 1007 84 10000 6 290 21:36 23.12.2019
1836 Clear -15 1007 84 10000 6 290 21:18 23.12.2019
1837 Clear -15 1006 92 10000 6 290 20:57 23.12.2019
1838 Clear -15 1006 92 10000 6 290 20:39 23.12.2019
1839 Snow -16 1006 84 10000 5 280 20:18 23.12.2019
1840 Clouds -14 1006 84 10000 5 290 19:55 23.12.2019
1841 Snow -14 1006 92 9000 5 280 19:37 23.12.2019
1842 Snow -14 1006 92 9000 5 280 19:19 23.12.2019
1843 Snow -14 1005 92 9000 5 280 18:57 23.12.2019
1844 Snow -12 1005 92 8000 6 280 18:38 23.12.2019
1845 Snow -12 1005 92 8000 6 280 18:20 23.12.2019
1846 Snow -11 1005 92 6000 5 260 17:55 23.12.2019
1847 Snow -11 1005 92 6000 5 260 17:55 23.12.2019
1848 Snow -11 1005 92 3100 5 250 17:37 23.12.2019
1849 Snow -11 1005 92 3100 5 250 17:19 23.12.2019
1850 Snow -11 1005 92 6000 4 240 16:42 23.12.2019
1851 Snow -11 1005 92 6000 4 240 16:42 23.12.2019
1852 Snow -11 1005 92 4400 4 240 16:19 23.12.2019
1853 Snow -11 1005 92 3900 4 240 15:59 23.12.2019
1854 Snow -11 1005 92 3900 4 240 15:39 23.12.2019
1855 Snow -11 1005 92 5000 4 240 15:20 23.12.2019
1856 Snow -11 1005 92 4200 4 230 14:59 23.12.2019
1857 Snow -12 1004 92 4700 4 230 14:41 23.12.2019
1858 Snow -12 1004 92 4700 4 230 14:23 23.12.2019
1859 Snow -12 1005 92 3600 4 230 13:59 23.12.2019
1860 Snow -12 1005 92 3900 5 230 13:40 23.12.2019
1861 Snow -12 1005 92 3900 5 230 13:40 23.12.2019
1862 Snow -12 1005 92 3900 5 230 13:22 23.12.2019
1863 Snow -12 1005 92 3900 5 230 13:22 23.12.2019
1864 Snow -12 1005 92 3900 5 230 13:22 23.12.2019
1865 Snow -12 1005 92 3600 5 220 12:58 23.12.2019
1866 Snow -12 1005 92 3600 5 220 12:39 23.12.2019
1867 Snow -12 1005 92 1000 5 210 12:20 23.12.2019
1868 Snow -12 1005 85 600 4 210 11:44 23.12.2019
1869 Snow -12 1005 85 600 4 210 11:44 23.12.2019
1870 Snow -13 1005 92 1300 4 200 11:26 23.12.2019
1871 Snow -13 1005 92 1000 4 190 10:59 23.12.2019
1872 Snow -13 1005 92 1000 4 190 10:41 23.12.2019
1873 Snow -14 1006 92 1700 4 190 10:21 23.12.2019
1874 Snow -14 1006 92 900 5 190 09:59 23.12.2019
1875 Snow -14 1006 92 500 5 190 09:40 23.12.2019
1876 Snow -14 1006 92 500 5 190 09:21 23.12.2019
1877 Snow -15 1007 92 900 5 190 08:56 23.12.2019
1878 Snow -15 1008 84 900 4 190 08:38 23.12.2019
1879 Snow -15 1008 84 900 4 190 08:20 23.12.2019
1880 Snow -15 1008 84 8000 4 180 07:43 23.12.2019
1881 Snow -16 1009 91 6000 3 180 07:20 23.12.2019
1882 Mist -16 1009 84 10000 3 170 06:53 23.12.2019
1883 Clouds -17 1010 91 10000 3 180 06:26 23.12.2019
1884 Clouds -17 1011 84 9000 3 180 05:53 23.12.2019
1885 Clouds -17 1012 84 10000 3 190 05:28 23.12.2019
1886 Mist -18 1013 84 5000 2 180 04:31 23.12.2019
1887 Clouds -18 1014 84 9000 2 190 03:18 23.12.2019
1888 Clouds -18 1014 84 9000 1 190 02:40 23.12.2019
1889 Mist -18 1014 84 5000 2 190 02:19 23.12.2019
1890 Mist -18 1015 84 5000 1 0 01:42 23.12.2019
1891 Snow -18 1015 84 9000 1 190 01:20 23.12.2019
1892 Snow -18 1016 84 8000 1 0 00:43 23.12.2019
1893 Clouds -18 1016 84 9000 1 0 00:22 23.12.2019
1894 Mist -18 1016 84 5000 1 240 23:39 22.12.2019
1895 Clouds -18 1016 84 9000 1 190 23:21 22.12.2019
1896 Clouds -18 1017 91 7000 2.27 213 22:58 22.12.2019
1897 Clouds -18 1017 91 7000 2.27 213 22:39 22.12.2019
1898 Clouds -18 1017 91 8000 1 240 22:19 22.12.2019
1899 Mist -18 1017 91 5000 1 260 21:57 22.12.2019
1900 Mist -18 1017 91 5000 1 260 21:39 22.12.2019
1901 Clouds -18 1017 84 8000 1 280 21:21 22.12.2019
1902 Clouds -18 1017 84 7000 1 0 20:57 22.12.2019
1903 Clouds -18 1017 84 7000 1 0 20:38 22.12.2019
1904 Clouds -18 1017 84 7000 1 0 20:18 22.12.2019
1905 Clouds -18 1017 84 6000 1.39 119 19:55 22.12.2019
1906 Clouds -18 1017 84 6000 1.39 119 19:55 22.12.2019
1907 Clouds -18 1018 84 6000 1.39 119 19:37 22.12.2019
1908 Clouds -18 1018 84 6000 1.39 119 19:18 22.12.2019
1909 Mist -18 1018 84 4300 1 0 18:40 22.12.2019
1910 Mist -18 1018 84 2100 1 340 18:22 22.12.2019
1911 Mist -18 1018 84 5000 1 340 17:55 22.12.2019
1912 Fog -18 1018 84 6000 1 350 17:37 22.12.2019
1913 Fog -18 1018 84 6000 1 350 17:18 22.12.2019
1914 Clouds -19 1018 84 10000 1.54 45 16:56 22.12.2019
1915 Clouds -19 1018 84 10000 1.54 45 16:37 22.12.2019
1916 Clouds -19 1018 84 10000 1.54 45 16:19 22.12.2019
1917 Clouds -19 1018 91 10000 1.54 45 15:56 22.12.2019
1918 Clouds -19 1018 84 10000 1.54 45 15:36 22.12.2019
1919 Clouds -19 1018 84 10000 1.54 45 15:36 22.12.2019
1920 Clouds -19 1018 84 10000 1.54 45 15:18 22.12.2019
1921 Clouds -20 1018 83 10000 1.54 45 14:54 22.12.2019
1922 Clouds -20 1018 83 10000 1 0 14:36 22.12.2019
1923 Clouds -20 1018 83 10000 1 0 14:18 22.12.2019
1924 Clouds -20 1018 83 10000 2.83 37 13:55 22.12.2019
1925 Clouds -20 1018 83 10000 2.83 37 13:36 22.12.2019
1926 Clouds -20 1018 83 10000 2.83 37 13:18 22.12.2019
1927 Clouds -20 1018 83 10000 2.83 37 13:18 22.12.2019
1928 Clouds -20 1018 83 10000 2.91 37 12:54 22.12.2019
1929 Clouds -20 1018 83 10000 2.91 37 12:54 22.12.2019
1930 Clouds -20 1018 83 10000 2.91 37 12:54 22.12.2019
1931 Clouds -19 1017 84 10000 1 0 12:36 22.12.2019
1932 Clouds -19 1017 84 10000 1 0 12:18 22.12.2019
1933 Clouds -20 1017 91 7000 2.91 37 11:39 22.12.2019
1934 Clouds -19 1017 84 10000 2.58 48 11:20 22.12.2019
1935 Clouds -18 1017 84 10000 2.58 48 10:58 22.12.2019
1936 Clouds -18 1017 84 10000 2.58 48 10:40 22.12.2019
1937 Clouds -17 1017 84 10000 1 30 10:21 22.12.2019
1938 Clouds -17 1017 84 10000 1 40 09:58 22.12.2019
1939 Clouds -17 1017 84 10000 1 40 09:40 22.12.2019
1940 Clouds -17 1016 91 10000 2 50 09:21 22.12.2019
1941 Clouds -16 1016 84 9000 1 40 08:55 22.12.2019
1942 Clouds -16 1016 84 10000 2 70 08:37 22.12.2019
1943 Clouds -16 1016 84 10000 2 70 08:18 22.12.2019
1944 Snow -16 1016 84 8000 1 50 07:36 22.12.2019
1945 Snow -16 1016 84 8000 1 50 07:18 22.12.2019
1946 Snow -15 1016 84 4200 2 70 06:40 22.12.2019
1947 Snow -15 1016 92 7000 1 0 05:49 22.12.2019
1948 Snow -14 1016 92 4500 2 60 05:21 22.12.2019
1949 Snow -13 1015 92 7000 2 50 04:28 22.12.2019
1950 Snow -13 1015 92 6000 3 50 03:45 22.12.2019
1951 Snow -12 1015 92 6000 2 60 02:38 22.12.2019
1952 Snow -12 1015 92 6000 2 60 02:38 22.12.2019
1953 Snow -11 1015 92 6000 3 60 01:42 22.12.2019
1954 Snow -12 1015 100 8000 3 60 01:22 22.12.2019
1955 Snow -12 1014 100 8000 3 70 00:45 22.12.2019
1956 Snow -12 1014 100 7000 3 70 00:22 22.12.2019
1957 Snow -12 1014 92 6000 3 70 23:55 21.12.2019
1958 Snow -12 1014 92 6000 3 70 23:37 21.12.2019
1959 Snow -12 1014 92 6000 3 70 23:18 21.12.2019
1960 Snow -12 1014 92 6000 3 70 22:40 21.12.2019
1961 Snow -12 1014 92 6000 3 70 22:40 21.12.2019
1962 Snow -12 1014 92 4200 3 70 22:19 21.12.2019
1963 Snow -12 1014 92 4300 3 70 21:57 21.12.2019
1964 Snow -13 1014 92 3400 3 70 21:37 21.12.2019
1965 Snow -13 1014 92 3400 3 70 21:19 21.12.2019
1966 Snow -13 1014 92 3600 3 70 20:58 21.12.2019
1967 Snow -13 1014 92 3600 3 70 20:58 21.12.2019
1968 Snow -13 1014 92 3600 3 70 20:39 21.12.2019
1969 Snow -13 1014 92 3400 3 70 20:21 21.12.2019
1970 Snow -13 1014 92 4300 3 60 19:58 21.12.2019
1971 Snow -13 1014 92 4300 3 60 19:40 21.12.2019
1972 Snow -13 1014 92 5000 3 70 19:19 21.12.2019
1973 Snow -13 1014 92 3700 3 70 18:44 21.12.2019
1974 Snow -12 1014 92 5000 3 60 18:24 21.12.2019
1975 Snow -12 1014 92 3200 4 60 17:57 21.12.2019
1976 Snow -12 1014 92 3200 4 60 17:39 21.12.2019
1977 Snow -12 1014 92 4100 3 60 17:21 21.12.2019
1978 Snow -13 1014 92 4000 3 70 16:58 21.12.2019
1979 Snow -13 1014 92 4000 3 70 16:40 21.12.2019
1980 Snow -13 1014 92 4500 3 70 16:18 21.12.2019
1981 Snow -13 1014 92 4500 3 70 16:18 21.12.2019
1982 Snow -13 1014 84 7000 2 70 15:57 21.12.2019
1983 Snow -14 1014 92 6000 2 60 15:38 21.12.2019
1984 Snow -14 1014 92 6000 2 60 15:19 21.12.2019
1985 Snow -14 1014 84 9000 2 60 14:55 21.12.2019
1986 Mist -14 1014 84 5000 3 60 14:37 21.12.2019
1987 Mist -14 1014 84 5000 3 60 14:18 21.12.2019
1988 Clouds -15 1014 84 10000 4.14 67 13:54 21.12.2019
1989 Clouds -15 1014 84 10000 4.14 67 13:36 21.12.2019
1990 Clouds -15 1014 84 10000 4.09 65 13:18 21.12.2019
1991 Clouds -15 1014 92 10000 4.09 65 12:54 21.12.2019
1992 Clouds -15 1014 92 10000 2 60 12:36 21.12.2019
1993 Clouds -15 1014 92 10000 2 60 12:18 21.12.2019
1994 Clouds -15 1014 92 10000 1 50 11:41 21.12.2019
1995 Snow -15 1014 84 8000 1 50 11:23 21.12.2019
1996 Snow -16 1014 91 6000 1 50 10:42 21.12.2019
1997 Snow -16 1014 84 9000 1 60 10:23 21.12.2019
1998 Snow -16 1014 84 9000 1 60 10:23 21.12.2019
1999 Snow -16 1014 84 6000 2 50 09:59 21.12.2019
2000 Snow -16 1014 84 6000 2 50 09:41 21.12.2019
2001 Snow -16 1014 84 7000 2 60 09:20 21.12.2019
2002 Clouds -17 1014 91 10000 1 50 08:55 21.12.2019
2003 Clouds -17 1014 84 10000 1 60 08:36 21.12.2019
2004 Clouds -17 1014 84 10000 1 60 08:18 21.12.2019
2005 Clouds -16 1014 84 9000 2 50 07:41 21.12.2019
2006 Clouds -16 1014 84 6000 1 60 07:21 21.12.2019
2007 Mist -17 1014 84 5000 1 50 06:42 21.12.2019
2008 Mist -17 1015 84 3800 1 50 06:24 21.12.2019
2009 Mist -17 1014 84 5000 1 60 05:45 21.12.2019
2010 Clouds -17 1015 84 10000 2 70 04:57 21.12.2019
2011 Mist -17 1015 84 4800 2 70 03:56 21.12.2019
2012 Clouds -17 1015 84 6000 1 60 02:40 21.12.2019
2013 Fog -18 1015 91 2000 1 0 01:53 21.12.2019
2014 Mist -18 1015 84 3900 1 70 01:27 21.12.2019
2015 Clouds -18 1015 84 9000 1 0 00:50 21.12.2019
2016 Clouds -19 1015 91 10000 1 0 00:28 21.12.2019
2017 Mist -19 1015 84 2900 2 80 23:55 20.12.2019
2018 Mist -19 1015 84 1500 2 70 23:37 20.12.2019
2019 Mist -19 1015 84 1500 2 70 23:18 20.12.2019
2020 Mist -20 1015 83 1200 2 70 22:40 20.12.2019
2021 Clouds -20 1015 83 9000 2 70 22:21 20.12.2019
2022 Clouds -20 1015 83 10000 2 70 21:57 20.12.2019
2023 Clouds -20 1015 83 10000 2 70 21:39 20.12.2019
2024 Clouds -21 1015 83 10000 2 80 21:18 20.12.2019
2025 Clouds -21 1015 83 9000 3 70 20:39 20.12.2019
2026 Clouds -21 1015 83 10000 2 70 20:19 20.12.2019
2027 Clouds -21 1015 83 10000 2 70 19:57 20.12.2019
2028 Clouds -21 1015 83 10000 2 70 19:57 20.12.2019
2029 Clouds -21 1015 83 10000 2 70 19:39 20.12.2019
2030 Clouds -21 1015 83 10000 3 60 19:19 20.12.2019
2031 Clouds -21 1015 83 10000 2 70 18:42 20.12.2019
2032 Clouds -21 1015 83 10000 2 70 18:24 20.12.2019
2033 Clouds -21 1015 83 10000 2 70 17:58 20.12.2019
2034 Clouds -21 1015 83 10000 2 70 17:40 20.12.2019
2035 Clouds -21 1015 83 10000 2 70 17:21 20.12.2019
2036 Clouds -22 1015 83 10000 2 70 16:59 20.12.2019
2037 Clouds -22 1015 76 10000 2 70 16:38 20.12.2019
2038 Clouds -22 1015 76 10000 2 70 16:20 20.12.2019
2039 Clouds -22 1015 83 9000 2 70 15:56 20.12.2019
2040 Clouds -22 1015 83 10000 2 70 15:38 20.12.2019
2041 Clouds -22 1015 83 10000 2 70 15:38 20.12.2019
2042 Clouds -22 1015 83 10000 2 70 15:19 20.12.2019
2043 Clouds -20 1014 83 10000 2 100 14:43 20.12.2019
2044 Clouds -22 1014 83 10000 3 70 14:25 20.12.2019
2045 Clouds -22 1014 83 10000 2 60 13:59 20.12.2019
2046 Clouds -22 1014 83 10000 2 60 13:59 20.12.2019
2047 Clouds -22 1014 83 10000 2 70 13:40 20.12.2019
2048 Clouds -22 1014 83 10000 2 70 13:19 20.12.2019
2049 Clouds -21 1014 83 10000 2 70 12:57 20.12.2019
2050 Clouds -21 1014 83 10000 2 70 12:37 20.12.2019
2051 Clouds -21 1014 83 10000 2 70 12:18 20.12.2019
2052 Clouds -20 1014 83 9000 2 80 11:57 20.12.2019
2053 Clouds -21 1014 83 9000 2 70 11:39 20.12.2019
2054 Clouds -21 1014 83 9000 2 70 11:18 20.12.2019
2055 Clouds -20 1014 83 7000 2 100 10:56 20.12.2019
2056 Clouds -19 1013 84 9000 2 100 10:38 20.12.2019
2057 Clouds -19 1013 84 9000 2 100 10:20 20.12.2019
2058 Clouds -20 1013 83 9000 2 70 09:43 20.12.2019
2059 Clouds -19 1013 84 9000 1 0 09:21 20.12.2019
2060 Mist -19 1014 84 9000 2 110 08:58 20.12.2019
2061 Clouds -19 1013 91 8000 2 110 08:40 20.12.2019
2062 Clouds -19 1013 91 8000 2 110 08:21 20.12.2019
2063 Clouds -19 1013 84 9000 2 100 07:57 20.12.2019
2064 Clouds -19 1013 84 9000 2 100 07:57 20.12.2019
2065 Clouds -19 1013 84 6000 2 90 07:38 20.12.2019
2066 Clouds -19 1013 84 6000 2 90 07:18 20.12.2019
2067 Snow -19 1013 84 4100 2 100 06:46 20.12.2019
2068 Snow -19 1013 91 3800 2 110 06:28 20.12.2019
2069 Snow -18 1013 84 3300 1 0 05:48 20.12.2019
2070 Snow -18 1013 84 3300 2 90 05:18 20.12.2019
2071 Mist -17 1012 91 5000 2 140 03:50 20.12.2019
2072 Clouds -17 1012 91 6000 2 160 03:20 20.12.2019
2073 Clouds -18 1012 84 7000 1 0 02:20 20.12.2019
2074 Mist -17 1011 84 4400 2 160 01:36 20.12.2019
2075 Clouds -18 1011 91 7000 1 140 00:57 20.12.2019
2076 Clouds -18 1011 84 9000 1 0 00:35 20.12.2019
2077 Clouds -18 1011 84 6000 2 150 23:58 19.12.2019
2078 Clouds -19 1011 91 9000 2 120 23:40 19.12.2019
2079 Clouds -19 1011 91 9000 2 120 23:21 19.12.2019
2080 Clouds -19 1011 91 9000 2 120 23:21 19.12.2019
2081 Clouds -19 1011 91 7000 2 120 22:40 19.12.2019
2082 Clouds -19 1011 91 7000 2 120 22:22 19.12.2019
2083 Mist -18 1011 84 5000 2 140 21:59 19.12.2019
2084 Mist -18 1011 84 5000 2 140 21:59 19.12.2019
2085 Clouds -19 1011 84 8000 2 150 21:41 19.12.2019
2086 Clouds -19 1011 84 8000 2 150 21:19 19.12.2019
2087 Clouds -20 1011 91 10000 1 120 20:57 19.12.2019
2088 Clouds -20 1011 83 9000 1 100 20:38 19.12.2019
2089 Clouds -20 1011 83 9000 1 100 20:20 19.12.2019
2090 Clouds -20 1011 91 9000 2 110 19:58 19.12.2019
2091 Clouds -20 1011 91 7000 2 100 19:40 19.12.2019
2092 Clouds -20 1011 91 7000 2 100 19:19 19.12.2019
2093 Clouds -20 1011 91 7000 2 100 19:19 19.12.2019
2094 Clouds -20 1011 91 7000 2 100 19:19 19.12.2019
2095 Clouds -19 1011 84 7000 2 110 18:58 19.12.2019
2096 Mist -19 1011 84 5000 2 100 18:40 19.12.2019
2097 Mist -19 1011 84 5000 2 100 18:19 19.12.2019
2098 Clouds -19 1011 84 6000 2 110 17:56 19.12.2019
2099 Clouds -19 1011 91 6000 2 110 17:37 19.12.2019
2100 Clouds -19 1011 91 6000 2 110 17:18 19.12.2019
2101 Mist -19 1011 91 7000 2 100 16:56 19.12.2019
2102 Mist -18 1011 84 5000 2 110 16:37 19.12.2019
2103 Mist -18 1011 84 5000 2 110 16:19 19.12.2019
2104 Mist -18 1011 84 5000 2 120 15:56 19.12.2019
2105 Mist -18 1011 91 4100 2 110 15:37 19.12.2019
2106 Mist -18 1011 91 4100 2 110 15:19 19.12.2019
2107 Mist -18 1011 91 4100 2 110 15:19 19.12.2019
2108 Clouds -18 1012 84 9000 2 110 14:43 19.12.2019
2109 Clouds -18 1012 91 10000 2 110 14:20 19.12.2019
2110 Clouds -19 1011 84 10000 1 0 13:59 19.12.2019
2111 Clouds -19 1011 84 10000 2 70 13:38 19.12.2019
2112 Clouds -19 1011 84 10000 2 70 13:19 19.12.2019
2113 Clouds -19 1011 84 8000 2 70 12:57 19.12.2019
2114 Clouds -18 1012 84 10000 2 80 12:39 19.12.2019
2115 Clouds -18 1012 84 10000 2 80 12:19 19.12.2019
2116 Clouds -18 1012 84 10000 2 80 12:19 19.12.2019
2117 Clouds -18 1012 84 10000 2 90 11:58 19.12.2019
2118 Clouds -18 1012 91 10000 2 100 11:40 19.12.2019
2119 Clouds -18 1012 91 10000 2 100 11:18 19.12.2019
2120 Clouds -17 1012 91 10000 2 100 10:58 19.12.2019
2121 Clouds -17 1012 91 10000 2 100 10:38 19.12.2019
2122 Clouds -17 1012 91 10000 2 100 10:20 19.12.2019
2123 Clouds -17 1012 91 9000 2 100 09:54 19.12.2019
2124 Mist -16 1013 84 8000 1 0 09:36 19.12.2019
2125 Mist -16 1013 84 8000 1 0 09:18 19.12.2019
2126 Mist -16 1013 91 2500 2 100 08:41 19.12.2019
2127 Mist -16 1013 91 2500 2 100 08:19 19.12.2019
2128 Fog -16 1013 91 2200 1 110 07:58 19.12.2019
2129 Fog -16 1013 84 2100 2 110 07:38 19.12.2019
2130 Fog -16 1013 84 2100 2 110 07:20 19.12.2019
2131 Fog -16 1013 91 2300 2 120 06:50 19.12.2019
2132 Fog -16 1013 91 2300 2 120 06:50 19.12.2019
2133 Mist -16 1013 91 2700 2 120 06:29 19.12.2019
2134 Mist -16 1013 91 3200 2 110 05:55 19.12.2019
2135 Mist -16 1013 91 3800 2 110 05:36 19.12.2019
2136 Clouds -15 1014 92 7000 2 100 04:52 19.12.2019
2137 Snow -14 1014 92 1900 2 100 03:21 19.12.2019
2138 Mist -13 1014 92 2500 2 90 02:22 19.12.2019
2139 Mist -13 1015 100 3700 2 150 01:22 19.12.2019
2140 Mist -12 1015 92 4000 3 150 00:43 19.12.2019
2141 Mist -12 1015 92 4000 3 150 00:24 19.12.2019
2142 Mist -12 1015 92 4500 3 150 23:57 18.12.2019
2143 Clouds -12 1015 100 7000 3 150 23:38 18.12.2019
2144 Clouds -12 1015 100 7000 3 150 23:18 18.12.2019
2145 Clouds -12 1015 100 10000 3 140 22:55 18.12.2019
2146 Clouds -12 1015 100 10000 3 150 22:36 18.12.2019
2147 Clouds -12 1015 100 10000 3 150 22:18 18.12.2019
2148 Mist -11 1015 100 5000 3 150 21:56 18.12.2019
2149 Mist -11 1015 100 5000 3 150 21:56 18.12.2019
2150 Clouds -11 1016 92 10000 3 150 21:37 18.12.2019
2151 Clouds -11 1016 92 10000 3 150 21:19 18.12.2019
2152 Clouds -11 1016 100 10000 2 150 20:55 18.12.2019
2153 Clouds -11 1016 100 10000 3 150 20:37 18.12.2019
2154 Clouds -11 1016 100 10000 3 150 20:18 18.12.2019
2155 Clouds -10 1016 100 10000 3 150 19:55 18.12.2019
2156 Clouds -10 1016 100 10000 4 160 19:37 18.12.2019
2157 Clouds -10 1016 100 10000 4 160 19:18 18.12.2019
2158 Clouds -10 1016 100 10000 4 160 19:18 18.12.2019
2159 Clouds -8 1016 100 8000 3 160 18:43 18.12.2019
2160 Clouds -8 1016 100 8000 3 160 18:25 18.12.2019
2161 Clouds -8 1016 100 8000 3 160 18:25 18.12.2019
2162 Mist -8 1016 100 3600 3 150 17:57 18.12.2019
2163 Mist -8 1016 100 5000 2 140 17:38 18.12.2019
2164 Mist -8 1016 100 5000 2 140 17:19 18.12.2019
2165 Mist -8 1016 100 2200 2 110 16:54 18.12.2019
2166 Mist -8 1017 100 2800 2 100 16:36 18.12.2019
2167 Mist -8 1017 100 2800 2 100 16:18 18.12.2019
2168 Mist -9 1017 100 5000 2 100 15:55 18.12.2019
2169 Clouds -9 1017 100 10000 2 100 15:36 18.12.2019
2170 Clouds -9 1017 100 10000 2 100 15:18 18.12.2019
2171 Clouds -9 1017 100 10000 2 100 14:40 18.12.2019
2172 Clouds -9 1017 100 10000 2 160 14:20 18.12.2019
2173 Clouds -9 1017 100 10000 2 160 13:57 18.12.2019
2174 Clouds -9 1017 100 10000 3 110 13:37 18.12.2019
2175 Clouds -9 1017 100 10000 3 110 13:19 18.12.2019
2176 Clouds -9 1017 100 10000 1 0 12:57 18.12.2019
2177 Clouds -9 1017 100 10000 1 0 12:37 18.12.2019
2178 Clouds -9 1017 100 10000 1 0 12:19 18.12.2019
2179 Clouds -9 1017 100 10000 2 110 11:55 18.12.2019
2180 Clouds -9 1017 100 10000 2 110 11:37 18.12.2019
2181 Clouds -9 1017 100 10000 2 110 11:37 18.12.2019
2182 Clouds -9 1017 100 10000 2 110 11:18 18.12.2019
2183 Clouds -9 1018 100 10000 2 110 10:55 18.12.2019
2184 Clouds -10 1018 100 10000 2 80 10:37 18.12.2019
2185 Clouds -10 1018 100 10000 2 80 10:37 18.12.2019
2186 Clouds -10 1018 100 10000 2 80 10:18 18.12.2019
2187 Clouds -9 1018 100 10000 2 200 09:43 18.12.2019
2188 Clouds -10 1018 100 10000 1 0 09:18 18.12.2019
2189 Clouds -10 1018 100 10000 1 0 09:18 18.12.2019
2190 Clouds -8 1018 100 10000 2 190 08:40 18.12.2019
2191 Clouds -9 1018 100 10000 2 190 08:21 18.12.2019
2192 Clouds -9 1018 100 10000 2 180 07:43 18.12.2019
2193 Clouds -9 1018 100 10000 2 190 07:22 18.12.2019
2194 Clouds -9 1018 100 10000 2 190 06:55 18.12.2019
2195 Clouds -10 1018 100 10000 2 180 06:27 18.12.2019
2196 Clouds -10 1018 100 10000 2 190 05:47 18.12.2019
2197 Clouds -10 1018 100 10000 2 200 04:52 18.12.2019
2198 Clouds -14 1019 92 10000 1 0 02:55 18.12.2019
2199 Clouds -14 1019 92 10000 1 0 02:36 18.12.2019
2200 Clouds -14 1019 92 10000 1 0 02:18 18.12.2019
2201 Clouds -15 1019 92 10000 1 0 01:40 18.12.2019
2202 Clouds -14 1019 92 10000 2 180 01:21 18.12.2019
2203 Clouds -13 1019 92 10000 2 190 00:40 18.12.2019
2204 Clouds -13 1019 92 10000 2 190 00:22 18.12.2019
2205 Clouds -13 1019 100 10000 1 150 23:56 17.12.2019
2206 Clouds -13 1019 92 10000 1 0 23:37 17.12.2019
2207 Clouds -13 1019 92 10000 1 0 23:18 17.12.2019
2208 Clouds -13 1020 100 10000 1 170 22:55 17.12.2019
2209 Clouds -13 1020 100 10000 1 0 22:37 17.12.2019
2210 Clouds -13 1020 100 10000 1 0 22:18 17.12.2019
2211 Clouds -13 1020 100 10000 1 150 21:55 17.12.2019
2212 Clouds -13 1020 100 10000 1 150 21:55 17.12.2019
2213 Clouds -13 1020 100 10000 2 150 21:37 17.12.2019
2214 Clouds -13 1020 100 10000 2 150 21:18 17.12.2019
2215 Clouds -13 1020 100 10000 2 150 20:55 17.12.2019
2216 Clouds -13 1020 100 10000 2 150 20:37 17.12.2019
2217 Clear -13 1020 100 10000 2 150 20:18 17.12.2019
2218 Clear -13 1020 100 10000 2 150 19:41 17.12.2019
2219 Clear -13 1020 100 10000 2 150 19:41 17.12.2019
2220 Clear -13 1020 100 10000 2 160 19:20 17.12.2019
2221 Clear -12 1020 100 10000 3 190 18:58 17.12.2019
2222 Clear -11 1020 92 10000 3 190 18:40 17.12.2019
2223 Clear -11 1020 92 10000 3 190 18:21 17.12.2019
2224 Clear -11 1021 92 10000 3 190 17:58 17.12.2019
2225 Clear -11 1021 92 10000 3 190 17:40 17.12.2019
2226 Clear -11 1021 92 10000 3 190 17:19 17.12.2019
2227 Clear -11 1021 92 10000 3 180 16:56 17.12.2019
2228 Clear -12 1021 100 10000 2 170 16:37 17.12.2019
2229 Clear -12 1021 100 10000 2 170 16:19 17.12.2019
2230 Clear -12 1021 100 10000 2 150 15:55 17.12.2019
2231 Clear -12 1021 100 10000 2 150 15:37 17.12.2019
2232 Clear -12 1021 100 10000 2 150 15:18 17.12.2019
2233 Clear -12 1022 100 10000 2 150 14:55 17.12.2019
2234 Clear -11 1022 92 10000 3 160 14:36 17.12.2019
2235 Clouds -11 1022 92 10000 3 160 14:18 17.12.2019
2236 Clouds -11 1022 92 10000 2 160 13:55 17.12.2019
2237 Clouds -11 1022 100 10000 3 170 13:37 17.12.2019
2238 Clouds -11 1022 100 10000 3 170 13:18 17.12.2019
2239 Clouds -11 1022 92 10000 4 160 12:41 17.12.2019
2240 Clouds -11 1022 92 10000 4 160 12:19 17.12.2019
2241 Clouds -11 1022 92 10000 4 160 12:19 17.12.2019
2242 Clouds -12 1023 100 10000 3 150 11:59 17.12.2019
2243 Clouds -12 1022 100 10000 3 150 11:37 17.12.2019
2244 Clouds -12 1022 100 10000 3 150 11:19 17.12.2019
2245 Clouds -12 1022 100 10000 2 150 10:59 17.12.2019
2246 Clouds -11 1023 92 10000 2 150 10:41 17.12.2019
2247 Clouds -11 1023 92 10000 2 150 10:22 17.12.2019
2248 Clouds -11 1023 100 10000 2 150 09:59 17.12.2019
2249 Clouds -11 1023 100 10000 2 150 09:41 17.12.2019
2250 Clouds -11 1023 100 10000 2 150 09:41 17.12.2019
2251 Clouds -11 1023 100 10000 2 150 09:20 17.12.2019
2252 Clouds -11 1023 100 10000 3 150 08:56 17.12.2019
2253 Clouds -11 1023 100 10000 2 160 08:38 17.12.2019
2254 Clouds -11 1023 100 10000 2 160 08:19 17.12.2019
2255 Snow -11 1023 100 10000 3 180 07:46 17.12.2019
2256 Snow -11 1023 92 10000 3 190 07:26 17.12.2019
2257 Snow -12 1023 100 10000 3 200 06:56 17.12.2019
2258 Snow -12 1024 100 10000 3 200 06:35 17.12.2019
2259 Clouds -12 1024 100 10000 3 190 05:53 17.12.2019
2260 Clouds -12 1024 100 10000 3 190 05:34 17.12.2019
2261 Clouds -12 1024 100 10000 2 180 04:30 17.12.2019
2262 Clouds -12 1024 92 10000 3 190 02:34 17.12.2019
2263 Clouds -12 1024 92 10000 3 190 02:34 17.12.2019
2264 Clouds -13 1024 100 10000 3 190 01:55 17.12.2019
2265 Clouds -13 1025 100 10000 2 220 00:58 17.12.2019
2266 Clouds -12 1025 92 10000 3 210 00:37 17.12.2019
2267 Clouds -12 1025 92 10000 3 210 00:19 17.12.2019
2268 Clouds -12 1025 100 10000 2 210 23:41 16.12.2019
2269 Clouds -12 1025 100 10000 2 210 23:19 16.12.2019
2270 Clouds -12 1025 100 10000 2 210 22:56 16.12.2019
2271 Clouds -12 1025 100 10000 3 200 22:37 16.12.2019
2272 Clouds -12 1025 100 10000 3 200 22:19 16.12.2019
2273 Clouds -11 1025 92 10000 3 210 21:55 16.12.2019
2274 Clouds -11 1025 100 10000 3 220 21:37 16.12.2019
2275 Clouds -11 1025 100 10000 3 220 21:19 16.12.2019
2276 Clouds -11 1025 100 10000 2 220 20:57 16.12.2019
2277 Clouds -11 1025 100 10000 2 220 20:57 16.12.2019
2278 Clouds -11 1024 92 10000 3 220 20:37 16.12.2019
2279 Clouds -11 1024 92 10000 3 220 20:19 16.12.2019
2280 Clouds -11 1025 100 10000 3 230 19:55 16.12.2019
2281 Clouds -11 1025 100 10000 3 240 19:37 16.12.2019
2282 Clouds -11 1025 100 10000 3 240 19:18 16.12.2019
2283 Clouds -11 1025 100 10000 2 230 18:56 16.12.2019
2284 Clouds -11 1025 100 10000 2 230 18:37 16.12.2019
2285 Clouds -11 1025 100 10000 2 230 18:19 16.12.2019
2286 Clouds -11 1025 100 10000 2 230 18:19 16.12.2019
2287 Snow -11 1025 100 10000 3 240 17:57 16.12.2019
2288 Snow -11 1025 100 10000 2 240 17:37 16.12.2019
2289 Snow -11 1025 100 10000 2 240 17:19 16.12.2019
2290 Snow -10 1025 100 10000 2 250 16:55 16.12.2019
2291 Snow -10 1025 100 10000 2 250 16:37 16.12.2019
2292 Snow -10 1025 100 10000 2 250 16:18 16.12.2019
2293 Clouds -10 1025 100 8000 2 250 15:57 16.12.2019
2294 Clouds -10 1025 100 10000 2 250 15:37 16.12.2019
2295 Clouds -10 1025 100 10000 2 250 15:19 16.12.2019
2296 Clouds -9 1025 100 10000 2 240 14:54 16.12.2019
2297 Snow -9 1025 100 10000 2 240 14:36 16.12.2019
2298 Snow -9 1025 100 10000 2 240 14:18 16.12.2019
2299 Snow -9 1025 100 10000 2 240 14:18 16.12.2019
2300 Snow -9 1025 100 10000 2 240 13:55 16.12.2019
2301 Clouds -8 1025 100 10000 2 220 13:36 16.12.2019
2302 Clouds -8 1025 100 10000 2 220 13:18 16.12.2019
2303 Clouds -8 1025 100 10000 2 220 13:18 16.12.2019
2304 Clouds -8 1025 100 10000 2 220 12:54 16.12.2019
2305 Clouds -7 1025 100 10000 2 230 12:36 16.12.2019
2306 Clouds -7 1025 100 10000 2 230 12:18 16.12.2019
2307 Clouds -7 1025 100 10000 2 240 11:55 16.12.2019
2308 Clouds -7 1025 100 10000 3 240 11:37 16.12.2019
2309 Clouds -7 1025 100 10000 3 240 11:19 16.12.2019
2310 Clouds -6 1024 100 10000 3 240 10:40 16.12.2019
2311 Clouds -6 1024 100 10000 3 240 10:21 16.12.2019
2312 Snow -6 1024 100 10000 3 240 09:56 16.12.2019
2313 Snow -6 1024 100 9000 3 250 09:38 16.12.2019
2314 Snow -6 1024 100 9000 3 250 09:20 16.12.2019
2315 Clouds -6 1024 100 10000 3 240 08:40 16.12.2019
2316 Clouds -6 1024 100 10000 3 240 08:19 16.12.2019
2317 Clouds -6 1024 100 10000 3 240 08:19 16.12.2019
2318 Snow -6 1024 100 10000 3 250 07:52 16.12.2019
2319 Snow -6 1024 100 10000 3 250 07:31 16.12.2019
2320 Snow -6 1024 100 10000 3 250 06:52 16.12.2019
2321 Snow -6 1024 100 9000 2 240 06:27 16.12.2019
2322 Snow -6 1024 100 9000 3 250 05:59 16.12.2019
2323 Snow -6 1024 100 9000 3 250 05:40 16.12.2019
2324 Snow -6 1024 100 9000 3 250 05:22 16.12.2019
2325 Snow -7 1024 100 10000 3 250 03:28 16.12.2019
2326 Snow -7 1024 100 8000 4 250 01:46 16.12.2019
2327 Clouds -7 1024 100 10000 3 250 01:21 16.12.2019
2328 Clouds -7 1024 100 10000 3 250 00:39 16.12.2019
2329 Clouds -7 1024 100 10000 3 250 00:19 16.12.2019
2330 Clouds -7 1024 100 10000 3 240 23:44 15.12.2019
2331 Clouds -7 1024 100 10000 3 240 23:25 15.12.2019
2332 Clouds -7 1024 100 10000 2 240 22:57 15.12.2019
2333 Clouds -7 1024 100 10000 3 240 22:39 15.12.2019
2334 Clouds -7 1024 100 10000 3 240 22:19 15.12.2019
2335 Clouds -7 1024 100 10000 3 250 21:58 15.12.2019
2336 Clouds -7 1024 100 10000 3 250 21:39 15.12.2019
2337 Clouds -7 1024 100 10000 3 250 21:20 15.12.2019
2338 Clouds -7 1024 100 10000 3 240 20:58 15.12.2019
2339 Clouds -7 1024 100 10000 3 240 20:58 15.12.2019
2340 Snow -7 1024 100 9000 3 240 20:40 15.12.2019
2341 Snow -7 1024 100 9000 3 240 20:40 15.12.2019
2342 Snow -7 1024 100 9000 3 240 20:22 15.12.2019
2343 Snow -7 1024 100 10000 3 240 19:58 15.12.2019
2344 Snow -7 1024 100 10000 3 240 19:40 15.12.2019
2345 Snow -7 1024 100 10000 3 240 19:20 15.12.2019
2346 Snow -7 1024 100 9000 3 230 18:58 15.12.2019
2347 Snow -7 1024 100 10000 3 230 18:39 15.12.2019
2348 Snow -7 1024 100 10000 3 230 18:19 15.12.2019
2349 Snow -7 1024 100 8000 3 240 17:57 15.12.2019
2350 Snow -7 1024 100 10000 3 240 17:38 15.12.2019
2351 Snow -7 1024 100 10000 3 240 17:19 15.12.2019
2352 Snow -7 1024 100 10000 3 230 16:59 15.12.2019
2353 Snow -7 1024 100 9000 3 220 16:41 15.12.2019
2354 Snow -7 1024 100 9000 3 220 16:21 15.12.2019
2355 Snow -7 1025 100 9000 3 230 15:56 15.12.2019
2356 Snow -7 1025 100 9000 3 230 15:56 15.12.2019
2357 Snow -7 1025 100 10000 3 230 15:38 15.12.2019
2358 Snow -7 1025 100 10000 3 230 15:19 15.12.2019
2359 Snow -7 1025 100 10000 3 210 14:56 15.12.2019
2360 Snow -7 1025 100 10000 2 210 14:37 15.12.2019
2361 Snow -7 1025 100 10000 2 210 14:18 15.12.2019
2362 Clouds -7 1025 100 10000 2 210 13:58 15.12.2019
2363 Snow -6 1025 100 10000 2 210 13:37 15.12.2019
2364 Snow -6 1025 100 10000 2 210 13:19 15.12.2019
2365 Clouds -6 1025 100 10000 2 210 12:56 15.12.2019
2366 Snow -6 1025 100 10000 2 200 12:38 15.12.2019
2367 Snow -6 1025 100 10000 2 200 12:20 15.12.2019
2368 Snow -6 1025 100 6000 2 190 11:56 15.12.2019
2369 Snow -6 1025 100 10000 2 190 11:36 15.12.2019
2370 Snow -6 1025 100 10000 2 190 11:18 15.12.2019
2371 Snow -6 1025 100 7000 2 200 10:55 15.12.2019
2372 Snow -6 1025 100 3800 2 200 10:36 15.12.2019
2373 Snow -6 1025 100 3800 2 200 10:18 15.12.2019
2374 Clouds -6 1025 92 10000 2 200 09:40 15.12.2019
2375 Clouds -6 1025 92 10000 2 200 09:20 15.12.2019
2376 Clouds -7 1025 100 10000 2 200 08:58 15.12.2019
2377 Clouds -7 1025 100 10000 2 200 08:39 15.12.2019
2378 Clouds -7 1025 100 10000 2 200 08:20 15.12.2019
2379 Clouds -7 1025 100 10000 1 0 07:56 15.12.2019
2380 Clouds -7 1025 100 10000 2 210 07:34 15.12.2019
2381 Clouds -7 1025 100 10000 2 220 06:44 15.12.2019
2382 Clouds -7 1025 100 10000 2 220 06:19 15.12.2019
2383 Clouds -7 1026 100 10000 2 210 05:26 15.12.2019
2384 Clouds -7 1026 100 10000 2 210 04:47 15.12.2019
2385 Clouds -8 1026 100 10000 2 210 03:29 15.12.2019
2386 Clouds -8 1026 100 10000 2 220 02:34 15.12.2019
2387 Clouds -8 1026 100 6000 2 210 01:47 15.12.2019
2388 Mist -9 1026 100 4200 1 0 01:28 15.12.2019
2389 Mist -9 1025 100 1700 1 200 00:57 15.12.2019
2390 Fog -10 1026 100 1000 1 210 00:38 15.12.2019
2391 Fog -10 1026 100 1000 1 210 00:20 15.12.2019
2392 Mist -10 1025 100 1800 2 220 23:39 14.12.2019
2393 Mist -10 1025 100 1800 2 220 23:19 14.12.2019
2394 Mist -10 1025 100 1400 1 0 22:58 14.12.2019
2395 Clouds -11 1025 100 9000 1 0 22:40 14.12.2019
2396 Clouds -11 1025 100 9000 1 0 22:20 14.12.2019
2397 Clouds -11 1025 100 8000 1 0 21:56 14.12.2019
2398 Mist -11 1025 100 3300 1 220 21:37 14.12.2019
2399 Mist -11 1025 100 3300 1 220 21:18 14.12.2019
2400 Fog -11 1025 100 550 2.22 227 20:56 14.12.2019
2401 Fog -11 1025 100 3500 2.22 227 20:37 14.12.2019
2402 Fog -11 1025 100 3500 2.23 236 20:19 14.12.2019
2403 Fog -11 1025 100 3500 2.23 236 20:19 14.12.2019
2404 Mist -11 1025 92 1600 1 0 19:54 14.12.2019
2405 Mist -12 1025 100 2100 2.23 236 19:36 14.12.2019
2406 Mist -12 1025 100 2100 2.23 236 19:18 14.12.2019
2407 Mist -12 1025 100 3000 2.23 236 18:55 14.12.2019
2408 Mist -12 1025 92 4000 1 200 18:36 14.12.2019
2409 Mist -12 1025 92 4000 1 200 18:18 14.12.2019
2410 Mist -13 1024 92 2500 2.23 236 17:42 14.12.2019
2411 Mist -13 1024 92 2500 2.24 237 17:22 14.12.2019
2412 Mist -13 1024 92 6000 2.24 237 16:42 14.12.2019
2413 Mist -13 1024 92 4200 2.24 237 16:20 14.12.2019
2414 Clouds -14 1024 100 9000 1 0 15:57 14.12.2019
2415 Clouds -14 1023 92 10000 1 0 15:38 14.12.2019
2416 Clouds -14 1023 92 10000 1 0 15:20 14.12.2019
2417 Clouds -14 1023 92 10000 1 240 14:57 14.12.2019
2418 Clouds -14 1023 92 10000 1 250 14:38 14.12.2019
2419 Clouds -14 1023 92 10000 1 250 14:38 14.12.2019
2420 Clouds -14 1023 92 10000 1 250 14:19 14.12.2019
2421 Clouds -14 1023 92 10000 1 270 13:44 14.12.2019
2422 Fog -15 1023 92 9000 1 250 13:20 14.12.2019
2423 Clouds -15 1022 92 10000 1 0 12:58 14.12.2019
2424 Clouds -15 1022 92 10000 1 280 12:40 14.12.2019
2425 Clouds -15 1022 92 10000 1 280 12:40 14.12.2019
2426 Clouds -15 1022 92 10000 1 280 12:20 14.12.2019
2427 Clouds -15 1022 84 10000 1 250 11:58 14.12.2019
2428 Clouds -15 1021 84 10000 1 0 11:39 14.12.2019
2429 Clouds -15 1021 84 10000 1 0 11:19 14.12.2019
2430 Clouds -16 1021 91 10000 1 270 10:57 14.12.2019
2431 Clouds -16 1021 91 10000 1 280 10:39 14.12.2019
2432 Clouds -16 1021 91 10000 1 280 10:20 14.12.2019
2433 Clouds -16 1021 91 10000 1 280 09:55 14.12.2019
2434 Clouds -16 1020 84 10000 1 0 09:37 14.12.2019
2435 Clouds -16 1020 84 10000 1 0 09:18 14.12.2019
2436 Clouds -17 1020 84 10000 1 290 08:42 14.12.2019
2437 Clouds -17 1020 84 10000 1 290 08:42 14.12.2019
2438 Clouds -17 1020 84 10000 2 280 08:19 14.12.2019
2439 Clouds -18 1020 91 10000 2 280 07:44 14.12.2019
2440 Clouds -18 1019 91 10000 3 280 07:23 14.12.2019
2441 Clouds -17 1019 84 10000 2 250 06:56 14.12.2019
2442 Clouds -17 1018 91 10000 2 250 06:37 14.12.2019
2443 Clouds -17 1018 84 9000 2 270 05:57 14.12.2019
2444 Clouds -16 1017 91 10000 2 250 04:47 14.12.2019
2445 Clouds -16 1016 91 9000 2 270 02:31 14.12.2019
2446 Clouds -16 1016 91 9000 3 280 01:49 14.12.2019
2447 Clouds -16 1016 91 10000 3 280 01:31 14.12.2019
2448 Clouds -16 1016 91 10000 3 280 00:45 14.12.2019
2449 Clouds -15 1016 92 10000 4 250 00:27 14.12.2019
2450 Clouds -15 1015 92 10000 3 250 23:54 13.12.2019
2451 Clouds -15 1015 92 10000 3 250 23:36 13.12.2019
2452 Clouds -15 1015 92 10000 3 250 23:18 13.12.2019
2453 Snow -15 1014 92 10000 3 250 22:40 13.12.2019
2454 Snow -15 1014 92 10000 3 250 22:19 13.12.2019
2455 Snow -14 1014 92 8000 4 250 21:55 13.12.2019
2456 Snow -14 1014 92 6000 4 250 21:37 13.12.2019
2457 Snow -14 1014 92 6000 4 250 21:19 13.12.2019
2458 Clouds -13 1014 100 10000 3 250 20:40 13.12.2019
2459 Clouds -13 1014 100 10000 3 250 20:21 13.12.2019
2460 Clouds -13 1014 100 10000 3 250 19:58 13.12.2019
2461 Clouds -12 1014 92 10000 3 250 19:40 13.12.2019
2462 Clouds -12 1014 92 10000 3 250 19:21 13.12.2019
2463 Clouds -12 1013 92 10000 3 250 18:58 13.12.2019
2464 Snow -12 1014 92 10000 3 240 18:40 13.12.2019
2465 Snow -12 1014 92 10000 3 240 18:19 13.12.2019
2466 Snow -12 1014 92 10000 3 240 18:19 13.12.2019
2467 Snow -13 1013 100 10000 4 280 17:42 13.12.2019
2468 Snow -13 1013 100 10000 4 280 17:19 13.12.2019
2469 Snow -13 1013 100 10000 4 280 17:19 13.12.2019
2470 Snow -13 1013 92 10000 3 280 16:59 13.12.2019
2471 Snow -13 1013 92 9000 3 280 16:39 13.12.2019
2472 Snow -13 1013 92 9000 3 280 16:20 13.12.2019
2473 Snow -13 1013 92 10000 4 270 15:43 13.12.2019
2474 Snow -13 1013 92 10000 4 270 15:23 13.12.2019
2475 Snow -13 1012 92 9000 4 270 14:58 13.12.2019
2476 Snow -13 1012 100 8000 4 260 14:40 13.12.2019
2477 Snow -13 1012 100 8000 4 260 14:20 13.12.2019
2478 Clouds -12 1012 100 10000 4 250 13:56 13.12.2019
2479 Clouds -12 1012 100 10000 4 250 13:37 13.12.2019
2480 Clouds -12 1012 100 10000 4 250 13:19 13.12.2019
2481 Clouds -13 1011 100 10000 4 280 12:42 13.12.2019
2482 Clouds -13 1011 100 10000 4 280 12:20 13.12.2019
2483 Clouds -13 1011 100 10000 4 280 12:20 13.12.2019
2484 Clouds -12 1011 100 10000 4 280 11:57 13.12.2019
2485 Clouds -12 1011 100 10000 4 280 11:39 13.12.2019
2486 Clouds -12 1011 100 10000 4 280 11:19 13.12.2019
2487 Clouds -11 1011 100 10000 4 260 10:41 13.12.2019
2488 Clouds -11 1011 100 10000 4 260 10:22 13.12.2019
2489 Clouds -10 1010 100 10000 4 260 09:54 13.12.2019
2490 Clouds -10 1010 100 10000 4 270 09:36 13.12.2019
2491 Clouds -10 1010 100 10000 4 270 09:18 13.12.2019
2492 Clouds -10 1010 100 10000 4 270 09:18 13.12.2019
2493 Clouds -8 1010 100 10000 5 280 08:40 13.12.2019
2494 Clouds -8 1010 100 10000 5 280 08:22 13.12.2019
2495 Clouds -8 1010 100 10000 5 280 07:44 13.12.2019
2496 Clouds -8 1010 100 10000 5 280 07:20 13.12.2019
2497 Snow -7 1009 92 8000 5 280 06:50 13.12.2019
2498 Snow -7 1009 92 10000 5 280 06:28 13.12.2019
2499 Clouds -7 1008 92 10000 5 290 05:44 13.12.2019
2500 Clouds -7 1008 92 10000 5 290 05:24 13.12.2019
2501 Clouds -7 1008 100 10000 6 290 04:35 13.12.2019
2502 Clouds -6 1007 92 10000 5 290 03:30 13.12.2019
2503 Clouds -6 1006 92 10000 6 290 02:32 13.12.2019
2504 Clouds -6 1006 92 10000 6 290 02:32 13.12.2019
2505 Clouds -5 1006 92 10000 6 290 01:42 13.12.2019
2506 Clouds -5 1006 92 10000 5 280 00:53 13.12.2019
2507 Clouds -5 1006 100 10000 5 290 00:34 13.12.2019
2508 Clouds -5 1006 92 10000 5 290 23:57 12.12.2019
2509 Clouds -5 1006 85 10000 5 290 23:37 12.12.2019
2510 Clouds -5 1006 85 10000 5 290 23:19 12.12.2019
2511 Clouds -5 1005 85 10000 6 290 22:42 12.12.2019
2512 Clouds -5 1005 85 10000 6 290 22:23 12.12.2019
2513 Clouds -5 1005 85 10000 6 300 21:56 12.12.2019
2514 Clouds -5 1005 85 10000 6 300 21:56 12.12.2019
2515 Clouds -5 1004 85 10000 6 300 21:38 12.12.2019
2516 Clouds -5 1004 85 10000 6 300 21:20 12.12.2019
2517 Clouds -5 1004 85 10000 8 320 20:59 12.12.2019
2518 Snow -5 1003 92 10000 6 320 20:41 12.12.2019
2519 Snow -5 1003 92 10000 6 320 20:23 12.12.2019
2520 Snow -5 1003 92 10000 6 320 20:23 12.12.2019
2521 Snow -5 1003 92 2600 6 310 19:59 12.12.2019
2522 Snow -5 1002 92 8000 8 320 19:41 12.12.2019
2523 Snow -5 1002 92 8000 8 320 19:21 12.12.2019
2524 Clouds -5 1001 92 10000 7 310 18:57 12.12.2019
2525 Clouds -5 1001 92 10000 7 310 18:57 12.12.2019
2526 Clouds -5 1001 92 10000 7 310 18:57 12.12.2019
2527 Clouds -5 1001 100 10000 7 280 18:38 12.12.2019
2528 Clouds -5 1001 100 10000 7 280 18:20 12.12.2019
2529 Snow -5 1000 100 8000 6 260 17:57 12.12.2019
2530 Snow -5 1000 100 10000 6 270 17:38 12.12.2019
2531 Snow -5 1000 100 10000 6 270 17:20 12.12.2019
2532 Snow -6 1000 100 10000 7 260 16:56 12.12.2019
2533 Snow -6 1000 100 10000 6 250 16:37 12.12.2019
2534 Snow -6 1000 100 10000 6 250 16:19 12.12.2019
2535 Snow -6 1000 100 2400 6 250 15:54 12.12.2019
2536 Snow -6 1000 100 3300 6 250 15:36 12.12.2019
2537 Snow -6 1000 100 3300 6 250 15:18 12.12.2019
2538 Clouds -5 1000 100 8000 6 250 14:38 12.12.2019
2539 Clouds -5 1000 100 8000 6 250 14:38 12.12.2019
2540 Clouds -5 1000 100 8000 6 250 14:20 12.12.2019
2541 Clouds -5 1000 100 10000 6 240 13:57 12.12.2019
2542 Clouds -5 1000 92 10000 7 250 13:39 12.12.2019
2543 Clouds -5 1000 92 10000 7 250 13:21 12.12.2019
2544 Clouds -5 1000 92 10000 6 250 12:57 12.12.2019
2545 Clouds -5 1000 92 10000 6 250 12:39 12.12.2019
2546 Clouds -5 1000 92 10000 6 250 12:20 12.12.2019
2547 Clouds -5 1000 92 10000 5 260 11:55 12.12.2019
2548 Clouds -5 1000 92 10000 7 280 11:37 12.12.2019
2549 Clouds -5 1000 92 10000 7 280 11:19 12.12.2019
2550 Clouds -5 1000 100 10000 9 280 10:54 12.12.2019
2551 Clouds -4 999 92 10000 8 280 10:36 12.12.2019
2552 Clouds -4 999 92 10000 8 280 10:18 12.12.2019
2553 Clouds -4 999 92 10000 8 280 10:18 12.12.2019
2554 Snow -2 999 100 2700 6 260 09:41 12.12.2019
2555 Snow -2 999 100 2700 6 260 09:23 12.12.2019
2556 Snow -2 999 100 1400 4 250 08:56 12.12.2019
2557 Snow -2 999 100 1700 4 240 08:38 12.12.2019
2558 Snow -2 999 100 1700 4 240 08:38 12.12.2019
2559 Snow -2 999 100 1700 4 240 08:19 12.12.2019
2560 Snow -2 999 100 2500 4 230 07:42 12.12.2019
2561 Snow -3 999 100 4100 3 230 07:24 12.12.2019
2562 Snow -3 999 100 2300 3 220 06:48 12.12.2019
2563 Snow -3 999 100 2300 3 220 06:48 12.12.2019
2564 Snow -3 999 100 2600 3 220 06:30 12.12.2019
2565 Snow -3 999 100 2200 4 220 05:36 12.12.2019
2566 Snow -3 999 100 3600 4 210 04:51 12.12.2019
2567 Snow -3 999 100 3600 4 210 04:51 12.12.2019
2568 Snow -3 999 100 6000 4 210 03:20 12.12.2019
2569 Snow -3 1000 100 3600 4 210 02:37 12.12.2019
2570 Snow -3 1000 100 3600 4 210 02:19 12.12.2019
2571 Snow -3 1000 100 2200 4 210 01:37 12.12.2019
2572 Snow -3 1000 100 2200 4 210 01:18 12.12.2019
2573 Snow -3 1001 100 1800 4 200 00:40 12.12.2019
2574 Snow -3 1001 100 1800 4 200 00:19 12.12.2019
2575 Snow -2 1001 100 1600 4 200 23:44 11.12.2019
2576 Snow -2 1001 100 1600 4 200 23:20 11.12.2019
2577 Snow -2 1001 100 2100 4 200 22:57 11.12.2019
2578 Snow -2 1002 100 2900 4 200 22:38 11.12.2019
2579 Snow -2 1002 100 2900 4 200 22:19 11.12.2019
2580 Snow -2 1002 100 2400 4 200 21:57 11.12.2019
2581 Snow -2 1002 100 3500 4 200 21:37 11.12.2019
2582 Snow -2 1002 100 3500 4 200 21:19 11.12.2019
2583 Snow -2 1002 100 1600 4 200 20:56 11.12.2019
2584 Snow -2 1003 100 1300 4 200 20:37 11.12.2019
2585 Snow -2 1003 100 1300 4 200 20:37 11.12.2019
2586 Snow -2 1003 100 1300 4 200 20:19 11.12.2019
2587 Snow -2 1003 100 1500 4 200 19:57 11.12.2019
2588 Snow -2 1003 100 900 4 200 19:38 11.12.2019
2589 Snow -2 1003 100 900 4 200 19:18 11.12.2019
2590 Snow -2 1004 100 2100 6 210 18:40 11.12.2019
2591 Snow -2 1004 100 2100 6 210 18:21 11.12.2019
2592 Clouds -2 1004 100 10000 4 200 17:57 11.12.2019
2593 Clouds -2 1004 100 10000 5 200 17:38 11.12.2019
2594 Clouds -2 1004 100 10000 5 200 17:18 11.12.2019
2595 Clouds -2 1005 100 10000 5 200 16:57 11.12.2019
2596 Clouds -2 1005 100 10000 4 200 16:38 11.12.2019
2597 Clouds -2 1005 100 10000 4 200 16:20 11.12.2019
2598 Clouds -2 1005 100 10000 4 200 15:58 11.12.2019
2599 Clouds -3 1006 100 10000 5 210 15:39 11.12.2019
2600 Clouds -3 1006 100 10000 5 210 15:20 11.12.2019
2601 Clouds -3 1006 100 10000 5 220 14:56 11.12.2019
2602 Clouds -3 1006 100 10000 4 210 14:37 11.12.2019
2603 Clouds -3 1006 100 10000 4 210 14:37 11.12.2019
2604 Clouds -3 1006 100 10000 4 210 14:37 11.12.2019
2605 Clouds -3 1006 100 10000 4 210 14:19 11.12.2019
2606 Clouds -3 1006 100 10000 5 210 13:54 11.12.2019
2607 Clouds -3 1007 100 10000 4 210 13:36 11.12.2019
2608 Clouds -3 1007 100 10000 4 210 13:18 11.12.2019
2609 Clouds -3 1007 100 10000 5 220 12:54 11.12.2019
2610 Clouds -3 1007 100 10000 5 230 12:36 11.12.2019
2611 Clouds -3 1007 100 10000 5 230 12:36 11.12.2019
2612 Clouds -3 1007 100 10000 5 230 12:18 11.12.2019
2613 Clouds -3 1007 100 10000 4 230 11:54 11.12.2019
2614 Clouds -2 1007 100 10000 5 230 11:36 11.12.2019
2615 Clouds -2 1007 100 10000 5 230 11:18 11.12.2019
2616 Clouds -1 1006 92 10000 5 240 10:40 11.12.2019
2617 Clouds -1 1006 92 10000 5 240 10:22 11.12.2019
2618 Clouds -1 1006 92 10000 5 240 09:58 11.12.2019
2619 Clouds -1 1006 92 10000 6 240 09:38 11.12.2019
2620 Clouds -1 1006 92 10000 6 240 09:19 11.12.2019
2621 Clouds -1 1006 92 10000 7 250 08:56 11.12.2019
2622 Clouds -1 1006 92 10000 7 250 08:37 11.12.2019
2623 Clouds -1 1006 92 10000 7 250 08:18 11.12.2019
2624 Clouds 0 1006 90 10000 6 250 07:43 11.12.2019
2625 Clouds 0 1006 90 10000 6 250 07:24 11.12.2019
2626 Clouds 0 1006 90 10000 6 250 07:24 11.12.2019
2627 Clouds 0 1006 90 10000 7 250 06:46 11.12.2019
2628 Clouds 0 1005 90 10000 6 250 06:25 11.12.2019
2629 Clouds 1 1005 86 10000 7 250 05:56 11.12.2019
2630 Clouds 1 1005 86 10000 7 250 05:35 11.12.2019
2631 Clouds 1 1005 86 10000 9 250 04:51 11.12.2019
2632 Clouds 1 1004 92 10000 6 240 03:29 11.12.2019
2633 Clouds 0 1004 92 10000 6 240 02:35 11.12.2019
2634 Clouds 0 1004 92 10000 6 240 01:22 11.12.2019
2635 Clouds 0 1004 92 10000 6 240 00:43 11.12.2019
2636 Clouds 0 1004 92 10000 6 240 00:43 11.12.2019
2637 Clouds 0 1003 92 10000 6 240 00:19 11.12.2019
2638 Clouds 0 1003 92 10000 6 240 23:45 10.12.2019
2639 Clouds 0 1003 92 10000 6 240 23:26 10.12.2019
2640 Clouds 0 1003 91 10000 6 250 22:57 10.12.2019
2641 Clouds 0 1003 91 10000 6 250 22:39 10.12.2019
2642 Clouds 0 1003 91 10000 6 250 22:20 10.12.2019
2643 Clouds 0 1003 91 10000 6 250 21:54 10.12.2019
2644 Clouds 0 1003 91 10000 6 250 21:36 10.12.2019
2645 Clouds 0 1003 91 10000 6 250 21:18 10.12.2019
2646 Clouds 0 1003 91 10000 6 250 20:55 10.12.2019
2647 Clouds 0 1003 91 10000 6 240 20:36 10.12.2019
2648 Clouds 0 1003 95 10000 6 240 20:18 10.12.2019
2649 Clouds 0 1003 95 10000 6 240 20:18 10.12.2019
2650 Clouds 0 1003 95 10000 6 240 19:44 10.12.2019
2651 Clouds -1 1003 100 10000 5 240 19:25 10.12.2019
2652 Clouds -1 1003 100 10000 6 250 18:59 10.12.2019
2653 Clouds -1 1003 100 10000 6 240 18:39 10.12.2019
2654 Clouds -1 1003 100 10000 6 240 18:19 10.12.2019
2655 Snow -1 1003 100 6000 6 240 17:55 10.12.2019
2656 Snow -1 1003 100 3000 6 230 17:36 10.12.2019
2657 Snow -1 1003 100 3000 6 230 17:36 10.12.2019
2658 Snow -1 1003 100 3000 6 230 17:18 10.12.2019
2659 Snow -1 1003 100 3000 6 230 17:18 10.12.2019
2660 Snow -1 1003 100 1800 6 230 16:42 10.12.2019
2661 Snow -1 1003 100 1800 6 230 16:20 10.12.2019
2662 Snow -1 1004 100 2800 6 230 15:54 10.12.2019
2663 Snow -1 1004 100 5000 6 240 15:36 10.12.2019
2664 Snow -1 1004 100 5000 6 240 15:18 10.12.2019
2665 Snow -1 1004 100 5000 6 240 15:18 10.12.2019
2666 Snow -1 1004 100 9000 6 230 14:54 10.12.2019
2667 Snow -1 1004 100 9000 6 230 14:36 10.12.2019
2668 Snow -1 1004 100 9000 6 230 14:18 10.12.2019
2669 Snow -1 1004 100 9000 6 230 14:18 10.12.2019
2670 Snow -1 1004 100 5000 6 230 13:54 10.12.2019
2671 Snow -2 1004 100 9000 6 230 13:36 10.12.2019
2672 Snow -2 1004 100 9000 6 230 13:18 10.12.2019
2673 Snow -2 1005 100 2100 6 220 12:38 10.12.2019
2674 Snow -2 1005 100 2100 6 220 12:20 10.12.2019
2675 Snow -2 1005 100 800 6 220 11:41 10.12.2019
2676 Snow -2 1005 100 800 6 220 11:41 10.12.2019
2677 Snow -2 1005 100 800 6 220 11:23 10.12.2019
2678 Clouds -1 1005 100 9000 7 220 10:56 10.12.2019
2679 Clouds -1 1005 92 10000 7 210 10:37 10.12.2019
2680 Clouds -1 1005 92 10000 7 210 10:19 10.12.2019
2681 Clouds -1 1005 100 10000 6 210 09:54 10.12.2019
2682 Clouds -1 1006 100 10000 7 210 09:36 10.12.2019
2683 Clouds -1 1006 100 10000 7 210 09:18 10.12.2019
2684 Clouds -1 1006 100 10000 6 200 08:42 10.12.2019
2685 Clouds -1 1006 100 10000 6 200 08:23 10.12.2019
2686 Clouds -1 1007 100 10000 6 200 07:57 10.12.2019
2687 Clouds -1 1007 92 10000 7 200 07:39 10.12.2019
2688 Clouds -1 1007 92 10000 7 200 07:21 10.12.2019
2689 Clouds -1 1007 92 10000 6 200 06:46 10.12.2019
2690 Clouds -1 1008 92 10000 6 200 06:19 10.12.2019
2691 Clouds -1 1008 92 10000 6 210 05:52 10.12.2019
2692 Clouds -1 1009 92 10000 6 200 04:52 10.12.2019
2693 Clouds -2 1009 100 10000 5 200 03:36 10.12.2019
2694 Clouds -2 1010 100 10000 5 210 02:44 10.12.2019
2695 Clouds -3 1010 100 10000 5 210 01:44 10.12.2019
2696 Clouds -3 1010 100 10000 4 220 01:20 10.12.2019
2697 Clouds -3 1010 100 10000 5 220 00:41 10.12.2019
2698 Clouds -3 1010 100 10000 5 220 00:21 10.12.2019
2699 Clouds -2 1010 100 10000 6 240 23:41 09.12.2019
2700 Clouds -2 1010 100 10000 6 240 23:23 09.12.2019
2701 Clouds -2 1010 100 10000 6 240 22:58 09.12.2019
2702 Clouds -1 1010 100 10000 6 230 22:40 09.12.2019
2703 Clouds -1 1010 100 10000 6 230 22:19 09.12.2019
2704 Clouds -1 1010 100 10000 6 240 21:57 09.12.2019
2705 Clouds 0 1010 92 10000 7 250 21:38 09.12.2019
2706 Clouds 0 1010 92 10000 7 250 21:19 09.12.2019
2707 Clouds 0 1010 92 10000 7 240 20:56 09.12.2019
2708 Clouds 0 1009 92 10000 6 240 20:38 09.12.2019
2709 Clouds 0 1009 89 10000 6 240 20:20 09.12.2019
2710 Clouds 0 1009 89 10000 6 240 19:55 09.12.2019
2711 Clouds 0 1009 89 10000 6 240 19:55 09.12.2019
2712 Clouds 0 1009 89 10000 6 240 19:37 09.12.2019
2713 Clouds 0 1009 89 10000 6 240 19:19 09.12.2019
2714 Clouds 0 1009 89 10000 7 240 18:56 09.12.2019
2715 Clouds 0 1009 89 10000 6 240 18:37 09.12.2019
2716 Clouds 0 1009 89 10000 6 240 18:19 09.12.2019
2717 Clouds 0 1009 89 10000 6 240 17:57 09.12.2019
2718 Clouds 0 1008 89 10000 6 240 17:38 09.12.2019
2719 Clouds 0 1008 92 10000 6 240 17:20 09.12.2019
2720 Clouds -1 1008 100 10000 6 240 16:56 09.12.2019
2721 Clouds -1 1008 100 10000 6 240 16:37 09.12.2019
2722 Clouds -1 1008 100 10000 6 240 16:19 09.12.2019
2723 Clouds -1 1008 100 10000 6 240 15:55 09.12.2019
2724 Snow -1 1007 100 8000 7 230 15:37 09.12.2019
2725 Snow -1 1007 100 8000 7 230 15:19 09.12.2019
2726 Clouds -2 1007 100 7000 6 230 14:42 09.12.2019
2727 Clouds -2 1007 100 7000 6 230 14:19 09.12.2019
2728 Snow -1 1007 100 7000 8 230 13:59 09.12.2019
2729 Clouds -2 1007 100 10000 7 220 13:39 09.12.2019
2730 Clouds -2 1007 100 10000 7 220 13:19 09.12.2019
2731 Clouds -2 1007 100 10000 7 230 12:57 09.12.2019
2732 Clouds -2 1007 100 10000 7 220 12:38 09.12.2019
2733 Clouds -2 1007 100 10000 7 220 12:20 09.12.2019
2734 Snow -2 1007 100 9000 6 210 11:58 09.12.2019
2735 Clouds -2 1007 100 10000 6 220 11:39 09.12.2019
2736 Clouds -2 1007 100 10000 6 220 11:21 09.12.2019
2737 Clouds -2 1007 100 10000 6 210 10:55 09.12.2019
2738 Clouds -2 1007 100 10000 6 220 10:37 09.12.2019
2739 Clouds -2 1007 100 10000 6 220 10:18 09.12.2019
2740 Snow -1 1007 100 8000 6 230 09:41 09.12.2019
2741 Snow -1 1007 100 8000 6 230 09:22 09.12.2019
2742 Snow -1 1007 100 7000 5 230 08:55 09.12.2019
2743 Snow -1 1008 100 5000 5 210 08:37 09.12.2019
2744 Snow -1 1008 100 5000 5 210 08:19 09.12.2019
2745 Clouds -1 1008 100 7000 5 210 07:42 09.12.2019
2746 Clouds -1 1008 100 7000 5 210 07:24 09.12.2019
2747 Clouds -1 1008 100 9000 6 210 06:54 09.12.2019
2748 Snow -1 1008 92 10000 7 230 06:26 09.12.2019
2749 Clouds -1 1008 100 10000 5 210 05:29 09.12.2019
2750 Snow -1 1008 100 4700 5 210 04:49 09.12.2019
2751 Snow -1 1008 100 1800 5 210 04:20 09.12.2019
2752 Snow -1 1009 100 5000 5 200 02:27 09.12.2019
2753 Snow -1 1009 100 2200 5 200 01:44 09.12.2019
2754 Snow -1 1009 100 2300 4 190 00:55 09.12.2019
2755 Clouds -2 1009 100 10000 3 160 00:32 09.12.2019
2756 Clouds -2 1009 100 10000 5 160 23:54 08.12.2019
2757 Clouds -3 1010 100 10000 5 160 23:36 08.12.2019
2758 Clouds -3 1010 100 10000 5 160 23:18 08.12.2019
2759 Snow -3 1010 100 10000 5 150 22:56 08.12.2019
2760 Snow -4 1011 100 7000 5 150 22:37 08.12.2019
2761 Snow -4 1011 100 7000 5 150 22:18 08.12.2019
2762 Snow -5 1011 100 2100 4 150 21:54 08.12.2019
2763 Snow -6 1012 100 1300 4 140 21:36 08.12.2019
2764 Snow -6 1012 100 1300 4 140 21:18 08.12.2019
2765 Snow -7 1012 100 3500 4 140 20:54 08.12.2019
2766 Snow -8 1013 100 1300 4 140 20:36 08.12.2019
2767 Snow -8 1013 100 1300 4 140 20:18 08.12.2019
2768 Snow -9 1014 100 2600 3 140 19:42 08.12.2019
2769 Snow -9 1014 100 2600 3 140 19:23 08.12.2019
2770 Snow -10 1014 100 5000 4 140 18:56 08.12.2019
2771 Snow -10 1014 100 5000 4 140 18:56 08.12.2019
2772 Clouds -11 1014 92 10000 3 130 18:37 08.12.2019
2773 Clouds -11 1014 92 10000 3 130 18:19 08.12.2019
2774 Clouds -12 1015 92 10000 3 130 17:57 08.12.2019
2775 Clouds -14 1015 92 10000 4 140 17:39 08.12.2019
2776 Clouds -14 1015 92 10000 4 140 17:20 08.12.2019
2777 Clouds -15 1015 92 10000 4 130 16:58 08.12.2019
2778 Clouds -15 1016 84 10000 4 130 16:40 08.12.2019
2779 Clouds -15 1016 84 10000 4 130 16:21 08.12.2019
2780 Clouds -15 1016 84 10000 4 120 15:57 08.12.2019
2781 Clouds -16 1016 84 10000 4 120 15:37 08.12.2019
2782 Clouds -16 1016 84 10000 4 120 15:18 08.12.2019
2783 Clouds -16 1017 84 10000 4 130 14:44 08.12.2019
2784 Clouds -17 1017 91 10000 3 130 14:24 08.12.2019
2785 Clouds -19 1017 91 10000 3 120 13:59 08.12.2019
2786 Clouds -20 1017 83 10000 4 100 13:40 08.12.2019
2787 Clouds -20 1017 83 10000 4 100 13:22 08.12.2019
2788 Clouds -20 1017 83 9000 3 100 12:58 08.12.2019
2789 Clouds -20 1017 83 9000 3 100 12:58 08.12.2019
2790 Clouds -20 1017 91 9000 4 100 12:38 08.12.2019
2791 Clouds -20 1017 91 9000 4 100 12:18 08.12.2019
2792 Clouds -19 1016 84 10000 4 100 11:57 08.12.2019
2793 Clouds -19 1016 84 10000 4 100 11:37 08.12.2019
2794 Clouds -19 1016 84 10000 4 100 11:19 08.12.2019
2795 Clear -19 1015 84 10000 2 90 10:40 08.12.2019
2796 Clear -19 1015 84 10000 2 90 10:22 08.12.2019
2797 Clear -18 1015 84 10000 3 100 09:58 08.12.2019
2798 Clear -18 1015 84 10000 2 70 09:39 08.12.2019
2799 Clear -18 1015 84 10000 2 70 09:20 08.12.2019
2800 Clear -18 1015 84 10000 2 70 08:59 08.12.2019
2801 Clear -18 1014 84 10000 2 60 08:41 08.12.2019
2802 Clouds -18 1014 84 10000 2 60 08:22 08.12.2019
2803 Clouds -18 1014 84 10000 2 20 07:49 08.12.2019
2804 Clouds -18 1014 84 9000 1 0 07:21 08.12.2019
2805 Clouds -18 1013 91 10000 1 0 06:53 08.12.2019
2806 Clouds -17 1013 84 10000 1 0 06:23 08.12.2019
2807 Clouds -17 1012 84 10000 1 340 05:58 08.12.2019
2808 Clouds -16 1011 84 10000 2 10 05:20 08.12.2019
2809 Clouds -15 1010 77 10000 2 10 04:20 08.12.2019
2810 Clouds -15 1009 84 10000 2 10 03:38 08.12.2019
2811 Clouds -15 1008 84 10000 2 10 02:40 08.12.2019
2812 Snow -14 1007 84 10000 3 350 01:57 08.12.2019
2813 Snow -13 1006 84 10000 2 350 01:33 08.12.2019
2814 Snow -13 1006 84 10000 3 340 00:45 08.12.2019
2815 Snow -12 1005 85 10000 2 330 00:21 08.12.2019
2816 Clouds -12 1005 85 10000 3 330 23:55 07.12.2019
2817 Snow -12 1004 92 10000 2 330 23:36 07.12.2019
2818 Snow -12 1004 92 10000 2 330 23:18 07.12.2019
2819 Snow -12 1004 92 10000 3 340 22:54 07.12.2019
2820 Snow -11 1003 85 3200 3 340 22:36 07.12.2019
2821 Snow -11 1003 85 3200 3 340 22:36 07.12.2019
2822 Snow -11 1003 85 3200 3 340 22:18 07.12.2019
2823 Snow -11 1002 92 2600 2 330 21:54 07.12.2019
2824 Snow -11 1002 92 1900 2 350 21:36 07.12.2019
2825 Snow -11 1002 92 1900 2 350 21:18 07.12.2019
2826 Snow -11 1001 100 8000 2 360 20:37 07.12.2019
2827 Snow -11 1001 100 8000 2 360 20:19 07.12.2019
2828 Snow -10 1001 92 7000 3 350 19:57 07.12.2019
2829 Snow -10 1000 92 5000 2 350 19:39 07.12.2019
2830 Snow -10 1000 92 5000 2 350 19:21 07.12.2019
2831 Snow -10 1000 92 2100 3 350 18:57 07.12.2019
2832 Snow -10 999 85 2500 3 360 18:38 07.12.2019
2833 Snow -10 999 85 2500 3 360 18:18 07.12.2019
2834 Clouds -9 998 85 10000 3 360 17:55 07.12.2019
2835 Snow -9 998 92 1800 3 360 17:36 07.12.2019
2836 Snow -9 998 92 1800 3 360 17:18 07.12.2019
2837 Snow -8 997 92 1000 4 360 16:54 07.12.2019
2838 Snow -6 997 92 700 5 360 16:36 07.12.2019
2839 Snow -6 997 92 700 5 360 16:18 07.12.2019
2840 Snow -1 996 100 1200 4 240 15:40 07.12.2019
2841 Snow -1 996 100 1200 4 240 15:22 07.12.2019
2842 Snow -1 995 100 6000 4 250 14:43 07.12.2019
2843 Snow -1 995 100 6000 4 250 14:19 07.12.2019
2844 Snow -1 995 100 5000 4 250 13:59 07.12.2019
2845 Snow -1 994 100 4000 4 250 13:39 07.12.2019
2846 Snow -1 994 100 4000 4 250 13:39 07.12.2019
2847 Snow -1 994 100 4000 4 250 13:39 07.12.2019
2848 Snow -1 994 100 4000 4 250 13:19 07.12.2019
2849 Clouds -1 994 100 10000 5 250 12:54 07.12.2019
2850 Clouds -1 993 100 10000 6 250 12:36 07.12.2019
2851 Clouds -1 993 100 10000 6 250 12:36 07.12.2019
2852 Clouds -1 993 100 10000 6 250 12:18 07.12.2019
2853 Snow -1 993 100 3300 4 240 11:41 07.12.2019
2854 Snow -1 993 100 3300 4 240 11:23 07.12.2019
2855 Snow -2 992 100 9000 4 240 10:55 07.12.2019
2856 Snow -2 992 100 6000 3 240 10:36 07.12.2019
2857 Snow -2 992 100 6000 3 240 10:18 07.12.2019
2858 Snow -3 991 100 2500 4 230 09:39 07.12.2019
2859 Snow -3 991 100 2500 4 230 09:21 07.12.2019
2860 Snow -3 991 100 2400 4 220 08:45 07.12.2019
2861 Snow -4 991 100 10000 4 220 08:24 07.12.2019
2862 Snow -4 990 100 7000 4 210 07:52 07.12.2019
2863 Snow -5 991 100 10000 3 200 07:29 07.12.2019
2864 Snow -5 990 100 8000 4 200 06:53 07.12.2019
2865 Snow -6 990 100 10000 3 210 06:26 07.12.2019
2866 Snow -6 990 100 10000 3 210 05:47 07.12.2019
2867 Snow -6 990 100 7000 3 210 04:44 07.12.2019
2868 Clouds -6 989 92 10000 4 210 03:50 07.12.2019
2869 Clouds -7 989 92 10000 4 210 02:23 07.12.2019
2870 Clouds -7 989 92 10000 4 210 02:23 07.12.2019
2871 Clouds -7 989 92 10000 4 210 01:51 07.12.2019
2872 Clouds -7 988 85 10000 4 200 01:25 07.12.2019
2873 Clouds -8 988 92 10000 4 190 00:36 07.12.2019
2874 Clouds -8 988 92 10000 4 190 00:18 07.12.2019
2875 Snow -8 988 85 10000 4 190 23:42 06.12.2019
2876 Snow -8 988 85 10000 4 190 23:20 06.12.2019
2877 Snow -8 988 85 10000 5 190 22:39 06.12.2019
2878 Snow -8 988 85 10000 5 190 22:21 06.12.2019
2879 Snow -8 988 85 4500 5 190 21:59 06.12.2019
2880 Snow -8 988 85 3300 6 190 21:41 06.12.2019
2881 Snow -8 988 85 3300 6 190 21:21 06.12.2019
2882 Snow -9 989 92 2100 6 180 20:56 06.12.2019
2883 Snow -9 989 92 2100 6 190 20:38 06.12.2019
2884 Snow -9 989 92 2100 6 190 20:20 06.12.2019
2885 Snow -9 989 92 3700 6 180 19:42 06.12.2019
2886 Snow -9 989 92 3700 6 180 19:24 06.12.2019
2887 Snow -9 990 85 2800 6 180 18:59 06.12.2019
2888 Snow -9 990 85 3300 7 180 18:40 06.12.2019
2889 Snow -9 990 85 3300 7 180 18:21 06.12.2019
2890 Snow -9 990 85 5000 7 180 17:58 06.12.2019
2891 Snow -9 991 85 2100 7 180 17:40 06.12.2019
2892 Snow -9 991 85 2100 7 180 17:40 06.12.2019
2893 Snow -9 991 85 2100 7 180 17:22 06.12.2019
2894 Snow -10 991 92 2700 7 180 16:57 06.12.2019
2895 Snow -10 992 85 3700 7 180 16:37 06.12.2019
2896 Snow -10 992 85 3700 7 180 16:19 06.12.2019
2897 Snow -11 992 92 2300 6 170 15:41 06.12.2019
2898 Snow -11 992 92 2300 6 170 15:22 06.12.2019
2899 Snow -12 993 92 3900 4 150 14:58 06.12.2019
2900 Clouds -12 993 85 10000 4 170 14:40 06.12.2019
2901 Clouds -12 993 85 10000 4 170 14:20 06.12.2019
2902 Clouds -13 994 92 10000 4 170 13:46 06.12.2019
2903 Clouds -13 994 92 10000 4 170 13:26 06.12.2019
2904 Clouds -13 995 92 10000 5 160 12:57 06.12.2019
2905 Clouds -13 996 92 10000 6 180 12:39 06.12.2019
2906 Clouds -13 996 92 10000 6 180 12:20 06.12.2019
2907 Clouds -13 997 84 10000 5 180 11:42 06.12.2019
2908 Clouds -13 997 84 10000 5 180 11:23 06.12.2019
2909 Clouds -13 997 84 10000 5 180 10:55 06.12.2019
2910 Clouds -14 997 92 10000 5 180 10:37 06.12.2019
2911 Clouds -14 997 92 10000 5 180 10:19 06.12.2019
2912 Clouds -14 997 92 10000 4 190 09:55 06.12.2019
2913 Clouds -14 997 92 10000 4 190 09:55 06.12.2019
2914 Clouds -14 998 84 10000 4 200 09:36 06.12.2019
2915 Clouds -14 998 84 10000 4 200 09:18 06.12.2019
2916 Clouds -14 998 92 10000 4 200 08:40 06.12.2019
2917 Clouds -14 998 92 10000 4 200 08:22 06.12.2019
2918 Clouds -14 998 92 10000 5 210 07:38 06.12.2019
2919 Clouds -14 998 92 10000 5 210 07:20 06.12.2019
2920 Clouds -14 998 92 10000 5 210 07:20 06.12.2019
2921 Snow -14 998 92 7000 5 210 06:48 06.12.2019
2922 Clouds -14 998 92 10000 4 220 06:24 06.12.2019
2923 Clouds -13 998 84 10000 4 220 05:47 06.12.2019
2924 Snow -10 998 85 2600 4 210 02:46 06.12.2019
2925 Snow -10 998 78 10000 6 240 01:45 06.12.2019
2926 Snow -10 998 85 5000 5 230 00:51 06.12.2019
2927 Clouds -10 998 92 8000 5 240 00:23 06.12.2019
2928 Clouds -10 998 92 8000 5 240 23:51 05.12.2019
2929 Clouds -10 998 92 10000 5 240 23:21 05.12.2019
2930 Snow -9 998 85 10000 5 240 22:58 05.12.2019
2931 Snow -9 998 92 10000 5 230 22:39 05.12.2019
2932 Snow -9 998 92 10000 5 230 22:19 05.12.2019
2933 Snow -8 998 85 9000 6 250 21:57 05.12.2019
2934 Snow -8 998 85 9000 6 250 21:57 05.12.2019
2935 Snow -8 998 78 10000 7 250 21:39 05.12.2019
2936 Snow -8 998 78 10000 7 250 21:39 05.12.2019
2937 Snow -8 998 78 10000 7 250 21:20 05.12.2019
2938 Snow -8 998 92 9000 6 250 20:56 05.12.2019
2939 Snow -7 998 92 10000 5 250 20:38 05.12.2019
2940 Snow -7 998 92 10000 5 250 20:38 05.12.2019
2941 Snow -7 998 92 10000 5 250 20:18 05.12.2019
2942 Snow -7 998 92 10000 5 250 20:18 05.12.2019
2943 Snow -7 997 100 9000 3 240 19:41 05.12.2019
2944 Snow -7 997 100 2600 3 240 19:22 05.12.2019
2945 Snow -7 997 100 4200 3 230 18:59 05.12.2019
2946 Snow -7 997 100 4200 3 230 18:39 05.12.2019
2947 Snow -7 998 100 4900 3 240 18:20 05.12.2019
2948 Snow -7 998 100 8000 3 240 17:55 05.12.2019
2949 Snow -7 998 100 3700 3 240 17:37 05.12.2019
2950 Snow -7 998 100 3700 3 240 17:18 05.12.2019
2951 Snow -7 998 100 4600 3 210 16:40 05.12.2019
2952 Snow -7 998 100 4600 3 210 16:22 05.12.2019
2953 Snow -7 999 100 3600 3 200 15:58 05.12.2019
2954 Snow -7 999 100 3600 3 200 15:40 05.12.2019
2955 Snow -7 999 100 5000 3 190 15:20 05.12.2019
2956 Snow -7 1000 100 3800 3 190 14:56 05.12.2019
2957 Snow -7 1000 100 7000 3 180 14:38 05.12.2019
2958 Snow -7 1000 100 7000 3 180 14:20 05.12.2019
2959 Snow -7 1000 100 4700 3 160 13:58 05.12.2019
2960 Snow -7 1000 100 4700 3 160 13:39 05.12.2019
2961 Snow -7 1001 100 2200 3 150 13:21 05.12.2019
2962 Snow -7 1001 100 1900 3 150 12:58 05.12.2019
2963 Snow -7 1001 100 1900 3 150 12:39 05.12.2019
2964 Snow -7 1002 100 1900 3 150 12:21 05.12.2019
2965 Snow -7 1002 92 1700 3 150 11:41 05.12.2019
2966 Snow -7 1003 92 7000 2 170 11:22 05.12.2019
2967 Snow -7 1003 92 10000 3 160 10:59 05.12.2019
2968 Snow -7 1003 92 10000 3 160 10:40 05.12.2019
2969 Snow -7 1004 92 9000 3 160 10:19 05.12.2019
2970 Snow -7 1004 92 9000 3 160 10:19 05.12.2019
2971 Snow -7 1005 92 7000 2 170 09:57 05.12.2019
2972 Snow -7 1005 85 6000 3 160 09:38 05.12.2019
2973 Snow -7 1005 85 6000 3 160 09:20 05.12.2019
2974 Snow -7 1006 85 9000 3 140 08:56 05.12.2019
2975 Snow -8 1006 92 8000 3 110 08:37 05.12.2019
2976 Snow -8 1006 92 8000 3 110 08:18 05.12.2019
2977 Snow -8 1006 92 8000 3 110 08:18 05.12.2019
2978 Snow -8 1007 92 9000 4 110 07:41 05.12.2019
2979 Snow -8 1008 92 8000 4 110 07:21 05.12.2019
2980 Snow -8 1008 92 9000 4 110 06:47 05.12.2019
2981 Snow -8 1009 92 9000 3 120 06:23 05.12.2019
2982 Snow -8 1009 92 9000 4 110 05:54 05.12.2019
2983 Snow -8 1010 92 9000 4 140 05:24 05.12.2019
2984 Snow -8 1011 92 8000 3 110 04:37 05.12.2019
2985 Clouds -8 1012 92 10000 4 140 03:35 05.12.2019
2986 Clouds -8 1013 92 10000 4 130 02:41 05.12.2019
2987 Clouds -8 1013 92 10000 4 140 02:21 05.12.2019
2988 Snow -8 1014 92 10000 4 140 01:50 05.12.2019
2989 Snow -8 1014 92 10000 4 140 01:50 05.12.2019
2990 Snow -8 1015 92 7000 4 150 01:23 05.12.2019
2991 Clouds -8 1015 92 9000 4 150 00:43 05.12.2019
2992 Clouds -8 1016 85 10000 4 150 00:20 05.12.2019
2993 Clouds -7 1017 79 9000 4 180 23:46 04.12.2019
2994 Clouds -7 1017 79 10000 5 190 23:22 04.12.2019
2995 Clouds -7 1018 85 10000 4 190 22:59 04.12.2019
2996 Clouds -7 1018 85 10000 5 190 22:38 04.12.2019
2997 Clouds -7 1018 85 10000 5 190 22:19 04.12.2019
2998 Clouds -7 1018 85 10000 5 190 21:57 04.12.2019
2999 Clouds -8 1019 92 10000 5 190 21:38 04.12.2019
3000 Clouds -8 1019 92 10000 5 190 21:19 04.12.2019
3001 Clouds -8 1019 92 10000 5 190 20:56 04.12.2019
3002 Clouds -8 1019 92 10000 5 190 20:38 04.12.2019
3003 Clouds -8 1019 92 10000 5 190 20:38 04.12.2019
3004 Clouds -8 1019 92 10000 5 190 20:20 04.12.2019
3005 Clouds -8 1019 92 10000 5 190 19:54 04.12.2019
3006 Clouds -8 1019 92 10000 5 200 19:36 04.12.2019
3007 Clouds -8 1019 92 10000 5 200 19:18 04.12.2019
3008 Clouds -8 1020 92 10000 6 200 18:41 04.12.2019
3009 Clouds -8 1020 92 10000 5 200 18:22 04.12.2019
3010 Clouds -8 1020 92 10000 4 200 17:58 04.12.2019
3011 Clouds -8 1020 92 10000 5 200 17:39 04.12.2019
3012 Clouds -8 1020 92 10000 5 200 17:19 04.12.2019
3013 Clouds -8 1021 92 10000 4 200 16:56 04.12.2019
3014 Clouds -8 1020 92 10000 4 190 16:38 04.12.2019
3015 Clouds -8 1020 92 10000 4 190 16:38 04.12.2019
3016 Clouds -8 1020 92 10000 4 190 16:19 04.12.2019
3017 Clouds -9 1021 92 10000 5 190 15:54 04.12.2019
3018 Clouds -9 1021 92 10000 4 190 15:36 04.12.2019
3019 Clouds -9 1021 92 10000 4 190 15:18 04.12.2019
3020 Clouds -9 1022 92 10000 6 180 14:41 04.12.2019
3021 Clouds -9 1022 92 10000 5 180 14:23 04.12.2019
3022 Clouds -9 1022 85 10000 5 190 13:56 04.12.2019
3023 Clouds -9 1022 85 10000 4 180 13:37 04.12.2019
3024 Clouds -9 1022 85 10000 4 180 13:18 04.12.2019
3025 Clouds -9 1022 85 10000 5 190 12:43 04.12.2019
3026 Clouds -9 1022 85 10000 4 190 12:23 04.12.2019
3027 Clouds -9 1022 85 10000 4 190 11:45 04.12.2019
3028 Clouds -10 1022 92 10000 5 190 11:27 04.12.2019
3029 Clouds -9 1022 85 10000 5 190 10:59 04.12.2019
3030 Clouds -9 1022 85 10000 5 190 10:41 04.12.2019
3031 Clouds -9 1022 85 10000 5 190 10:22 04.12.2019
3032 Clouds -9 1022 85 10000 5 190 09:46 04.12.2019
3033 Clouds -9 1021 85 10000 4 190 09:25 04.12.2019
3034 Clouds -9 1021 85 10000 4 190 09:25 04.12.2019
3035 Clouds -10 1021 92 10000 4 190 08:59 04.12.2019
3036 Clouds -10 1021 92 10000 4 190 08:38 04.12.2019
3037 Clouds -10 1021 92 10000 4 190 08:19 04.12.2019
3038 Clouds -10 1021 92 10000 4 190 07:42 04.12.2019
3039 Clouds -10 1021 85 10000 4 190 07:23 04.12.2019
3040 Clouds -11 1021 92 10000 3 190 06:33 04.12.2019
3041 Clouds -11 1021 92 10000 3 200 05:48 04.12.2019
3042 Clouds -11 1020 92 10000 4 200 04:58 04.12.2019
3043 Clouds -11 1020 92 10000 4 200 03:54 04.12.2019
3044 Snow -11 1020 92 9000 4 200 02:21 04.12.2019
3045 Clouds -12 1020 100 10000 3 210 00:50 04.12.2019
3046 Clouds -12 1020 92 10000 3 220 00:23 04.12.2019
3047 Clouds -12 1019 92 10000 3 230 23:56 03.12.2019
3048 Clouds -12 1019 92 10000 5 240 23:38 03.12.2019
3049 Clouds -12 1019 92 10000 5 240 23:19 03.12.2019
3050 Clouds -12 1019 100 10000 5 240 22:40 03.12.2019
3051 Clouds -12 1019 100 10000 5 240 22:19 03.12.2019
3052 Clouds -12 1018 92 10000 4 240 21:58 03.12.2019
3053 Clouds -11 1018 85 10000 6 240 21:37 03.12.2019
3054 Clouds -11 1018 85 10000 6 240 21:19 03.12.2019
3055 Clouds -11 1017 92 10000 7 240 20:57 03.12.2019
3056 Clouds -10 1017 92 10000 5 250 20:38 03.12.2019
3057 Clouds -10 1017 92 10000 5 250 20:18 03.12.2019
3058 Snow -10 1016 92 9000 4 250 19:54 03.12.2019
3059 Clouds -10 1016 92 10000 7 250 19:36 03.12.2019
3060 Clouds -10 1016 92 10000 7 250 19:18 03.12.2019
3061 Clouds -10 1016 92 10000 6 250 18:55 03.12.2019
3062 Clouds -10 1015 85 10000 6 250 18:37 03.12.2019
3063 Clouds -10 1015 85 10000 6 250 18:19 03.12.2019
3064 Clouds -10 1015 85 10000 6 250 18:19 03.12.2019
3065 Clouds -9 1015 85 10000 8 260 17:40 03.12.2019
3066 Clouds -8 1014 85 10000 7 250 17:19 03.12.2019
3067 Clouds -8 1014 85 10000 7 250 16:59 03.12.2019
3068 Clouds -8 1014 85 10000 7 250 16:40 03.12.2019
3069 Clouds -8 1013 85 10000 6 250 16:21 03.12.2019
3070 Clouds -8 1013 85 10000 6 260 15:59 03.12.2019
3071 -273 0 0 0 0 0 15:39 03.12.2019
3072 Clouds -8 1013 85 10000 7 250 15:20 03.12.2019
3073 Clouds -8 1013 85 10000 7 250 15:20 03.12.2019
3074 Clouds -7 1013 79 10000 6 250 14:56 03.12.2019
3075 Snow -7 1012 85 9000 6 250 14:38 03.12.2019
3076 Snow -7 1012 85 9000 6 250 14:18 03.12.2019
3077 Clouds -7 1012 92 10000 4 220 13:38 03.12.2019
3078 Clouds -7 1012 92 10000 4 220 13:20 03.12.2019
3079 Clouds -7 1012 92 10000 4 220 13:20 03.12.2019
3080 Clouds -7 1012 92 10000 5 210 12:58 03.12.2019
3081 Clouds -7 1011 92 10000 4 210 12:37 03.12.2019
3082 Clouds -7 1011 92 10000 4 210 12:37 03.12.2019
3083 Clouds -7 1011 92 10000 4 210 12:18 03.12.2019
3084 Clouds -7 1011 85 10000 3 220 11:57 03.12.2019
3085 Snow -7 1011 85 9000 4 210 11:37 03.12.2019
3086 Snow -7 1011 85 9000 4 210 11:19 03.12.2019
3087 Snow -7 1011 85 9000 4 210 10:56 03.12.2019
3088 Snow -7 1011 85 9000 3 200 10:38 03.12.2019
3089 Snow -7 1011 85 9000 3 200 10:18 03.12.2019
3090 Snow -7 1011 85 9000 3 200 09:42 03.12.2019
3091 Snow -8 1010 92 10000 3 190 09:23 03.12.2019
3092 Snow -8 1010 92 7000 4 200 08:56 03.12.2019
3093 Snow -8 1010 92 7000 4 200 08:56 03.12.2019
3094 Snow -8 1010 92 5000 4 200 08:38 03.12.2019
3095 Snow -8 1010 92 5000 4 200 08:19 03.12.2019
3096 Snow -8 1011 85 6000 4 190 07:51 03.12.2019
3097 Snow -8 1011 85 8000 4 200 07:25 03.12.2019
3098 Snow -8 1011 85 8000 4 200 07:25 03.12.2019
3099 Snow -8 1010 85 9000 4 190 06:38 03.12.2019
3100 Snow -8 1010 85 9000 4 190 06:19 03.12.2019
3101 Clouds -9 1010 85 10000 4 190 04:56 03.12.2019
3102 Snow -9 1010 85 10000 4 190 03:42 03.12.2019
3103 Snow -9 1010 85 9000 4 190 03:20 03.12.2019
3104 Snow -9 1010 85 8000 4 180 02:51 03.12.2019
3105 Snow -9 1010 85 5000 4 190 02:32 03.12.2019
3106 Snow -9 1010 85 9000 5 190 01:56 03.12.2019
3107 Snow -9 1010 85 3600 5 180 01:37 03.12.2019
3108 Snow -9 1010 85 2300 5 180 00:59 03.12.2019
3109 Snow -9 1010 85 2300 5 180 00:40 03.12.2019
3110 Snow -9 1010 85 2300 5 180 00:40 03.12.2019
3111 Clouds -9 1010 78 10000 6 190 00:21 03.12.2019
3112 Clouds -9 1010 78 10000 6 190 00:21 03.12.2019
3113 Clouds -10 1010 78 10000 4 160 23:43 02.12.2019
3114 Clouds -10 1011 78 10000 4 180 23:21 02.12.2019
3115 Clouds -10 1011 78 10000 5 160 22:55 02.12.2019
3116 Clouds -10 1011 78 10000 5 160 22:37 02.12.2019
3117 Clouds -10 1011 78 10000 5 160 22:19 02.12.2019
3118 Clouds -10 1011 78 10000 5 160 21:39 02.12.2019
3119 Clouds -10 1011 78 10000 5 160 21:20 02.12.2019
3120 Clouds -10 1012 78 10000 5 160 20:57 02.12.2019
3121 Clouds -10 1011 78 10000 5 160 20:39 02.12.2019
3122 Clouds -10 1011 78 10000 5 160 20:20 02.12.2019
3123 Clouds -10 1012 78 10000 5 160 19:56 02.12.2019
3124 Clouds -10 1012 78 10000 5 160 19:56 02.12.2019
3125 Clouds -10 1012 78 10000 5 160 19:56 02.12.2019
3126 Clouds -10 1012 78 10000 5 160 19:38 02.12.2019
3127 Clouds -10 1012 78 10000 5 160 19:38 02.12.2019
3128 Clouds -10 1012 78 10000 5 160 19:20 02.12.2019
3129 Clouds -9 1012 72 10000 5 160 18:48 02.12.2019
3130 Clouds -9 1012 72 10000 6 160 18:24 02.12.2019
3131 Clouds -9 1012 72 10000 5 160 17:59 02.12.2019
3132 Clouds -9 1012 72 10000 5 160 17:40 02.12.2019
3133 Clouds -9 1013 72 10000 4 160 17:20 02.12.2019
3134 Clouds -9 1013 72 10000 4 160 17:20 02.12.2019
3135 Clouds -9 1013 72 10000 5 160 16:57 02.12.2019
3136 Clouds -9 1013 72 10000 6 160 16:38 02.12.2019
3137 -273 0 0 0 0 0 16:18 02.12.2019
3138 Clouds -9 1013 72 10000 6 160 16:18 02.12.2019
3139 Clouds -8 1013 67 10000 5 160 15:55 02.12.2019
3140 Clouds -8 1014 67 10000 5 160 15:37 02.12.2019
3141 Clouds -8 1014 67 10000 5 160 15:19 02.12.2019
3142 Clouds -9 1014 72 10000 4 160 14:40 02.12.2019
3143 Clouds -9 1014 66 10000 5 160 14:20 02.12.2019
3144 Clouds -9 1014 66 10000 5 160 13:58 02.12.2019
3145 Clouds -9 1014 66 10000 5 160 13:40 02.12.2019
3146 Clouds -9 1015 66 10000 5 160 13:20 02.12.2019
3147 Clouds -9 1015 66 10000 5 160 13:20 02.12.2019
3148 Clouds -9 1015 66 10000 5 160 12:58 02.12.2019
3149 Clouds -9 1015 66 10000 5 160 12:40 02.12.2019
3150 Clouds -9 1015 66 10000 4 150 12:20 02.12.2019
3151 Clouds -9 1015 66 10000 4 150 11:56 02.12.2019
3152 Clouds -8 1015 61 10000 4 180 11:37 02.12.2019
3153 Clouds -8 1015 61 10000 4 180 11:18 02.12.2019
3154 Clouds -8 1015 61 10000 4 170 10:55 02.12.2019
3155 Clouds -9 1015 66 10000 4 170 10:37 02.12.2019
3156 Clouds -9 1015 66 10000 4 170 10:18 02.12.2019
3157 Clouds -8 1015 61 10000 4 170 09:41 02.12.2019
3158 Clouds -9 1016 66 10000 4 150 09:19 02.12.2019
3159 Clouds -8 1016 61 10000 4 160 08:57 02.12.2019
3160 Clouds -8 1016 61 10000 4 160 08:38 02.12.2019
3161 Clouds -8 1016 61 10000 4 160 08:20 02.12.2019
3162 Clouds -8 1016 61 10000 5 170 07:42 02.12.2019
3163 Clouds -8 1016 61 10000 4 180 07:21 02.12.2019
3164 Clouds -8 1016 61 10000 5 180 06:56 02.12.2019
3165 Clouds -8 1017 61 10000 5 180 06:37 02.12.2019
3166 Clouds -8 1017 61 10000 5 190 05:25 02.12.2019
3167 Clouds -9 1017 66 10000 4 190 04:21 02.12.2019
3168 Clouds -8 1017 61 10000 5 190 02:51 02.12.2019
3169 Clouds -8 1017 61 10000 5 190 02:26 02.12.2019
3170 Clouds -7 1018 62 10000 6 190 01:25 02.12.2019
3171 Clouds -7 1018 62 10000 5 200 00:55 02.12.2019
3172 Clouds -7 1018 67 10000 5 200 00:24 02.12.2019
3173 Clouds -7 1018 67 10000 5 190 23:45 01.12.2019
3174 Clouds -7 1018 67 10000 6 190 23:23 01.12.2019
3175 Clouds -7 1018 67 10000 5 190 22:58 01.12.2019
3176 Clouds -7 1018 67 10000 5 180 22:39 01.12.2019
3177 Clouds -7 1018 67 10000 5 180 22:20 01.12.2019
3178 Clouds -7 1019 62 10000 4 190 21:58 01.12.2019
3179 Clouds -7 1019 62 10000 4 190 21:40 01.12.2019
3180 Clouds -8 1019 67 10000 4 190 21:22 01.12.2019
3181 Clouds -8 1019 67 10000 4 190 20:59 01.12.2019
3182 Clouds -8 1019 67 10000 4 190 20:59 01.12.2019
3183 Clouds -8 1019 67 10000 4 190 20:41 01.12.2019
3184 Clouds -8 1019 67 10000 5 190 20:23 01.12.2019
3185 Clouds -8 1019 67 10000 5 190 19:59 01.12.2019
3186 Clouds -8 1019 67 10000 5 190 19:40 01.12.2019
3187 Clouds -8 1019 67 10000 4 190 19:21 01.12.2019
3188 Clouds -8 1019 67 10000 5 180 18:57 01.12.2019
3189 Clouds -8 1020 67 10000 5 190 18:39 01.12.2019
3190 Clouds -8 1020 67 10000 5 190 18:20 01.12.2019
3191 Clouds -8 1020 67 10000 6 180 17:59 01.12.2019
3192 Clouds -8 1020 67 10000 6 180 17:41 01.12.2019
3193 Clouds -8 1020 67 10000 5 190 17:23 01.12.2019
3194 Clouds -8 1020 67 10000 5 190 17:23 01.12.2019
3195 Clouds -8 1020 61 10000 5 180 16:56 01.12.2019
3196 Clouds -8 1020 61 10000 5 180 16:38 01.12.2019
3197 Clouds -8 1020 61 10000 5 180 16:20 01.12.2019
3198 Clouds -8 1021 61 10000 5 190 15:47 01.12.2019
3199 Clouds -8 1021 61 10000 5 190 15:28 01.12.2019
3200 Clouds -8 1021 57 10000 5 190 14:43 01.12.2019
3201 Clouds -8 1021 57 10000 5 190 14:20 01.12.2019
3202 Clouds -8 1022 57 10000 5 190 13:59 01.12.2019
3203 Clouds -8 1022 57 10000 5 190 13:39 01.12.2019
3204 Clouds -8 1022 57 10000 5 190 13:19 01.12.2019
3205 Clouds -8 1022 61 10000 5 180 12:43 01.12.2019
3206 Clouds -8 1022 57 10000 4 190 11:58 01.12.2019
3207 Clouds -8 1022 61 10000 4 190 11:39 01.12.2019
3208 Clouds -8 1022 61 10000 4 190 11:19 01.12.2019
3209 Clouds -8 1022 61 10000 4 190 10:43 01.12.2019
3210 Clouds -8 1022 61 10000 4 200 10:21 01.12.2019
3211 Clouds -8 1023 57 10000 5 200 09:57 01.12.2019
3212 Clouds -8 1023 57 10000 5 200 09:38 01.12.2019
3213 Clouds -8 1023 57 10000 5 200 09:20 01.12.2019
3214 Clouds -8 1023 57 10000 5 200 09:20 01.12.2019
3215 Clouds -8 1023 57 10000 5 210 08:44 01.12.2019
3216 Clouds -8 1023 57 10000 5 210 08:19 01.12.2019
3217 Clouds -8 1023 57 10000 5 210 07:50 01.12.2019
3218 Clouds -8 1023 57 10000 5 210 07:50 01.12.2019
3219 Clouds -8 1023 57 10000 5 210 07:30 01.12.2019
3220 Clouds -9 1023 61 10000 5 210 06:56 01.12.2019
3221 Clouds -9 1023 61 10000 5 210 06:25 01.12.2019
3222 Clouds -9 1023 61 10000 5 210 05:46 01.12.2019
3223 Clouds -9 1023 66 10000 5 220 04:49 01.12.2019
3224 Clouds -8 1023 67 10000 5 220 02:48 01.12.2019
3225 Clouds -8 1023 72 10000 5 220 02:30 01.12.2019
3226 Clouds -7 1022 67 10000 4 220 01:57 01.12.2019
3227 Clouds -7 1022 67 10000 4 220 01:39 01.12.2019
3228 Clouds -7 1022 67 10000 4 210 01:18 01.12.2019
3229 Clouds -7 1022 73 10000 4 220 00:39 01.12.2019
3230 Clouds -6 1022 67 10000 5 230 00:20 01.12.2019
3231 Clouds -6 1022 67 10000 6 240 23:42 30.11.2019
3232 Clouds -6 1022 67 10000 5 230 23:23 30.11.2019
3233 Clouds -5 1022 67 10000 5 230 22:49 30.11.2019
3234 Clouds -5 1022 67 10000 5 240 22:30 30.11.2019
3235 Clouds -4 1022 68 10000 6 240 21:58 30.11.2019
3236 Clouds -4 1022 68 10000 6 240 21:39 30.11.2019
3237 Clouds -4 1022 68 10000 4 240 21:20 30.11.2019
3238 Clouds -5 1022 67 10000 5 240 20:55 30.11.2019
3239 Clouds -5 1022 67 10000 5 240 20:37 30.11.2019
3240 Clouds -5 1022 67 10000 5 240 20:18 30.11.2019
3241 Clouds -5 1022 67 10000 5 240 19:55 30.11.2019
3242 Clouds -5 1022 67 10000 5 240 19:36 30.11.2019
3243 Clouds -5 1022 67 10000 5 240 19:18 30.11.2019
3244 Clouds -6 1022 73 10000 5 240 18:54 30.11.2019
3245 Clouds -6 1022 73 10000 6 240 18:36 30.11.2019
3246 Clouds -6 1022 73 10000 6 240 18:18 30.11.2019
3247 Clouds -6 1022 73 10000 6 240 18:18 30.11.2019
3248 Clouds -6 1022 73 10000 5 240 17:55 30.11.2019
3249 Clouds -6 1022 67 10000 6 240 17:37 30.11.2019
3250 Clouds -6 1022 67 10000 6 240 17:37 30.11.2019
3251 Clear -6 1022 67 10000 6 240 17:18 30.11.2019
3252 Clear -6 1021 67 10000 6 240 16:42 30.11.2019
3253 Clear -6 1021 73 10000 5 240 16:22 30.11.2019
3254 Clear -6 1021 73 10000 5 240 15:55 30.11.2019
3255 Clear -6 1021 73 10000 6 240 15:37 30.11.2019
3256 Clear -6 1021 73 10000 6 240 15:18 30.11.2019
3257 Clear -6 1021 73 10000 6 240 14:55 30.11.2019
3258 Clear -6 1021 73 10000 6 240 14:37 30.11.2019
3259 Clouds -6 1021 73 10000 6 240 14:18 30.11.2019
3260 Clouds -6 1021 79 10000 6 240 13:45 30.11.2019
3261 Clouds -6 1021 79 10000 6 230 13:26 30.11.2019
3262 Clouds -6 1021 79 10000 6 230 12:59 30.11.2019
3263 Clouds -6 1021 79 10000 6 230 12:41 30.11.2019
3264 Clouds -6 1021 79 10000 5 230 12:22 30.11.2019
3265 Clouds -6 1021 85 10000 5 230 11:43 30.11.2019
3266 Clouds -6 1021 85 10000 6 220 11:20 30.11.2019
3267 Clouds -6 1021 85 10000 6 220 10:56 30.11.2019
3268 Clouds -6 1021 85 10000 6 220 10:37 30.11.2019
3269 Clouds -6 1021 85 10000 6 220 10:19 30.11.2019
3270 Clouds -6 1021 85 10000 6 220 09:46 30.11.2019
3271 Clouds -6 1021 79 10000 6 210 09:24 30.11.2019
3272 Clouds -6 1021 79 10000 6 210 08:44 30.11.2019
3273 Clouds -6 1021 79 10000 6 210 08:22 30.11.2019
3274 Clouds -6 1021 79 10000 6 210 07:58 30.11.2019
3275 Clouds -6 1021 79 10000 6 210 07:39 30.11.2019
3276 Clouds -6 1021 85 10000 6 200 06:59 30.11.2019
3277 Clouds -6 1022 85 10000 6 210 06:29 30.11.2019
3278 Clouds -6 1022 85 10000 6 200 05:53 30.11.2019
3279 Clouds -6 1023 100 10000 4 200 03:54 30.11.2019
3280 Clouds -6 1024 100 10000 4 190 02:53 30.11.2019
3281 Clouds -6 1024 100 10000 4 190 02:22 30.11.2019
3282 Clouds -8 1025 100 10000 4 180 01:38 30.11.2019
3283 Clouds -8 1025 100 10000 4 180 01:19 30.11.2019
3284 Clouds -9 1026 100 10000 3 150 00:36 30.11.2019
3285 Clouds -9 1026 100 10000 3 150 00:18 30.11.2019
3286 Clouds -10 1026 100 10000 3 150 23:43 29.11.2019
3287 Snow -11 1027 100 10000 3 150 23:23 29.11.2019
3288 Snow -11 1027 92 8000 3 140 22:46 29.11.2019
3289 Snow -13 1028 92 4800 3 120 22:26 29.11.2019
3290 Snow -13 1028 92 3800 3 110 21:45 29.11.2019
3291 Clouds -14 1028 84 10000 3 110 21:26 29.11.2019
3292 Clouds -15 1029 92 10000 3 100 20:59 29.11.2019
3293 Clouds -15 1029 92 10000 3 100 20:39 29.11.2019
3294 Clouds -16 1029 91 10000 3 110 20:21 29.11.2019
3295 Clouds -16 1029 84 10000 3 110 19:58 29.11.2019
3296 Clouds -16 1029 84 10000 3 110 19:39 29.11.2019
3297 Snow -16 1030 84 10000 2 110 19:20 29.11.2019
3298 Snow -17 1030 91 10000 3 120 18:58 29.11.2019
3299 Snow -17 1030 91 10000 3 120 18:40 29.11.2019
3300 Snow -17 1030 91 10000 3 120 18:21 29.11.2019
3301 Snow -17 1030 84 10000 3 130 17:44 29.11.2019
3302 Snow -17 1030 84 10000 4 120 17:26 29.11.2019
3303 Snow -17 1030 84 10000 3 120 16:58 29.11.2019
3304 Snow -17 1030 84 10000 3 120 16:58 29.11.2019
3305 Snow -17 1030 84 10000 3 120 16:39 29.11.2019
3306 Snow -17 1030 84 10000 3 120 16:39 29.11.2019
3307 Snow -18 1030 91 10000 2 120 16:19 29.11.2019
3308 Clouds -18 1030 84 10000 3 110 15:41 29.11.2019
3309 Snow -19 1031 91 8000 3 110 15:23 29.11.2019
3310 Snow -19 1031 91 8000 3 110 15:23 29.11.2019
3311 Clouds -20 1031 83 10000 3 100 14:57 29.11.2019
3312 Clouds -20 1030 83 10000 2 130 14:38 29.11.2019
3313 Clouds -20 1030 83 10000 2 130 14:20 29.11.2019
3314 Clouds -20 1030 83 10000 3 110 13:41 29.11.2019
3315 Clouds -19 1030 84 10000 3 100 13:21 29.11.2019
3316 Clouds -19 1030 84 10000 3 100 13:21 29.11.2019
3317 Clouds -19 1030 91 10000 4 100 12:57 29.11.2019
3318 Clouds -19 1030 91 10000 4 100 12:57 29.11.2019
3319 Clouds -19 1030 91 10000 4 100 12:39 29.11.2019
3320 Clouds -18 1030 84 10000 3 100 12:21 29.11.2019
3321 Clouds -17 1029 91 10000 2 80 11:55 29.11.2019
3322 Clouds -16 1029 91 10000 2 70 11:36 29.11.2019
3323 Clouds -16 1029 91 10000 2 70 11:18 29.11.2019
3324 Snow -16 1029 91 9000 2 80 10:55 29.11.2019
3325 Snow -16 1029 91 9000 2 80 10:55 29.11.2019
3326 Snow -14 1028 84 7000 2 50 10:36 29.11.2019
3327 Snow -14 1028 84 7000 2 50 10:18 29.11.2019
3328 Snow -14 1028 84 7000 2 50 10:18 29.11.2019
3329 Snow -14 1028 92 8000 2 70 09:54 29.11.2019
3330 Snow -14 1028 92 7000 2 60 09:36 29.11.2019
3331 Snow -14 1028 92 7000 2 60 09:18 29.11.2019
3332 Snow -14 1027 92 4900 2 60 08:39 29.11.2019
3333 Snow -14 1027 92 4900 2 60 08:20 29.11.2019
3334 Snow -13 1027 84 8000 2 90 07:56 29.11.2019
3335 Snow -13 1027 84 8000 2 80 07:38 29.11.2019
3336 Snow -13 1027 84 8000 2 80 07:19 29.11.2019
3337 Snow -13 1026 92 9000 2 70 06:42 29.11.2019
3338 Snow -13 1025 92 8000 2 50 05:48 29.11.2019
3339 Snow -13 1025 100 9000 1 0 05:24 29.11.2019
3340 Clouds -13 1024 100 10000 2 310 04:31 29.11.2019
3341 Clouds -14 1023 92 10000 2 280 03:21 29.11.2019
3342 Clouds -14 1022 100 10000 3 280 02:30 29.11.2019
3343 Clouds -14 1022 92 10000 3 280 01:52 29.11.2019
3344 Clouds -14 1021 100 10000 3 280 01:26 29.11.2019
3345 Clouds -14 1021 100 10000 3 280 00:43 29.11.2019
3346 Clouds -13 1021 100 10000 3 280 00:21 29.11.2019
3347 Clouds -13 1020 100 10000 4 280 23:56 28.11.2019
3348 Clouds -13 1020 92 10000 4 280 23:36 28.11.2019
3349 Clouds -13 1020 92 10000 4 280 23:18 28.11.2019
3350 Clouds -13 1019 100 10000 5 280 22:38 28.11.2019
3351 Clouds -13 1019 100 10000 5 280 22:20 28.11.2019
3352 Clouds -12 1018 100 10000 5 270 21:59 28.11.2019
3353 Clouds -12 1018 100 10000 5 270 21:40 28.11.2019
3354 Clouds -11 1018 100 10000 5 260 21:20 28.11.2019
3355 Clouds -11 1017 100 10000 5 270 20:57 28.11.2019
3356 Clouds -10 1017 92 10000 5 270 20:38 28.11.2019
3357 Clouds -10 1017 92 10000 5 270 20:18 28.11.2019
3358 Clouds -9 1017 92 10000 5 260 19:55 28.11.2019
3359 Clouds -9 1016 92 10000 6 260 19:36 28.11.2019
3360 Clouds -9 1016 92 10000 6 260 19:18 28.11.2019
3361 Clouds -9 1016 92 10000 6 260 18:55 28.11.2019
3362 Clouds -8 1015 92 10000 6 250 18:37 28.11.2019
3363 Clouds -8 1015 92 10000 6 250 18:18 28.11.2019
3364 Clouds -8 1015 92 10000 5 250 17:42 28.11.2019
3365 Clouds -8 1015 92 10000 5 250 17:23 28.11.2019
3366 Clouds -8 1015 92 10000 5 250 17:23 28.11.2019
3367 Clouds -7 1014 85 10000 6 250 16:59 28.11.2019
3368 Clouds -7 1014 85 10000 6 250 16:59 28.11.2019
3369 Clouds -7 1014 85 10000 6 250 16:39 28.11.2019
3370 Clouds -7 1014 85 10000 7 250 16:19 28.11.2019
3371 Clouds -7 1014 85 10000 7 250 15:56 28.11.2019
3372 Clouds -7 1014 85 10000 7 250 15:56 28.11.2019
3373 Clouds -7 1013 92 10000 7 250 15:37 28.11.2019
3374 Clouds -7 1013 92 10000 7 250 15:19 28.11.2019
3375 Clouds -7 1013 85 10000 5 250 14:42 28.11.2019
3376 Clouds -7 1013 85 10000 5 240 14:24 28.11.2019
3377 Clouds -7 1012 92 10000 6 250 13:59 28.11.2019
3378 Clouds -7 1012 92 10000 6 250 13:41 28.11.2019
3379 Clouds -7 1012 92 10000 5 240 13:22 28.11.2019
3380 Clouds -6 1012 85 10000 6 250 12:49 28.11.2019
3381 Clouds -6 1011 85 10000 7 250 12:30 28.11.2019
3382 Clouds -6 1011 85 10000 7 250 11:59 28.11.2019
3383 Clouds -6 1011 85 10000 7 250 11:59 28.11.2019
3384 Clouds -6 1011 85 10000 7 250 11:41 28.11.2019
3385 Clouds -6 1011 85 10000 7 250 11:41 28.11.2019
3386 Clouds -6 1011 92 10000 7 250 11:21 28.11.2019
3387 Clouds -6 1010 92 10000 6 250 10:59 28.11.2019
3388 Clouds -6 1010 92 10000 6 250 10:41 28.11.2019
3389 Snow -7 1010 92 10000 5 240 10:20 28.11.2019
3390 Snow -7 1010 92 10000 6 240 09:42 28.11.2019
3391 Snow -7 1010 85 10000 5 240 09:23 28.11.2019
3392 Snow -8 1009 92 8000 6 220 08:59 28.11.2019
3393 Snow -8 1009 92 8000 6 220 08:40 28.11.2019
3394 Snow -8 1009 92 5000 6 230 08:21 28.11.2019
3395 Snow -8 1009 85 6000 6 230 07:43 28.11.2019
3396 Snow -8 1009 85 5000 6 220 07:24 28.11.2019
3397 Snow -9 1009 92 4600 6 220 06:57 28.11.2019
3398 Snow -9 1009 85 6000 6 220 06:36 28.11.2019
3399 Snow -10 1009 92 9000 6 220 05:53 28.11.2019
3400 Clouds -10 1009 92 10000 6 210 05:18 28.11.2019
3401 Clouds -10 1009 92 10000 6 210 05:18 28.11.2019
3402 Snow -10 1009 85 4300 6 200 02:51 28.11.2019
3403 Snow -10 1009 85 8000 7 210 02:18 28.11.2019
3404 Snow -10 1010 85 9000 6 200 00:52 28.11.2019
3405 Snow -10 1010 85 9000 7 200 00:26 28.11.2019
3406 Snow -10 1011 85 9000 7 200 23:59 27.11.2019
3407 Clouds -10 1011 85 10000 6 200 23:38 27.11.2019
3408 Clouds -10 1011 85 10000 6 200 23:19 27.11.2019
3409 Clouds -10 1011 92 10000 7 200 22:54 27.11.2019
3410 Clouds -10 1012 92 10000 7 200 22:36 27.11.2019
3411 Clouds -10 1012 92 10000 7 200 22:18 27.11.2019
3412 Clouds -10 1012 92 10000 6 200 21:55 27.11.2019
3413 Clouds -10 1012 85 10000 6 200 21:36 27.11.2019
3414 Clouds -10 1012 85 10000 6 200 21:18 27.11.2019
3415 Clouds -10 1012 85 10000 6 200 21:18 27.11.2019
3416 Clouds -10 1012 85 10000 7 200 20:55 27.11.2019
3417 Clouds -10 1013 85 10000 7 200 20:36 27.11.2019
3418 Clouds -10 1013 85 10000 7 200 20:18 27.11.2019
3419 Clouds -10 1013 85 10000 6 200 19:54 27.11.2019
3420 Clouds -10 1013 85 10000 6 200 19:36 27.11.2019
3421 Clouds -10 1013 85 10000 6 200 19:18 27.11.2019
3422 Clouds -10 1014 85 10000 5 200 18:38 27.11.2019
3423 Clouds -10 1014 85 10000 5 200 18:19 27.11.2019
3424 Clouds -10 1014 85 10000 5 200 18:19 27.11.2019
3425 Clouds -10 1014 85 10000 7 200 17:58 27.11.2019
3426 Clouds -10 1014 85 10000 7 200 17:40 27.11.2019
3427 Clouds -10 1014 85 10000 7 200 17:40 27.11.2019
3428 Clouds -10 1015 85 10000 6 200 17:21 27.11.2019
3429 Clouds -10 1015 85 10000 6 200 16:57 27.11.2019
3430 Clouds -9 1015 78 10000 6 190 16:38 27.11.2019
3431 Clouds -9 1015 78 10000 6 190 16:20 27.11.2019
3432 Clouds -9 1015 78 10000 6 200 15:57 27.11.2019
3433 Clouds -9 1015 85 10000 6 210 15:39 27.11.2019
3434 Clouds -9 1015 85 10000 6 210 15:21 27.11.2019
3435 Snow -9 1016 85 4500 7 200 14:57 27.11.2019
3436 Clouds -9 1016 85 10000 6 200 14:39 27.11.2019
3437 Clouds -9 1016 85 10000 6 200 14:21 27.11.2019
3438 Clouds -9 1016 85 10000 6 200 13:57 27.11.2019
3439 Clouds -9 1016 85 10000 6 200 13:38 27.11.2019
3440 Clouds -9 1016 85 10000 6 200 13:19 27.11.2019
3441 -273 0 0 0 0 0 12:56 27.11.2019
3442 Snow -9 1016 85 10000 6 200 12:38 27.11.2019
3443 Snow -9 1016 85 6000 6 200 12:18 27.11.2019
3444 Snow -10 1016 92 4000 6 200 11:38 27.11.2019
3445 Snow -10 1016 85 10000 6 200 11:19 27.11.2019
3446 Snow -10 1016 85 10000 6 200 10:57 27.11.2019
3447 Snow -10 1016 85 10000 6 200 10:39 27.11.2019
3448 Snow -10 1016 85 10000 6 200 10:21 27.11.2019
3449 Snow -10 1016 85 7000 6 200 09:43 27.11.2019
3450 Snow -10 1016 85 7000 6 200 09:43 27.11.2019
3451 Snow -10 1017 85 7000 6 200 09:25 27.11.2019
3452 Snow -10 1017 85 10000 6 200 08:57 27.11.2019
3453 Snow -10 1017 85 10000 6 200 08:38 27.11.2019
3454 Snow -10 1017 85 10000 6 200 08:19 27.11.2019
3455 Snow -10 1017 85 10000 6 210 07:45 27.11.2019
3456 Snow -10 1017 85 10000 6 210 07:27 27.11.2019
3457 Snow -10 1018 85 5000 6 210 06:46 27.11.2019
3458 Snow -10 1018 85 5000 6 210 06:26 27.11.2019
3459 Snow -10 1018 78 9000 6 220 05:27 27.11.2019
3460 Snow -10 1018 85 7000 6 220 04:59 27.11.2019
3461 Snow -10 1018 85 10000 7 220 04:39 27.11.2019
3462 Clouds -10 1018 85 10000 6 210 03:51 27.11.2019
3463 Clouds -10 1018 85 10000 6 210 03:22 27.11.2019
3464 Clouds -10 1018 78 10000 7 210 02:54 27.11.2019
3465 Clouds -10 1019 85 10000 6 210 01:35 27.11.2019
3466 Snow -10 1019 85 9000 6 220 00:44 27.11.2019
3467 Snow -10 1019 85 9000 6 220 00:25 27.11.2019
3468 Snow -10 1019 85 4600 5 210 23:47 26.11.2019
3469 Snow -10 1019 85 4600 5 210 23:26 26.11.2019
3470 Snow -10 1019 85 6000 6 210 22:56 26.11.2019
3471 Snow -10 1020 85 3700 6 210 22:38 26.11.2019
3472 Snow -10 1020 85 3700 6 210 22:19 26.11.2019
3473 Snow -10 1020 85 6000 6 210 21:57 26.11.2019
3474 Snow -10 1020 85 6000 5 210 21:37 26.11.2019
3475 Snow -10 1020 85 6000 5 210 21:19 26.11.2019
3476 Snow -10 1020 85 6000 5 210 21:19 26.11.2019
3477 Clouds -11 1020 85 10000 5 200 20:54 26.11.2019
3478 Clouds -11 1020 85 10000 5 200 20:36 26.11.2019
3479 Clouds -11 1020 85 10000 5 200 20:18 26.11.2019
3480 Snow -10 1021 78 10000 6 210 19:54 26.11.2019
3481 Snow -10 1021 78 10000 6 210 19:54 26.11.2019
3482 Snow -10 1021 85 6000 6 200 19:36 26.11.2019
3483 Snow -10 1021 85 6000 6 200 19:18 26.11.2019
3484 Snow -10 1021 85 7000 6 210 18:54 26.11.2019
3485 Snow -10 1021 85 9000 7 210 18:36 26.11.2019
3486 Snow -10 1021 92 6000 6 210 18:18 26.11.2019
3487 Clouds -9 1021 85 10000 7 210 17:42 26.11.2019
3488 Clouds -9 1021 85 10000 7 210 17:23 26.11.2019
3489 Snow -9 1022 85 9000 7 200 16:58 26.11.2019
3490 Snow -9 1022 85 10000 6 210 16:38 26.11.2019
3491 Snow -9 1022 85 10000 6 210 16:38 26.11.2019
3492 Snow -9 1022 85 10000 6 210 16:19 26.11.2019
3493 Snow -9 1022 85 7000 6 200 15:59 26.11.2019
3494 Snow -9 1022 85 7000 6 200 15:59 26.11.2019
3495 Snow -9 1022 85 7000 5 200 15:39 26.11.2019
3496 Snow -9 1022 85 7000 5 200 15:20 26.11.2019
3497 Snow -9 1022 85 9000 5 210 14:59 26.11.2019
3498 Snow -9 1022 85 9000 5 210 14:41 26.11.2019
3499 Snow -9 1022 85 10000 5 210 14:22 26.11.2019
3500 Snow -10 1023 92 10000 5 210 13:43 26.11.2019
3501 Snow -10 1023 85 10000 4 210 13:23 26.11.2019
3502 Snow -10 1023 92 9000 5 210 12:56 26.11.2019
3503 Snow -9 1023 85 9000 5 220 12:36 26.11.2019
3504 Snow -10 1023 92 10000 5 210 12:18 26.11.2019
3505 Snow -10 1023 92 10000 5 210 11:54 26.11.2019
3506 Snow -10 1023 92 10000 5 210 11:36 26.11.2019
3507 Snow -10 1024 85 9000 5 210 11:18 26.11.2019
3508 Snow -10 1024 85 9000 5 210 10:54 26.11.2019
3509 Clouds -10 1024 85 10000 5 210 10:36 26.11.2019
3510 Clouds -10 1024 85 10000 5 210 10:18 26.11.2019
3511 Clouds -10 1024 85 10000 5 200 09:42 26.11.2019
3512 Clouds -10 1024 85 10000 5 210 09:23 26.11.2019
3513 Clouds -10 1024 85 10000 6 210 08:46 26.11.2019
3514 Clouds -10 1024 85 10000 7 210 08:27 26.11.2019
3515 Clouds -10 1025 85 10000 6 200 07:57 26.11.2019
3516 Snow -10 1025 85 5000 5 210 07:36 26.11.2019
3517 Snow -10 1025 85 5000 5 210 07:18 26.11.2019
3518 Snow -10 1025 85 3400 6 210 06:41 26.11.2019
3519 Snow -10 1025 85 3100 5 210 05:58 26.11.2019
3520 Snow -10 1026 92 4700 6 220 04:57 26.11.2019
3521 Snow -9 1026 78 6000 7 230 03:21 26.11.2019
3522 Clouds -9 1026 92 10000 6 230 01:36 26.11.2019
3523 Clouds -9 1026 92 10000 6 230 01:18 26.11.2019
3524 Clouds -10 1027 92 10000 4 220 00:40 26.11.2019
3525 Clouds -11 1027 92 10000 5 220 23:59 25.11.2019
3526 Snow -11 1027 92 10000 5 220 23:38 25.11.2019
3527 Snow -11 1027 92 10000 5 220 23:19 25.11.2019
3528 Snow -13 1028 92 10000 4 220 22:39 25.11.2019
3529 Snow -13 1028 92 10000 4 220 22:19 25.11.2019
3530 Snow -13 1028 92 10000 5 220 21:59 25.11.2019
3531 Snow -13 1028 92 10000 5 220 21:59 25.11.2019
3532 Snow -13 1028 92 10000 5 220 21:41 25.11.2019
3533 Snow -13 1028 92 10000 5 230 21:22 25.11.2019
3534 Snow -13 1029 92 10000 4 220 20:58 25.11.2019
3535 Snow -14 1029 92 10000 4 230 20:40 25.11.2019
3536 Snow -14 1029 92 10000 4 230 20:20 25.11.2019
3537 Snow -14 1029 84 8000 3 220 19:57 25.11.2019
3538 Snow -15 1029 92 9000 4 200 19:38 25.11.2019
3539 Snow -15 1029 92 9000 4 200 19:20 25.11.2019
3540 Snow -16 1030 91 9000 4 210 18:57 25.11.2019
3541 Snow -16 1030 84 9000 2 220 18:39 25.11.2019
3542 Snow -17 1030 91 10000 2 220 18:21 25.11.2019
3543 Snow -17 1030 91 10000 2 220 17:58 25.11.2019
3544 Snow -17 1030 84 9000 2 220 17:39 25.11.2019
3545 Snow -18 1030 84 10000 2 220 17:21 25.11.2019
3546 Snow -18 1030 84 10000 2 220 16:58 25.11.2019
3547 Snow -19 1030 84 10000 2 230 16:40 25.11.2019
3548 Snow -19 1030 84 10000 2 230 16:22 25.11.2019
3549 Snow -19 1030 84 10000 2 210 15:56 25.11.2019
3550 Snow -20 1030 83 10000 2 210 15:37 25.11.2019
3551 Snow -20 1030 83 10000 2 210 15:19 25.11.2019
3552 Snow -20 1031 83 10000 1 0 14:43 25.11.2019
3553 Snow -21 1031 83 10000 2 210 14:25 25.11.2019
3554 Snow -21 1031 83 10000 2 210 13:57 25.11.2019
3555 Snow -22 1031 83 6000 1 0 13:37 25.11.2019
3556 Snow -22 1031 83 6000 1 0 13:18 25.11.2019
3557 Snow -22 1031 76 8000 1 0 12:57 25.11.2019
3558 Snow -23 1032 76 9000 1 0 12:38 25.11.2019
3559 Snow -24 1032 76 10000 1 0 12:19 25.11.2019
3560 Clouds -25 1032 83 10000 1 0 11:40 25.11.2019
3561 Clouds -25 1032 83 10000 1 0 11:40 25.11.2019
3562 Clouds -25 1032 83 10000 1 0 11:40 25.11.2019
3563 Clouds -25 1032 83 10000 1 0 11:21 25.11.2019
3564 Clouds -24 1032 76 10000 1 210 10:58 25.11.2019
3565 Clouds -24 1032 83 10000 1 200 10:39 25.11.2019
3566 Clouds -24 1032 83 10000 1 200 10:19 25.11.2019
3567 Clouds -24 1032 83 10000 1 0 09:42 25.11.2019
3568 Clouds -24 1032 76 10000 2 200 09:24 25.11.2019
3569 Clouds -25 1033 83 10000 2 210 08:42 25.11.2019
3570 Clouds -25 1033 83 10000 2 210 08:24 25.11.2019
3571 Clear -25 1033 83 10000 2 210 07:56 25.11.2019
3572 Clear -25 1033 75 10000 2 220 07:37 25.11.2019
3573 Clear -25 1033 75 10000 2 220 07:18 25.11.2019
3574 Clear -29 1033 75 8000 1 0 06:24 25.11.2019
3575 Clear -29 1033 75 8000 1 0 06:24 25.11.2019
3576 Clear -30 1033 74 10000 1 220 05:57 25.11.2019
3577 Clear -30 1033 74 10000 3.24 207 05:32 25.11.2019
3578 Clear -30 1033 82 10000 2.04 213 04:48 25.11.2019
3579 Clouds -28 1033 75 10000 1 70 02:36 25.11.2019
3580 Mist -27 1033 75 5000 1 0 01:43 25.11.2019
3581 Fog -27 1033 75 2600 1 0 01:24 25.11.2019
3582 Clouds -27 1033 75 10000 1 40 00:45 25.11.2019
3583 Clouds -27 1033 75 10000 1 40 00:20 25.11.2019
3584 Clouds -27 1033 75 10000 2 80 23:44 24.11.2019
3585 Clouds -27 1033 75 10000 2 80 23:20 24.11.2019
3586 Clouds -28 1034 82 10000 1 0 22:57 24.11.2019
3587 Clouds -27 1033 82 10000 2 70 22:39 24.11.2019
3588 Clouds -27 1033 82 10000 2 70 22:19 24.11.2019
3589 Clouds -27 1033 75 9000 1 0 21:57 24.11.2019
3590 Clouds -29 1033 75 10000 1 50 21:38 24.11.2019
3591 Clouds -29 1033 75 10000 1 50 21:20 24.11.2019
3592 Clouds -27 1033 82 10000 1.24 142 20:56 24.11.2019
3593 Clouds -28 1033 75 10000 1.24 142 20:37 24.11.2019
3594 Clouds -28 1033 75 10000 1.58 81 20:18 24.11.2019
3595 Clouds -28 1033 75 10000 1.58 81 19:56 24.11.2019
3596 Clear -28 1033 75 10000 1.58 81 19:38 24.11.2019
3597 Clear -28 1033 75 10000 1.58 81 19:19 24.11.2019
3598 Clear -28 1033 82 10000 1 0 18:56 24.11.2019
3599 Clear -27 1033 82 10000 1 0 18:36 24.11.2019
3600 Clear -26 1033 75 10000 3 60 18:18 24.11.2019
3601 Clear -26 1033 75 10000 3 60 18:18 24.11.2019
3602 Clear -26 1033 75 10000 3 60 17:55 24.11.2019
3603 Clear -26 1033 75 10000 3 70 17:36 24.11.2019
3604 Clear -26 1032 75 10000 2 70 17:18 24.11.2019
3605 Clear -26 1032 75 10000 2 70 17:18 24.11.2019
3606 Clear -26 1032 75 10000 2 70 16:54 24.11.2019
3607 Clear -25 1032 75 10000 2 70 16:36 24.11.2019
3608 Clear -25 1032 75 10000 2 70 16:18 24.11.2019
3609 Clear -25 1032 83 10000 3 60 15:42 24.11.2019
3610 Clear -25 1032 83 10000 3 60 15:24 24.11.2019
3611 Clear -25 1032 83 10000 3 60 15:24 24.11.2019
3612 Clear -25 1032 83 10000 3 70 14:56 24.11.2019
3613 Clear -25 1032 83 10000 3 60 14:38 24.11.2019
3614 Clouds -25 1032 83 10000 3 60 14:18 24.11.2019
3615 Clouds -24 1031 76 10000 3 80 13:39 24.11.2019
3616 Clouds -24 1031 76 10000 3 80 13:21 24.11.2019
3617 Clouds -24 1031 83 10000 3 60 12:58 24.11.2019
3618 Clouds -23 1030 83 10000 3 60 12:39 24.11.2019
3619 Clouds -23 1030 83 10000 4 50 12:18 24.11.2019
3620 Clouds -23 1030 83 10000 4 50 11:55 24.11.2019
3621 Clouds -22 1030 83 10000 3 50 11:36 24.11.2019
3622 Clouds -21 1030 76 10000 2 40 11:18 24.11.2019
3623 Clouds -21 1030 76 10000 2 40 10:45 24.11.2019
3624 Clouds -21 1029 83 10000 4 50 10:27 24.11.2019
3625 Clouds -21 1029 83 10000 4 50 09:55 24.11.2019
3626 Clouds -21 1029 83 10000 4 60 09:36 24.11.2019
3627 Clouds -21 1029 83 10000 4 60 09:18 24.11.2019
3628 Clouds -21 1029 83 10000 4 50 08:43 24.11.2019
3629 Clouds -21 1028 83 10000 4 60 08:21 24.11.2019
3630 Clouds -20 1028 76 10000 4 60 07:53 24.11.2019
3631 Clouds -20 1028 76 10000 4 60 07:53 24.11.2019
3632 Clouds -20 1028 83 10000 4 50 07:34 24.11.2019
3633 Clouds -20 1027 83 10000 3 60 06:57 24.11.2019
3634 Clouds -20 1027 83 10000 4 40 05:59 24.11.2019
3635 Clouds -20 1027 83 10000 4 40 05:59 24.11.2019
3636 Clouds -20 1026 83 10000 4 40 04:47 24.11.2019
3637 Clouds -18 1024 84 10000 4 50 02:50 24.11.2019
3638 Clouds -16 1024 77 10000 4 50 01:58 24.11.2019
3639 Clouds -15 1023 77 10000 5 50 01:39 24.11.2019
3640 Clouds -15 1023 77 10000 5 50 01:20 24.11.2019
3641 Clouds -14 1023 77 10000 5 60 00:46 24.11.2019
3642 Clouds -14 1023 77 10000 5 60 00:23 24.11.2019
3643 Snow -12 1022 85 9000 6 50 23:44 23.11.2019
3644 Snow -12 1022 85 9000 6 50 23:21 23.11.2019
3645 Snow -10 1021 92 5000 6 50 22:58 23.11.2019
3646 Snow -9 1021 92 9000 7 50 22:38 23.11.2019
3647 Snow -9 1021 92 9000 7 50 22:38 23.11.2019
3648 Snow -9 1021 92 9000 7 50 22:38 23.11.2019
3649 Snow -9 1021 92 9000 7 50 22:20 23.11.2019
3650 Snow -9 1021 92 10000 8 60 21:58 23.11.2019
3651 Snow -7 1020 92 10000 7 60 21:40 23.11.2019
3652 Snow -7 1020 92 10000 7 60 21:21 23.11.2019
3653 Snow -5 1019 100 10000 2 360 20:40 23.11.2019
3654 Snow -5 1019 100 10000 2 360 20:22 23.11.2019
3655 Clouds -5 1019 100 10000 2 350 19:58 23.11.2019
3656 Clouds -5 1019 100 10000 2 330 19:40 23.11.2019
3657 Clouds -5 1019 100 10000 2 330 19:19 23.11.2019
3658 Clouds -5 1019 100 10000 2 320 18:59 23.11.2019
3659 Clouds -5 1019 100 10000 2 290 18:39 23.11.2019
3660 Clouds -5 1018 100 10000 3 280 18:20 23.11.2019
3661 Clouds -5 1018 100 10000 3 280 17:54 23.11.2019
3662 Clouds -5 1018 100 10000 2 280 17:36 23.11.2019
3663 Clouds -5 1018 100 10000 2 280 17:18 23.11.2019
3664 Clouds -5 1018 100 10000 3 270 16:41 23.11.2019
3665 Clouds -5 1018 100 10000 3 270 16:23 23.11.2019
3666 Clouds -5 1018 100 10000 3 280 15:59 23.11.2019
3667 Clouds -5 1018 100 10000 3 250 15:39 23.11.2019
3668 Clouds -5 1018 100 10000 3 250 15:19 23.11.2019
3669 Clouds -5 1018 100 10000 3 250 15:19 23.11.2019
3670 Clouds -5 1018 100 10000 3 240 14:57 23.11.2019
3671 Clouds -5 1018 100 10000 3 250 14:39 23.11.2019
3672 Clouds -5 1018 100 10000 3 250 14:21 23.11.2019
3673 Snow -5 1018 100 10000 3 240 13:54 23.11.2019
3674 Clouds -5 1018 100 10000 4 230 13:36 23.11.2019
3675 Clouds -5 1018 100 10000 4 230 13:36 23.11.2019
3676 Clouds -5 1018 100 10000 4 230 13:18 23.11.2019
3677 Clouds -5 1018 100 10000 4 230 13:18 23.11.2019
3678 Clouds -6 1018 100 10000 3 240 12:41 23.11.2019
3679 Clouds -6 1018 100 10000 3 240 12:23 23.11.2019
3680 Snow -5 1018 100 10000 4 230 11:45 23.11.2019
3681 Snow -5 1018 100 10000 4 230 11:23 23.11.2019
3682 Snow -5 1018 100 9000 4 240 10:45 23.11.2019
3683 Clouds -5 1018 100 10000 4 240 10:23 23.11.2019
3684 Snow -5 1018 100 9000 4 240 09:58 23.11.2019
3685 Snow -6 1018 100 8000 4 240 09:39 23.11.2019
3686 Snow -6 1018 100 8000 4 240 09:18 23.11.2019
3687 Clouds -6 1018 100 10000 5 240 08:41 23.11.2019
3688 Clouds -6 1018 100 10000 5 240 08:18 23.11.2019
3689 Snow -6 1018 100 10000 6 240 07:41 23.11.2019
3690 Snow -6 1018 100 8000 5 240 06:52 23.11.2019
3691 Snow -6 1018 100 10000 4 240 06:26 23.11.2019
3692 Snow -6 1019 100 10000 4 240 05:57 23.11.2019
3693 Clouds -6 1019 100 10000 5 240 05:31 23.11.2019
3694 Clouds -6 1019 100 10000 5 250 04:54 23.11.2019
3695 Clouds -6 1019 100 10000 5 240 04:32 23.11.2019
3696 Clouds -7 1019 100 10000 6 240 03:25 23.11.2019
3697 Clouds -7 1019 100 10000 6 250 02:31 23.11.2019
3698 Snow -7 1020 100 5000 6 240 01:39 23.11.2019
3699 Clouds -7 1020 100 10000 5 240 00:45 23.11.2019
3700 Clouds -7 1020 92 10000 6 250 00:19 23.11.2019
3701 Snow -7 1020 92 9000 6 240 23:43 22.11.2019
3702 Snow -7 1020 92 9000 6 240 23:23 22.11.2019
3703 Snow -7 1021 92 9000 6 240 23:00 22.11.2019
3704 Snow -7 1021 92 9000 6 240 23:00 22.11.2019
3705 Snow -7 1021 92 9000 6 240 23:00 22.11.2019
3706 Snow -7 1021 92 9000 6 240 22:41 22.11.2019
3707 Snow -8 1021 100 9000 6 250 22:23 22.11.2019
3708 Snow -8 1021 100 3800 7 250 21:59 22.11.2019
3709 Snow -8 1021 100 3800 7 250 21:40 22.11.2019
3710 Snow -8 1021 100 3100 6 250 21:20 22.11.2019
3711 Snow -8 1021 92 8000 7 240 20:44 22.11.2019
3712 Clouds -8 1022 100 10000 6 240 20:23 22.11.2019
3713 Snow -8 1022 92 10000 6 240 19:58 22.11.2019
3714 Snow -8 1022 100 3700 6 250 19:39 22.11.2019
3715 Snow -8 1022 100 3700 6 250 19:19 22.11.2019
3716 Snow -8 1022 100 5000 6 250 18:59 22.11.2019
3717 Snow -8 1022 100 10000 6 240 18:37 22.11.2019
3718 Snow -8 1022 100 10000 6 240 18:19 22.11.2019
3719 Snow -8 1023 100 7000 6 240 17:41 22.11.2019
3720 Snow -8 1023 100 7000 6 240 17:22 22.11.2019
3721 Snow -8 1023 100 10000 6 240 16:48 22.11.2019
3722 Snow -8 1023 100 10000 6 240 16:30 22.11.2019
3723 Snow -8 1024 100 9000 5 240 15:55 22.11.2019
3724 Snow -8 1024 92 9000 5 240 15:37 22.11.2019
3725 Snow -8 1024 92 9000 5 240 15:19 22.11.2019
3726 Snow -8 1024 92 10000 5 240 14:54 22.11.2019
3727 Clouds -8 1024 92 10000 4 240 14:36 22.11.2019
3728 Clouds -8 1024 92 10000 4 240 14:18 22.11.2019
3729 Clouds -9 1024 100 10000 5 240 13:38 22.11.2019
3730 Clouds -9 1024 100 10000 5 240 13:19 22.11.2019
3731 Clouds -9 1024 100 10000 5 240 12:58 22.11.2019
3732 Clouds -9 1024 100 10000 5 240 12:40 22.11.2019
3733 Snow -9 1024 92 9000 5 250 12:19 22.11.2019
3734 Snow -9 1025 92 6000 5 240 11:56 22.11.2019
3735 Snow -9 1025 92 9000 4 240 11:36 22.11.2019
3736 Snow -9 1025 92 9000 4 240 11:36 22.11.2019
3737 Snow -9 1025 92 9000 4 240 11:18 22.11.2019
3738 Snow -9 1024 92 4300 3 240 10:42 22.11.2019
3739 Snow -9 1024 92 4300 3 240 10:23 22.11.2019
3740 Snow -9 1025 92 7000 4 250 09:59 22.11.2019
3741 Snow -9 1025 92 7000 4 250 09:40 22.11.2019
3742 Snow -9 1025 92 10000 4 240 09:21 22.11.2019
3743 Snow -9 1025 100 8000 4 240 08:57 22.11.2019
3744 Clouds -9 1025 100 10000 3 270 08:38 22.11.2019
3745 Clouds -9 1025 100 10000 3 270 08:20 22.11.2019
3746 Snow -9 1025 100 10000 4 270 07:41 22.11.2019
3747 Snow -9 1025 100 10000 4 260 07:19 22.11.2019
3748 Snow -9 1024 100 10000 4 280 06:42 22.11.2019
3749 Snow -9 1024 92 10000 3 290 06:21 22.11.2019
3750 Snow -9 1024 92 9000 3 300 05:32 22.11.2019
3751 Snow -9 1023 100 3600 3 300 03:25 22.11.2019
3752 Snow -9 1023 100 8000 5 280 02:39 22.11.2019
3753 Snow -9 1023 100 8000 5 280 02:20 22.11.2019
3754 Snow -9 1023 100 7000 4 290 01:43 22.11.2019
3755 Clouds -9 1023 100 10000 4 290 01:18 22.11.2019
3756 Snow -9 1023 100 9000 4 300 00:40 22.11.2019
3757 Snow -9 1023 100 9000 4 300 00:19 22.11.2019
3758 Snow -9 1023 100 10000 5 290 23:43 21.11.2019
3759 Snow -9 1023 100 10000 5 300 23:24 21.11.2019
3760 Clouds -9 1022 100 10000 6 290 22:56 21.11.2019
3761 Clouds -9 1022 100 10000 6 290 22:37 21.11.2019
3762 Clouds -9 1022 100 10000 6 290 22:19 21.11.2019
3763 Clouds -9 1022 100 10000 6 290 21:54 21.11.2019
3764 Clouds -8 1022 100 10000 5 300 21:36 21.11.2019
3765 Clouds -8 1022 100 10000 5 300 21:18 21.11.2019
3766 Clouds -8 1022 100 10000 5 300 20:57 21.11.2019
3767 Clouds -8 1022 100 10000 5 300 20:37 21.11.2019
3768 Clouds -8 1022 100 10000 5 300 20:18 21.11.2019
3769 Clouds -8 1022 100 10000 6 300 19:55 21.11.2019
3770 Clouds -8 1022 100 10000 6 300 19:55 21.11.2019
3771 Clouds -8 1021 100 10000 5 300 19:36 21.11.2019
3772 Clouds -8 1021 100 10000 5 300 19:18 21.11.2019
3773 Clouds -8 1021 100 10000 5 300 18:41 21.11.2019
3774 Clouds -9 1021 100 10000 6 300 18:21 21.11.2019
3775 Clouds -9 1021 100 10000 6 310 17:58 21.11.2019
3776 Clouds -9 1021 100 10000 5 300 17:39 21.11.2019
3777 Clouds -9 1021 100 10000 5 300 17:39 21.11.2019
3778 Clouds -9 1021 100 10000 5 300 17:21 21.11.2019
3779 Clouds -9 1021 92 10000 6 320 16:57 21.11.2019
3780 Clouds -9 1021 92 10000 7 320 16:39 21.11.2019
3781 Clouds -9 1021 92 10000 7 320 16:20 21.11.2019
3782 Clouds -9 1021 92 10000 5 300 15:44 21.11.2019
3783 Clouds -9 1020 92 10000 5 300 15:21 21.11.2019
3784 Clouds -10 1020 92 10000 6 290 14:58 21.11.2019
3785 Clouds -10 1020 92 10000 6 300 14:38 21.11.2019
3786 Clouds -10 1020 92 10000 6 300 14:20 21.11.2019
3787 Clouds -10 1020 92 10000 6 300 13:57 21.11.2019
3788 Clouds -10 1020 92 10000 7 290 13:37 21.11.2019
3789 Clouds -10 1020 92 10000 7 290 13:18 21.11.2019
3790 Clouds -10 1020 92 10000 7 290 12:41 21.11.2019
3791 Clouds -10 1020 85 10000 7 290 12:22 21.11.2019
3792 Snow -10 1020 85 10000 7 290 11:56 21.11.2019
3793 Snow -10 1020 85 9000 7 290 11:37 21.11.2019
3794 Snow -10 1020 85 9000 7 290 11:37 21.11.2019
3795 Snow -10 1020 85 9000 7 290 11:19 21.11.2019
3796 Snow -10 1019 85 10000 8 290 10:43 21.11.2019
3797 Snow -10 1019 85 10000 7 290 10:24 21.11.2019
3798 Snow -10 1019 85 10000 8 280 09:59 21.11.2019
3799 Snow -10 1019 85 10000 8 280 09:59 21.11.2019
3800 Snow -10 1019 85 10000 8 280 09:41 21.11.2019
3801 Snow -10 1019 85 10000 7 280 09:22 21.11.2019
3802 Snow -10 1019 85 10000 7 290 08:46 21.11.2019
3803 Snow -11 1019 92 8000 8 290 08:24 21.11.2019
3804 Snow -11 1019 85 5000 8 280 07:59 21.11.2019
3805 Clouds -11 1019 85 2100 8 280 07:37 21.11.2019
3806 Clouds -11 1019 85 2100 8 280 07:18 21.11.2019
3807 Snow -11 1019 85 9000 8 290 06:42 21.11.2019
3808 Snow -12 1019 85 10000 7 290 06:24 21.11.2019
3809 Snow -12 1020 85 10000 7 290 04:34 21.11.2019
3810 Snow -12 1020 78 2700 7 280 02:53 21.11.2019
3811 Clouds -12 1020 78 10000 8 280 02:33 21.11.2019
3812 Clouds -12 1021 78 10000 8 280 01:52 21.11.2019
3813 Clouds -13 1021 84 10000 8 260 01:21 21.11.2019
3814 Snow -13 1021 84 7000 8 260 00:41 21.11.2019
3815 Clouds -13 1022 84 10000 8 260 00:20 21.11.2019
3816 Snow -13 1022 84 2700 8 260 23:51 20.11.2019
3817 Clouds -12 1023 78 10000 7 250 23:22 20.11.2019
3818 -273 0 0 0 0 0 22:58 20.11.2019
3819 Clouds -13 1023 84 10000 8 260 22:40 20.11.2019
3820 Clouds -13 1024 84 10000 7 250 22:19 20.11.2019
3821 Clouds -14 1025 92 10000 7 260 21:58 20.11.2019
3822 Clouds -14 1025 92 10000 7 260 21:39 20.11.2019
3823 Clouds -14 1026 84 10000 8 250 21:20 20.11.2019
3824 Clouds -14 1026 84 10000 8 250 21:20 20.11.2019
3825 Snow -14 1026 84 10000 7 250 20:57 20.11.2019
3826 Snow -14 1026 84 10000 7 250 20:57 20.11.2019
3827 Snow -14 1027 84 10000 7 260 20:39 20.11.2019
3828 Snow -14 1027 84 10000 7 260 20:20 20.11.2019
3829 Clouds -15 1028 84 10000 7 260 19:56 20.11.2019
3830 Clouds -15 1029 84 10000 5 260 19:37 20.11.2019
3831 Clouds -15 1029 84 10000 5 260 19:18 20.11.2019
3832 Clouds -15 1030 84 10000 6 250 18:58 20.11.2019
3833 Clouds -15 1030 84 10000 6 260 18:39 20.11.2019
3834 Clouds -15 1030 84 10000 6 260 18:20 20.11.2019
3835 Clouds -15 1031 84 10000 5 280 17:56 20.11.2019
3836 Clouds -15 1032 84 10000 5 280 17:38 20.11.2019
3837 Clouds -15 1032 84 10000 5 280 17:20 20.11.2019
3838 Clouds -15 1032 84 10000 5 280 16:55 20.11.2019
3839 Clouds -15 1033 84 10000 4 290 16:36 20.11.2019
3840 Clouds -15 1033 84 10000 4 290 16:18 20.11.2019
3841 Clouds -14 1033 84 10000 4 290 15:41 20.11.2019
3842 Clouds -14 1033 84 10000 5 320 15:21 20.11.2019
3843 Snow -14 1034 92 7000 5 310 14:59 20.11.2019
3844 Snow -14 1034 92 7000 5 310 14:40 20.11.2019
3845 Snow -14 1034 92 9000 4 310 14:21 20.11.2019
3846 Clouds -13 1034 84 10000 5 310 13:57 20.11.2019
3847 Snow -13 1034 84 10000 5 310 13:39 20.11.2019
3848 Snow -13 1034 84 10000 5 310 13:19 20.11.2019
3849 Clouds -13 1035 84 10000 4 310 12:43 20.11.2019
3850 Clouds -13 1035 84 10000 4 310 12:43 20.11.2019
3851 Clouds -13 1035 84 10000 4 300 12:25 20.11.2019
3852 Snow -15 1035 92 10000 3 290 11:58 20.11.2019
3853 Snow -14 1035 84 9000 3 310 11:38 20.11.2019
3854 Snow -14 1035 84 9000 3 310 11:20 20.11.2019
3855 Snow -14 1035 84 10000 4 320 10:55 20.11.2019
3856 Snow -14 1035 84 10000 4 310 10:37 20.11.2019
3857 Snow -14 1035 84 10000 4 310 10:19 20.11.2019
3858 Snow -14 1035 84 9000 4 310 09:43 20.11.2019
3859 Snow -14 1035 84 6000 4 310 09:21 20.11.2019
3860 Snow -14 1035 84 5000 4 320 08:56 20.11.2019
3861 Snow -14 1035 84 5000 3 320 08:37 20.11.2019
3862 Snow -14 1035 84 5000 3 320 08:19 20.11.2019
3863 Snow -15 1036 84 5000 3 330 07:45 20.11.2019
3864 Snow -16 1036 84 6000 4 340 07:25 20.11.2019
3865 Snow -16 1036 84 7000 4 350 06:48 20.11.2019
3866 Clouds -16 1035 84 10000 4 350 06:22 20.11.2019
3867 Snow -16 1035 84 6000 4 360 05:26 20.11.2019
3868 Snow -18 1035 84 8000 5 340 03:30 20.11.2019
3869 Snow -19 1035 84 10000 5 350 02:21 20.11.2019
3870 Clouds -20 1034 76 10000 6 360 01:33 20.11.2019
3871 Clouds -21 1034 76 10000 5 10 00:41 20.11.2019
3872 Clouds -22 1034 76 10000 4 10 23:54 19.11.2019
3873 Clouds -23 1034 76 10000 5 10 23:26 19.11.2019
3874 Clouds -23 1034 76 10000 4 360 22:58 19.11.2019
3875 Clouds -23 1033 76 10000 5 10 22:39 19.11.2019
3876 Clouds -23 1033 76 10000 5 10 22:19 19.11.2019
3877 Clouds -23 1033 76 10000 4 10 21:56 19.11.2019
3878 Clouds -24 1033 76 10000 4 10 21:37 19.11.2019
3879 Clouds -24 1033 76 10000 4 10 21:19 19.11.2019
3880 Clouds -24 1033 76 10000 4 10 21:19 19.11.2019
3881 Clouds -24 1033 76 10000 3 10 20:56 19.11.2019
3882 Clouds -24 1033 76 10000 4 360 20:38 19.11.2019
3883 Clouds -24 1033 76 10000 4 360 20:19 19.11.2019
3884 Clouds -24 1033 76 10000 3 360 19:55 19.11.2019
3885 Clouds -24 1033 76 10000 4 350 19:37 19.11.2019
3886 Clouds -24 1033 76 10000 4 350 19:18 19.11.2019
3887 Clouds -24 1033 69 10000 4 360 18:54 19.11.2019
3888 Clouds -24 1033 76 10000 4 360 18:36 19.11.2019
3889 Clouds -24 1033 76 10000 4 360 18:18 19.11.2019
3890 Clouds -24 1032 76 10000 5 360 17:55 19.11.2019
3891 Clouds -24 1032 76 10000 5 360 17:55 19.11.2019
3892 Clouds -24 1032 76 10000 5 360 17:36 19.11.2019
3893 Clouds -24 1032 76 10000 5 360 17:18 19.11.2019
3894 Clouds -24 1032 76 10000 4 10 16:41 19.11.2019
3895 Clouds -24 1032 76 10000 5 360 16:22 19.11.2019
3896 Clouds -24 1032 76 10000 4 360 15:54 19.11.2019
3897 Clouds -24 1031 76 10000 4 360 15:36 19.11.2019
3898 Clouds -24 1031 76 10000 4 360 15:18 19.11.2019
3899 Clouds -24 1031 69 10000 5 360 14:54 19.11.2019
3900 Clouds -25 1031 75 10000 5 360 14:36 19.11.2019
3901 Clouds -25 1031 75 10000 5 360 14:18 19.11.2019
3902 Clouds -25 1031 75 10000 5 350 13:40 19.11.2019
3903 Clouds -25 1031 75 10000 5 350 13:19 19.11.2019
3904 Clouds -25 1031 75 10000 5 350 12:40 19.11.2019
3905 Clouds -25 1031 75 10000 5 350 12:21 19.11.2019
3906 Clouds -25 1031 75 10000 6 340 11:57 19.11.2019
3907 Clouds -25 1030 75 10000 5 340 11:38 19.11.2019
3908 Clouds -25 1030 75 10000 5 340 11:19 19.11.2019
3909 Clouds -25 1030 75 10000 5 340 11:19 19.11.2019
3910 Clouds -25 1030 75 10000 5 350 10:47 19.11.2019
3911 Clouds -25 1030 75 10000 6 350 10:22 19.11.2019
3912 Clouds -25 1030 75 10000 6 350 09:57 19.11.2019
3913 Clouds -25 1030 75 10000 6 350 09:39 19.11.2019
3914 Clouds -25 1030 75 10000 6 350 09:18 19.11.2019
3915 Clouds -25 1029 69 10000 6 340 08:41 19.11.2019
3916 Clouds -26 1029 75 10000 4 360 08:22 19.11.2019
3917 Clouds -26 1029 75 10000 4 350 07:57 19.11.2019
3918 Clouds -26 1029 75 10000 4 350 07:38 19.11.2019
3919 Clouds -26 1029 75 10000 4 350 07:19 19.11.2019
3920 Clouds -26 1029 68 10000 4 350 06:45 19.11.2019
3921 Snow -27 1029 75 6000 5 360 06:27 19.11.2019
3922 Clouds -28 1028 75 10000 4 350 05:20 19.11.2019
3923 Clouds -29 1028 75 10000 5 350 03:45 19.11.2019
3924 Clouds -29 1028 75 10000 5 340 03:22 19.11.2019
3925 Clouds -29 1028 75 10000 5 340 02:53 19.11.2019
3926 Clouds -29 1028 68 10000 5 360 01:58 19.11.2019
3927 Clouds -30 1028 74 9000 5 360 00:59 19.11.2019
3928 Clouds -30 1027 74 10000 4 360 00:21 19.11.2019
3929 Clouds -30 1027 74 10000 4 360 00:21 19.11.2019
3930 Clouds -30 1027 74 9000 4 360 23:56 18.11.2019
3931 Clouds -30 1027 74 10000 4 10 23:37 18.11.2019
3932 Clouds -30 1027 74 10000 4 10 23:18 18.11.2019
3933 Clouds -30 1027 74 10000 4 360 22:41 18.11.2019
3934 Clouds -30 1027 67 10000 5 360 22:23 18.11.2019
3935 Clouds -30 1027 74 10000 5 360 21:54 18.11.2019
3936 Clouds -30 1027 74 10000 5 360 21:54 18.11.2019
3937 Clouds -31 1027 74 10000 4 360 21:36 18.11.2019
3938 Clouds -31 1027 74 10000 4 360 21:18 18.11.2019
3939 Clouds -31 1027 74 10000 3 350 20:41 18.11.2019
3940 Clouds -31 1027 74 10000 4 350 20:20 18.11.2019
3941 Clouds -31 1027 74 10000 4 350 19:58 18.11.2019
3942 Clouds -31 1027 74 10000 4 350 19:58 18.11.2019
3943 Clouds -31 1027 74 10000 4 350 19:39 18.11.2019
3944 Clouds -31 1027 74 10000 4 350 19:21 18.11.2019
3945 Clouds -31 1026 74 10000 4 340 18:57 18.11.2019
3946 Clouds -31 1026 74 10000 4 350 18:38 18.11.2019
3947 Clouds -31 1026 74 10000 4 350 18:19 18.11.2019
3948 Clouds -30 1026 67 10000 3 340 17:59 18.11.2019
3949 Clouds -31 1026 74 10000 3 340 17:37 18.11.2019
3950 Clouds -31 1026 74 10000 3 340 17:19 18.11.2019
3951 Clouds -31 1026 74 10000 3 340 16:43 18.11.2019
3952 Clouds -31 1026 67 10000 3 340 16:24 18.11.2019
3953 Clouds -31 1026 67 10000 4 350 15:59 18.11.2019
3954 Clouds -31 1026 67 10000 4 350 15:40 18.11.2019
3955 Clouds -31 1026 74 10000 4 350 15:22 18.11.2019
3956 Clouds -31 1026 74 10000 4 360 14:58 18.11.2019
3957 Clouds -31 1026 74 10000 4 360 14:39 18.11.2019
3958 Clouds -31 1026 74 10000 4 360 14:20 18.11.2019
3959 Clouds -31 1026 74 10000 4 360 13:43 18.11.2019
3960 Clouds -31 1025 74 10000 5 350 13:25 18.11.2019
3961 Clouds -30 1025 67 10000 6 360 12:45 18.11.2019
3962 Clouds -30 1025 74 10000 5 350 12:20 18.11.2019
3963 Clouds -30 1025 74 10000 5 360 11:58 18.11.2019
3964 Clouds -30 1025 74 10000 5 360 11:40 18.11.2019
3965 Clouds -29 1025 68 10000 5 360 11:22 18.11.2019
3966 Clouds -29 1025 68 10000 5 10 10:44 18.11.2019
3967 Clouds -29 1024 68 10000 5 360 10:26 18.11.2019
3968 Clouds -29 1024 68 10000 4 10 09:58 18.11.2019
3969 Clouds -30 1024 74 10000 4 10 09:38 18.11.2019
3970 Clouds -30 1024 74 10000 4 10 09:20 18.11.2019
3971 Clouds -30 1024 74 10000 4 20 08:55 18.11.2019
3972 Clouds -30 1023 74 10000 3 10 08:37 18.11.2019
3973 Clouds -30 1023 74 10000 3 10 08:18 18.11.2019
3974 Clouds -30 1023 67 10000 4 20 07:44 18.11.2019
3975 Clouds -30 1023 74 10000 4 30 07:23 18.11.2019
3976 Clouds -30 1023 74 10000 5 30 06:48 18.11.2019
3977 Clouds -30 1022 74 10000 5 30 06:28 18.11.2019
3978 Clouds -29 1022 68 10000 5 30 05:44 18.11.2019
3979 Snow -28 1021 75 9000 6 40 03:59 18.11.2019
3980 Snow -26 1019 75 7000 5 40 01:40 18.11.2019
3981 Snow -26 1019 75 7000 4 50 00:54 18.11.2019
3982 Snow -25 1019 75 9000 6 50 00:20 18.11.2019
3983 Snow -25 1018 75 9000 5 50 23:41 17.11.2019
3984 Snow -24 1018 76 3500 6 50 23:22 17.11.2019
3985 Snow -23 1018 76 2100 5 50 22:57 17.11.2019
3986 Snow -23 1017 76 5000 5 60 22:39 17.11.2019
3987 Snow -23 1017 76 5000 5 60 22:21 17.11.2019
3988 Snow -23 1017 76 5000 5 60 21:57 17.11.2019
3989 Snow -23 1017 76 5000 5 60 21:38 17.11.2019
3990 Snow -23 1017 76 5000 5 60 21:18 17.11.2019
3991 Snow -22 1016 76 5000 5 60 20:55 17.11.2019
3992 Snow -22 1016 76 3000 5 70 20:36 17.11.2019
3993 Snow -22 1016 76 3000 5 70 20:18 17.11.2019
3994 Snow -22 1016 83 3700 6 70 19:55 17.11.2019
3995 Snow -21 1015 76 1800 6 70 19:36 17.11.2019
3996 Snow -21 1015 76 1800 6 70 19:18 17.11.2019
3997 Snow -21 1015 76 3000 6 70 18:54 17.11.2019
3998 Snow -21 1015 83 3200 6 70 18:36 17.11.2019
3999 Snow -21 1015 83 3200 6 70 18:18 17.11.2019
4000 Snow -20 1015 76 3200 6 80 17:56 17.11.2019
4001 Snow -20 1014 83 2200 6 80 17:38 17.11.2019
4002 Snow -20 1014 83 2200 6 80 17:18 17.11.2019
4003 Snow -20 1014 83 3300 6 80 16:55 17.11.2019
4004 Snow -19 1014 84 3600 6 80 16:37 17.11.2019
4005 Snow -19 1014 84 3600 6 80 16:19 17.11.2019
4006 Snow -19 1014 84 4400 6 80 15:41 17.11.2019
4007 Snow -18 1014 84 6000 6 80 15:19 17.11.2019
4008 Snow -17 1014 84 5000 5 80 14:57 17.11.2019
4009 Snow -17 1014 84 8000 5 80 14:39 17.11.2019
4010 Snow -17 1014 84 8000 5 80 14:20 17.11.2019
4011 Snow -16 1014 84 8000 6 90 13:59 17.11.2019
4012 Snow -16 1014 84 8000 6 90 13:40 17.11.2019
4013 Snow -15 1013 84 4900 6 90 13:20 17.11.2019
4014 Snow -15 1014 84 4000 6 90 12:45 17.11.2019
4015 Snow -14 1013 84 3700 6 90 12:24 17.11.2019
4016 Snow -14 1013 92 3700 6 100 11:59 17.11.2019
4017 Snow -13 1013 92 1900 5 90 11:40 17.11.2019
4018 Snow -13 1013 92 1900 5 90 11:21 17.11.2019
4019 Snow -13 1013 92 2100 6 90 10:58 17.11.2019
4020 Snow -12 1013 85 6000 5 90 10:40 17.11.2019
4021 Snow -12 1013 85 6000 5 90 10:21 17.11.2019
4022 Snow -12 1013 92 6000 5 90 09:42 17.11.2019
4023 -273 0 0 0 0 0 09:23 17.11.2019
4024 Snow -11 1013 92 9000 4 70 08:44 17.11.2019
4025 Snow -11 1013 92 5000 4 70 08:25 17.11.2019
4026 Snow -10 1012 92 5000 4 70 07:57 17.11.2019
4027 Snow -10 1012 100 5000 3 70 07:39 17.11.2019
4028 Snow -10 1012 100 5000 3 70 07:19 17.11.2019
4029 Snow -9 1012 92 5000 3 100 06:51 17.11.2019
4030 Snow -9 1012 100 4600 3 70 06:29 17.11.2019
4031 Snow -9 1012 100 4600 3 70 06:29 17.11.2019
4032 Snow -8 1012 100 1700 3 80 04:57 17.11.2019
4033 Snow -6 1012 100 1500 3 70 03:59 17.11.2019
4034 Snow -6 1012 100 1500 3 70 03:59 17.11.2019
4035 Snow -5 1012 100 1200 2 80 03:35 17.11.2019
4036 Snow -5 1012 100 3000 1 0 02:59 17.11.2019
4037 Snow -5 1012 100 3000 2 60 01:50 17.11.2019
4038 Snow -2 1012 100 1500 4 290 00:59 17.11.2019
4039 Snow -2 1012 100 2500 5 280 00:38 17.11.2019
4040 Snow -2 1012 100 2500 5 280 00:19 17.11.2019
4041 Snow -2 1012 100 10000 6 290 23:40 16.11.2019
4042 Snow -2 1012 100 10000 6 290 23:18 16.11.2019
4043 Snow -1 1012 100 5000 6 280 22:42 16.11.2019
4044 Snow -1 1012 100 5000 7 280 22:20 16.11.2019
4045 Snow -1 1012 100 3800 7 280 21:58 16.11.2019
4046 Snow -1 1012 100 3800 7 280 21:40 16.11.2019
4047 Snow -1 1012 100 3600 7 280 21:21 16.11.2019
4048 Snow -1 1012 100 2500 6 280 20:57 16.11.2019
4049 Snow -1 1012 100 4900 7 280 20:39 16.11.2019
4050 Snow -1 1012 100 4900 7 280 20:19 16.11.2019
4051 Snow -1 1012 100 6000 7 280 19:41 16.11.2019
4052 Snow -1 1012 100 4000 7 280 19:22 16.11.2019
4053 Snow -1 1012 100 7000 7 280 18:58 16.11.2019
4054 Snow -1 1012 100 7000 6 280 18:39 16.11.2019
4055 Snow -1 1012 100 7000 6 280 18:20 16.11.2019
4056 Snow -2 1012 100 4200 7 280 17:55 16.11.2019
4057 Snow -2 1012 100 1500 6 280 17:36 16.11.2019
4058 Snow -2 1012 100 1500 6 280 17:18 16.11.2019
4059 Snow -2 1012 100 3500 7 280 16:43 16.11.2019
4060 Snow -3 1012 100 3500 6 270 16:25 16.11.2019
4061 Snow -3 1012 100 4800 6 280 15:54 16.11.2019
4062 Snow -3 1012 100 6000 7 280 15:36 16.11.2019
4063 Snow -3 1012 100 6000 7 280 15:18 16.11.2019
4064 Snow -4 1013 100 9000 5 280 14:40 16.11.2019
4065 Snow -5 1012 100 6000 5 270 14:21 16.11.2019
4066 Snow -5 1013 100 7000 5 280 13:56 16.11.2019
4067 Snow -6 1013 100 7000 5 260 13:38 16.11.2019
4068 Snow -6 1013 100 7000 5 260 13:19 16.11.2019
4069 Clouds -6 1013 100 10000 5 250 12:57 16.11.2019
4070 Clouds -6 1013 100 10000 5 250 12:57 16.11.2019
4071 Clouds -6 1013 100 10000 5 250 12:57 16.11.2019
4072 Snow -7 1013 100 3900 4 250 12:39 16.11.2019
4073 Snow -7 1013 100 3900 4 250 12:20 16.11.2019
4074 Clouds -8 1013 100 10000 3 240 11:44 16.11.2019
4075 Snow -8 1013 100 9000 4 240 11:26 16.11.2019
4076 Snow -9 1013 100 2200 4 220 10:56 16.11.2019
4077 Snow -9 1013 92 5000 4 210 10:38 16.11.2019
4078 Snow -9 1013 92 5000 4 210 10:20 16.11.2019
4079 Snow -10 1014 100 9000 5 210 09:43 16.11.2019
4080 Snow -10 1014 92 9000 5 200 09:21 16.11.2019
4081 Snow -11 1015 92 10000 4 200 08:58 16.11.2019
4082 Snow -11 1015 92 4700 5 200 08:37 16.11.2019
4083 Snow -11 1015 92 4700 5 200 08:18 16.11.2019
4084 Snow -11 1016 85 2100 5 190 07:41 16.11.2019
4085 Snow -11 1016 85 2100 5 190 07:41 16.11.2019
4086 Snow -12 1016 92 1800 5 190 07:20 16.11.2019
4087 Snow -12 1017 85 1300 5 190 06:45 16.11.2019
4088 Snow -13 1018 92 1500 5 190 06:26 16.11.2019
4089 Snow -14 1020 92 3400 5 180 04:50 16.11.2019
4090 Snow -15 1021 92 4500 5 180 03:42 16.11.2019
4091 Snow -15 1022 84 4800 6 180 03:23 16.11.2019
4092 Snow -16 1024 84 1200 5 170 01:44 16.11.2019
4093 Snow -17 1025 91 800 5 160 01:19 16.11.2019
4094 Snow -17 1027 84 1800 4 160 00:42 16.11.2019
4095 Snow -18 1028 91 1700 4 160 00:22 16.11.2019
4096 Clouds -17 1029 84 9000 4 180 23:40 15.11.2019
4097 Clouds -17 1029 84 9000 4 180 23:20 15.11.2019
4098 Clouds -18 1030 84 9000 4 180 22:55 15.11.2019
4099 Clouds -19 1030 84 10000 3 160 22:37 15.11.2019
4100 Clouds -19 1030 84 10000 3 160 22:18 15.11.2019
4101 Mist -20 1031 83 9000 3 160 21:41 15.11.2019
4102 Mist -20 1032 83 5000 3 150 21:21 15.11.2019
4103 Clouds -21 1033 83 6000 3 160 20:59 15.11.2019
4104 Clouds -21 1033 83 6000 3 160 20:59 15.11.2019
4105 Clouds -21 1033 83 6000 3 160 20:40 15.11.2019
4106 Mist -21 1033 83 3700 3 150 20:22 15.11.2019
4107 Mist -21 1034 83 3400 3 160 19:59 15.11.2019
4108 Mist -21 1034 83 3400 3 160 19:40 15.11.2019
4109 Clouds -22 1035 83 7000 3 150 19:20 15.11.2019
4110 Clouds -23 1035 83 7000 2 160 18:58 15.11.2019
4111 Clouds -23 1035 83 7000 2 160 18:40 15.11.2019
4112 Clouds -23 1036 76 9000 3 160 18:21 15.11.2019
4113 Clouds -23 1036 76 8000 3 170 17:43 15.11.2019
4114 Clouds -24 1037 83 10000 3 160 17:25 15.11.2019
4115 Clouds -23 1037 76 10000 3 160 16:57 15.11.2019
4116 Clouds -24 1038 83 10000 2 150 16:38 15.11.2019
4117 Clouds -24 1038 83 10000 2 150 16:19 15.11.2019
4118 Clouds -24 1039 83 10000 2 150 15:39 15.11.2019
4119 Clouds -24 1039 83 10000 2 150 15:39 15.11.2019
4120 Clouds -24 1039 83 10000 2 150 15:20 15.11.2019
4121 Clouds -24 1039 83 10000 2 150 14:57 15.11.2019
4122 Clouds -24 1039 83 10000 2 150 14:38 15.11.2019
4123 Clouds -24 1039 83 10000 2 150 14:20 15.11.2019
4124 Clouds -24 1039 83 10000 3 160 13:58 15.11.2019
4125 Clouds -24 1040 83 10000 3 170 13:39 15.11.2019
4126 Clouds -24 1040 83 10000 3 170 13:21 15.11.2019
4127 Clouds -24 1040 83 10000 2 170 12:58 15.11.2019
4128 Clouds -24 1040 83 10000 2 170 12:40 15.11.2019
4129 Clouds -24 1040 76 10000 1 0 12:20 15.11.2019
4130 Clouds -24 1040 83 10000 2 190 11:58 15.11.2019
4131 Clouds -23 1040 76 10000 1 200 11:38 15.11.2019
4132 Clouds -23 1040 76 10000 1 200 11:20 15.11.2019
4133 Clouds -23 1040 83 10000 1 0 10:56 15.11.2019
4134 Clouds -23 1040 83 10000 1 0 10:38 15.11.2019
4135 Clouds -23 1040 83 10000 1 0 10:18 15.11.2019
4136 Clouds -23 1040 83 10000 2 210 09:41 15.11.2019
4137 Clouds -22 1040 76 10000 2 190 09:20 15.11.2019
4138 Clouds -23 1041 83 10000 1 0 08:44 15.11.2019
4139 Clouds -23 1041 83 10000 1 0 08:44 15.11.2019
4140 Clouds -24 1041 76 10000 1.77 177 08:23 15.11.2019
4141 Clouds -25 1041 75 10000 1 0 07:49 15.11.2019
4142 Clouds -25 1041 75 10000 1 0 07:49 15.11.2019
4143 Clouds -26 1041 75 10000 1.77 177 07:28 15.11.2019
4144 Clouds -27 1041 82 10000 1 280 06:50 15.11.2019
4145 Clouds -27 1041 75 7000 2 280 06:31 15.11.2019
4146 Clouds -27 1041 82 10000 1.77 177 05:48 15.11.2019
4147 Mist -27 1041 75 9000 1 0 05:26 15.11.2019
4148 Clouds -27 1041 82 10000 3 280 03:56 15.11.2019
4149 Clouds -25 1041 75 10000 2 280 03:24 15.11.2019
4150 Clouds -25 1040 83 10000 2 280 02:20 15.11.2019
4151 Clouds -25 1040 75 10000 1 0 01:33 15.11.2019
4152 Clouds -25 1040 75 10000 1 0 01:33 15.11.2019
4153 Clouds -25 1040 75 10000 1 0 00:54 15.11.2019
4154 Clouds -25 1040 75 10000 1 0 00:33 15.11.2019
4155 Clouds -26 1041 83 10000 1 0 23:53 14.11.2019
4156 Clouds -26 1041 75 10000 2 330 23:28 14.11.2019
4157 Clouds -26 1041 75 10000 2 300 22:59 14.11.2019
4158 Clouds -27 1040 82 10000 2 300 22:39 14.11.2019
4159 Clouds -27 1040 82 10000 2 300 22:21 14.11.2019
4160 Clouds -27 1040 75 10000 2 300 21:55 14.11.2019
4161 Clouds -27 1040 75 10000 2 300 21:37 14.11.2019
4162 Clouds -27 1040 75 10000 2 300 21:19 14.11.2019
4163 Clouds -27 1040 75 10000 3 290 20:42 14.11.2019
4164 Clouds -27 1040 75 10000 3 290 20:23 14.11.2019
4165 Clear -28 1040 82 10000 3 300 19:59 14.11.2019
4166 Clear -28 1040 82 10000 3 300 19:59 14.11.2019
4167 Clear -27 1040 75 10000 3 300 19:41 14.11.2019
4168 Clear -27 1040 75 10000 3 300 19:18 14.11.2019
4169 Clear -27 1040 75 10000 3 300 19:18 14.11.2019
4170 Clouds -27 1039 75 10000 3 290 18:56 14.11.2019
4171 Clear -28 1040 82 10000 3 280 18:38 14.11.2019
4172 Clear -28 1040 82 10000 3 280 18:19 14.11.2019
4173 Clear -27 1040 75 10000 4 290 17:55 14.11.2019
4174 Clear -27 1040 75 10000 4 290 17:36 14.11.2019
4175 Clear -27 1040 75 10000 4 300 17:18 14.11.2019
4176 Clear -27 1040 75 10000 4 300 16:55 14.11.2019
4177 Clouds -26 1040 75 10000 4 290 16:36 14.11.2019
4178 Clouds -26 1040 75 10000 4 290 16:18 14.11.2019
4179 Clear -27 1040 82 10000 3 300 15:54 14.11.2019
4180 Clear -26 1039 75 10000 3 310 15:36 14.11.2019
4181 Clear -26 1039 75 10000 3 310 15:18 14.11.2019
4182 Clear -26 1040 83 10000 4 290 14:41 14.11.2019
4183 Clear -26 1040 83 10000 4 290 14:22 14.11.2019
4184 Clear -25 1040 75 10000 4 290 13:55 14.11.2019
4185 Clear -25 1040 83 10000 5 290 13:37 14.11.2019
4186 Clear -25 1040 83 10000 5 290 13:18 14.11.2019
4187 Clear -24 1040 76 10000 4 290 12:46 14.11.2019
4188 Clear -24 1040 83 10000 4 300 12:26 14.11.2019
4189 Clear -23 1040 76 10000 5 290 11:58 14.11.2019
4190 Clear -23 1040 83 10000 5 290 11:38 14.11.2019
4191 Clear -23 1040 83 10000 5 290 11:19 14.11.2019
4192 Clear -22 1040 76 10000 4 290 10:57 14.11.2019
4193 Clear -22 1040 83 10000 3 290 10:37 14.11.2019
4194 Clear -22 1040 83 10000 3 290 10:19 14.11.2019
4195 Clear -22 1039 83 10000 3 300 09:55 14.11.2019
4196 Clear -23 1039 83 10000 3 290 09:37 14.11.2019
4197 Clear -24 1039 83 10000 2 290 09:18 14.11.2019
4198 Clear -24 1039 83 10000 2 290 08:46 14.11.2019
4199 Clear -24 1039 83 10000 2 290 08:46 14.11.2019
4200 Clear -24 1039 83 10000 2 290 08:23 14.11.2019
4201 Clear -25 1039 83 10000 2 280 07:42 14.11.2019
4202 Clear -26 1039 83 10000 2 280 07:24 14.11.2019
4203 Clear -27 1039 82 10000 2 290 06:47 14.11.2019
4204 Clear -27 1039 75 10000 2 280 06:21 14.11.2019
4205 Clear -28 1039 82 10000 2 290 05:59 14.11.2019
4206 Clear -22 1039 80 0 3.46 347 04:38 14.11.2019
4207 Clear -28 1038 75 10000 1 300 03:47 14.11.2019
4208 Clear -28 1038 75 10000 1 290 02:40 14.11.2019
4209 Clear -27 1038 75 10000 1 0 01:41 14.11.2019
4210 Clouds -28 1038 82 10000 1 0 00:58 14.11.2019
4211 Clouds -28 1038 82 10000 2 290 00:40 14.11.2019
4212 Clouds -28 1038 82 10000 2 290 00:20 14.11.2019
4213 Clouds -28 1037 82 10000 1 300 23:39 13.11.2019
4214 Clouds -28 1037 82 10000 1 300 23:20 13.11.2019
4215 Clouds -28 1037 82 10000 2 300 22:55 13.11.2019
4216 Clouds -28 1037 82 10000 2 300 22:55 13.11.2019
4217 Clouds -27 1037 82 10000 1 300 22:37 13.11.2019
4218 Clouds -27 1037 82 10000 1 300 22:19 13.11.2019
4219 Clouds -26 1037 83 10000 1 0 21:55 13.11.2019
4220 Clouds -27 1037 82 10000 1 0 21:37 13.11.2019
4221 Clouds -27 1037 82 10000 1 0 21:18 13.11.2019
4222 Clear -26 1036 83 10000 1 0 20:55 13.11.2019
4223 Clouds -27 1036 82 10000 1 0 20:37 13.11.2019
4224 Clouds -27 1036 82 10000 1 0 20:18 13.11.2019
4225 Clouds -27 1036 82 10000 1 0 20:18 13.11.2019
4226 Clear -26 1036 75 10000 1 0 19:43 13.11.2019
4227 Clear -27 1036 75 10000 1 0 19:19 13.11.2019
4228 Clear -26 1036 83 10000 2.78 19 18:56 13.11.2019
4229 Clear -25 1036 75 10000 1 50 18:38 13.11.2019
4230 Clear -25 1036 75 10000 1 50 18:19 13.11.2019
4231 Clear -25 1035 75 10000 2 40 17:57 13.11.2019
4232 Clear -25 1035 75 10000 2 40 17:57 13.11.2019
4233 Clear -25 1035 83 10000 1 40 17:38 13.11.2019
4234 Clear -25 1035 83 10000 1 40 17:20 13.11.2019
4235 Clear -25 1035 83 10000 2 40 16:58 13.11.2019
4236 Clear -24 1035 76 10000 2 20 16:39 13.11.2019
4237 Clear -24 1035 76 10000 2 20 16:39 13.11.2019
4238 Clear -24 1035 76 10000 2 20 16:21 13.11.2019
4239 Clear -24 1035 83 10000 2 30 15:57 13.11.2019
4240 Clouds -23 1034 83 10000 2 30 15:38 13.11.2019
4241 Clouds -23 1034 83 10000 2 30 15:20 13.11.2019
4242 Clear -24 1034 76 10000 2 50 14:42 13.11.2019
4243 Clear -24 1034 76 10000 2 50 14:22 13.11.2019
4244 Clear -24 1034 83 10000 1 0 13:57 13.11.2019
4245 Clear -24 1033 83 10000 3.33 38 13:36 13.11.2019
4246 Clear -24 1033 83 10000 3.33 38 13:18 13.11.2019
4247 Clear -23 1033 83 10000 1 360 12:54 13.11.2019
4248 Clear -22 1033 76 10000 1 0 12:36 13.11.2019
4249 Clear -22 1033 76 10000 1 0 12:18 13.11.2019
4250 Clear -21 1033 83 10000 1 0 11:40 13.11.2019
4251 Clear -21 1033 83 10000 1 0 11:19 13.11.2019
4252 Clear -21 1033 83 10000 1 0 11:19 13.11.2019
4253 Clear -21 1032 83 10000 2 350 10:58 13.11.2019
4254 Clear -20 1032 83 10000 2 20 10:39 13.11.2019
4255 Clear -20 1032 83 10000 2 20 10:19 13.11.2019
4256 Clear -20 1032 83 10000 2 10 09:45 13.11.2019
4257 Clear -20 1031 76 10000 1 40 09:22 13.11.2019
4258 Clear -21 1031 83 10000 2 20 08:57 13.11.2019
4259 Clear -21 1031 76 10000 2 50 08:36 13.11.2019
4260 Clouds -21 1031 76 10000 2 50 08:18 13.11.2019
4261 Clouds -22 1030 76 10000 2 50 07:42 13.11.2019
4262 Clouds -22 1030 76 10000 2 50 07:20 13.11.2019
4263 Clouds -23 1029 83 10000 3 50 06:44 13.11.2019
4264 Clouds -23 1029 76 10000 3 50 06:19 13.11.2019
4265 Clouds -23 1029 76 10000 3 50 06:19 13.11.2019
4266 Clouds -23 1029 76 10000 3 50 06:19 13.11.2019
4267 Clouds -23 1029 76 10000 3 50 06:19 13.11.2019
4268 Clouds -23 1029 76 10000 3 50 06:19 13.11.2019
4269 Clouds -24 1029 83 10000 3 40 05:52 13.11.2019
4270 Clouds -24 1029 83 10000 2 30 05:30 13.11.2019
4271 Clouds -24 1028 76 10000 2 20 04:21 13.11.2019
4272 Clouds -24 1026 76 10000 3 20 02:18 13.11.2019
4273 Clouds -25 1026 83 10000 2 20 01:41 13.11.2019
4274 Clouds -25 1025 83 10000 3 20 00:44 13.11.2019
4275 Clouds -24 1025 76 10000 4 10 00:19 13.11.2019
4276 Clouds -24 1024 76 10000 3 10 23:41 12.11.2019
4277 Clouds -24 1024 83 10000 3 10 23:21 12.11.2019
4278 Clouds -24 1024 83 10000 3 10 23:21 12.11.2019
4279 Clouds -24 1024 83 10000 3 350 22:44 12.11.2019
4280 Clouds -24 1023 83 10000 2 320 22:21 12.11.2019
4281 Clouds -24 1023 83 10000 2 330 21:59 12.11.2019
4282 Clouds -24 1023 83 10000 2 330 21:40 12.11.2019
4283 Clouds -24 1023 83 10000 2 320 21:22 12.11.2019
4284 Clouds -24 1022 83 10000 2 320 20:56 12.11.2019
4285 Clouds -24 1022 83 10000 3 320 20:37 12.11.2019
4286 Clouds -24 1022 83 10000 3 320 20:19 12.11.2019
4287 Clouds -24 1021 83 10000 2 290 19:57 12.11.2019
4288 Clouds -24 1021 83 10000 2 290 19:39 12.11.2019
4289 Clouds -24 1021 83 10000 2 290 19:19 12.11.2019
4290 Clouds -22 1021 76 10000 3 330 18:58 12.11.2019
4291 Clouds -22 1021 76 10000 3 330 18:58 12.11.2019
4292 Clouds -22 1020 83 10000 3 330 18:39 12.11.2019
4293 Clouds -22 1020 83 10000 3 330 18:21 12.11.2019
4294 Clouds -22 1020 83 10000 3 310 17:57 12.11.2019
4295 Clouds -21 1020 76 10000 4 320 17:39 12.11.2019
4296 Clouds -21 1020 76 10000 4 320 17:21 12.11.2019
4297 Clouds -21 1019 83 10000 4 330 16:56 12.11.2019
4298 Clouds -21 1019 83 10000 4 320 16:38 12.11.2019
4299 Clouds -21 1019 83 10000 4 320 16:20 12.11.2019
4300 Clouds -20 1019 83 10000 5 320 15:41 12.11.2019
4301 Clouds -20 1019 83 10000 5 320 15:21 12.11.2019
4302 Clouds -20 1019 83 10000 5 310 14:56 12.11.2019
4303 Clouds -19 1018 84 10000 5 320 14:37 12.11.2019
4304 Clouds -19 1018 84 10000 5 320 14:18 12.11.2019
4305 Clouds -19 1018 84 10000 5 320 13:55 12.11.2019
4306 Clouds -18 1018 84 10000 5 310 13:36 12.11.2019
4307 Clouds -18 1018 84 10000 5 310 13:18 12.11.2019
4308 Clouds -18 1018 84 10000 5 310 13:18 12.11.2019
4309 Clouds -18 1018 84 10000 5 310 13:18 12.11.2019
4310 Clouds -17 1017 91 10000 5 310 12:40 12.11.2019
4311 Clouds -17 1017 91 10000 5 310 12:19 12.11.2019
4312 Clouds -16 1017 84 10000 4 310 11:57 12.11.2019
4313 Clouds -15 1016 84 10000 4 310 11:39 12.11.2019
4314 Clouds -15 1016 84 10000 4 310 11:21 12.11.2019
4315 Clouds -15 1016 84 10000 5 310 10:55 12.11.2019
4316 Clouds -14 1016 84 10000 5 300 10:37 12.11.2019
4317 Clouds -14 1016 84 10000 5 300 10:19 12.11.2019
4318 Clouds -13 1015 84 10000 5 300 09:40 12.11.2019
4319 Clouds -13 1015 84 10000 5 300 09:20 12.11.2019
4320 Clouds -12 1014 85 10000 4 320 08:51 12.11.2019
4321 Clouds -12 1014 92 10000 4 320 08:30 12.11.2019
4322 Clouds -12 1014 92 10000 4 320 07:44 12.11.2019
4323 Clouds -12 1014 92 10000 4 330 07:25 12.11.2019
4324 Snow -12 1013 100 8000 4 320 06:56 12.11.2019
4325 Clouds -12 1013 100 10000 3 310 06:30 12.11.2019
4326 Clouds -12 1013 100 10000 2 310 05:57 12.11.2019
4327 Snow -12 1012 100 10000 2 330 05:29 12.11.2019
4328 Snow -11 1012 100 7000 2 330 04:41 12.11.2019
4329 Snow -9 1012 100 7000 1 0 02:51 12.11.2019
4330 Snow -9 1012 92 9000 3 150 01:39 12.11.2019
4331 Snow -9 1012 92 7000 3 150 01:19 12.11.2019
4332 Snow -9 1012 92 9000 4 150 00:44 12.11.2019
4333 Snow -10 1012 100 5000 4 150 00:21 12.11.2019
4334 Snow -10 1012 92 5000 4 150 23:42 11.11.2019
4335 Snow -10 1013 92 2500 5 150 23:21 11.11.2019
4336 Snow -10 1013 92 2500 5 150 23:21 11.11.2019
4337 Snow -10 1013 92 1700 4 160 22:40 11.11.2019
4338 Snow -10 1014 92 2300 5 160 22:20 11.11.2019
4339 Snow -10 1015 92 1300 6 150 21:59 11.11.2019
4340 Snow -10 1015 92 1300 6 150 21:40 11.11.2019
4341 Snow -10 1015 85 1700 6 140 21:21 11.11.2019
4342 Snow -11 1016 92 600 7 150 20:59 11.11.2019
4343 Snow -11 1016 92 600 7 150 20:41 11.11.2019
4344 Snow -11 1017 92 700 7 150 20:20 11.11.2019
4345 Snow -11 1018 92 400 8 150 19:56 11.11.2019
4346 Snow -11 1018 92 550 8 150 19:38 11.11.2019
4347 Snow -11 1018 92 550 8 150 19:18 11.11.2019
4348 Snow -11 1018 92 550 8 150 19:18 11.11.2019
4349 Snow -11 1019 92 800 7 150 18:41 11.11.2019
4350 Snow -11 1020 85 900 7 150 18:21 11.11.2019
4351 Snow -12 1021 92 900 6 160 17:59 11.11.2019
4352 Snow -12 1022 92 550 6 160 17:40 11.11.2019
4353 Snow -12 1022 92 550 6 160 17:22 11.11.2019
4354 Snow -12 1024 92 800 6 160 16:39 11.11.2019
4355 Snow -12 1025 85 700 7 150 16:20 11.11.2019
4356 Snow -12 1025 85 700 7 150 16:20 11.11.2019
4357 Snow -12 1026 85 1400 8 160 15:55 11.11.2019
4358 Snow -12 1026 85 1400 8 160 15:37 11.11.2019
4359 Snow -13 1027 92 4800 4 160 15:19 11.11.2019
4360 Clouds -13 1028 84 10000 4 160 14:42 11.11.2019
4361 Clouds -13 1028 84 10000 4 160 14:42 11.11.2019
4362 Clouds -13 1029 92 10000 6 150 14:24 11.11.2019
4363 Clouds -13 1030 92 10000 6 150 13:57 11.11.2019
4364 Clouds -13 1030 92 10000 6 150 13:37 11.11.2019
4365 Clouds -13 1031 92 10000 5 150 13:19 11.11.2019
4366 Clouds -13 1031 92 10000 5 150 13:19 11.11.2019
4367 Clouds -14 1032 92 10000 4 150 12:56 11.11.2019
4368 Clouds -14 1032 92 10000 4 150 12:38 11.11.2019
4369 Clouds -14 1033 92 10000 4 150 12:19 11.11.2019
4370 Clouds -14 1033 92 10000 3 150 11:41 11.11.2019
4371 Clouds -15 1034 92 10000 3 150 11:22 11.11.2019
4372 Snow -15 1035 92 10000 3 150 10:55 11.11.2019
4373 Snow -15 1035 92 10000 3 150 10:37 11.11.2019
4374 Snow -15 1035 92 6000 3 150 10:18 11.11.2019
4375 Snow -15 1035 84 2500 2 150 09:42 11.11.2019
4376 Snow -16 1036 91 9000 2 140 09:21 11.11.2019
4377 Snow -16 1036 91 6000 2 150 08:43 11.11.2019
4378 Snow -16 1037 84 9000 2 150 08:23 11.11.2019
4379 Snow -17 1037 91 9000 2 150 07:58 11.11.2019
4380 Snow -17 1037 91 9000 2 150 07:39 11.11.2019
4381 Snow -17 1037 91 9000 2 150 07:39 11.11.2019
4382 Snow -17 1037 84 9000 2 150 07:20 11.11.2019
4383 Snow -17 1038 84 6000 2 150 06:57 11.11.2019
4384 Snow -17 1038 84 6000 2 150 06:38 11.11.2019
4385 Clouds -18 1038 84 9000 2 140 06:20 11.11.2019
4386 Clouds -18 1038 84 9000 2 150 05:48 11.11.2019
4387 Clouds -19 1039 84 10000 1 0 03:55 11.11.2019
4388 Clouds -20 1038 91 7000 1 0 02:49 11.11.2019
4389 Clouds -21 1039 83 10000 1 0 01:59 11.11.2019
4390 Clouds -21 1039 83 10000 1 0 01:36 11.11.2019
4391 Clouds -21 1039 83 10000 1 70 00:58 11.11.2019
4392 Clouds -21 1039 83 10000 1 70 00:40 11.11.2019
4393 Clouds -21 1039 83 10000 2 70 23:58 10.11.2019
4394 Clouds -21 1039 83 10000 2 70 23:38 10.11.2019
4395 Clouds -21 1039 83 10000 2 70 23:19 10.11.2019
4396 Clouds -21 1039 83 10000 2 70 23:19 10.11.2019
4397 Clouds -22 1039 83 10000 1 70 22:56 10.11.2019
4398 Clouds -22 1039 83 10000 1 70 22:38 10.11.2019
4399 Clouds -22 1039 83 10000 2 70 22:19 10.11.2019
4400 Clouds -22 1039 76 10000 2 70 21:55 10.11.2019
4401 Clouds -22 1039 76 10000 2 70 21:36 10.11.2019
4402 Clouds -23 1039 83 10000 2 70 21:18 10.11.2019
4403 Clouds -24 1039 83 10000 3 100 20:41 10.11.2019
4404 Clouds -24 1038 83 10000 2 90 20:22 10.11.2019
4405 Clouds -24 1038 83 10000 2 90 19:56 10.11.2019
4406 Clouds -24 1038 83 10000 2 90 19:37 10.11.2019
4407 Clouds -23 1038 83 10000 1 0 19:19 10.11.2019
4408 Clouds -22 1038 83 10000 2.42 64 18:58 10.11.2019
4409 Clouds -22 1038 83 10000 2.42 64 18:39 10.11.2019
4410 Clouds -22 1038 83 10000 2.42 64 18:19 10.11.2019
4411 Clouds -22 1038 83 10000 2.42 64 18:19 10.11.2019
4412 Clouds -22 1038 91 10000 2.42 64 17:56 10.11.2019
4413 Clouds -21 1038 83 10000 2.42 64 17:38 10.11.2019
4414 Clouds -21 1038 83 10000 2.66 53 17:19 10.11.2019
4415 Clouds -21 1037 83 10000 1 80 16:58 10.11.2019
4416 Clouds -21 1037 83 10000 1 80 16:38 10.11.2019
4417 Clouds -20 1037 83 10000 1 90 16:20 10.11.2019
4418 Clouds -20 1037 83 10000 1 80 15:55 10.11.2019
4419 Clouds -20 1037 83 10000 1 80 15:36 10.11.2019
4420 Clouds -20 1037 83 10000 1 80 15:36 10.11.2019
4421 Clouds -19 1037 84 10000 2 70 15:18 10.11.2019
4422 Clouds -19 1037 91 10000 1 0 14:41 10.11.2019
4423 Clouds -18 1037 84 10000 1 0 14:23 10.11.2019
4424 Clouds -18 1036 91 10000 1 0 13:58 10.11.2019
4425 Clouds -18 1036 91 10000 1 0 13:40 10.11.2019
4426 Clouds -18 1036 91 10000 1 0 13:20 10.11.2019
4427 Clouds -17 1036 91 10000 2 10 12:44 10.11.2019
4428 Clouds -17 1035 91 10000 1 340 12:21 10.11.2019
4429 Clouds -15 1035 92 10000 1 20 11:57 10.11.2019
4430 Clouds -15 1035 92 10000 1 20 11:57 10.11.2019
4431 Clouds -15 1035 92 10000 2 50 11:39 10.11.2019
4432 Clouds -15 1035 92 10000 2 50 11:20 10.11.2019
4433 Clouds -14 1035 92 10000 1 0 10:59 10.11.2019
4434 Clouds -14 1035 92 10000 1 0 10:40 10.11.2019
4435 Clouds -14 1034 92 10000 2 10 10:20 10.11.2019
4436 Clouds -14 1034 92 10000 2 350 09:43 10.11.2019
4437 Clouds -14 1034 92 10000 2 360 09:43 10.11.2019
4438 Clouds -14 1034 92 10000 2 360 09:23 10.11.2019
4439 Clouds -14 1034 92 10000 3 340 08:43 10.11.2019
4440 Clouds -14 1034 92 10000 2 310 08:21 10.11.2019
4441 Clouds -15 1034 92 10000 2 290 07:58 10.11.2019
4442 Clouds -15 1034 92 10000 2 290 07:40 10.11.2019
4443 Clouds -15 1033 84 10000 2 280 07:21 10.11.2019
4444 Clouds -15 1033 84 10000 2 280 07:21 10.11.2019
4445 Clouds -16 1033 91 10000 2 280 06:26 10.11.2019
4446 Snow -16 1033 91 10000 2 280 04:46 10.11.2019
4447 Clouds -16 1032 91 10000 2 250 03:19 10.11.2019
4448 Snow -15 1032 92 9000 3 250 01:44 10.11.2019
4449 Snow -15 1032 92 9000 3 250 01:19 10.11.2019
4450 Snow -15 1033 92 9000 3 250 00:40 10.11.2019
4451 Snow -15 1033 92 9000 3 240 23:43 09.11.2019
4452 Clouds -15 1033 84 10000 3 250 23:21 09.11.2019
4453 Clouds -16 1033 91 10000 3 250 22:59 09.11.2019
4454 Clouds -16 1033 91 10000 3 250 22:40 09.11.2019
4455 Clouds -16 1033 91 10000 3 250 22:19 09.11.2019
4456 Clouds -16 1033 84 10000 3 250 21:55 09.11.2019
4457 Clouds -16 1033 84 10000 3 250 21:37 09.11.2019
4458 Clouds -17 1033 91 10000 2 250 21:19 09.11.2019
4459 Clouds -17 1033 84 10000 2 250 20:41 09.11.2019
4460 Clouds -17 1033 91 10000 2 270 20:22 09.11.2019
4461 Clouds -17 1033 91 10000 2 260 19:57 09.11.2019
4462 Clouds -17 1033 91 10000 2 260 19:38 09.11.2019
4463 Clouds -17 1033 84 10000 3 280 19:19 09.11.2019
4464 Clouds -18 1033 91 10000 3 260 18:40 09.11.2019
4465 Clouds -17 1033 91 10000 3 250 18:19 09.11.2019
4466 Clouds -17 1034 91 10000 4 250 17:58 09.11.2019
4467 Clouds -17 1034 91 10000 4 250 17:58 09.11.2019
4468 Clouds -18 1034 84 10000 3 270 17:40 09.11.2019
4469 Clouds -18 1034 84 10000 3 270 17:22 09.11.2019
4470 Clouds -19 1034 91 10000 3 280 16:42 09.11.2019
4471 Clouds -18 1034 84 10000 3 270 16:21 09.11.2019
4472 Clouds -18 1034 84 10000 3 260 15:58 09.11.2019
4473 Clouds -18 1034 84 10000 3 260 15:39 09.11.2019
4474 Clouds -18 1033 91 10000 3 280 15:21 09.11.2019
4475 Clouds -18 1034 91 10000 3 270 14:42 09.11.2019
4476 Clear -18 1034 91 10000 3 260 14:22 09.11.2019
4477 Clear -16 1033 84 10000 4 250 13:57 09.11.2019
4478 Clear -16 1033 84 10000 4 250 13:38 09.11.2019
4479 Clear -16 1033 84 10000 4 250 13:19 09.11.2019
4480 Clear -17 1033 84 10000 3 270 12:55 09.11.2019
4481 Clear -17 1033 84 10000 3 270 12:37 09.11.2019
4482 Clear -17 1033 84 10000 4 280 12:18 09.11.2019
4483 Clear -16 1033 84 10000 4 270 11:44 09.11.2019
4484 Clear -16 1033 84 10000 4 280 11:20 09.11.2019
4485 Clear -15 1033 77 10000 4 280 10:56 09.11.2019
4486 Clear -15 1032 84 10000 4 260 10:37 09.11.2019
4487 Clear -15 1032 84 10000 4 260 10:18 09.11.2019
4488 Clear -15 1032 77 10000 4 280 09:41 09.11.2019
4489 Clear -16 1032 84 10000 5 280 09:20 09.11.2019
4490 Clear -16 1032 77 10000 4 280 08:45 09.11.2019
4491 Clear -17 1032 84 10000 4 290 08:25 09.11.2019
4492 Clear -17 1031 77 10000 4 280 07:55 09.11.2019
4493 Clear -18 1031 84 10000 4 280 07:37 09.11.2019
4494 Clear -18 1031 84 10000 4 280 07:19 09.11.2019
4495 Clear -19 1031 84 10000 4 280 06:43 09.11.2019
4496 Clear -19 1030 84 10000 4 280 06:25 09.11.2019
4497 Clear -21 1030 83 10000 4 280 05:40 09.11.2019
4498 Clouds -21 1029 76 10000 4 280 04:30 09.11.2019
4499 Clear -20 1029 83 10000 4 280 02:52 09.11.2019
4500 Clear -21 1028 83 10000 4 280 02:34 09.11.2019
4501 Clouds -19 1027 84 10000 4 290 01:18 09.11.2019
4502 Clouds -19 1027 84 10000 4 300 00:41 09.11.2019
4503 Clouds -19 1027 84 10000 5 300 00:22 09.11.2019
4504 Clouds -19 1026 84 10000 4 300 23:41 08.11.2019
4505 Clouds -19 1026 84 10000 4 290 23:22 08.11.2019
4506 Clouds -19 1026 84 10000 4 290 22:59 08.11.2019
4507 Clouds -18 1025 84 10000 5 290 22:39 08.11.2019
4508 Clouds -18 1025 84 10000 5 290 22:21 08.11.2019
4509 Clouds -19 1025 84 10000 4 290 21:42 08.11.2019
4510 Clouds -18 1024 84 10000 4 300 21:23 08.11.2019
4511 Clouds -18 1024 84 10000 5 300 20:58 08.11.2019
4512 Clouds -18 1024 84 10000 5 300 20:40 08.11.2019
4513 Clouds -18 1023 84 10000 5 300 20:19 08.11.2019
4514 Clouds -18 1023 84 10000 5 300 19:54 08.11.2019
4515 Clouds -18 1022 84 10000 5 310 19:36 08.11.2019
4516 Clouds -18 1022 84 10000 5 310 19:18 08.11.2019
4517 Clouds -18 1022 84 10000 5 310 19:18 08.11.2019
4518 Clouds -18 1022 84 10000 4 310 18:54 08.11.2019
4519 Clouds -18 1021 84 10000 5 310 18:36 08.11.2019
4520 Clouds -18 1021 84 10000 5 310 18:18 08.11.2019
4521 Clouds -18 1021 84 10000 5 310 18:18 08.11.2019
4522 Clouds -18 1021 84 10000 6 320 17:54 08.11.2019
4523 Clouds -17 1020 77 10000 6 310 17:36 08.11.2019
4524 Clouds -17 1020 77 10000 6 310 17:18 08.11.2019
4525 Clouds -17 1020 77 10000 6 310 17:18 08.11.2019
4526 Clouds -17 1020 84 10000 6 310 16:56 08.11.2019
4527 Clouds -17 1019 84 10000 6 300 16:37 08.11.2019
4528 Clouds -17 1019 84 10000 6 300 16:18 08.11.2019
4529 Clouds -18 1019 84 10000 5 300 15:41 08.11.2019
4530 Clouds -18 1019 84 10000 5 300 15:23 08.11.2019
4531 Clouds -18 1018 84 10000 5 300 14:57 08.11.2019
4532 Clouds -17 1018 84 10000 5 300 14:38 08.11.2019
4533 Clouds -17 1018 84 10000 5 300 14:20 08.11.2019
4534 Clouds -17 1017 84 10000 5 300 13:59 08.11.2019
4535 Clouds -17 1017 84 10000 5 300 13:39 08.11.2019
4536 Clouds -17 1016 84 10000 5 300 13:21 08.11.2019
4537 Clouds -17 1016 84 10000 6 300 12:45 08.11.2019
4538 Clouds -17 1015 84 10000 5 300 12:27 08.11.2019
4539 Clouds -16 1015 77 10000 6 320 11:58 08.11.2019
4540 Clouds -16 1014 77 10000 6 310 11:40 08.11.2019
4541 Clouds -16 1014 77 10000 6 310 11:21 08.11.2019
4542 Clouds -16 1014 77 10000 6 320 10:58 08.11.2019
4543 Clouds -16 1014 77 10000 6 320 10:40 08.11.2019
4544 Clouds -16 1013 77 10000 7 320 10:21 08.11.2019
4545 Clouds -16 1012 77 10000 6 300 09:58 08.11.2019
4546 Clouds -16 1012 77 10000 5 310 09:37 08.11.2019
4547 Clouds -16 1012 77 10000 5 310 09:19 08.11.2019
4548 Clouds -16 1011 84 10000 5 320 08:45 08.11.2019
4549 Clouds -16 1010 84 10000 5 330 08:21 08.11.2019
4550 Clouds -16 1010 84 10000 5 330 07:44 08.11.2019
4551 Clouds -16 1009 84 10000 5 330 07:23 08.11.2019
4552 Clouds -16 1009 77 10000 4 330 06:56 08.11.2019
4553 Clouds -17 1008 84 10000 4 330 06:37 08.11.2019
4554 Clouds -17 1008 84 10000 4 330 06:19 08.11.2019
4555 Clouds -17 1008 91 10000 4 330 05:25 08.11.2019
4556 Clouds -16 1007 91 10000 5 330 04:28 08.11.2019
4557 Clouds -15 1006 92 10000 5 330 03:42 08.11.2019
4558 Clouds -15 1006 92 10000 5 330 03:42 08.11.2019
4559 Clouds -13 1006 92 10000 4 340 02:55 08.11.2019
4560 Clouds -12 1005 92 10000 4 350 01:53 08.11.2019
4561 Clouds -11 1005 92 10000 4 350 01:33 08.11.2019
4562 Clouds -10 1005 92 10000 3 340 00:40 08.11.2019
4563 Clouds -10 1004 92 10000 3 10 00:20 08.11.2019
4564 Clouds -11 1004 92 10000 2 10 23:46 07.11.2019
4565 Clouds -11 1004 92 10000 3 10 23:27 07.11.2019
4566 Clouds -11 1004 92 9000 4 10 22:57 07.11.2019
4567 Snow -11 1004 92 8000 3 350 22:37 07.11.2019
4568 Snow -11 1004 92 8000 3 350 22:19 07.11.2019
4569 Snow -12 1004 100 7000 3 350 21:39 07.11.2019
4570 Snow -12 1004 100 7000 3 350 21:20 07.11.2019
4571 Snow -12 1004 100 6000 3 350 20:58 07.11.2019
4572 Snow -12 1004 100 6000 3 350 20:40 07.11.2019
4573 Snow -12 1004 100 9000 3 360 20:21 07.11.2019
4574 Clouds -12 1004 92 10000 3 340 19:57 07.11.2019
4575 Clouds -12 1004 92 10000 3 340 19:57 07.11.2019
4576 Clouds -12 1004 92 10000 3 340 19:57 07.11.2019
4577 Clouds -11 1004 92 10000 4 340 19:38 07.11.2019
4578 Clouds -11 1004 92 10000 4 340 19:20 07.11.2019
4579 Clouds -10 1003 92 10000 5 340 18:57 07.11.2019
4580 Clouds -9 1003 100 10000 5 340 18:38 07.11.2019
4581 Clouds -9 1003 100 10000 5 340 18:19 07.11.2019
4582 Clouds -7 1003 100 10000 5 330 17:54 07.11.2019
4583 Clouds -7 1003 100 10000 5 330 17:36 07.11.2019
4584 Clouds -6 1003 100 10000 4 320 17:18 07.11.2019
4585 Clouds -6 1003 100 10000 4 320 16:54 07.11.2019
4586 Clouds -5 1002 100 10000 4 330 16:36 07.11.2019
4587 Clouds -5 1002 100 10000 4 330 16:18 07.11.2019
4588 Clouds -4 1001 100 10000 6 330 15:40 07.11.2019
4589 Clouds -4 1001 100 10000 6 330 15:20 07.11.2019
4590 Clouds -4 1001 100 10000 7 340 14:54 07.11.2019
4591 Clouds -3 1001 100 10000 6 330 14:36 07.11.2019
4592 Clouds -3 1001 100 10000 6 330 14:18 07.11.2019
4593 Clouds -3 1000 100 10000 6 330 13:54 07.11.2019
4594 Clouds -2 1000 100 10000 7 320 13:36 07.11.2019
4595 Clouds -2 1000 100 10000 7 320 13:36 07.11.2019
4596 Clouds -2 1000 100 10000 7 320 13:18 07.11.2019
4597 Clouds -2 999 100 10000 6 320 12:54 07.11.2019
4598 Clouds -2 999 100 10000 6 320 12:54 07.11.2019
4599 Clouds -1 999 100 10000 6 320 12:36 07.11.2019
4600 Clouds -1 999 100 10000 6 320 12:18 07.11.2019
4601 Clouds 1 997 100 6000 4 300 11:40 07.11.2019
4602 Clouds 1 997 100 6000 4 300 11:22 07.11.2019
4603 Rain 2 996 100 10000 5 280 10:42 07.11.2019
4604 Rain 2 996 100 10000 5 280 10:42 07.11.2019
4605 Rain 2 996 100 10000 5 280 10:19 07.11.2019
4606 Rain 2 996 100 10000 6 250 09:45 07.11.2019
4607 Rain 2 996 100 10000 6 250 09:26 07.11.2019
4608 Rain 2 996 100 10000 6 250 09:24 07.11.2019
4609 Rain 3 995 100 10000 6 250 08:58 07.11.2019
4610 Rain 3 995 100 9000 5 240 08:39 07.11.2019
4611 Rain 3 995 100 9000 5 240 08:21 07.11.2019
4612 Rain 3 995 100 9000 5 240 08:20 07.11.2019
4613 Rain 3 995 100 2000 5 230 07:42 07.11.2019
4614 Rain 3 995 100 2000 5 230 07:23 07.11.2019
4615 Rain 3 995 100 2000 5 230 07:21 07.11.2019
4616 Rain 3 995 100 2700 4 230 06:46 07.11.2019
4617 Rain 2 996 100 2300 4 220 06:27 07.11.2019
4618 Rain 2 996 100 2300 4 220 06:27 07.11.2019
4619 -273 0 0 0 0 0 05:51 07.11.2019
4620 Rain 2 996 100 6000 4 220 05:50 07.11.2019
4621 -273 0 0 0 0 0 05:32 07.11.2019
4622 Rain 2 996 100 8000 4 210 04:52 07.11.2019
4623 Rain 2 996 100 5000 4 220 04:31 07.11.2019
4624 Rain 2 996 100 5000 4 220 04:30 07.11.2019
4625 Clouds 1 996 100 10000 3 230 01:32 07.11.2019
4626 Snow 1 997 100 6000 3 230 00:41 07.11.2019
4627 Snow 1 997 100 6000 3 230 00:18 07.11.2019
4628 Snow 1 997 100 6000 3 230 00:18 07.11.2019
4629 Snow 1 997 100 6000 4 220 23:43 06.11.2019
4630 Snow 1 997 100 6000 4 220 23:20 06.11.2019
4631 Snow 1 997 100 9000 3 210 22:41 06.11.2019
4632 Snow 1 997 100 9000 3 210 22:22 06.11.2019
4633 Snow 0 997 99 9000 3 190 21:58 06.11.2019
4634 Snow 0 997 99 2600 4 180 21:39 06.11.2019
4635 Snow 0 997 99 2600 4 180 21:20 06.11.2019
4636 Snow 0 997 99 2600 4 180 21:20 06.11.2019
4637 Snow 0 998 99 4400 4 180 20:58 06.11.2019
4638 Snow 0 998 99 2400 4 170 20:39 06.11.2019
4639 Snow 0 998 98 2400 4 170 20:20 06.11.2019
4640 Snow 0 998 98 1800 4 150 19:58 06.11.2019
4641 Snow 0 999 98 1700 5 150 19:37 06.11.2019
4642 Snow 0 999 98 1700 5 150 19:19 06.11.2019
4643 Snow 0 1000 98 1500 4 140 18:56 06.11.2019
4644 Snow 0 1001 98 1100 4 150 18:38 06.11.2019
4645 Snow 0 1001 98 1100 4 150 18:18 06.11.2019
4646 Snow 0 1001 98 2800 4 150 17:42 06.11.2019
4647 Snow 0 1002 98 2200 4 150 17:23 06.11.2019
4648 Snow 0 1002 97 3100 4 150 16:57 06.11.2019
4649 Clouds 0 1003 97 10000 4 150 16:39 06.11.2019
4650 Clouds 0 1003 97 10000 4 150 16:21 06.11.2019
4651 Clouds 0 1004 97 10000 3 150 15:58 06.11.2019
4652 Clouds 0 1004 97 10000 3 150 15:38 06.11.2019
4653 Clouds 0 1004 97 10000 3 150 15:19 06.11.2019
4654 Snow 0 1005 97 8000 4 150 14:57 06.11.2019
4655 Snow 0 1005 97 8000 4 150 14:39 06.11.2019
4656 Snow 0 1005 97 8000 4 150 14:39 06.11.2019
4657 Snow 0 1005 97 9000 4 150 14:21 06.11.2019
4658 Clouds 0 1006 97 10000 4 150 13:59 06.11.2019
4659 Clouds 0 1006 97 10000 4 150 13:59 06.11.2019
4660 Snow 0 1006 97 10000 3 150 13:37 06.11.2019
4661 Snow 0 1006 97 10000 3 150 13:19 06.11.2019
4662 Clouds -1 1006 100 10000 4 150 12:55 06.11.2019
4663 Clouds 0 1007 97 10000 2 160 12:37 06.11.2019
4664 Clouds 0 1007 97 10000 2 160 12:18 06.11.2019
4665 Clouds 0 1007 97 10000 3 190 11:56 06.11.2019
4666 Clouds 0 1007 97 10000 3 180 11:36 06.11.2019
4667 Clouds 0 1007 95 10000 3 180 11:18 06.11.2019
4668 Clouds -1 1007 92 10000 3 190 10:55 06.11.2019
4669 Clouds -1 1007 92 10000 3 190 10:55 06.11.2019
4670 Clouds -1 1007 92 10000 2 190 10:37 06.11.2019
4671 Clouds -1 1007 92 10000 2 190 10:18 06.11.2019
4672 Clouds -1 1008 86 10000 2 200 09:41 06.11.2019
4673 Clouds -1 1008 86 10000 2 220 09:21 06.11.2019
4674 Clouds -1 1008 86 10000 3 220 08:56 06.11.2019
4675 Clouds -1 1008 86 10000 3 210 08:37 06.11.2019
4676 Clouds -1 1008 86 10000 3 210 08:18 06.11.2019
4677 Clouds -1 1008 86 10000 3 230 07:45 06.11.2019
4678 Clouds -2 1008 86 10000 3 240 07:27 06.11.2019
4679 Clouds -2 1008 92 10000 3 240 06:52 06.11.2019
4680 Clouds -2 1008 86 10000 3 240 06:34 06.11.2019
4681 Clouds -2 1008 100 10000 3 240 05:50 06.11.2019
4682 Clouds -3 1007 100 10000 2 280 03:38 06.11.2019
4683 Clouds -2 1007 100 10000 2 250 01:42 06.11.2019
4684 Clouds -2 1007 100 10000 2 260 00:47 06.11.2019
4685 Clouds -1 1007 100 10000 2 240 00:25 06.11.2019
4686 Clouds -1 1007 100 10000 2 240 23:41 05.11.2019
4687 Clouds -1 1006 100 10000 2 270 23:22 05.11.2019
4688 Clouds -1 1006 100 10000 3 250 22:59 05.11.2019
4689 Clouds -1 1006 100 10000 3 250 22:40 05.11.2019
4690 Clouds -1 1006 100 10000 3 260 22:19 05.11.2019
4691 Clouds 0 1006 95 10000 4 250 21:55 05.11.2019
4692 Clouds 0 1006 95 10000 3 250 21:37 05.11.2019
4693 Clouds 0 1006 95 10000 3 250 21:18 05.11.2019
4694 Clouds 0 1006 95 10000 3 240 20:55 05.11.2019
4695 Clouds 0 1006 95 10000 3 240 20:36 05.11.2019
4696 Clouds 0 1006 94 10000 3 240 20:18 05.11.2019
4697 Clouds 0 1006 94 10000 3 240 19:42 05.11.2019
4698 Snow -1 1005 100 9000 4 240 19:22 05.11.2019
4699 Snow -1 1005 100 4400 4 240 18:58 05.11.2019
4700 Snow -1 1005 100 3400 4 240 18:40 05.11.2019
4701 Snow -1 1005 100 3400 4 240 18:21 05.11.2019
4702 Snow -1 1005 100 4100 4 240 17:59 05.11.2019
4703 Snow -1 1005 100 8000 4 240 17:39 05.11.2019
4704 Snow -1 1005 100 8000 4 240 17:20 05.11.2019
4705 -273 0 0 0 0 0 16:56 05.11.2019
4706 Snow -1 1005 100 6000 5 230 16:38 05.11.2019
4707 Snow -1 1005 100 6000 5 230 16:19 05.11.2019
4708 Snow -1 1005 100 6000 5 230 16:19 05.11.2019
4709 Snow -1 1006 100 3900 5 230 15:39 05.11.2019
4710 Snow -1 1006 100 3900 5 230 15:20 05.11.2019
4711 Snow -1 1006 100 6000 5 230 14:58 05.11.2019
4712 Snow -1 1006 100 6000 5 230 14:40 05.11.2019
4713 Snow -2 1006 100 6000 5 230 14:21 05.11.2019
4714 Snow -2 1006 100 3400 6 230 13:55 05.11.2019
4715 Snow -2 1006 100 1500 5 220 13:37 05.11.2019
4716 Snow -2 1006 100 1500 5 220 13:18 05.11.2019
4717 Snow -2 1006 100 1300 5 220 12:39 05.11.2019
4718 Snow -2 1006 100 1300 5 220 12:21 05.11.2019
4719 Snow -3 1006 100 1400 5 210 11:56 05.11.2019
4720 Snow -3 1006 100 1200 5 210 11:37 05.11.2019
4721 Snow -3 1006 100 1200 5 210 11:19 05.11.2019
4722 Snow -3 1006 100 8000 6 220 10:44 05.11.2019
4723 Snow -3 1006 100 7000 6 220 10:25 05.11.2019
4724 Snow -3 1006 100 5000 6 220 09:58 05.11.2019
4725 Snow -3 1006 100 3500 6 210 09:40 05.11.2019
4726 Snow -3 1006 100 3500 6 210 09:19 05.11.2019
4727 Snow -3 1006 100 3500 6 210 09:19 05.11.2019
4728 Snow -4 1007 100 1700 6 220 08:55 05.11.2019
4729 Snow -4 1007 100 1700 6 220 08:55 05.11.2019
4730 Snow -4 1007 100 1200 7 200 08:37 05.11.2019
4731 Snow -4 1007 100 1200 7 200 08:18 05.11.2019
4732 Snow -4 1007 100 2300 6 200 07:43 05.11.2019
4733 Snow -4 1007 100 2100 7 200 07:24 05.11.2019
4734 Snow -4 1008 92 1400 8 200 06:51 05.11.2019
4735 Snow -5 1008 100 2800 6 190 05:54 05.11.2019
4736 Snow -5 1008 100 2800 6 190 05:54 05.11.2019
4737 Snow -5 1008 100 900 8 190 05:36 05.11.2019
4738 Snow -5 1008 100 900 8 190 05:18 05.11.2019
4739 Snow -6 1010 100 900 8 190 04:20 05.11.2019
4740 Snow -6 1011 100 450 8 170 03:24 05.11.2019
4741 Snow -6 1011 100 550 8 170 02:41 05.11.2019
4742 Snow -6 1013 92 1700 8 170 01:48 05.11.2019
4743 Clouds -6 1015 92 10000 7 180 00:41 05.11.2019
4744 Clouds -7 1016 100 10000 8 180 00:18 05.11.2019
4745 Clouds -7 1017 100 10000 8 190 23:41 04.11.2019
4746 Clouds -7 1018 92 10000 8 190 23:19 04.11.2019
4747 Clouds -7 1019 92 10000 7 190 22:55 04.11.2019
4748 Clouds -7 1019 92 10000 7 180 22:36 04.11.2019
4749 Clouds -7 1019 92 10000 7 180 22:18 04.11.2019
4750 Clouds -7 1020 92 10000 7 180 21:54 04.11.2019
4751 Clouds -7 1020 92 10000 7 180 21:54 04.11.2019
4752 Clouds -7 1020 92 10000 7 180 21:36 04.11.2019
4753 Clouds -7 1020 92 10000 7 180 21:18 04.11.2019
4754 Clouds -7 1021 92 10000 6 180 20:54 04.11.2019
4755 Clouds -7 1022 92 10000 6 190 20:36 04.11.2019
4756 Clouds -7 1022 92 10000 6 190 20:18 04.11.2019
4757 Clouds -7 1022 92 10000 6 180 19:42 04.11.2019
4758 Clouds -6 1023 85 10000 6 180 19:23 04.11.2019
4759 Clouds -6 1023 85 10000 7 190 18:58 04.11.2019
4760 Clouds -6 1024 85 10000 6 190 18:39 04.11.2019
4761 Clouds -6 1024 85 10000 6 190 18:21 04.11.2019
4762 Clouds -6 1024 92 10000 5 190 17:56 04.11.2019
4763 Clouds -6 1024 92 10000 6 190 17:36 04.11.2019
4764 Clouds -6 1024 92 10000 6 190 17:18 04.11.2019
4765 Clouds -6 1025 92 10000 5 190 16:42 04.11.2019
4766 Clouds -6 1025 92 10000 6 190 16:23 04.11.2019
4767 Clouds -6 1025 92 10000 5 180 15:58 04.11.2019
4768 Clouds -5 1026 79 10000 5 190 15:39 04.11.2019
4769 Clouds -5 1026 79 10000 5 190 15:21 04.11.2019
4770 Clouds -6 1026 85 10000 4 190 14:57 04.11.2019
4771 Clouds -6 1026 92 10000 3 190 14:39 04.11.2019
4772 Clouds -6 1026 92 10000 3 190 14:20 04.11.2019
4773 Clouds -6 1026 100 10000 4 190 13:57 04.11.2019
4774 Clouds -6 1026 100 10000 4 180 13:39 04.11.2019
4775 Clouds -6 1026 100 10000 4 180 13:20 04.11.2019
4776 Clouds -6 1026 100 10000 2 180 12:45 04.11.2019
4777 Clouds -7 1027 100 10000 1 0 12:25 04.11.2019
4778 Clouds -6 1027 92 10000 1 0 11:58 04.11.2019
4779 Clouds -6 1027 92 10000 2 200 11:40 04.11.2019
4780 Clouds -6 1027 92 10000 2 200 11:21 04.11.2019
4781 Clouds -6 1027 85 10000 2 200 10:47 04.11.2019
4782 Clouds -6 1027 85 10000 2 200 10:26 04.11.2019
4783 Clouds -6 1027 92 10000 3 210 09:56 04.11.2019
4784 Clouds -6 1027 85 10000 3 220 09:38 04.11.2019
4785 Clouds -6 1027 85 10000 3 220 09:19 04.11.2019
4786 Clouds -6 1027 85 10000 3 220 08:42 04.11.2019
4787 Snow -6 1027 85 10000 1 0 08:23 04.11.2019
4788 Snow -7 1028 92 10000 2 210 07:56 04.11.2019
4789 Snow -7 1028 92 10000 2 200 07:38 04.11.2019
4790 Snow -7 1028 92 10000 2 200 07:38 04.11.2019
4791 Snow -7 1028 92 10000 2 200 07:19 04.11.2019
4792 Snow -8 1028 100 9000 2 190 06:41 04.11.2019
4793 Snow -8 1028 100 9000 2 190 06:18 04.11.2019
4794 Snow -8 1028 100 7000 2 200 05:31 04.11.2019
4795 Snow -8 1028 100 9000 1 0 04:27 04.11.2019
4796 Snow -8 1028 100 9000 1 0 03:31 04.11.2019
4797 Snow -8 1028 100 10000 1 0 01:24 04.11.2019
4798 Snow -9 1028 100 10000 2.18 198 00:59 04.11.2019
4799 Snow -9 1028 100 10000 1 0 00:22 04.11.2019
4800 Snow -9 1028 100 10000 2 210 23:58 03.11.2019
4801 Snow -9 1028 100 10000 1 180 23:37 03.11.2019
4802 Snow -9 1028 100 10000 1 180 23:18 03.11.2019
4803 Snow -9 1028 100 10000 1 0 22:56 03.11.2019
4804 Snow -9 1028 100 10000 1 0 22:56 03.11.2019
4805 Snow -9 1028 100 8000 1 0 22:38 03.11.2019
4806 Snow -9 1028 100 8000 1 0 22:18 03.11.2019
4807 Snow -9 1028 100 10000 2 220 21:42 03.11.2019
4808 Snow -9 1028 100 10000 2 220 21:21 03.11.2019
4809 Snow -9 1028 100 10000 1 0 20:58 03.11.2019
4810 Snow -9 1028 100 8000 2 200 20:37 03.11.2019
4811 Snow -9 1028 100 8000 2 200 20:19 03.11.2019
4812 Snow -10 1028 100 10000 1 200 19:57 03.11.2019
4813 Snow -10 1028 100 10000 1 0 19:38 03.11.2019
4814 Snow -10 1028 100 10000 1 0 19:20 03.11.2019
4815 Snow -10 1028 100 9000 2 190 18:55 03.11.2019
4816 Clouds -10 1028 100 10000 2 200 18:36 03.11.2019
4817 Clouds -10 1028 100 10000 2 200 18:18 03.11.2019
4818 Clouds -9 1027 100 10000 2 200 17:42 03.11.2019
4819 Clouds -9 1027 100 10000 2 200 17:20 03.11.2019
4820 Snow -9 1027 100 10000 3 200 16:57 03.11.2019
4821 Snow -9 1027 100 10000 3 200 16:57 03.11.2019
4822 Snow -9 1027 100 9000 3 190 16:39 03.11.2019
4823 Snow -9 1027 100 9000 3 190 16:21 03.11.2019
4824 Snow -9 1028 100 9000 3 190 15:57 03.11.2019
4825 Snow -9 1028 92 10000 3 190 15:39 03.11.2019
4826 Snow -9 1028 92 10000 3 190 15:21 03.11.2019
4827 Snow -9 1028 92 10000 3 190 14:42 03.11.2019
4828 Snow -9 1027 92 10000 4 190 14:20 03.11.2019
4829 Snow -9 1027 92 10000 4 190 13:58 03.11.2019
4830 Snow -9 1027 92 10000 4 190 13:40 03.11.2019
4831 Snow -9 1027 92 10000 3 190 13:18 03.11.2019
4832 Snow -10 1027 100 10000 1 0 12:39 03.11.2019
4833 Snow -10 1027 100 10000 1 0 12:20 03.11.2019
4834 Snow -10 1027 92 10000 1 190 11:59 03.11.2019
4835 Snow -10 1027 92 10000 1 190 11:41 03.11.2019
4836 Snow -10 1027 92 10000 1 190 11:41 03.11.2019
4837 Clouds -9 1027 85 10000 3 190 11:20 03.11.2019
4838 Snow -9 1027 85 10000 2 190 10:55 03.11.2019
4839 Snow -9 1026 85 10000 2 190 10:37 03.11.2019
4840 Snow -9 1026 85 10000 2 190 10:18 03.11.2019
4841 Snow -9 1026 85 7000 2 210 09:42 03.11.2019
4842 Snow -9 1026 85 8000 3 190 09:24 03.11.2019
4843 Snow -10 1026 92 9000 2 190 08:56 03.11.2019
4844 Clouds -10 1026 92 10000 2 170 08:36 03.11.2019
4845 Clouds -10 1026 92 10000 2 170 08:18 03.11.2019
4846 Snow -10 1026 92 10000 2 190 07:44 03.11.2019
4847 Clouds -10 1026 85 10000 2 190 07:20 03.11.2019
4848 Clouds -12 1026 92 10000 2 190 06:39 03.11.2019
4849 Clouds -12 1026 92 10000 2 190 05:52 03.11.2019
4850 Clouds -13 1026 92 10000 3 190 05:32 03.11.2019
4851 Clouds -13 1026 92 10000 2 190 04:51 03.11.2019
4852 Clouds -13 1025 92 10000 2 200 03:54 03.11.2019
4853 Clouds -13 1025 92 10000 3 200 02:47 03.11.2019
4854 Clouds -13 1024 100 10000 2 190 02:23 03.11.2019
4855 Clouds -13 1024 100 10000 3 190 01:49 03.11.2019
4856 Clouds -13 1024 100 10000 3 200 01:25 03.11.2019
4857 Clouds -13 1024 100 10000 2 190 00:57 03.11.2019
4858 Clouds -12 1024 100 10000 3 200 00:38 03.11.2019
4859 Clouds -12 1024 100 10000 3 200 00:19 03.11.2019
4860 Clouds -10 1023 100 10000 4 240 23:40 02.11.2019
4861 Clouds -10 1023 100 10000 4 240 23:20 02.11.2019
4862 Clouds -9 1023 92 10000 4 240 22:57 02.11.2019
4863 Clouds -9 1023 92 10000 4 240 22:38 02.11.2019
4864 Clouds -9 1023 92 10000 4 240 22:38 02.11.2019
4865 Clouds -9 1023 92 10000 4 240 22:20 02.11.2019
4866 Clouds -8 1022 92 10000 4 240 21:57 02.11.2019
4867 Clouds -8 1022 92 10000 4 240 21:38 02.11.2019
4868 Clouds -8 1022 92 10000 4 240 21:19 02.11.2019
4869 Clouds -8 1022 92 10000 4 240 21:19 02.11.2019
4870 Clouds -8 1022 92 10000 4 240 21:19 02.11.2019
4871 Clouds -8 1022 92 10000 4 240 21:19 02.11.2019
4872 Clouds -7 1021 85 10000 4 250 20:59 02.11.2019
4873 Clouds -7 1021 85 10000 4 250 20:41 02.11.2019
4874 Clouds -7 1021 85 10000 5 260 20:21 02.11.2019
4875 Clouds -7 1020 85 10000 3 240 19:57 02.11.2019
4876 Snow -7 1020 85 10000 4 270 19:36 02.11.2019
4877 Snow -7 1020 85 10000 4 270 19:18 02.11.2019
4878 Snow -7 1020 79 10000 4 280 18:54 02.11.2019
4879 Snow -7 1019 79 10000 6 280 18:36 02.11.2019
4880 Snow -7 1019 79 10000 6 280 18:18 02.11.2019
4881 Snow -7 1019 79 10000 6 280 18:18 02.11.2019
4882 Snow -7 1019 79 10000 6 280 17:42 02.11.2019
4883 Clouds -8 1018 85 10000 5 280 17:24 02.11.2019
4884 Clouds -8 1018 85 10000 5 280 16:58 02.11.2019
4885 Clouds -8 1017 85 10000 5 280 16:39 02.11.2019
4886 Clouds -8 1017 85 10000 5 280 16:20 02.11.2019
4887 Clouds -9 1017 85 10000 5 280 15:42 02.11.2019
4888 Clouds -8 1016 78 10000 6 280 15:21 02.11.2019
4889 Clouds -8 1016 85 10000 5 280 14:57 02.11.2019
4890 Clouds -9 1015 85 10000 5 280 14:39 02.11.2019
4891 Clouds -9 1015 85 10000 5 280 14:20 02.11.2019
4892 Clouds -8 1015 85 10000 6 280 13:40 02.11.2019
4893 Clouds -8 1014 78 10000 5 280 13:20 02.11.2019
4894 Clouds -9 1013 85 10000 5 280 12:58 02.11.2019
4895 Clouds -8 1013 72 10000 6 280 12:38 02.11.2019
4896 Clouds -8 1013 72 10000 6 280 12:20 02.11.2019
4897 Clouds -8 1012 72 10000 8 280 11:42 02.11.2019
4898 Clouds -8 1011 72 10000 8 280 11:24 02.11.2019
4899 Clouds -8 1010 78 10000 10 280 10:57 02.11.2019
4900 Clouds -8 1010 78 10000 10 280 10:39 02.11.2019
4901 Clouds -8 1010 78 10000 10 280 10:20 02.11.2019
4902 Clouds -8 1009 78 10000 9 280 09:43 02.11.2019
4903 Snow -8 1009 78 10000 9 280 09:22 02.11.2019
4904 Snow -8 1008 78 6000 9 280 08:55 02.11.2019
4905 Snow -8 1007 85 4700 9 280 08:37 02.11.2019
4906 Snow -8 1007 85 4700 9 280 08:18 02.11.2019
4907 Snow -8 1007 85 4700 9 280 08:18 02.11.2019
4908 Snow -8 1006 85 5000 10 280 07:43 02.11.2019
4909 Snow -9 1006 85 10000 10 280 07:25 02.11.2019
4910 Snow -9 1005 85 9000 9 280 06:52 02.11.2019
4911 Snow -9 1005 85 9000 9 280 06:52 02.11.2019
4912 -273 0 0 0 0 0 06:24 02.11.2019
4913 Snow -9 1003 85 3400 10 280 05:44 02.11.2019
4914 Snow -9 1001 92 4900 8 280 04:25 02.11.2019
4915 Snow -9 1000 92 6000 8 290 03:51 02.11.2019
4916 Snow -9 999 92 2500 7 290 03:30 02.11.2019
4917 Snow -9 998 92 5000 9 290 02:29 02.11.2019
4918 Snow -9 997 92 4500 7 290 01:29 02.11.2019
4919 Snow -9 996 92 3300 8 300 00:57 02.11.2019
4920 Snow -9 995 92 4000 8 300 00:30 02.11.2019
4921 Snow -8 994 92 4000 6 290 23:57 01.11.2019
4922 Snow -8 994 85 4500 7 290 23:39 01.11.2019
4923 Snow -8 994 85 4500 7 290 23:19 01.11.2019
4924 Snow -8 993 92 5000 6 290 22:42 01.11.2019
4925 Snow -8 992 92 4800 6 300 22:21 01.11.2019
4926 Snow -8 992 92 4200 5 290 21:43 01.11.2019
4927 Snow -8 991 92 2800 5 300 21:24 01.11.2019
4928 Snow -8 991 92 2800 6 300 20:59 01.11.2019
4929 Snow -8 991 92 2800 6 300 20:41 01.11.2019
4930 Snow -8 990 100 4300 5 310 20:23 01.11.2019
4931 Snow -7 990 100 3300 4 310 19:59 01.11.2019
4932 Snow -7 990 100 3300 4 310 19:40 01.11.2019
4933 Snow -7 990 100 6000 4 310 19:21 01.11.2019
4934 Snow -7 989 100 5000 4 320 18:41 01.11.2019
4935 Snow -7 989 100 10000 3 330 18:21 01.11.2019
4936 Snow -7 989 100 10000 2 330 17:58 01.11.2019
4937 Snow -7 989 100 10000 2 330 17:40 01.11.2019
4938 Snow -7 989 100 10000 2 330 17:22 01.11.2019
4939 Snow -6 989 100 10000 2 340 16:40 01.11.2019
4940 Snow -6 988 100 10000 2 320 16:20 01.11.2019
4941 Snow -6 989 100 9000 1 320 15:58 01.11.2019
4942 Snow -6 989 100 9000 1.54 353 15:40 01.11.2019
4943 Snow -6 989 100 9000 1.54 353 15:21 01.11.2019
4944 Snow -6 989 100 9000 1 0 14:44 01.11.2019
4945 Snow -6 989 100 5000 1.54 353 14:25 01.11.2019
4946 Snow -6 989 100 2400 1 50 13:59 01.11.2019
4947 Snow -6 989 100 2400 1 50 13:40 01.11.2019
4948 Snow -6 989 100 4600 2 80 13:21 01.11.2019
4949 Snow -6 989 100 6000 3 90 12:55 01.11.2019
4950 Snow -6 989 100 8000 3 90 12:37 01.11.2019
4951 Snow -6 989 100 8000 3 90 12:18 01.11.2019
4952 Snow -6 989 100 9000 4 90 11:41 01.11.2019
4953 Snow -6 989 100 9000 4 80 11:23 01.11.2019
4954 Snow -6 989 100 4000 4 80 10:43 01.11.2019
4955 Snow -6 990 100 7000 5 90 10:25 01.11.2019
4956 Snow -6 990 100 7000 5 80 09:58 01.11.2019
4957 Snow -6 990 100 7000 5 80 09:40 01.11.2019
4958 Snow -6 990 100 9000 6 90 09:20 01.11.2019
4959 Clouds -6 990 100 10000 6 90 08:45 01.11.2019
4960 Snow -6 991 100 6000 7 90 08:22 01.11.2019
4961 Snow -6 991 100 2900 7 90 07:57 01.11.2019
4962 Snow -6 992 100 3500 7 90 07:39 01.11.2019
4963 Snow -6 992 100 3500 7 90 07:20 01.11.2019
4964 Snow -6 992 100 2400 7 90 06:47 01.11.2019
4965 Snow -6 993 92 7000 8 90 06:22 01.11.2019
4966 Snow -6 993 100 3500 8 90 05:44 01.11.2019
4967 Snow -6 993 100 3500 8 90 05:44 01.11.2019
4968 Snow -6 995 100 1200 8 80 04:29 01.11.2019
4969 Snow -6 996 100 800 8 90 03:24 01.11.2019
4970 Snow -6 999 100 900 9 80 01:37 01.11.2019
4971 Snow -5 1000 100 900 9 80 00:42 01.11.2019
4972 Snow -6 1001 100 1100 9 80 00:19 01.11.2019
4973 Snow -6 1002 100 1200 8 80 23:43 31.10.2019
4974 Snow -6 1003 100 900 8 70 23:23 31.10.2019
4975 Snow -6 1004 100 900 7 80 22:57 31.10.2019
4976 Snow -6 1005 100 800 7 80 22:39 31.10.2019
4977 Snow -6 1005 100 800 7 80 22:20 31.10.2019
4978 Snow -6 1006 100 1000 6 80 21:44 31.10.2019
4979 Snow -6 1007 100 1000 5 80 21:21 31.10.2019
4980 Snow -6 1008 92 1300 6 100 20:57 31.10.2019
4981 Clouds -6 1009 85 10000 5 110 20:39 31.10.2019
4982 Clouds -6 1009 85 10000 5 110 20:20 31.10.2019
4983 Clouds -6 1009 85 10000 6 100 19:42 31.10.2019
4984 Clouds -6 1010 79 10000 6 100 19:22 31.10.2019
4985 Clouds -6 1011 79 10000 6 120 18:57 31.10.2019
4986 Clouds -7 1011 85 10000 5 110 18:39 31.10.2019
4987 Clouds -7 1011 85 10000 5 110 18:19 31.10.2019
4988 Clouds -7 1012 85 10000 5 110 17:42 31.10.2019
4989 Clouds -8 1012 100 10000 3 80 17:22 31.10.2019
4990 Clouds -8 1013 100 10000 3 80 16:58 31.10.2019
4991 Clouds -8 1013 100 10000 3 80 16:40 31.10.2019
4992 Clouds -8 1013 100 10000 3 80 16:20 31.10.2019
4993 Clouds -8 1013 100 10000 2 80 15:56 31.10.2019
4994 Clouds -8 1014 100 10000 2 90 15:37 31.10.2019
4995 Clouds -8 1014 100 10000 2 90 15:19 31.10.2019
4996 Clouds -8 1014 100 10000 2 90 15:19 31.10.2019
4997 Clouds -8 1014 100 10000 2 90 15:19 31.10.2019
4998 Clouds -8 1014 100 10000 2 80 14:54 31.10.2019
4999 Clouds -8 1014 100 10000 2 80 14:36 31.10.2019
5000 Clouds -8 1014 100 10000 2 80 14:18 31.10.2019
5001 Clouds -8 1015 100 10000 1 0 13:40 31.10.2019
5002 Clouds -8 1015 100 10000 1 0 13:40 31.10.2019
5003 Clouds -7 1015 100 10000 1 150 13:20 31.10.2019
5004 Clouds -7 1015 92 10000 1 0 12:59 31.10.2019
5005 Clouds -7 1015 92 10000 1 0 12:41 31.10.2019
5006 Clouds -7 1015 85 10000 1 200 12:22 31.10.2019
5007 Clouds -7 1016 85 10000 2 190 11:47 31.10.2019
5008 Clouds -6 1016 79 10000 3 200 11:22 31.10.2019
5009 Clouds -6 1016 79 10000 3 200 10:59 31.10.2019
5010 Clouds -6 1016 79 10000 3 200 10:40 31.10.2019
5011 Clouds -6 1016 79 10000 3 200 10:21 31.10.2019
5012 Clouds -6 1016 79 10000 3 230 09:57 31.10.2019
5013 Clouds -6 1016 79 10000 4 220 09:39 31.10.2019
5014 Clouds -6 1016 79 10000 4 220 09:18 31.10.2019
5015 Clouds -7 1016 79 10000 4 210 08:46 31.10.2019
5016 Clouds -8 1016 85 10000 3 230 08:26 31.10.2019
5017 Clouds -8 1016 85 10000 3 210 07:49 31.10.2019
5018 Clouds -8 1016 85 10000 3 220 07:28 31.10.2019
5019 Clouds -9 1016 85 10000 3 230 06:55 31.10.2019
5020 Clouds -9 1016 85 10000 4 230 06:33 31.10.2019
5021 Clouds -10 1015 92 10000 4 230 05:58 31.10.2019
5022 Clouds -11 1014 92 10000 4 240 03:22 31.10.2019
5023 Clouds -11 1014 100 10000 3 240 02:38 31.10.2019
5024 Clouds -11 1014 100 10000 4 240 01:43 31.10.2019
5025 Clouds -11 1014 100 10000 3 250 00:35 31.10.2019
5026 Clouds -10 1013 100 10000 3 240 23:53 30.10.2019
5027 Clouds -10 1013 100 10000 4 240 23:28 30.10.2019
5028 Clouds -10 1013 100 10000 3 240 22:43 30.10.2019
5029 Clouds -10 1013 100 10000 3 240 22:21 30.10.2019
5030 Clouds -10 1013 100 10000 3 230 21:55 30.10.2019
5031 Clouds -9 1013 100 10000 4 240 21:37 30.10.2019
5032 Clouds -9 1013 100 10000 4 240 21:18 30.10.2019
5033 Clouds -9 1012 100 10000 3 240 20:58 30.10.2019
5034 Clouds -9 1012 100 10000 3 240 20:40 30.10.2019
5035 Clouds -9 1012 100 10000 3 230 20:22 30.10.2019
5036 Clouds -9 1012 100 10000 3 240 19:57 30.10.2019
5037 Clouds -9 1012 100 10000 3 240 19:57 30.10.2019
5038 Clear -9 1012 100 10000 3 240 19:38 30.10.2019
5039 Clear -9 1012 100 10000 3 240 19:19 30.10.2019
5040 Clouds -8 1012 100 10000 4 240 18:39 30.10.2019
5041 Clouds -8 1012 100 10000 4 240 18:39 30.10.2019
5042 Clouds -8 1012 100 10000 4 240 18:20 30.10.2019
5043 Clear -8 1012 100 10000 4 240 17:59 30.10.2019
5044 Clear -8 1012 100 10000 4 240 17:41 30.10.2019
5045 Clear -8 1012 100 10000 4 240 17:19 30.10.2019
5046 Clear -8 1012 100 10000 4 240 17:19 30.10.2019
5047 Clear -8 1012 100 10000 5 230 16:55 30.10.2019
5048 Clear -8 1012 100 10000 5 230 16:37 30.10.2019
5049 Clear -8 1012 100 10000 5 230 16:19 30.10.2019
5050 Clouds -8 1011 100 10000 5 230 15:56 30.10.2019
5051 Clouds -7 1011 92 10000 5 220 15:37 30.10.2019
5052 Clouds -7 1011 92 10000 5 220 15:19 30.10.2019
5053 Clouds -7 1011 92 10000 6 230 14:42 30.10.2019
5054 Clouds -7 1011 92 10000 5 220 14:22 30.10.2019
5055 Clouds -7 1011 92 10000 4 220 13:59 30.10.2019
5056 Clouds -7 1011 92 10000 4 220 13:40 30.10.2019
5057 Clouds -7 1011 92 10000 5 220 13:20 30.10.2019
5058 Clouds -6 1011 85 10000 4 210 12:57 30.10.2019
5059 Clouds -6 1011 79 10000 5 230 12:39 30.10.2019
5060 Clouds -6 1011 79 10000 5 230 12:21 30.10.2019
5061 Clouds -6 1011 79 10000 5 230 11:42 30.10.2019
5062 Clouds -6 1011 79 10000 5 220 11:23 30.10.2019
5063 Clouds -6 1011 79 10000 6 230 10:46 30.10.2019
5064 Clouds -6 1011 79 10000 6 220 10:27 30.10.2019
5065 Clouds -6 1011 79 10000 5 230 09:59 30.10.2019
5066 Clouds -6 1011 79 10000 6 220 09:40 30.10.2019
5067 Clouds -6 1011 79 10000 6 220 09:22 30.10.2019
5068 Clouds -5 1011 79 10000 6 230 08:42 30.10.2019
5069 Clouds -6 1011 79 10000 6 230 08:23 30.10.2019
5070 Clouds -6 1011 79 10000 6 240 07:59 30.10.2019
5071 Clouds -7 1011 85 10000 5 240 07:39 30.10.2019
5072 Clouds -7 1011 92 10000 7 240 06:46 30.10.2019
5073 Clouds -7 1011 92 10000 6 220 06:27 30.10.2019
5074 Clouds -7 1011 92 10000 6 230 05:54 30.10.2019
5075 Clouds -7 1011 100 10000 6 240 05:35 30.10.2019
5076 Clouds -8 1010 100 10000 7 240 03:50 30.10.2019
5077 Clouds -8 1010 100 10000 7 230 03:21 30.10.2019
5078 Clouds -8 1010 100 10000 7 230 02:48 30.10.2019
5079 Clouds -7 1011 100 10000 6 230 01:42 30.10.2019
5080 Clouds -6 1010 92 10000 6 220 00:36 30.10.2019
5081 Clouds -6 1010 92 10000 6 220 00:18 30.10.2019
5082 Clouds -6 1010 92 10000 6 220 23:38 29.10.2019
5083 Clouds -6 1010 92 10000 6 220 23:18 29.10.2019
5084 Clouds -6 1010 92 10000 6 230 22:41 29.10.2019
5085 Clouds -6 1010 92 10000 6 230 22:41 29.10.2019
5086 Clouds -6 1010 92 10000 6 230 22:19 29.10.2019
5087 Clouds -5 1010 85 10000 6 230 21:55 29.10.2019
5088 Clouds -5 1010 85 10000 6 230 21:36 29.10.2019
5089 Clouds -5 1010 85 10000 6 230 21:18 29.10.2019
5090 Clouds -5 1010 85 10000 5 240 20:42 29.10.2019
5091 Clouds -5 1010 79 10000 5 240 20:23 29.10.2019
5092 Clouds -5 1010 79 10000 7 250 19:59 29.10.2019
5093 Clouds -5 1009 79 10000 7 250 19:39 29.10.2019
5094 Clouds -5 1009 79 10000 7 250 19:20 29.10.2019
5095 Clouds -5 1009 79 10000 6 250 18:58 29.10.2019
5096 Clouds -5 1009 79 10000 8 260 18:39 29.10.2019
5097 Clouds -5 1009 79 10000 8 260 18:20 29.10.2019
5098 Clouds -6 1008 85 10000 9 270 17:57 29.10.2019
5099 Clouds -5 1008 79 10000 8 260 17:38 29.10.2019
5100 Clouds -5 1008 79 10000 8 260 17:20 29.10.2019
5101 Clouds -6 1008 85 10000 7 250 16:41 29.10.2019
5102 Clouds -6 1008 85 10000 8 250 16:23 29.10.2019
5103 Clouds -6 1007 85 10000 9 250 15:59 29.10.2019
5104 Clouds -6 1007 85 10000 9 250 15:41 29.10.2019
5105 Clouds -6 1007 79 10000 8 250 15:21 29.10.2019
5106 Clouds -6 1006 85 10000 10 250 14:57 29.10.2019
5107 Clouds -6 1006 85 10000 7 240 14:39 29.10.2019
5108 Clouds -6 1006 85 10000 7 240 14:20 29.10.2019
5109 Clouds -6 1006 79 10000 7 250 13:41 29.10.2019
5110 Clouds -6 1005 79 10000 8 250 13:23 29.10.2019
5111 Clouds -6 1004 79 10000 7 250 12:59 29.10.2019
5112 Clouds -6 1004 79 10000 7 250 12:41 29.10.2019
5113 Clouds -6 1004 79 10000 6 240 12:23 29.10.2019
5114 Clouds -5 1003 73 10000 6 250 11:43 29.10.2019
5115 Clouds -5 1003 73 10000 6 250 11:23 29.10.2019
5116 Clouds -6 1003 73 10000 6 260 10:59 29.10.2019
5117 Clouds -6 1003 73 10000 6 260 10:41 29.10.2019
5118 Clouds -6 1002 73 10000 7 270 10:20 29.10.2019
5119 Clouds -6 1001 73 10000 8 280 09:59 29.10.2019
5120 Clouds -6 1001 73 10000 8 280 09:41 29.10.2019
5121 Clouds -6 1001 73 10000 8 280 09:41 29.10.2019
5122 Clouds -6 1000 79 10000 7 260 09:22 29.10.2019
5123 Clouds -7 1000 85 10000 8 280 08:54 29.10.2019
5124 Clouds -7 999 85 10000 7 270 08:36 29.10.2019
5125 Clouds -7 999 85 10000 7 270 08:18 29.10.2019
5126 Clouds -7 998 85 10000 7 270 07:44 29.10.2019
5127 Clouds -9 998 92 10000 6 260 07:19 29.10.2019
5128 Clouds -10 997 92 10000 5 260 06:46 29.10.2019
5129 Snow -11 997 92 9000 5 280 06:26 29.10.2019
5130 Snow -12 996 92 5000 7 290 05:51 29.10.2019
5131 Snow -12 995 85 8000 7 290 05:30 29.10.2019
5132 Snow -11 993 85 9000 7 310 04:32 29.10.2019
5133 Snow -8 989 85 9000 7 340 02:33 29.10.2019
5134 Clouds -8 988 92 10000 6 350 01:49 29.10.2019
5135 Snow -8 987 92 10000 6 360 01:22 29.10.2019
5136 Snow -8 986 92 9000 6 360 00:48 29.10.2019
5137 Snow -7 984 92 2400 5 20 23:44 28.10.2019
5138 Snow -7 983 92 2800 5 20 23:21 28.10.2019
5139 Snow -7 983 92 1900 5 20 22:59 28.10.2019
5140 Snow -7 982 92 2600 5 40 22:39 28.10.2019
5141 Snow -7 982 92 2600 5 40 22:18 28.10.2019
5142 Snow -7 982 92 3200 5 40 21:56 28.10.2019
5143 Snow -7 981 92 2100 5 40 21:38 28.10.2019
5144 Snow -7 981 92 2100 5 40 21:20 28.10.2019
5145 Snow -7 981 92 10000 5 50 20:54 28.10.2019
5146 Snow -7 982 100 4900 6 60 20:36 28.10.2019
5147 Snow -7 982 100 4900 6 60 20:18 28.10.2019
5148 Snow -7 982 100 6000 5 60 19:40 28.10.2019
5149 Snow -7 982 100 4400 5 70 19:22 28.10.2019
5150 Snow -7 983 100 5000 5 70 18:59 28.10.2019
5151 Snow -7 983 100 5000 5 70 18:41 28.10.2019
5152 Snow -7 984 100 4100 4 70 18:22 28.10.2019
5153 Snow -7 984 100 4700 5 70 17:57 28.10.2019
5154 Snow -7 985 100 3400 4 70 17:39 28.10.2019
5155 Snow -7 985 100 3400 4 70 17:20 28.10.2019
5156 Snow -7 985 100 3500 5 60 16:58 28.10.2019
5157 Snow -6 985 100 3700 3 50 16:39 28.10.2019
5158 Snow -6 985 100 3700 3 50 16:21 28.10.2019
5159 Snow -6 986 100 2600 3 40 15:58 28.10.2019
5160 Snow -6 986 100 2600 3 40 15:40 28.10.2019
5161 Snow -6 986 100 3400 3 30 15:21 28.10.2019
5162 Snow -6 987 100 3300 2 20 14:57 28.10.2019
5163 Snow -6 987 100 2400 2 40 14:38 28.10.2019
5164 Snow -6 987 100 2400 2 40 14:18 28.10.2019
5165 Snow -6 987 100 2300 2 30 13:56 28.10.2019
5166 Snow -6 987 100 2300 2 30 13:56 28.10.2019
5167 Snow -6 987 92 2200 2 20 13:38 28.10.2019
5168 Snow -6 987 92 2200 2 20 13:18 28.10.2019
5169 Snow -5 987 85 10000 2 10 12:42 28.10.2019
5170 Snow -5 987 85 10000 3 360 12:20 28.10.2019
5171 Snow -5 987 85 10000 3 10 11:40 28.10.2019
5172 Snow -5 987 85 10000 3 10 11:22 28.10.2019
5173 Clouds -5 987 85 10000 4 360 10:58 28.10.2019
5174 Snow -5 987 92 10000 4 10 10:38 28.10.2019
5175 Snow -5 987 92 10000 4 10 10:20 28.10.2019
5176 Snow -5 986 92 10000 5 360 09:56 28.10.2019
5177 Snow -4 986 92 3100 4 360 09:37 28.10.2019
5178 Snow -4 986 92 3100 4 360 09:18 28.10.2019
5179 Snow -4 986 92 7000 4 20 08:56 28.10.2019
5180 Snow -4 985 100 4200 4 10 08:37 28.10.2019
5181 Snow -4 985 100 4200 4 10 08:18 28.10.2019
5182 Snow -4 985 100 5000 3 30 07:54 28.10.2019
5183 Snow -4 984 100 6000 4 40 07:36 28.10.2019
5184 Snow -4 984 100 6000 4 40 07:18 28.10.2019
5185 Snow -3 984 100 4800 4 30 06:39 28.10.2019
5186 Snow -3 983 100 2700 4 40 05:29 28.10.2019
5187 Snow -3 983 100 2300 3 50 03:44 28.10.2019
5188 Snow -2 983 100 3300 3 60 02:46 28.10.2019
5189 Snow -2 982 100 2300 4 80 01:52 28.10.2019
5190 Snow -2 982 100 6000 5 80 00:47 28.10.2019
5191 Snow -2 982 100 6000 5 80 00:47 28.10.2019
5192 Snow -2 983 100 3100 4 70 00:26 28.10.2019
5193 Snow -2 983 100 5000 3 70 23:45 27.10.2019
5194 Snow -2 983 100 4500 3 70 23:22 27.10.2019
5195 Snow -2 983 100 5000 3 70 22:57 27.10.2019
5196 Snow -2 983 100 3900 3 40 22:37 27.10.2019
5197 Snow -2 983 100 3900 3 40 22:19 27.10.2019
5198 Clouds -2 983 100 10000 4 40 21:56 27.10.2019
5199 Snow -1 983 100 10000 4 60 21:38 27.10.2019
5200 Snow -1 983 100 10000 4 60 21:20 27.10.2019
5201 Snow -1 983 100 10000 3 20 20:42 27.10.2019
5202 Clouds -1 983 100 10000 3 30 20:23 27.10.2019
5203 Clouds -1 984 100 10000 3 10 19:59 27.10.2019
5204 Clouds 0 983 95 10000 2 10 19:39 27.10.2019
5205 Clouds 0 983 95 10000 2 10 19:20 27.10.2019
5206 Clouds 0 983 95 10000 2 10 19:20 27.10.2019
5207 Clouds 0 984 95 10000 2 340 18:57 27.10.2019
5208 Clouds 0 984 95 10000 3 10 18:39 27.10.2019
5209 Clouds 0 984 95 10000 3 10 18:21 27.10.2019
5210 Clouds 0 984 95 10000 3 10 18:21 27.10.2019
5211 Clouds 1 984 100 10000 2 320 17:56 27.10.2019
5212 Rain 2 984 100 10000 4 310 17:37 27.10.2019
5213 Rain 2 984 100 10000 4 310 17:19 27.10.2019
5214 Clouds 3 984 100 10000 4 250 16:55 27.10.2019
5215 Clouds 3 983 100 10000 4 240 16:37 27.10.2019
5216 Clouds 3 983 100 10000 4 240 16:19 27.10.2019
5217 Clouds 3 983 100 10000 5 240 15:55 27.10.2019
5218 Clouds 3 983 100 10000 5 240 15:37 27.10.2019
5219 Clouds 3 983 100 10000 5 240 15:18 27.10.2019
5220 Clouds 4 983 100 10000 5 240 14:41 27.10.2019
5221 Rain 3 983 100 9000 6 250 14:20 27.10.2019
5222 Rain 4 983 100 9000 6 250 13:56 27.10.2019
5223 Rain 4 983 93 10000 7 250 13:37 27.10.2019
5224 Rain 4 983 93 10000 7 250 13:19 27.10.2019
5225 Rain 4 983 93 10000 7 250 13:19 27.10.2019
5226 Rain 4 983 93 10000 7 250 12:43 27.10.2019
5227 Clouds 4 982 93 10000 7 250 12:24 27.10.2019
5228 Clouds 4 982 100 10000 5 250 11:56 27.10.2019
5229 Clouds 4 982 93 10000 6 250 11:38 27.10.2019
5230 Clouds 4 982 93 10000 6 250 11:19 27.10.2019
5231 Clouds 5 982 93 10000 5 250 10:42 27.10.2019
5232 Clouds 5 982 93 10000 6 250 10:23 27.10.2019
5233 Clouds 5 981 100 10000 5 250 09:44 27.10.2019
5234 Clouds 4 981 100 10000 6 250 09:20 27.10.2019
5235 Clouds 4 981 100 10000 6 250 09:20 27.10.2019
5236 Rain 4 981 100 10000 6 240 08:59 27.10.2019
5237 Rain 4 981 100 10000 6 240 08:40 27.10.2019
5238 Clouds 4 981 100 10000 5 240 08:20 27.10.2019
5239 Rain 4 981 100 10000 6 240 07:50 27.10.2019
5240 Clouds 4 981 100 10000 6 240 07:29 27.10.2019
5241 Clouds 4 981 100 10000 6 230 06:56 27.10.2019
5242 Clouds 4 981 100 10000 6 240 06:37 27.10.2019
5243 Clouds 4 981 100 10000 6 240 06:18 27.10.2019
5244 Clouds 4 982 100 10000 6 240 05:38 27.10.2019
5245 Clouds 4 983 100 10000 6 240 04:35 27.10.2019
5246 Clouds 4 983 100 10000 7 240 02:42 27.10.2019
5247 Rain 3 984 100 9000 6 240 01:28 27.10.2019
5248 Clouds 3 984 100 10000 6 240 00:56 27.10.2019
5249 Clouds 3 984 100 10000 6 240 00:38 27.10.2019
5250 Rain 3 985 100 10000 7 230 23:59 26.10.2019
5251 Rain 3 985 100 10000 7 230 23:40 26.10.2019
5252 Rain 2 986 100 9000 5 220 23:22 26.10.2019
5253 Rain 2 986 100 9000 7 210 22:59 26.10.2019
5254 Rain 2 986 100 9000 7 210 22:39 26.10.2019
5255 Rain 2 987 100 8000 6 210 22:20 26.10.2019
5256 Snow 1 987 100 9000 5 200 21:59 26.10.2019
5257 Snow 1 987 100 9000 5 200 21:40 26.10.2019
5258 Snow 1 988 100 3900 6 190 21:19 26.10.2019
5259 Snow 1 989 100 2500 6 190 20:45 26.10.2019
5260 Snow 0 990 97 2900 6 180 20:20 26.10.2019
5261 Snow 0 991 97 3000 6 170 19:56 26.10.2019
5262 Snow 0 992 97 7000 7 180 19:38 26.10.2019
5263 Snow 0 992 97 7000 7 180 19:19 26.10.2019
5264 Snow -1 994 100 5000 7 170 18:55 26.10.2019
5265 Snow -2 995 100 1100 7 160 18:37 26.10.2019
5266 Snow -2 995 100 1100 7 160 18:18 26.10.2019
5267 Snow -2 995 100 1100 7 160 18:18 26.10.2019
5268 Snow -2 998 100 1000 6 150 17:39 26.10.2019
5269 Snow -2 998 100 1000 6 150 17:21 26.10.2019
5270 Snow -2 999 100 700 7 160 16:59 26.10.2019
5271 Snow -2 1000 100 2800 6 160 16:41 26.10.2019
5272 Snow -2 1000 100 2800 6 160 16:22 26.10.2019
5273 Snow -2 1001 100 3400 5 150 15:41 26.10.2019
5274 Clouds -1 1002 80 10000 5 160 15:19 26.10.2019
5275 Clouds -1 1004 74 10000 5 180 14:41 26.10.2019
5276 Clouds -2 1004 86 10000 4 180 14:22 26.10.2019
5277 Clouds -2 1005 79 10000 4 190 13:59 26.10.2019
5278 Clouds -2 1005 79 10000 4 190 13:40 26.10.2019
5279 Clouds -2 1006 79 10000 4 190 13:21 26.10.2019
5280 Clouds -4 1005 85 0 4.61 176 12:46 26.10.2019
5281 Clouds -2 1007 79 10000 4 210 12:23 26.10.2019
5282 Clouds -2 1007 79 10000 4 210 11:50 26.10.2019
5283 Clouds -2 1007 79 10000 4 210 11:29 26.10.2019
5284 Clouds -2 1007 79 10000 4 210 11:29 26.10.2019
5285 Clouds -2 1007 74 10000 4 230 10:54 26.10.2019
5286 Clouds -2 1008 79 10000 3 250 10:36 26.10.2019
5287 Clouds -2 1008 79 10000 3 250 10:18 26.10.2019
5288 Clouds -3 1008 86 10000 3 240 09:41 26.10.2019
5289 Clouds -4 1008 92 10000 4 240 09:23 26.10.2019
5290 Clouds -4 1008 92 10000 4 250 08:43 26.10.2019
5291 Clouds -4 1008 100 10000 4 260 08:25 26.10.2019
5292 Clouds -5 1008 100 10000 4 240 07:46 26.10.2019
5293 Clouds -5 1008 100 10000 3 250 07:28 26.10.2019
5294 Clouds -6 1008 100 10000 4 270 06:43 26.10.2019
5295 Clouds -7 1008 100 10000 5 280 06:24 26.10.2019
5296 Clouds -8 1008 100 10000 4 260 05:19 26.10.2019
5297 Clear -9 1008 100 10000 3 250 04:24 26.10.2019
5298 Clouds -8 1008 100 10000 4 260 02:46 26.10.2019
5299 Clouds -8 1007 100 10000 4 260 01:54 26.10.2019
5300 Clouds -8 1007 100 10000 3 260 01:22 26.10.2019
5301 Clouds -7 1008 100 10000 4 270 00:23 26.10.2019
5302 Clouds -7 1008 100 10000 3 280 23:43 25.10.2019
5303 Clouds -5 1007 85 10000 4 280 23:20 25.10.2019
5304 Clouds -4 1007 85 10000 4 290 22:40 25.10.2019
5305 Clouds -3 1007 73 10000 4 280 22:22 25.10.2019
5306 Clouds -3 1007 79 10000 4 290 21:58 25.10.2019
5307 Clouds -3 1007 79 10000 5 290 21:39 25.10.2019
5308 Clouds -3 1007 79 10000 5 290 21:19 25.10.2019
5309 Clouds -3 1007 79 10000 6 300 20:55 25.10.2019
5310 Clouds -2 1007 74 10000 5 290 20:37 25.10.2019
5311 Clouds -2 1007 74 10000 5 290 20:18 25.10.2019
5312 Clouds -2 1007 74 10000 5 280 19:41 25.10.2019
5313 Clouds -2 1007 74 10000 6 290 19:23 25.10.2019
5314 Clouds -2 1007 79 10000 6 300 18:44 25.10.2019
5315 Clouds -2 1007 79 10000 7 290 18:22 25.10.2019
5316 Clouds -2 1007 86 10000 7 280 17:41 25.10.2019
5317 Clouds -2 1007 86 10000 7 280 17:41 25.10.2019
5318 Clouds -2 1007 86 10000 7 270 17:21 25.10.2019
5319 Clouds -2 1007 92 10000 7 280 16:54 25.10.2019
5320 Clouds -2 1007 92 10000 7 280 16:54 25.10.2019
5321 Clouds -2 1007 92 10000 7 260 16:36 25.10.2019
5322 Clouds -2 1007 92 10000 7 260 16:18 25.10.2019
5323 Clouds -2 1007 92 10000 7 260 16:18 25.10.2019
5324 Clouds -2 1007 92 10000 6 260 15:40 25.10.2019
5325 Clouds -2 1007 86 10000 7 250 15:21 25.10.2019
5326 Clouds -2 1007 86 10000 6 250 14:57 25.10.2019
5327 Clouds -2 1007 86 10000 5 250 14:39 25.10.2019
5328 Clouds -2 1007 86 10000 5 250 14:20 25.10.2019
5329 Clouds -2 1007 86 10000 5 240 13:41 25.10.2019
5330 Clouds -2 1007 86 10000 6 250 13:23 25.10.2019
5331 Clouds -2 1007 86 10000 4 240 12:55 25.10.2019
5332 Clouds -2 1007 86 10000 4 250 12:37 25.10.2019
5333 Clouds -2 1007 86 10000 4 250 12:37 25.10.2019
5334 Clouds -2 1007 86 10000 4 250 12:19 25.10.2019
5335 Clouds -2 1007 86 10000 7 270 11:40 25.10.2019
5336 Clouds -2 1007 86 10000 6 270 11:22 25.10.2019
5337 Clouds -2 1007 86 10000 7 260 10:57 25.10.2019
5338 Clouds -3 1007 92 10000 6 250 10:38 25.10.2019
5339 Clouds -3 1007 92 10000 6 250 10:19 25.10.2019
5340 Clouds -3 1007 92 10000 6 250 09:42 25.10.2019
5341 Clouds -3 1007 100 10000 6 260 09:21 25.10.2019
5342 Clouds -3 1007 100 10000 5 250 08:59 25.10.2019
5343 Clouds -3 1007 100 10000 5 250 08:41 25.10.2019
5344 Clouds -3 1006 92 10000 7 250 08:22 25.10.2019
5345 Clouds -4 1007 92 10000 5 240 07:47 25.10.2019
5346 Clouds -4 1006 92 10000 4 260 07:28 25.10.2019
5347 Clouds -5 1006 100 10000 5 270 06:38 25.10.2019
5348 Clouds -6 1006 100 10000 6 280 05:49 25.10.2019
5349 Clouds -6 1006 100 10000 6 280 05:30 25.10.2019
5350 Clouds -7 1006 100 10000 5 280 04:36 25.10.2019
5351 Clouds -7 1005 100 10000 5 280 02:42 25.10.2019
5352 Clouds -7 1005 100 10000 5 280 01:52 25.10.2019
5353 Clouds -5 1004 100 10000 5 280 00:36 25.10.2019
5354 Clouds -5 1004 100 10000 5 280 23:55 24.10.2019
5355 Clouds -5 1004 100 10000 5 280 23:36 24.10.2019
5356 Clouds -5 1004 100 10000 5 280 23:18 24.10.2019
5357 Clouds -4 1003 92 10000 5 270 22:39 24.10.2019
5358 Clouds -4 1003 92 10000 5 270 22:19 24.10.2019
5359 Clouds -4 1003 92 10000 6 280 21:58 24.10.2019
5360 Clouds -4 1003 92 10000 6 280 21:40 24.10.2019
5361 Clouds -3 1003 86 10000 6 280 21:20 24.10.2019
5362 Clouds -3 1003 86 10000 6 280 20:59 24.10.2019
5363 Clouds -3 1003 86 10000 7 280 20:39 24.10.2019
5364 Clouds -3 1003 86 10000 7 280 20:21 24.10.2019
5365 Clouds -2 1003 79 10000 7 280 19:57 24.10.2019
5366 Clouds -2 1002 79 10000 7 280 19:38 24.10.2019
5367 Clouds -2 1002 79 10000 7 280 19:20 24.10.2019
5368 Clouds -2 1002 79 10000 7 280 18:56 24.10.2019
5369 Clouds -2 1002 79 10000 7 280 18:38 24.10.2019
5370 Clouds -2 1002 79 10000 7 280 18:18 24.10.2019
5371 Clouds -1 1002 80 10000 8 280 17:42 24.10.2019
5372 Clouds -1 1001 74 10000 8 280 17:20 24.10.2019
5373 Clouds -1 1001 74 10000 8 280 16:58 24.10.2019
5374 Clouds -1 1001 74 10000 8 280 16:39 24.10.2019
5375 Clouds -1 1001 74 10000 8 280 16:21 24.10.2019
5376 Clouds -1 1000 74 10000 8 280 15:58 24.10.2019
5377 Clouds -1 1000 74 10000 7 280 15:40 24.10.2019
5378 Clouds -1 1000 74 10000 7 280 15:21 24.10.2019
5379 Clouds -1 1000 74 10000 7 280 14:57 24.10.2019
5380 Clouds -1 999 74 10000 8 290 14:38 24.10.2019
5381 Clouds -1 999 74 10000 8 290 14:19 24.10.2019
5382 Clouds -1 999 68 10000 7 290 13:40 24.10.2019
5383 Clouds -1 998 68 10000 9 290 13:19 24.10.2019
5384 Snow -1 997 74 10000 9 290 12:57 24.10.2019
5385 Snow -1 997 74 10000 9 290 12:57 24.10.2019
5386 Snow -1 997 74 10000 8 290 12:39 24.10.2019
5387 Snow -1 997 74 10000 8 290 12:19 24.10.2019
5388 Snow -1 996 74 10000 9 300 11:56 24.10.2019
5389 Snow -1 996 74 10000 9 300 11:56 24.10.2019
5390 Snow -1 996 80 10000 8 290 11:37 24.10.2019
5391 Snow -1 996 80 10000 8 290 11:19 24.10.2019
5392 Clouds -1 995 80 10000 9 290 10:55 24.10.2019
5393 Clouds -1 994 86 10000 8 290 10:36 24.10.2019
5394 Clouds -1 994 86 10000 8 290 10:18 24.10.2019
5395 Snow 0 993 83 10000 10 290 09:38 24.10.2019
5396 Snow 0 993 94 10000 10 290 09:18 24.10.2019
5397 Snow 0 992 94 10000 8 290 08:44 24.10.2019
5398 Snow 0 991 94 9000 8 280 08:20 24.10.2019
5399 Snow 0 991 94 6000 8 280 07:56 24.10.2019
5400 Snow 1 990 100 10000 7 270 07:38 24.10.2019
5401 Snow 1 990 100 10000 7 270 07:20 24.10.2019
5402 Snow 0 990 94 10000 5 240 06:39 24.10.2019
5403 Snow 0 990 98 5000 5 240 05:57 24.10.2019
5404 Snow 0 990 98 2200 4 230 05:39 24.10.2019
5405 Snow 0 990 98 2400 4 230 04:49 24.10.2019
5406 Snow -1 990 100 9000 5 210 03:36 24.10.2019
5407 Snow -1 990 100 9000 5 210 02:51 24.10.2019
5408 Clouds -1 991 100 10000 5 200 02:22 24.10.2019
5409 Snow -1 991 100 1500 6 190 01:33 24.10.2019
5410 Snow -1 992 100 1200 6 190 00:57 24.10.2019
5411 Snow -1 992 100 1300 6 180 00:37 24.10.2019
5412 Snow -1 992 100 1300 6 180 00:18 24.10.2019
5413 Snow -1 993 100 1000 6 180 23:42 23.10.2019
5414 Snow -1 994 100 1200 6 180 23:21 23.10.2019
5415 Snow -1 995 100 1300 6 180 22:57 23.10.2019
5416 Snow -1 995 100 1300 6 180 22:57 23.10.2019
5417 Snow -1 995 100 1300 6 180 22:57 23.10.2019
5418 Clouds -1 996 86 10000 7 190 22:37 23.10.2019
5419 Clouds -1 996 86 10000 7 190 22:18 23.10.2019
5420 Clouds -1 996 86 10000 7 190 22:18 23.10.2019
5421 Clouds -1 996 86 10000 7 190 22:18 23.10.2019
5422 Clouds -1 996 86 10000 7 180 21:57 23.10.2019
5423 Clouds -1 997 86 10000 6 180 21:37 23.10.2019
5424 Clouds -1 997 86 10000 6 180 21:19 23.10.2019
5425 Clouds -1 998 80 10000 6 190 20:55 23.10.2019
5426 Clouds -1 999 80 10000 5 190 20:36 23.10.2019
5427 Clouds -1 999 80 10000 5 190 20:18 23.10.2019
5428 Clouds -1 1000 74 10000 4 190 19:44 23.10.2019
5429 Clouds -1 1000 74 10000 4 190 19:44 23.10.2019
5430 Clouds -1 1001 80 10000 5 220 19:20 23.10.2019
5431 Snow -1 1001 86 10000 6 210 18:59 23.10.2019
5432 Clouds -1 1001 100 10000 5 200 18:39 23.10.2019
5433 Clouds -1 1001 100 10000 5 200 18:19 23.10.2019
5434 Clouds -1 1002 100 10000 4 210 17:57 23.10.2019
5435 Clouds -1 1002 100 10000 3 210 17:39 23.10.2019
5436 Clouds -1 1002 100 10000 3 210 17:18 23.10.2019
5437 Clouds -1 1003 100 10000 3 200 16:41 23.10.2019
5438 Clouds -1 1003 86 10000 3 200 16:21 23.10.2019
5439 Clouds -1 1003 86 10000 4 220 15:57 23.10.2019
5440 Clouds -1 1003 86 10000 4 220 15:57 23.10.2019
5441 Clouds -1 1004 86 10000 3 230 15:39 23.10.2019
5442 Clouds -1 1004 86 10000 3 230 15:21 23.10.2019
5443 Clouds -1 1004 80 10000 3 220 14:56 23.10.2019
5444 Clouds -1 1004 80 10000 5 250 14:37 23.10.2019
5445 Clouds -1 1004 80 10000 5 250 14:19 23.10.2019
5446 Clouds -1 1005 80 10000 5 260 13:43 23.10.2019
5447 Clouds -1 1005 80 10000 5 260 13:43 23.10.2019
5448 Clouds 0 1005 86 10000 7 250 13:25 23.10.2019
5449 Clouds 0 1005 86 10000 6 260 12:57 23.10.2019
5450 Clouds 0 1005 86 10000 5 260 12:39 23.10.2019
5451 Clouds 0 1005 88 10000 5 260 12:19 23.10.2019
5452 Clouds 0 1005 88 10000 6 260 11:58 23.10.2019
5453 Clouds 0 1005 88 10000 5 280 11:39 23.10.2019
5454 Clouds 0 1005 88 10000 5 280 11:21 23.10.2019
5455 Snow 0 1004 88 9000 4 250 10:56 23.10.2019
5456 Snow 0 1004 88 1600 4 250 10:38 23.10.2019
5457 Snow 0 1004 88 1600 4 250 10:18 23.10.2019
5458 Clouds 0 1004 89 10000 6 270 09:40 23.10.2019
5459 Clouds 0 1004 90 10000 7 280 09:22 23.10.2019
5460 Snow 0 1004 90 8000 7 280 08:54 23.10.2019
5461 Clouds 1 1004 86 10000 5 290 08:36 23.10.2019
5462 Clouds 1 1004 86 10000 5 290 08:18 23.10.2019
5463 Clouds 0 1004 90 10000 6 290 07:41 23.10.2019
5464 Clouds 1 1004 86 10000 6 290 07:19 23.10.2019
5465 Snow 1 1003 100 10000 6 260 06:41 23.10.2019
5466 Snow 1 1003 100 10000 6 260 06:19 23.10.2019
5467 Snow 1 1003 100 7000 5 260 05:20 23.10.2019
5468 Clouds 1 1002 100 10000 6 270 03:47 23.10.2019
5469 Rain 1 1001 100 9000 6 260 02:43 23.10.2019
5470 Clouds 1 1001 100 10000 6 250 01:40 23.10.2019
5471 Clouds 1 1001 100 10000 6 250 01:40 23.10.2019
5472 Clouds 1 1000 100 10000 6 250 01:18 23.10.2019
5473 Rain 1 1000 100 10000 6 250 00:34 23.10.2019
5474 Rain 2 1000 100 9000 6 240 23:55 22.10.2019
5475 Rain 2 1000 100 3700 5 230 23:37 22.10.2019
5476 Rain 2 1000 100 3700 5 230 23:18 22.10.2019
5477 Rain 2 1000 100 3700 5 230 23:18 22.10.2019
5478 Rain 2 999 100 9000 5 230 22:41 22.10.2019
5479 Rain 1 999 100 6000 5 210 22:23 22.10.2019
5480 Drizzle 1 999 100 5000 5 200 21:57 22.10.2019
5481 Rain 1 1000 100 4100 5 200 21:39 22.10.2019
5482 Rain 1 1000 100 4100 5 200 21:19 22.10.2019
5483 Rain 1 1000 100 2600 5 200 20:58 22.10.2019
5484 Rain 1 1000 100 2600 5 200 20:40 22.10.2019
5485 Rain 1 1000 100 5000 5 190 20:22 22.10.2019
5486 Rain 1 1000 100 5000 5 190 20:22 22.10.2019
5487 Rain 1 1000 100 8000 5 190 19:59 22.10.2019
5488 Rain 1 1000 100 8000 5 190 19:40 22.10.2019
5489 Rain 1 1000 100 5000 6 190 19:22 22.10.2019
5490 Snow 1 1000 100 2700 5 190 18:56 22.10.2019
5491 Snow 1 1001 100 6000 7 190 18:37 22.10.2019
5492 Snow 1 1001 100 6000 7 190 18:19 22.10.2019
5493 Snow 0 1001 97 9000 6 190 17:55 22.10.2019
5494 Snow 0 1001 97 2700 7 180 17:36 22.10.2019
5495 Snow 0 1001 97 2700 7 180 17:18 22.10.2019
5496 Snow 0 1002 97 1200 7 180 16:39 22.10.2019
5497 Snow 0 1002 97 1200 7 180 16:20 22.10.2019
5498 Snow 0 1002 97 1200 7 180 16:20 22.10.2019
5499 Snow 0 1002 97 2300 6 170 15:59 22.10.2019
5500 Snow 0 1002 97 2300 6 170 15:41 22.10.2019
5501 Snow 0 1003 96 1000 6 160 15:19 22.10.2019
5502 Snow 0 1003 96 1200 6 160 14:46 22.10.2019
5503 Snow 0 1004 97 4500 7 160 14:22 22.10.2019
5504 Snow 0 1004 97 2900 6 170 13:56 22.10.2019
5505 Snow 0 1004 97 2800 6 170 13:37 22.10.2019
5506 Snow 0 1004 97 2800 6 170 13:18 22.10.2019
5507 Snow 0 1005 97 8000 7 170 12:54 22.10.2019
5508 Clouds 0 1006 97 10000 6 170 12:36 22.10.2019
5509 Clouds 0 1006 89 10000 6 170 12:18 22.10.2019
5510 Clouds 0 1007 89 10000 7 170 11:40 22.10.2019
5511 Clouds 0 1007 89 10000 7 170 11:22 22.10.2019
5512 Clouds 0 1008 89 10000 6 170 10:58 22.10.2019
5513 Clouds 0 1009 89 10000 7 170 10:37 22.10.2019
5514 Clouds 0 1009 89 10000 7 170 10:19 22.10.2019
5515 Clouds -1 1010 100 10000 6 160 09:56 22.10.2019
5516 Clouds -1 1011 100 10000 6 170 09:37 22.10.2019
5517 Clouds -1 1011 100 10000 6 170 09:37 22.10.2019
5518 Clouds -1 1011 100 10000 6 170 09:19 22.10.2019
5519 Clouds -1 1011 100 10000 6 170 08:43 22.10.2019
5520 Clouds -1 1012 100 10000 6 170 08:22 22.10.2019
5521 Clouds -1 1012 100 10000 5 160 07:50 22.10.2019
5522 Clouds -2 1014 100 10000 4 170 07:30 22.10.2019
5523 Clouds -2 1014 100 10000 4 170 06:52 22.10.2019
5524 Clouds -2 1015 100 10000 5 180 06:32 22.10.2019
5525 Clouds -2 1015 100 10000 4 180 05:59 22.10.2019
5526 Clouds -2 1015 100 10000 5 160 05:24 22.10.2019
5527 Clouds -3 1017 100 10000 4 160 03:19 22.10.2019
5528 Clouds -3 1018 100 10000 3 190 02:28 22.10.2019
5529 Clouds -3 1018 100 10000 2 190 01:31 22.10.2019
5530 Clouds -3 1018 100 10000 2 190 00:58 22.10.2019
5531 Clouds -3 1018 100 10000 1 0 00:40 22.10.2019
5532 Clouds -3 1018 100 10000 1 0 00:21 22.10.2019
5533 Clouds -3 1018 100 10000 1 170 23:55 21.10.2019
5534 Clouds -3 1019 100 10000 2 190 23:37 21.10.2019
5535 Clouds -3 1019 100 10000 2 190 23:18 21.10.2019
5536 Clouds -3 1019 100 10000 2 190 23:18 21.10.2019
5537 Clouds -3 1019 100 10000 1 0 22:56 21.10.2019
5538 Clouds -3 1019 100 10000 1 0 22:56 21.10.2019
5539 Clouds -3 1019 100 10000 1 0 22:37 21.10.2019
5540 Clouds -3 1019 100 10000 1 0 22:19 21.10.2019
5541 Clouds -3 1019 100 10000 2.23 200 21:54 21.10.2019
5542 Clouds -3 1019 100 10000 2.23 200 21:54 21.10.2019
5543 Clouds -3 1019 100 10000 2.23 200 21:54 21.10.2019
5544 Clouds -3 1019 100 10000 1 0 21:36 21.10.2019
5545 Clouds -3 1019 100 10000 1 0 21:36 21.10.2019
5546 Clouds -3 1019 100 10000 1 0 21:18 21.10.2019
5547 Clouds -3 1019 100 10000 2 240 20:41 21.10.2019
5548 Clouds -3 1020 100 10000 2 240 20:21 21.10.2019
5549 Clouds -3 1020 100 10000 2 240 19:59 21.10.2019
5550 Clouds -3 1020 100 10000 2 240 19:41 21.10.2019
5551 Clouds -3 1020 100 10000 2 240 19:22 21.10.2019
5552 Clouds -3 1020 100 10000 2 240 18:56 21.10.2019
5553 Clouds -3 1020 100 10000 2 230 18:38 21.10.2019
5554 Clouds -3 1020 100 10000 2 230 18:19 21.10.2019
5555 Clouds -3 1020 100 10000 2 240 17:57 21.10.2019
5556 Clouds -3 1020 100 10000 3 240 17:38 21.10.2019
5557 Clouds -3 1020 100 10000 3 240 17:18 21.10.2019
5558 Snow -3 1020 100 10000 2 240 16:56 21.10.2019
5559 Snow -3 1020 100 10000 3 230 16:38 21.10.2019
5560 Snow -3 1020 100 10000 3 230 16:20 21.10.2019
5561 Snow -3 1020 100 10000 3 230 16:20 21.10.2019
5562 Snow -3 1020 100 9000 3 230 15:46 21.10.2019
5563 Snow -3 1020 100 9000 3 230 15:25 21.10.2019
5564 Snow -3 1020 100 6000 3 230 14:58 21.10.2019
5565 Snow -3 1020 100 3800 3 230 14:39 21.10.2019
5566 Snow -3 1020 100 3800 3 230 14:20 21.10.2019
5567 Snow -3 1019 100 1400 3 230 13:56 21.10.2019
5568 Snow -3 1019 100 1600 4 230 13:38 21.10.2019
5569 Snow -3 1019 100 1600 4 230 13:19 21.10.2019
5570 Snow -3 1019 100 2000 4 230 12:41 21.10.2019
5571 Snow -3 1019 100 1900 4 220 12:22 21.10.2019
5572 Snow -3 1019 100 1700 4 220 11:57 21.10.2019
5573 Snow -3 1019 100 1700 4 220 11:38 21.10.2019
5574 Snow -3 1019 100 1700 4 220 11:20 21.10.2019
5575 Snow -3 1019 100 3200 4 220 10:56 21.10.2019
5576 Snow -3 1019 100 4900 5 230 10:38 21.10.2019
5577 Snow -3 1019 100 4900 5 230 10:18 21.10.2019
5578 Snow -3 1019 100 1900 4 230 09:44 21.10.2019
5579 Snow -3 1019 92 2800 5 210 09:26 21.10.2019
5580 Snow -3 1018 100 1900 5 220 08:56 21.10.2019
5581 Snow -4 1018 100 2000 5 220 08:37 21.10.2019
5582 Snow -4 1018 100 2000 5 220 08:18 21.10.2019
5583 Snow -3 1018 79 5000 4 220 07:38 21.10.2019
5584 Snow -3 1018 79 5000 4 220 07:20 21.10.2019
5585 Clouds -3 1019 79 10000 5 220 06:54 21.10.2019
5586 Clouds -4 1019 79 10000 5 210 06:36 21.10.2019
5587 Clouds -4 1019 79 10000 5 220 05:55 21.10.2019
5588 Clouds -4 1019 73 10000 6 210 04:45 21.10.2019
5589 Clear -5 1019 79 10000 5 210 03:26 21.10.2019
5590 Clear -4 1019 68 10000 7 220 02:23 21.10.2019
5591 Clear -4 1020 68 10000 6 220 01:57 21.10.2019
5592 Clear -4 1020 68 10000 6 220 01:23 21.10.2019
5593 Clear -4 1020 68 10000 6 220 00:47 21.10.2019
5594 Clear -4 1020 68 10000 6 210 00:25 21.10.2019
5595 Clear -4 1020 68 10000 6 210 23:42 20.10.2019
5596 Clear -4 1021 68 10000 7 210 23:22 20.10.2019
5597 Clear -4 1021 68 10000 6 210 22:56 20.10.2019
5598 Clear -4 1021 68 10000 6 210 22:37 20.10.2019
5599 Clear -4 1021 68 10000 6 210 22:18 20.10.2019
5600 Clear -4 1022 68 10000 6 210 21:57 20.10.2019
5601 Clear -4 1022 68 10000 6 210 21:57 20.10.2019
5602 Clear -4 1022 68 10000 7 210 21:38 20.10.2019
5603 Clear -4 1022 68 10000 7 210 21:20 20.10.2019
5604 Clear -4 1023 68 10000 7 220 20:41 20.10.2019
5605 Clear -4 1023 68 10000 7 200 20:19 20.10.2019
5606 Clear -4 1023 68 10000 6 210 19:57 20.10.2019
5607 Clear -4 1023 68 10000 6 210 19:57 20.10.2019
5608 Clear -4 1024 73 10000 6 210 19:38 20.10.2019
5609 Clear -4 1024 73 10000 6 210 19:20 20.10.2019
5610 Clear -4 1024 73 10000 6 210 18:55 20.10.2019
5611 Clear -4 1025 73 10000 6 210 18:37 20.10.2019
5612 Clear -4 1025 73 10000 6 210 18:19 20.10.2019
5613 Clear -4 1025 73 10000 6 210 17:43 20.10.2019
5614 Clear -4 1025 73 10000 6 210 17:24 20.10.2019
5615 Clear -3 1026 68 10000 6 200 16:59 20.10.2019
5616 Clear -3 1026 68 10000 6 200 16:41 20.10.2019
5617 Clear -3 1026 68 10000 6 200 16:22 20.10.2019
5618 Clear -3 1027 68 10000 5 200 15:57 20.10.2019
5619 Clear -3 1027 68 10000 6 200 15:38 20.10.2019
5620 Clear -3 1027 68 10000 6 200 15:19 20.10.2019
5621 Clear -3 1027 68 10000 5 200 14:56 20.10.2019
5622 Clear -3 1028 68 10000 5 210 14:37 20.10.2019
5623 Clear -3 1028 68 10000 5 210 14:18 20.10.2019
5624 Clear -3 1028 68 10000 5 210 13:55 20.10.2019
5625 Clear -2 1028 63 10000 5 210 13:36 20.10.2019
5626 Clear -2 1028 63 10000 5 210 13:18 20.10.2019
5627 Clear -2 1028 63 10000 6 220 12:55 20.10.2019
5628 Clear -2 1029 63 10000 5 220 12:36 20.10.2019
5629 Clear -2 1029 63 10000 5 220 12:18 20.10.2019
5630 Clear -2 1029 63 10000 6 220 11:41 20.10.2019
5631 Clear -2 1029 63 10000 6 230 11:23 20.10.2019
5632 Clear -2 1029 63 10000 5 220 10:59 20.10.2019
5633 Clear -2 1029 63 10000 6 230 10:39 20.10.2019
5634 Clear -2 1029 63 10000 6 230 10:21 20.10.2019
5635 Clouds -3 1030 68 10000 5 230 09:56 20.10.2019
5636 Clouds -3 1030 68 10000 6 220 09:38 20.10.2019
5637 Clouds -3 1030 68 10000 6 220 09:19 20.10.2019
5638 Clouds -4 1030 68 10000 5 240 08:43 20.10.2019
5639 Clouds -4 1031 73 10000 5 250 08:22 20.10.2019
5640 Clouds -4 1031 73 10000 5 260 07:49 20.10.2019
5641 Clouds -4 1031 68 10000 4 250 07:28 20.10.2019
5642 Clouds -5 1031 73 10000 5 260 06:31 20.10.2019
5643 Clouds -4 1031 73 10000 4 250 04:41 20.10.2019
5644 Clouds -4 1031 73 10000 4 280 03:53 20.10.2019
5645 Clouds -4 1031 73 10000 5 280 03:23 20.10.2019
5646 Clouds -4 1031 73 10000 4 320 02:55 20.10.2019
5647 Clouds -4 1031 73 10000 3 290 02:26 20.10.2019
5648 Clouds -4 1031 73 10000 3 310 01:53 20.10.2019
5649 Clouds -4 1031 73 10000 3 300 01:22 20.10.2019
5650 Clouds -4 1031 73 10000 5 300 00:49 20.10.2019
5651 Clouds -4 1031 79 10000 3 300 00:21 20.10.2019
5652 Clouds -4 1031 79 10000 3 300 00:21 20.10.2019
5653 Clouds -4 1030 73 10000 4 310 23:55 19.10.2019
5654 Clouds -4 1030 73 10000 3 350 23:36 19.10.2019
5655 Clouds -4 1030 73 10000 3 350 23:18 19.10.2019
5656 Clouds -4 1030 73 10000 4 330 22:41 19.10.2019
5657 Clouds -4 1030 73 10000 4 330 22:22 19.10.2019
5658 Clouds -3 1030 68 10000 4 320 21:58 19.10.2019
5659 Clouds -3 1030 68 10000 4 310 21:39 19.10.2019
5660 Clouds -3 1030 68 10000 4 310 21:20 19.10.2019
5661 Clouds -3 1030 68 10000 4 320 20:43 19.10.2019
5662 Clouds -3 1030 73 10000 4 320 20:21 19.10.2019
5663 Clouds -3 1029 68 10000 4 330 19:45 19.10.2019
5664 Clouds -3 1029 68 10000 3 340 19:27 19.10.2019
5665 Clouds -3 1029 68 10000 3 330 18:59 19.10.2019
5666 Clouds -3 1029 68 10000 4 340 18:41 19.10.2019
5667 Clouds -3 1029 68 10000 4 340 18:21 19.10.2019
5668 Clouds -3 1029 68 10000 4 360 17:41 19.10.2019
5669 Clouds -3 1029 73 10000 5 330 17:23 19.10.2019
5670 Clouds -3 1028 73 10000 4 340 16:57 19.10.2019
5671 Clouds -3 1028 79 10000 5 330 16:38 19.10.2019
5672 Clouds -3 1028 79 10000 5 330 16:19 19.10.2019
5673 Clouds -3 1028 68 10000 5 350 15:43 19.10.2019
5674 Clouds -3 1028 68 10000 5 350 15:25 19.10.2019
5675 Clouds -4 1027 73 10000 3 340 14:40 19.10.2019
5676 Clouds -4 1027 73 10000 3 340 14:40 19.10.2019
5677 Clouds -4 1027 73 10000 3 340 14:40 19.10.2019
5678 Clouds -4 1027 73 10000 3 340 14:40 19.10.2019
5679 Clouds -4 1027 73 10000 3 340 14:21 19.10.2019
5680 Clear -4 1027 73 10000 3 350 13:59 19.10.2019
5681 Clear -4 1027 73 10000 3 350 13:40 19.10.2019
5682 Clear -4 1027 73 10000 4 340 13:20 19.10.2019
5683 Clouds -4 1027 73 10000 4 350 12:58 19.10.2019
5684 Clouds -4 1026 73 10000 5 350 12:38 19.10.2019
5685 Clouds -4 1026 73 10000 5 350 12:19 19.10.2019
5686 Clouds -4 1026 73 10000 5 350 11:41 19.10.2019
5687 Clouds -4 1026 73 10000 5 350 11:23 19.10.2019
5688 Clouds -4 1026 73 10000 5 350 10:58 19.10.2019
5689 Clouds -4 1025 73 10000 5 340 10:39 19.10.2019
5690 Clouds -4 1025 73 10000 5 340 10:21 19.10.2019
5691 Clouds -4 1025 73 10000 5 360 09:44 19.10.2019
5692 Clouds -4 1025 73 10000 5 360 09:26 19.10.2019
5693 Clouds -4 1024 73 10000 6 340 08:59 19.10.2019
5694 Clouds -4 1024 73 10000 6 340 08:59 19.10.2019
5695 Clouds -4 1024 73 10000 6 340 08:40 19.10.2019
5696 Clouds -4 1024 73 10000 6 340 08:40 19.10.2019
5697 Clouds -4 1024 73 10000 6 340 08:21 19.10.2019
5698 Clouds -4 1024 73 10000 6 340 07:44 19.10.2019
5699 Clouds -4 1024 73 10000 6 340 07:25 19.10.2019
5700 Clouds -3 1023 68 10000 7 330 06:47 19.10.2019
5701 Clouds -3 1023 68 10000 7 330 06:26 19.10.2019
5702 Clouds -3 1023 68 10000 7 330 06:26 19.10.2019
5703 Clouds -3 1022 73 10000 6 320 05:34 19.10.2019
5704 Clouds -4 1021 85 10000 4 300 04:24 19.10.2019
5705 Clouds -4 1021 85 10000 6 300 02:47 19.10.2019
5706 Snow -4 1021 79 10000 6 300 01:53 19.10.2019
5707 Snow -4 1021 79 10000 6 300 01:25 19.10.2019
5708 Snow -4 1021 85 10000 6 300 00:48 19.10.2019
5709 Snow -4 1021 85 10000 5 310 00:27 19.10.2019
5710 Snow -4 1020 85 10000 5 300 23:45 18.10.2019
5711 Snow -5 1020 85 10000 6 300 23:27 18.10.2019
5712 Snow -5 1020 85 10000 6 290 22:58 18.10.2019
5713 Snow -5 1020 85 10000 6 290 22:40 18.10.2019
5714 Snow -5 1020 85 10000 5 290 22:20 18.10.2019
5715 Snow -5 1020 85 10000 5 290 21:59 18.10.2019
5716 Snow -5 1020 79 10000 5 290 21:39 18.10.2019
5717 Snow -5 1020 79 10000 5 290 21:20 18.10.2019
5718 Snow -5 1020 79 10000 5 290 20:56 18.10.2019
5719 Snow -5 1020 79 10000 5 290 20:56 18.10.2019
5720 Snow -5 1020 73 10000 4 290 20:38 18.10.2019
5721 Snow -5 1020 73 10000 4 290 20:20 18.10.2019
5722 Snow -5 1020 73 10000 4 290 20:20 18.10.2019
5723 Snow -5 1020 73 10000 3 290 19:57 18.10.2019
5724 Snow -5 1020 73 10000 3 300 19:38 18.10.2019
5725 Snow -5 1020 73 10000 3 300 19:20 18.10.2019
5726 Snow -5 1020 67 10000 2 300 18:55 18.10.2019
5727 Snow -5 1020 73 10000 4 340 18:37 18.10.2019
5728 Snow -5 1020 73 10000 4 340 18:19 18.10.2019
5729 Snow -6 1020 79 10000 4 350 17:39 18.10.2019
5730 Snow -6 1020 79 10000 4 350 17:20 18.10.2019
5731 Clouds -6 1020 79 10000 4 340 16:56 18.10.2019
5732 Clouds -6 1020 73 10000 5 340 16:37 18.10.2019
5733 Clouds -6 1020 73 10000 5 340 16:19 18.10.2019
5734 Clouds -6 1020 73 10000 5 340 16:19 18.10.2019
5735 Clouds -6 1020 79 10000 5 350 15:40 18.10.2019
5736 Clouds -6 1020 73 10000 5 330 15:21 18.10.2019
5737 Clouds -6 1019 73 10000 5 330 14:58 18.10.2019
5738 Clouds -6 1019 73 10000 5 330 14:58 18.10.2019
5739 Clouds -6 1019 73 10000 4 320 14:40 18.10.2019
5740 Clouds -6 1019 73 10000 4 320 14:22 18.10.2019
5741 Clouds -6 1019 73 10000 5 320 13:59 18.10.2019
5742 Clouds -6 1019 73 10000 5 320 13:40 18.10.2019
5743 Clouds -6 1019 73 10000 5 330 13:22 18.10.2019
5744 Clouds -6 1019 73 10000 5 330 12:56 18.10.2019
5745 Clouds -7 1019 79 10000 5 340 12:38 18.10.2019
5746 Clouds -7 1019 79 10000 5 340 12:38 18.10.2019
5747 Clouds -7 1019 79 10000 5 340 12:20 18.10.2019
5748 Clouds -7 1019 79 10000 5 340 12:20 18.10.2019
5749 Clouds -6 1018 73 10000 6 330 11:55 18.10.2019
5750 Clouds -5 1018 73 10000 6 340 11:37 18.10.2019
5751 Clouds -5 1018 73 10000 6 340 11:18 18.10.2019
5752 Clouds -4 1018 62 10000 7 310 10:42 18.10.2019
5753 Clear -4 1017 68 10000 5 340 10:22 18.10.2019
5754 Clouds -4 1017 62 10000 5 340 09:58 18.10.2019
5755 Clouds -4 1017 62 10000 5 340 09:40 18.10.2019
5756 Clouds -4 1017 62 10000 5 330 09:20 18.10.2019
5757 Clear -4 1017 68 10000 4 330 08:57 18.10.2019
5758 Clouds -4 1017 68 10000 5 340 08:38 18.10.2019
5759 Clouds -4 1017 68 10000 5 340 08:20 18.10.2019
5760 Clouds -4 1017 73 10000 5 320 07:42 18.10.2019
5761 Clouds -4 1016 73 10000 5 350 07:19 18.10.2019
5762 Snow -4 1016 85 7000 3 340 06:39 18.10.2019
5763 Snow -4 1016 85 7000 3 340 06:20 18.10.2019
5764 Snow -5 1016 92 8000 3 310 05:54 18.10.2019
5765 Snow -5 1016 85 10000 3 280 05:21 18.10.2019
5766 Clouds -6 1016 79 10000 2 290 03:43 18.10.2019
5767 Clouds -6 1016 79 10000 2 300 03:23 18.10.2019
5768 Clouds -5 1015 73 10000 3 340 02:33 18.10.2019
5769 Snow -5 1015 73 10000 5 340 01:43 18.10.2019
5770 Snow -5 1015 85 3700 5 340 01:25 18.10.2019
5771 Snow -4 1015 92 5000 6 340 00:44 18.10.2019
5772 Snow -3 1015 92 1200 5 300 00:20 18.10.2019
5773 Snow -3 1015 92 1200 5 300 00:20 18.10.2019
5774 Clouds -4 1015 92 10000 4 290 23:42 17.10.2019
5775 Clouds -3 1015 86 10000 5 300 23:21 17.10.2019
5776 Clouds -3 1015 86 10000 5 290 22:58 17.10.2019
5777 Snow -3 1015 92 9000 5 290 22:39 17.10.2019
5778 Snow -3 1015 92 9000 5 290 22:20 17.10.2019
5779 Snow -4 1015 100 10000 5 290 21:58 17.10.2019
5780 Snow -4 1015 100 5000 4 290 21:40 17.10.2019
5781 Snow -4 1015 100 5000 4 290 21:40 17.10.2019
5782 Snow -4 1015 100 5000 4 290 21:21 17.10.2019
5783 Snow -3 1015 86 6000 5 290 20:58 17.10.2019
5784 Snow -3 1015 86 6000 5 290 20:40 17.10.2019
5785 Clouds -3 1015 73 10000 4 330 20:20 17.10.2019
5786 Snow -3 1015 68 10000 5 330 19:59 17.10.2019
5787 Snow -3 1015 68 10000 5 330 19:59 17.10.2019
5788 Clouds -3 1015 73 10000 4 310 19:40 17.10.2019
5789 Clouds -3 1015 73 10000 4 310 19:20 17.10.2019
5790 Clouds -3 1015 73 10000 4 310 19:20 17.10.2019
5791 Clouds -3 1015 73 10000 4 310 19:20 17.10.2019
5792 Snow -3 1015 73 10000 4 330 18:58 17.10.2019
5793 Snow -3 1015 68 10000 5 350 18:38 17.10.2019
5794 Snow -3 1015 68 10000 5 350 18:20 17.10.2019
5795 Snow -3 1015 68 10000 5 340 17:42 17.10.2019
5796 Snow -4 1015 79 9000 5 340 17:23 17.10.2019
5797 Clouds -4 1015 79 9000 6 360 16:57 17.10.2019
5798 Clouds -3 1014 73 10000 4 330 16:39 17.10.2019
5799 Clouds -3 1014 73 10000 4 330 16:18 17.10.2019
5800 Clouds -3 1014 79 10000 3 340 15:56 17.10.2019
5801 Clouds -3 1014 79 10000 3 340 15:56 17.10.2019
5802 Clouds -3 1014 79 10000 4 330 15:38 17.10.2019
5803 Clouds -3 1014 79 10000 4 330 15:19 17.10.2019
5804 Clouds -3 1014 73 10000 6 340 14:55 17.10.2019
5805 Clouds -3 1014 73 10000 5 350 14:36 17.10.2019
5806 Clouds -3 1014 73 10000 5 350 14:18 17.10.2019
5807 Clouds -3 1014 73 10000 4 350 13:39 17.10.2019
5808 Clouds -3 1014 73 10000 4 350 13:19 17.10.2019
5809 Clouds -4 1013 79 10000 5 360 12:43 17.10.2019
5810 Clouds -4 1013 73 10000 7 340 12:22 17.10.2019
5811 Clouds -4 1013 73 10000 7 330 11:59 17.10.2019
5812 Clouds -4 1013 73 10000 7 330 11:41 17.10.2019
5813 Clouds -4 1013 73 10000 7 330 11:21 17.10.2019
5814 Clouds -4 1012 73 10000 7 340 10:57 17.10.2019
5815 Clouds -4 1012 73 10000 6 340 10:39 17.10.2019
5816 Clouds -4 1012 73 10000 6 340 10:19 17.10.2019
5817 Clouds -4 1012 73 10000 5 360 09:55 17.10.2019
5818 Snow -4 1012 73 10000 7 340 09:36 17.10.2019
5819 Snow -4 1012 73 10000 7 340 09:18 17.10.2019
5820 Snow -4 1012 73 10000 7 340 09:18 17.10.2019
5821 Clouds -4 1012 73 10000 5 350 08:46 17.10.2019
5822 Clouds -4 1011 73 10000 6 360 08:26 17.10.2019
5823 Snow -4 1011 85 10000 7 340 07:56 17.10.2019
5824 Clouds -4 1010 79 10000 7 340 07:38 17.10.2019
5825 Clouds -4 1010 79 10000 7 340 07:18 17.10.2019
5826 Clouds -4 1010 79 10000 7 340 06:40 17.10.2019
5827 Clouds -4 1010 79 10000 7 340 06:21 17.10.2019
5828 Clouds -4 1009 85 10000 7 340 05:57 17.10.2019
5829 Snow -4 1009 85 10000 6 340 05:32 17.10.2019
5830 Clouds -4 1009 85 10000 6 350 04:56 17.10.2019
5831 Clouds -4 1008 85 10000 6 350 03:55 17.10.2019
5832 Clouds -4 1007 85 10000 7 340 02:50 17.10.2019
5833 Snow -3 1007 92 8000 6 340 01:39 17.10.2019
5834 Clouds -2 1006 86 10000 6 350 00:40 17.10.2019
5835 Clouds -2 1006 86 10000 6 350 00:19 17.10.2019
5836 Clouds -2 1005 86 10000 6 350 23:42 16.10.2019
5837 Snow -2 1005 86 10000 6 340 23:21 16.10.2019
5838 Snow -2 1005 100 10000 4 350 22:56 16.10.2019
5839 Snow -2 1005 100 10000 4 350 22:56 16.10.2019
5840 Snow -2 1005 100 6000 7 340 22:37 16.10.2019
5841 Snow -2 1005 100 6000 7 340 22:37 16.10.2019
5842 Snow -2 1005 100 6000 7 340 22:19 16.10.2019
5843 Snow -2 1005 100 6000 7 340 22:19 16.10.2019
5844 Snow -2 1005 100 6000 7 340 22:19 16.10.2019
5845 Snow -2 1004 92 10000 6 350 21:57 16.10.2019
5846 Clouds -1 1004 86 10000 7 350 21:37 16.10.2019
5847 Clouds -1 1004 86 10000 7 350 21:19 16.10.2019
5848 Snow -1 1004 100 8000 6 340 20:58 16.10.2019
5849 Clouds -1 1004 100 10000 7 340 20:39 16.10.2019
5850 Clouds -1 1004 100 10000 7 340 20:20 16.10.2019
5851 Snow -1 1003 100 9000 7 340 19:59 16.10.2019
5852 Snow -1 1003 100 4200 6 340 19:38 16.10.2019
5853 Snow -1 1003 100 4200 6 340 19:20 16.10.2019
5854 Snow 0 1002 90 8000 6 350 18:40 16.10.2019
5855 Snow 0 1002 92 8000 6 350 18:20 16.10.2019
5856 Snow 0 1002 92 7000 6 340 17:58 16.10.2019
5857 Snow 0 1002 92 7000 6 340 17:58 16.10.2019
5858 Snow 0 1002 92 5000 6 340 17:39 16.10.2019
5859 Snow 0 1002 92 5000 6 340 17:21 16.10.2019
5860 Snow 1 1001 100 5000 6 340 17:00 16.10.2019
5861 Snow 1 1001 100 5000 6 340 16:41 16.10.2019
5862 Snow 1 1001 100 9000 6 330 16:21 16.10.2019
5863 Rain 2 1001 100 10000 5 330 15:57 16.10.2019
5864 Snow 0 1002 92 0 7.97 351 15:38 16.10.2019
5865 Clouds 3 1000 100 10000 3 290 15:18 16.10.2019
5866 Clouds 3 1000 100 10000 3 290 14:56 16.10.2019
5867 Clouds 3 1000 100 10000 3 290 14:38 16.10.2019
5868 Clouds 3 1000 100 10000 3 290 14:18 16.10.2019
5869 Rain 3 1000 100 9000 4 290 13:56 16.10.2019
5870 Clouds 3 1000 100 10000 3 290 13:38 16.10.2019
5871 Clouds 3 1000 100 10000 3 290 13:38 16.10.2019
5872 Clouds 3 1000 100 10000 3 290 13:19 16.10.2019
5873 Clouds 3 1000 100 10000 4 300 12:42 16.10.2019
5874 Clouds 3 1000 100 10000 3 290 12:19 16.10.2019
5875 Rain 3 999 100 10000 3 290 11:45 16.10.2019
5876 Rain 3 999 100 8000 4 290 11:19 16.10.2019
5877 Rain 3 999 100 10000 3 290 10:41 16.10.2019
5878 Clouds 3 999 100 10000 4 290 10:22 16.10.2019
5879 Clouds 3 999 100 10000 4 290 09:58 16.10.2019
5880 Clouds 3 999 100 10000 4 290 09:58 16.10.2019
5881 Rain 3 999 100 10000 4 290 09:39 16.10.2019
5882 Rain 3 999 100 10000 4 290 09:39 16.10.2019
5883 Rain 3 999 100 10000 4 290 09:20 16.10.2019
5884 Rain 3 998 100 10000 4 290 08:44 16.10.2019
5885 Rain 3 998 100 10000 4 300 08:26 16.10.2019
5886 Rain 3 998 100 10000 4 290 07:56 16.10.2019
5887 Rain 3 998 100 10000 4 290 07:38 16.10.2019
5888 Clouds 4 998 100 10000 4 280 07:20 16.10.2019
5889 Rain 4 998 100 10000 5 280 06:40 16.10.2019
5890 Rain 4 998 100 10000 5 280 06:19 16.10.2019
5891 Rain 4 997 100 10000 5 250 03:46 16.10.2019
5892 Rain 4 997 100 9000 5 250 02:50 16.10.2019
5893 Rain 4 996 100 4300 5 250 01:20 16.10.2019
5894 Clouds 4 996 100 10000 5 250 00:56 16.10.2019
5895 Clouds 4 996 100 10000 5 250 00:37 16.10.2019
5896 Clouds 4 996 100 10000 5 250 23:42 15.10.2019
5897 Rain 4 996 100 10000 5 250 23:22 15.10.2019
5898 Rain 4 996 100 10000 6 250 22:57 15.10.2019
5899 Rain 4 996 100 8000 4 240 22:38 15.10.2019
5900 Rain 4 996 100 8000 4 240 22:20 15.10.2019
5901 Rain 5 996 100 10000 4 240 21:57 15.10.2019
5902 Rain 5 996 100 9000 4 240 21:38 15.10.2019
5903 Rain 5 996 100 9000 4 240 21:20 15.10.2019
5904 Rain 5 996 100 9000 4 240 21:20 15.10.2019
5905 Clouds 5 996 100 10000 3 240 20:58 15.10.2019
5906 Clouds 5 996 100 10000 4 240 20:39 15.10.2019
5907 Clouds 5 996 100 10000 4 240 20:21 15.10.2019
5908 Clouds 5 996 100 10000 4 240 19:59 15.10.2019
5909 Clouds 5 996 100 10000 4 240 19:40 15.10.2019
5910 Clouds 5 996 100 10000 4 240 19:40 15.10.2019
5911 Clouds 5 996 100 10000 3 240 19:20 15.10.2019
5912 Rain 5 996 100 10000 4 250 18:48 15.10.2019
5913 Rain 5 996 100 10000 4 240 18:30 15.10.2019
5914 Clouds 5 996 100 10000 3 240 17:59 15.10.2019
5915 -273 0 0 0 0 0 17:41 15.10.2019
5916 Clouds 5 996 100 10000 3 240 17:41 15.10.2019
5917 Clouds 5 996 100 10000 3 240 17:41 15.10.2019
5918 Clouds 5 996 100 10000 5 250 17:20 15.10.2019
5919 Clouds 5 996 100 10000 5 250 17:20 15.10.2019
5920 Clouds 6 996 100 10000 5 250 16:57 15.10.2019
5921 Clouds 6 996 100 10000 4 250 16:38 15.10.2019
5922 Clouds 6 996 100 10000 4 250 16:20 15.10.2019
5923 Clouds 6 996 100 10000 5 250 15:43 15.10.2019
5924 Clouds 6 996 100 10000 5 250 15:43 15.10.2019
5925 Clouds 6 996 100 10000 3 240 15:21 15.10.2019
5926 Rain 6 996 78 0 4.404 251 14:59 15.10.2019
5927 Rain 6 996 80 0 4.014 242 14:38 15.10.2019
5928 Rain 6 996 80 0 4.014 242 14:20 15.10.2019
5929 Rain 6 996 80 0 4.014 242 14:20 15.10.2019
5930 Rain 6 996 80 0 4.014 242 13:58 15.10.2019
5931 Rain 6 996 80 0 4.014 242 13:40 15.10.2019
5932 Rain 6 996 80 0 4.014 242 13:19 15.10.2019
5933 Rain 6 996 80 0 4.014 242 12:43 15.10.2019
5934 Rain 7 995 87 0 3.858 246 12:22 15.10.2019
5935 Rain 7 995 87 0 3.858 246 11:57 15.10.2019
5936 Rain 7 995 87 0 3.858 246 11:38 15.10.2019
5937 Rain 7 995 87 0 3.858 246 11:19 15.10.2019
5938 Rain 7 995 87 0 3.858 246 10:45 15.10.2019
5939 Rain 6 995 86 0 3.86 260.262 10:22 15.10.2019
5940 Rain 6 995 86 0 3.86 260.262 09:58 15.10.2019
5941 Rain 6 995 86 0 3.86 260.262 09:38 15.10.2019
5942 Rain 8 994 82 0 7.19 227.773 09:20 15.10.2019
5943 Rain 7 995 86 0 5.85 221.425 08:56 15.10.2019
5944 Rain 7 995 86 0 5.85 221.425 08:36 15.10.2019
5945 Rain 7 995 86 0 5.85 221.425 08:18 15.10.2019
5946 Rain 7 995 86 0 5.85 221.425 07:41 15.10.2019
5947 Rain 7 995 86 0 5.85 221.425 07:21 15.10.2019
5948 Rain 7 995 86 0 5.85 221.425 06:45 15.10.2019
5949 Rain 7 995 86 0 5.85 221.425 06:27 15.10.2019
5950 Rain 6 994 93 0 7.21 207.489 05:48 15.10.2019
5951 Rain 6 994 93 0 7.21 207.489 05:29 15.10.2019
5952 Rain 6 994 93 0 7.21 207.489 04:39 15.10.2019
5953 Rain 6 994 93 0 7.21 207.489 03:38 15.10.2019
5954 Rain 6 995 93 0 6.3 199.579 02:51 15.10.2019
5955 Rain 6 995 93 0 6.3 199.579 01:49 15.10.2019
5956 Clouds 5 995 94 0 5.96 203.89 01:22 15.10.2019
5957 Clouds 5 995 94 0 5.96 203.89 00:50 15.10.2019
5958 Clouds 6 995 94 0 5.09 199.314 00:22 15.10.2019
5959 Clouds 6 995 94 0 5.09 199.314 23:45 14.10.2019
5960 Clouds 6 995 94 0 5.09 199.314 23:21 14.10.2019
5961 Clouds 6 995 94 0 5.09 199.314 22:59 14.10.2019
5962 Clouds 6 995 94 0 5.09 199.314 22:38 14.10.2019
5963 Clouds 6 995 94 0 5.09 199.314 22:19 14.10.2019
5964 Clouds 6 995 94 0 5.09 199.314 22:19 14.10.2019
5965 Clouds 6 995 94 0 5.09 199.314 21:56 14.10.2019
5966 Clouds 6 995 94 0 5.09 199.314 21:56 14.10.2019
5967 Clouds 6 995 94 0 5.09 199.314 21:37 14.10.2019
5968 Rain 6 995 93 0 5.85 207.012 21:19 14.10.2019
5969 -273 0 0 0 0 0 20:55 14.10.2019
5970 Rain 6 995 91 0 5.67 206.244 20:37 14.10.2019
5971 Rain 6 995 91 0 5.67 206.244 20:18 14.10.2019
5972 Rain 6 995 91 0 4.432 203 19:42 14.10.2019
5973 Rain 6 995 91 0 4.432 203 19:23 14.10.2019
5974 Rain 6 995 91 0 5.67 206.244 18:59 14.10.2019
5975 Rain 6 995 91 0 5.67 206.244 18:39 14.10.2019
5976 Rain 7 996 91 0 7.25 200.609 18:19 14.10.2019
5977 Rain 7 996 91 0 7.25 200.609 18:19 14.10.2019
5978 Rain 7 996 91 0 7.25 200.609 18:19 14.10.2019
5979 Rain 7 996 91 0 7.25 200.609 17:57 14.10.2019
5980 Rain 7 996 91 0 7.25 200.609 17:57 14.10.2019
5981 Rain 7 996 91 0 7.25 200.609 17:39 14.10.2019
5982 Rain 7 996 91 0 7.25 200.609 17:20 14.10.2019
5983 Rain 7 996 91 0 7.25 200.609 16:44 14.10.2019
5984 Rain 7 996 91 0 7.25 200.609 16:44 14.10.2019
5985 Rain 7 996 91 0 7.25 200.609 16:21 14.10.2019
5986 Rain 7 996 91 0 7.25 200.609 15:54 14.10.2019
5987 Rain 7 996 91 0 7.25 200.609 15:36 14.10.2019
5988 Rain 7 997 90 0 6.67 188.845 15:18 14.10.2019
5989 Rain 7 997 90 0 6.67 188.845 14:43 14.10.2019
5990 Rain 7 997 90 0 6.67 188.845 14:23 14.10.2019
5991 Rain 7 997 90 0 6.67 188.845 13:45 14.10.2019
5992 Rain 7 997 91 0 6.36 193.938 13:22 14.10.2019
5993 Rain 7 997 91 0 6.36 193.938 12:59 14.10.2019
5994 Rain 7 997 91 0 6.36 193.938 12:40 14.10.2019
5995 Rain 7 998 91 0 6.77 175.137 12:19 14.10.2019
5996 Rain 7 998 91 0 6.77 175.137 11:46 14.10.2019
5997 Rain 7 998 91 0 6.77 175.137 11:26 14.10.2019
5998 Rain 7 998 91 0 6.77 175.137 11:26 14.10.2019
5999 Rain 7 998 91 0 6.77 175.137 10:57 14.10.2019
6000 Rain 7 998 91 0 6.77 175.137 10:38 14.10.2019
6001 Rain 7 998 91 0 6.77 175.137 10:20 14.10.2019
6002 Rain 7 998 91 0 6.77 175.137 09:54 14.10.2019
6003 Rain 7 998 91 0 6.77 175.137 09:36 14.10.2019
6004 Clouds 8 1000 87 0 6.31 176.364 09:18 14.10.2019
6005 Clouds 8 1000 87 0 6.31 176.364 08:42 14.10.2019
6006 Clouds 8 1000 87 0 6.31 176.364 08:20 14.10.2019
6007 Clouds 8 1000 87 0 6.31 176.364 07:41 14.10.2019
6008 Clouds 8 1000 87 0 6.31 176.364 07:41 14.10.2019
6009 Clouds 8 1000 87 0 6.31 176.364 07:18 14.10.2019
6010 Clouds 8 1000 87 0 6.31 176.364 06:37 14.10.2019
6011 Rain 6 1002 94 0 5.72 165.477 06:18 14.10.2019
6012 Rain 6 1002 94 0 5.72 165.477 05:42 14.10.2019
6013 Rain 6 1002 94 0 5.72 165.477 04:42 14.10.2019
6014 Rain 6 1002 94 0 5.72 165.477 03:27 14.10.2019
6015 Rain 6 1004 93 0 5.91 163.84 02:42 14.10.2019
6016 Rain 6 1004 93 0 6.37 168.54 01:23 14.10.2019
6017 Rain 6 1004 93 0 6.37 168.54 00:53 14.10.2019
6018 Rain 6 1004 93 0 6.37 168.54 00:53 14.10.2019
6019 Rain 7 1006 92 0 6.9 167.417 00:19 14.10.2019
6020 Rain 7 1006 92 0 6.9 167.417 23:44 13.10.2019
6021 Rain 7 1006 92 0 6.9 167.417 23:20 13.10.2019
6022 Rain 7 1006 92 0 6.9 167.417 22:58 13.10.2019
6023 Rain 7 1006 92 0 6.9 167.417 22:40 13.10.2019
6024 Rain 7 1006 92 0 6.9 167.417 22:21 13.10.2019
6025 Rain 7 1006 92 0 6.9 167.417 22:21 13.10.2019
6026 Rain 7 1006 92 0 6.9 167.417 21:58 13.10.2019
6027 Rain 7 1006 92 0 6.9 167.417 21:37 13.10.2019
6028 Rain 7 1010 95 0 6 172.906 21:18 13.10.2019
6029 Rain 7 1010 95 0 6 172.906 21:18 13.10.2019
6030 Rain 7 1010 95 0 6 172.906 20:57 13.10.2019
6031 Rain 7 1010 95 0 6 172.906 20:57 13.10.2019
6032 Rain 7 1010 95 0 6 172.906 20:57 13.10.2019
6033 Rain 7 1010 95 0 5.11 167.002 20:38 13.10.2019
6034 Rain 7 1010 95 0 5.11 167.002 20:20 13.10.2019
6035 Rain 7 1010 95 0 5.11 167.002 19:57 13.10.2019
6036 Rain 7 1010 95 0 5.11 167.002 19:39 13.10.2019
6037 Rain 7 1010 95 0 5.11 167.002 19:39 13.10.2019
6038 Rain 7 1010 95 0 5.11 167.002 19:21 13.10.2019
6039 -273 0 0 0 0 0 18:56 13.10.2019
6040 Rain 7 1010 95 0 5.11 167.002 18:56 13.10.2019
6041 Rain 7 1010 95 0 5.11 167.002 18:36 13.10.2019
6042 Rain 7 1010 95 0 5.11 167.002 18:36 13.10.2019
6043 Clouds 7 1013 94 0 4.48 178.899 18:18 13.10.2019
6044 Clouds 7 1013 94 0 4.48 178.899 17:55 13.10.2019
6045 Clouds 7 1013 94 0 4.48 178.899 17:36 13.10.2019
6046 Clouds 7 1013 94 0 4.48 178.899 17:18 13.10.2019
6047 Clouds 7 1013 94 0 4.48 178.899 16:41 13.10.2019
6048 Clouds 7 1013 94 0 4.48 178.899 16:18 13.10.2019
6049 -273 0 0 0 0 0 15:56 13.10.2019
6050 Clouds 7 1013 94 0 4.48 178.899 15:56 13.10.2019
6051 Clouds 7 1013 94 0 4.48 178.899 15:56 13.10.2019
6052 Clouds 7 1013 94 0 4.48 178.899 15:37 13.10.2019
6053 Clouds 7 1013 94 0 4.48 178.899 15:37 13.10.2019
6054 Clouds 7 1014 89 0 3.57 203.104 15:18 13.10.2019
6055 Clouds 7 1014 89 0 3.57 203.104 15:18 13.10.2019
6056 -273 0 0 0 0 0 14:56 13.10.2019
6057 Clouds 7 1014 89 0 3.57 203.104 14:56 13.10.2019
6058 Clouds 7 1014 89 0 3.57 203.104 14:37 13.10.2019
6059 Clouds 7 1014 89 0 3.57 203.104 14:18 13.10.2019
6060 Clouds 7 1014 89 0 3.57 203.104 13:39 13.10.2019
6061 Clouds 7 1014 88 0 3.18 208.193 13:21 13.10.2019
6062 Clouds 7 1014 88 0 3.18 208.193 12:57 13.10.2019
6063 Clouds 7 1014 88 0 3.18 208.193 12:39 13.10.2019
6064 Clouds 7 1015 85 0 5.48 224.304 12:20 13.10.2019
6065 Clouds 7 1015 85 0 5.48 224.304 11:58 13.10.2019
6066 Clouds 7 1015 85 0 5.48 224.304 11:38 13.10.2019
6067 Clouds 7 1015 85 0 5.48 224.304 11:19 13.10.2019
6068 Clouds 7 1015 85 0 5.48 224.304 10:42 13.10.2019
6069 Clouds 7 1015 85 0 5.48 224.304 10:24 13.10.2019
6070 Clouds 7 1015 85 0 5.48 224.304 09:58 13.10.2019
6071 Clouds 7 1015 85 0 5.48 224.304 09:39 13.10.2019
6072 Clouds 6 1015 88 0 6.58 232.158 09:20 13.10.2019
6073 Clouds 6 1015 88 0 6.73 230.935 08:43 13.10.2019
6074 Clouds 6 1015 88 0 6.73 230.935 08:43 13.10.2019
6075 Clouds 6 1015 88 0 6.73 230.935 08:23 13.10.2019
6076 Clouds 6 1015 88 0 6.73 230.935 08:23 13.10.2019
6077 Clouds 6 1015 88 0 6.73 230.935 07:50 13.10.2019
6078 Clouds 6 1015 88 0 6.73 230.935 07:30 13.10.2019
6079 Clouds 6 1015 88 0 6.73 230.935 06:49 13.10.2019
6080 Clouds 5 1015 94 0 5.46 224.629 05:59 13.10.2019
6081 Clouds 5 1015 94 0 5.46 224.629 04:59 13.10.2019
6082 Clouds 5 1015 94 0 5.46 224.629 04:33 13.10.2019
6083 Clouds 6 1015 92 0 5.59 235.082 02:48 13.10.2019
6084 Clouds 6 1015 92 0 5.59 235.082 02:23 13.10.2019
6085 Clouds 6 1015 92 0 5.59 235.082 01:34 13.10.2019
6086 Clouds 6 1015 92 0 5.59 235.082 01:34 13.10.2019
6087 Clouds 6 1016 92 0 5.53 233.972 00:52 13.10.2019
6088 Clouds 6 1016 91 0 5.78 209.712 00:22 13.10.2019
6089 Clouds 6 1016 91 0 5.78 209.712 23:59 12.10.2019
6090 Clouds 6 1016 91 0 5.78 209.712 23:40 12.10.2019
6091 Clouds 6 1016 91 0 5.78 209.712 23:21 12.10.2019
6092 Clouds 6 1016 91 0 5.78 209.712 22:58 12.10.2019
6093 Clouds 6 1016 91 0 5.78 209.712 22:39 12.10.2019
6094 Clouds 6 1016 91 0 5.78 209.712 22:21 12.10.2019
6095 Clouds 6 1016 91 0 5.78 209.712 21:55 12.10.2019
6096 Clouds 6 1016 91 0 5.78 209.712 21:37 12.10.2019
6097 Rain 6 1016 87 0 6.42 215.303 21:19 12.10.2019
6098 Rain 6 1017 87 0 6.96 217.435 20:43 12.10.2019
6099 Rain 6 1017 87 0 6.96 217.435 20:25 12.10.2019
6100 Rain 6 1017 87 0 6.96 217.435 19:40 12.10.2019
6101 Rain 6 1017 87 0 6.96 217.435 19:22 12.10.2019
6102 Rain 6 1017 87 0 6.96 217.435 19:22 12.10.2019
6103 Rain 6 1017 87 0 6.96 217.435 18:59 12.10.2019
6104 Rain 6 1017 87 0 6.96 217.435 18:41 12.10.2019
6105 Rain 5 1017 89 0 7.21 202.266 18:23 12.10.2019
6106 Rain 5 1017 89 0 7.21 202.266 17:45 12.10.2019
6107 Rain 5 1017 89 0 7.21 202.266 17:20 12.10.2019
6108 Rain 5 1017 89 0 7.21 202.266 16:55 12.10.2019
6109 Rain 5 1017 89 0 7.21 202.266 16:37 12.10.2019
6110 Rain 5 1017 89 0 7.21 202.266 16:18 12.10.2019
6111 Rain 5 1017 89 0 7.21 202.266 15:44 12.10.2019
6112 Rain 5 1017 89 0 7.21 202.266 15:25 12.10.2019
6113 Rain 5 1018 79 0 6.66 181.8 14:55 12.10.2019
6114 Rain 5 1018 79 0 6.66 181.8 14:55 12.10.2019
6115 Rain 5 1018 79 0 6.66 181.8 14:37 12.10.2019
6116 Rain 5 1018 79 0 6.66 181.8 14:18 12.10.2019
6117 Rain 5 1018 79 0 6.66 181.8 13:43 12.10.2019
6118 Rain 5 1019 79 0 6.27 181.535 13:25 12.10.2019
6119 Rain 5 1019 79 0 6.27 181.535 12:40 12.10.2019
6120 Clouds 6 1018 68 0 5.88 197.948 12:22 12.10.2019
6121 Clouds 6 1018 68 0 5.88 197.948 11:59 12.10.2019
6122 Clouds 6 1018 68 0 5.88 197.948 11:39 12.10.2019
6123 Clouds 6 1018 68 0 5.88 197.948 11:20 12.10.2019
6124 Clouds 6 1018 68 0 5.88 197.948 10:45 12.10.2019
6125 Clouds 6 1018 68 0 5.88 197.948 10:25 12.10.2019
6126 Clouds 6 1018 68 0 5.88 197.948 09:58 12.10.2019
6127 Clouds 6 1018 68 0 5.88 197.948 09:40 12.10.2019
6128 Clouds 4 1019 77 0 5.24 186.82 09:22 12.10.2019
6129 Clouds 4 1020 75 0 5.08 190.735 08:58 12.10.2019
6130 Clouds 4 1020 75 0 5.08 190.735 08:38 12.10.2019
6131 Clouds 4 1020 75 0 5.08 190.735 08:20 12.10.2019
6132 Clouds 4 1020 75 0 5.08 190.735 07:35 12.10.2019
6133 Clouds 4 1020 75 0 5.08 190.735 06:57 12.10.2019
6134 Clouds 2 1020 84 0 3.68 202.916 05:48 12.10.2019
6135 Clouds 2 1020 84 0 3.68 202.916 05:23 12.10.2019
6136 Clouds 2 1020 84 0 3.68 202.916 04:24 12.10.2019
6137 Clouds 2 1020 84 0 3.68 202.916 03:33 12.10.2019
6138 Clouds 2 1021 86 0 1.38 244.81 01:50 12.10.2019
6139 Clouds 2 1021 86 0 1.31 265.585 01:21 12.10.2019
6140 Clouds 2 1021 86 0 1.31 265.585 00:42 12.10.2019
6141 Clouds 3 1020 86 0 2.18 305.985 23:59 11.10.2019
6142 Clouds 3 1020 86 0 2.18 305.985 23:40 11.10.2019
6143 Clouds 3 1020 86 0 2.18 305.985 23:20 11.10.2019
6144 Clouds 3 1020 86 0 2.18 305.985 22:41 11.10.2019
6145 Clouds 3 1020 86 0 2.18 305.985 22:22 11.10.2019
6146 Clouds 3 1020 86 0 2.18 305.985 21:58 11.10.2019
6147 Clouds 3 1020 86 0 2.18 305.985 21:39 11.10.2019
6148 Clouds 4 1021 92 0 2.49 297.944 21:21 11.10.2019
6149 Clouds 3 1021 93 0 2.17 319.184 20:45 11.10.2019
6150 Clouds 3 1021 93 0 2.17 319.184 20:27 11.10.2019
6151 Clouds 3 1021 93 0 2.17 319.184 19:58 11.10.2019
6152 Clouds 3 1021 93 0 2.17 319.184 19:39 11.10.2019
6153 Clouds 3 1021 93 0 2.17 319.184 19:39 11.10.2019
6154 Clouds 3 1021 93 0 2.17 319.184 19:18 11.10.2019
6155 Clouds 3 1021 93 0 2.17 319.184 19:18 11.10.2019
6156 Clouds 3 1021 93 0 2.17 319.184 19:18 11.10.2019
6157 Clouds 3 1021 93 0 2.17 319.184 19:18 11.10.2019
6158 Clouds 3 1021 93 0 2.17 319.184 18:59 11.10.2019
6159 Clouds 3 1021 93 0 2.17 319.184 18:38 11.10.2019
6160 Clouds 3 1021 95 0 2.62 347.146 18:19 11.10.2019
6161 Clouds 3 1021 95 0 2.62 347.146 18:19 11.10.2019
6162 Clouds 3 1021 95 0 2.62 347.146 17:58 11.10.2019
6163 Clouds 3 1021 95 0 2.62 347.146 17:38 11.10.2019
6164 Clouds 3 1021 95 0 2.62 347.146 17:19 11.10.2019
6165 Clouds 3 1021 95 0 2.62 347.146 16:58 11.10.2019
6166 Clouds 3 1021 95 0 2.62 347.146 16:39 11.10.2019
6167 Clouds 3 1021 95 0 2.62 347.146 16:19 11.10.2019
6168 Clouds 3 1021 95 0 2.62 347.146 15:41 11.10.2019
6169 Clouds 3 1021 95 0 2.62 347.146 15:41 11.10.2019
6170 Clouds 3 1021 95 0 2.62 347.146 15:41 11.10.2019
6171 Rain 4 1021 94 0 3.6 346.484 15:20 11.10.2019
6172 Rain 4 1021 94 0 3.6 346.484 14:58 11.10.2019
6173 Rain 4 1021 94 0 3.6 346.484 14:58 11.10.2019
6174 Rain 4 1021 94 0 3.6 346.484 14:38 11.10.2019
6175 Rain 4 1021 94 0 3.6 346.484 14:19 11.10.2019
6176 Rain 4 1021 94 0 3.6 346.484 14:19 11.10.2019
6177 Rain 4 1021 94 0 3.6 346.484 13:44 11.10.2019
6178 Rain 4 1021 94 0 1.99 9.116 13:25 11.10.2019
6179 Rain 4 1021 94 0 1.99 9.116 12:57 11.10.2019
6180 Rain 4 1021 94 0 1.99 9.116 12:38 11.10.2019
6181 Rain 5 1020 93 0 0.58 193.069 12:20 11.10.2019
6182 Rain 5 1020 93 0 0.58 193.069 11:57 11.10.2019
6183 Rain 5 1020 93 0 0.58 193.069 11:38 11.10.2019
6184 Rain 5 1020 93 0 0.58 193.069 11:20 11.10.2019
6185 Rain 5 1020 93 0 0.58 193.069 10:54 11.10.2019
6186 Rain 5 1020 93 0 0.58 193.069 10:36 11.10.2019
6187 Rain 5 1020 93 0 0.58 193.069 10:18 11.10.2019
6188 Rain 5 1020 92 0 0.48 352.037 09:41 11.10.2019
6189 Rain 5 1019 93 0 1.81 147.327 09:20 11.10.2019
6190 Rain 5 1019 93 0 1.81 147.327 08:56 11.10.2019
6191 Rain 5 1019 93 0 1.81 147.327 08:38 11.10.2019
6192 Rain 5 1019 93 0 1.81 147.327 08:19 11.10.2019
6193 Rain 5 1019 93 0 1.81 147.327 07:51 11.10.2019
6194 Rain 5 1019 93 0 1.81 147.327 07:33 11.10.2019
6195 Rain 5 1019 93 0 1.81 147.327 06:49 11.10.2019
6196 Rain 5 1019 93 0 1.81 147.327 06:24 11.10.2019
6197 Rain 5 1018 91 0 2.51 148.27 05:41 11.10.2019
6198 Rain 5 1018 91 0 2.51 148.27 05:23 11.10.2019
6199 Rain 5 1018 91 0 2.51 148.27 04:38 11.10.2019
6200 Rain 6 1018 92 0 3.02 23.816 02:47 11.10.2019
6201 Rain 7 1018 84 0 2.25 100.093 00:52 11.10.2019
6202 Rain 7 1018 84 0 2.25 100.093 00:29 11.10.2019
6203 Rain 7 1017 92 0 2.91 355.727 23:48 10.10.2019
6204 Rain 7 1017 92 0 2.91 355.727 23:23 10.10.2019
6205 Rain 7 1017 92 0 2.91 355.727 22:58 10.10.2019
6206 Rain 7 1017 92 0 2.91 355.727 22:40 10.10.2019
6207 Rain 7 1017 92 0 2.91 355.727 22:21 10.10.2019
6208 Rain 7 1017 92 0 2.91 355.727 22:21 10.10.2019
6209 Rain 7 1017 92 0 2.91 355.727 21:58 10.10.2019
6210 Rain 7 1017 92 0 2.91 355.727 21:40 10.10.2019
6211 Rain 7 1016 92 0 4.05 336.482 21:21 10.10.2019
6212 Clouds 7 1017 91 0 3.61 334.931 20:57 10.10.2019
6213 Clouds 7 1017 91 0 3.61 334.931 20:57 10.10.2019
6214 Clouds 7 1017 91 0 3.61 334.931 20:38 10.10.2019
6215 Clouds 7 1017 91 0 3.61 334.931 20:18 10.10.2019
6216 Clouds 7 1017 91 0 3.61 334.931 20:18 10.10.2019
6217 Clouds 7 1017 91 0 3.61 334.931 20:18 10.10.2019
6218 Clouds 7 1017 91 0 3.61 334.931 19:54 10.10.2019
6219 Clouds 7 1017 91 0 3.61 334.931 19:36 10.10.2019
6220 Clouds 7 1017 91 0 3.61 334.931 19:18 10.10.2019
6221 Clouds 7 1017 91 0 3.61 334.931 18:41 10.10.2019
6222 Clouds 10 1016 78 0 5.53 167.987 18:20 10.10.2019
6223 Clouds 10 1016 78 0 5.53 167.987 17:55 10.10.2019
6224 Clouds 10 1016 78 0 5.53 167.987 17:37 10.10.2019
6225 Clouds 10 1016 78 0 5.53 167.987 17:18 10.10.2019
6226 Clouds 10 1016 78 0 5.53 167.987 16:46 10.10.2019
6227 Clouds 10 1016 78 0 5.53 167.987 16:26 10.10.2019
6228 Clouds 10 1016 78 0 5.53 167.987 16:26 10.10.2019
6229 Clouds 10 1016 78 0 5.53 167.987 15:58 10.10.2019
6230 Clouds 10 1016 78 0 5.53 167.987 15:38 10.10.2019
6231 Clouds 11 1015 73 0 4.73 175.31 15:19 10.10.2019
6232 Clouds 11 1015 73 0 4.73 175.31 14:55 10.10.2019
6233 Clouds 11 1015 73 0 4.73 175.31 14:36 10.10.2019
6234 Clear 13 1014 58 10000 4 170 14:18 10.10.2019
6235 Clear 13 1014 58 10000 4 170 13:42 10.10.2019
6236 Clear 13 1014 58 10000 4 170 13:24 10.10.2019
6237 Clear 13 1014 58 10000 4 160 12:58 10.10.2019
6238 Clear 13 1014 58 10000 4 160 12:40 10.10.2019
6239 Clear 13 1014 58 10000 4 160 12:20 10.10.2019
6240 Clear 13 1014 58 10000 4 170 11:57 10.10.2019
6241 Clear 13 1014 54 10000 4 170 11:38 10.10.2019
6242 Clear 13 1014 54 10000 4 170 11:19 10.10.2019
6243 Clear 13 1013 54 10000 5 160 10:44 10.10.2019
6244 Clear 13 1013 54 10000 4 160 10:26 10.10.2019
6245 Clear 12 1013 58 10000 4 160 09:56 10.10.2019
6246 Clear 12 1013 58 10000 4 160 09:38 10.10.2019
6247 Clear 12 1013 58 10000 4 160 09:20 10.10.2019
6248 Clear 11 1013 62 10000 4 160 08:57 10.10.2019
6249 Clear 11 1013 62 10000 4 160 08:37 10.10.2019
6250 Clear 11 1013 62 10000 4 160 08:18 10.10.2019
6251 Clear 10 1013 66 10000 5 160 07:45 10.10.2019
6252 Clear 10 1013 66 10000 5 170 07:22 10.10.2019
6253 Clear 10 1013 66 10000 6 160 06:48 10.10.2019
6254 Clear 10 1013 66 10000 5 150 06:29 10.10.2019
6255 Clear 9 1013 70 10000 6 150 05:28 10.10.2019
6256 Clear 9 1013 70 10000 6 140 04:47 10.10.2019
6257 Clear 9 1013 70 10000 5 150 04:26 10.10.2019
6258 Clear 9 1013 70 10000 5 150 04:26 10.10.2019
6259 Clear 9 1014 76 10000 6 140 01:44 10.10.2019
6260 Clear 9 1014 76 10000 6 140 01:25 10.10.2019
6261 Clear 9 1014 76 10000 5 140 00:54 10.10.2019
6262 Clear 9 1014 76 10000 5 140 00:54 10.10.2019
6263 Clear 9 1014 76 10000 5 140 00:22 10.10.2019
6264 Clear 9 1015 76 10000 5 140 23:40 09.10.2019
6265 Clear 9 1015 76 10000 5 140 23:21 09.10.2019
6266 Clear 9 1015 76 10000 6 140 22:56 09.10.2019
6267 Clear 9 1015 76 10000 5 130 22:38 09.10.2019
6268 Clear 9 1015 76 10000 5 130 22:20 09.10.2019
6269 Clear 9 1016 76 10000 5 130 21:40 09.10.2019
6270 Clear 9 1016 76 10000 5 130 21:21 09.10.2019
6271 Clear 9 1016 76 10000 6 130 20:56 09.10.2019
6272 Clear 9 1017 76 10000 5 130 20:38 09.10.2019
6273 Clear 9 1017 76 10000 5 130 20:19 09.10.2019
6274 Clear 9 1017 76 10000 5 130 19:58 09.10.2019
6275 Clear 9 1017 76 10000 5 130 19:39 09.10.2019
6276 Clear 9 1017 76 10000 5 130 19:20 09.10.2019
6277 Clear 9 1018 76 10000 6 130 18:38 09.10.2019
6278 Clear 9 1018 76 10000 6 130 18:38 09.10.2019
6279 Clear 9 1018 76 10000 6 130 18:19 09.10.2019
6280 Clear 9 1018 76 10000 6 130 17:57 09.10.2019
6281 Clear 9 1018 70 10000 5 130 17:37 09.10.2019
6282 Clear 9 1018 70 10000 5 130 17:19 09.10.2019
6283 Clear 9 1018 70 10000 5 130 16:55 09.10.2019
6284 Clear 9 1019 70 10000 5 130 16:36 09.10.2019
6285 Clear 9 1019 70 10000 5 130 16:18 09.10.2019
6286 Clear 10 1019 66 10000 5 120 15:55 09.10.2019
6287 Clear 10 1019 66 10000 5 120 15:55 09.10.2019
6288 Clear 10 1019 66 10000 5 130 15:36 09.10.2019
6289 Clear 10 1019 66 10000 5 130 15:36 09.10.2019
6290 Clear 10 1019 66 10000 5 130 15:18 09.10.2019
6291 Clear 10 1019 66 10000 5 120 14:42 09.10.2019
6292 Clear 10 1019 66 10000 5 120 14:42 09.10.2019
6293 Clear 10 1019 66 10000 5 130 14:18 09.10.2019
6294 Clear 11 1019 62 10000 5 130 13:55 09.10.2019
6295 Clear 11 1019 66 10000 5 130 13:36 09.10.2019
6296 Clear 11 1019 66 10000 5 130 13:36 09.10.2019
6297 Clear 11 1019 66 10000 5 130 13:18 09.10.2019
6298 Clear 12 1020 62 10000 4 120 12:42 09.10.2019
6299 Clear 12 1020 58 10000 5 120 12:22 09.10.2019
6300 Clear 12 1020 58 10000 5 130 11:57 09.10.2019
6301 Clear 12 1020 58 10000 5 130 11:39 09.10.2019
6302 Clear 12 1020 58 10000 5 130 11:20 09.10.2019
6303 Clear 12 1020 58 10000 5 130 10:55 09.10.2019
6304 -273 0 0 0 0 0 10:37 09.10.2019
6305 Clouds 11 1020 62 10000 5 130 10:18 09.10.2019
6306 Clear 10 1021 66 10000 5 130 09:42 09.10.2019
6307 Clear 9 1021 70 10000 4 130 09:19 09.10.2019
6308 Clear 9 1021 70 10000 4 140 08:55 09.10.2019
6309 Clear 8 1022 75 10000 5 130 08:37 09.10.2019
6310 Clear 8 1022 75 10000 5 130 08:18 09.10.2019
6311 Clear 7 1022 75 10000 4 140 07:42 09.10.2019
6312 Clear 6 1022 81 10000 4 130 07:22 09.10.2019
6313 Clear 6 1022 81 10000 4 130 06:52 09.10.2019
6314 Clear 5 1022 86 10000 4 130 06:20 09.10.2019
6315 Clear 4 1022 93 10000 4 130 05:46 09.10.2019
6316 Clear 3 1022 93 10000 4 120 04:27 09.10.2019
6317 Clear 3 1022 93 10000 3 120 02:54 09.10.2019
6318 Clear 3 1023 93 10000 4 130 01:44 09.10.2019
6319 Clear 3 1023 93 10000 3 130 01:21 09.10.2019
6320 Clear 3 1023 93 10000 3 130 01:21 09.10.2019
6321 Clear 3 1023 93 10000 3 130 00:57 09.10.2019
6322 Clear 3 1023 86 10000 3 130 00:39 09.10.2019
6323 Clear 3 1023 86 10000 3 130 00:20 09.10.2019
6324 Clear 3 1023 86 10000 3 130 23:40 08.10.2019
6325 Clear 3 1023 86 10000 3 130 23:19 08.10.2019
6326 Clear 3 1024 86 10000 3 130 22:58 08.10.2019
6327 Clear 3 1024 86 10000 3 130 22:39 08.10.2019
6328 Clear 3 1024 86 10000 3 130 22:20 08.10.2019
6329 Clear 4 1024 80 10000 3 130 21:57 08.10.2019
6330 Clear 4 1024 80 10000 3 130 21:39 08.10.2019
6331 Clear 4 1024 80 10000 3 130 21:39 08.10.2019
6332 Clear 4 1024 80 10000 3 130 21:19 08.10.2019
6333 Clear 4 1024 80 10000 3 120 20:56 08.10.2019
6334 Clear 4 1024 80 10000 4 120 20:38 08.10.2019
6335 Clear 4 1024 80 10000 4 120 20:20 08.10.2019
6336 Clear 4 1024 92 10000 4 120 19:58 08.10.2019
6337 Clear 4 1024 92 10000 3 130 19:39 08.10.2019
6338 Clear 4 1024 92 10000 3 130 19:20 08.10.2019
6339 Clear 5 1024 92 10000 4 130 18:54 08.10.2019
6340 Clear 5 1024 92 10000 4 130 18:36 08.10.2019
6341 Clear 5 1024 83 10000 4 130 18:18 08.10.2019
6342 Clear 6 1024 83 10000 5 130 17:40 08.10.2019
6343 Clear 6 1024 83 10000 5 130 17:40 08.10.2019
6344 Clear 6 1024 83 10000 5 130 17:20 08.10.2019
6345 Clear 6 1024 70 10000 5 130 16:58 08.10.2019
6346 Clear 7 1024 65 10000 5 130 16:38 08.10.2019
6347 Clear 7 1024 65 10000 5 130 16:20 08.10.2019
6348 Clear 7 1024 65 10000 4 120 15:41 08.10.2019
6349 Clear 7 1024 65 10000 4 120 15:41 08.10.2019
6350 Clear 8 1024 61 10000 5 120 15:21 08.10.2019
6351 Clear 8 1024 65 10000 6 120 14:58 08.10.2019
6352 Clear 9 1024 61 10000 6 110 14:39 08.10.2019
6353 Clear 9 1024 61 10000 6 110 14:20 08.10.2019
6354 Clear 10 1024 57 10000 5 120 13:56 08.10.2019
6355 Clear 10 1024 61 10000 5 120 13:37 08.10.2019
6356 Clear 10 1024 61 10000 5 120 13:18 08.10.2019
6357 Clear 10 1024 57 10000 6 120 12:42 08.10.2019
6358 Clear 10 1024 57 10000 5 120 12:22 08.10.2019
6359 Clear 10 1024 57 10000 6 120 11:59 08.10.2019
6360 Clear 10 1024 57 10000 5 120 11:40 08.10.2019
6361 Clear 10 1024 57 10000 5 120 11:21 08.10.2019
6362 Clear 10 1024 57 10000 5 120 10:55 08.10.2019
6363 Clear 10 1024 61 10000 5 120 10:36 08.10.2019
6364 Clear 10 1024 61 10000 5 120 10:18 08.10.2019
6365 Clear 10 1025 57 10000 5 110 09:41 08.10.2019
6366 Clear 9 1025 61 10000 4 120 09:22 08.10.2019
6367 Clear 9 1025 61 10000 5 120 08:55 08.10.2019
6368 Clear 8 1025 65 10000 5 130 08:36 08.10.2019
6369 Clear 8 1025 65 10000 5 130 08:18 08.10.2019
6370 Clear 7 1025 65 10000 4 130 07:41 08.10.2019
6371 Clear 7 1025 65 10000 4 130 07:19 08.10.2019
6372 Clear 7 1025 65 10000 4 140 06:46 08.10.2019
6373 Clear 6 1025 70 10000 4 130 06:23 08.10.2019
6374 Clear 5 1025 75 10000 3 130 05:44 08.10.2019
6375 Clear 5 1025 75 10000 3 130 05:44 08.10.2019
6376 Clear 4 1025 80 10000 3 120 05:21 08.10.2019
6377 Clear 3 1024 93 10000 3 110 03:32 08.10.2019
6378 Clear 3 1024 93 10000 3 100 02:46 08.10.2019
6379 Clear 3 1024 93 10000 4 110 02:26 08.10.2019
6380 Clear 3 1024 93 10000 3 90 01:42 08.10.2019
6381 Clear 3 1024 93 10000 4 90 00:57 08.10.2019
6382 Clear 3 1024 93 10000 5 70 00:36 08.10.2019
6383 Clear 3 1024 93 10000 5 70 00:18 08.10.2019
6384 Clear 2 1023 100 10000 2 90 23:38 07.10.2019
6385 Clear 2 1023 100 10000 2 90 23:19 07.10.2019
6386 Clear 2 1023 100 10000 2 90 23:19 07.10.2019
6387 Clear 2 1023 100 10000 1 60 22:55 07.10.2019
6388 Clear 2 1023 100 10000 1 40 22:37 07.10.2019
6389 Clear 2 1023 100 10000 1 40 22:18 07.10.2019
6390 Clear 3 1023 93 10000 2 40 21:54 07.10.2019
6391 Clear 3 1022 93 10000 3 60 21:36 07.10.2019
6392 Clear 3 1022 93 10000 3 60 21:36 07.10.2019
6393 Clear 3 1022 93 10000 3 60 21:18 07.10.2019
6394 Clear 2 1022 100 10000 2 70 20:56 07.10.2019
6395 Clear 2 1022 100 10000 2 70 20:56 07.10.2019
6396 Clear 3 1023 93 10000 3 40 20:37 07.10.2019
6397 Clear 3 1023 93 10000 3 40 20:18 07.10.2019
6398 Clear 2 1023 100 10000 2 30 19:42 07.10.2019
6399 Clear 2 1023 100 10000 2 30 19:42 07.10.2019
6400 Clear 2 1022 100 10000 2 60 19:21 07.10.2019
6401 Clear 3 1022 93 10000 2 60 18:59 07.10.2019
6402 Clear 3 1022 100 10000 1 0 18:41 07.10.2019
6403 Clear 3 1022 100 10000 1 0 18:19 07.10.2019
6404 Clear 4 1022 86 10000 2 60 17:56 07.10.2019
6405 Clear 4 1022 93 10000 3 50 17:38 07.10.2019
6406 Clear 4 1022 93 10000 3 50 17:18 07.10.2019
6407 Clear 5 1022 86 10000 3 50 16:44 07.10.2019
6408 Clear 5 1022 86 10000 2 70 16:25 07.10.2019
6409 Clear 5 1022 86 10000 2 40 15:57 07.10.2019
6410 Clear 6 1022 81 10000 2 60 15:38 07.10.2019
6411 Clear 6 1022 81 10000 2 60 15:20 07.10.2019
6412 Clear 8 1022 70 10000 2 70 14:41 07.10.2019
6413 Clear 8 1022 75 10000 2 60 14:23 07.10.2019
6414 Clear 10 1022 66 10000 2 20 13:45 07.10.2019
6415 Clouds 10 1022 61 10000 2 30 13:21 07.10.2019
6416 Clouds 10 1021 61 10000 2 40 12:57 07.10.2019
6417 Clouds 10 1021 66 10000 2 50 12:39 07.10.2019
6418 Clouds 10 1021 66 10000 2 50 12:20 07.10.2019
6419 Clouds 10 1021 66 10000 2 20 11:59 07.10.2019
6420 Clouds 9 1021 66 10000 1.19 30.025 11:39 07.10.2019
6421 Clouds 9 1021 66 10000 1.19 30.025 11:20 07.10.2019
6422 Clouds 9 1021 70 10000 1 360 10:43 07.10.2019
6423 Clouds 9 1021 66 10000 1 0 10:23 07.10.2019
6424 Clouds 9 1021 66 10000 1 0 09:57 07.10.2019
6425 Clouds 9 1021 66 10000 1 0 09:38 07.10.2019
6426 Clouds 9 1021 66 10000 1 0 09:38 07.10.2019
6427 Clouds 9 1021 66 10000 1 0 09:20 07.10.2019
6428 Clouds 9 1021 66 10000 1 0 08:43 07.10.2019
6429 Clouds 9 1021 66 10000 1 0 08:20 07.10.2019
6430 Clear 9 1021 61 10000 2 210 07:47 07.10.2019
6431 Clear 8 1021 70 10000 2 190 07:27 07.10.2019
6432 Clear 8 1021 75 10000 2.17 255.007 06:58 07.10.2019
6433 Clear 7 1021 75 10000 1 240 06:38 07.10.2019
6434 Clear 7 1021 75 10000 1 240 06:18 07.10.2019
6435 Clear 6 1020 100 10000 1 0 05:26 07.10.2019
6436 Clear 5 1020 100 10000 1.9 250.22 04:49 07.10.2019
6437 Clouds 5 1020 100 10000 1.9 250.22 03:46 07.10.2019
6438 Clouds 5 1020 100 10000 1.9 250.22 03:46 07.10.2019
6439 Clear 5 1020 100 10000 1.9 250.22 03:27 07.10.2019
6440 Clear 5 1020 100 10000 2 320 02:37 07.10.2019
6441 Clear 5 1020 100 10000 2 320 02:18 07.10.2019
6442 Clear 5 1020 100 10000 2 320 02:18 07.10.2019
6443 Clear 5 1019 93 10000 2 300 01:23 07.10.2019
6444 Clear 6 1019 81 10000 2 330 00:49 07.10.2019
6445 Clear 6 1019 81 10000 3 320 00:23 07.10.2019
6446 Clear 6 1018 87 10000 2 310 23:59 06.10.2019
6447 Clear 6 1018 87 10000 2 290 23:40 06.10.2019
6448 Clear 6 1018 87 10000 2 290 23:19 06.10.2019
6449 Clear 7 1018 93 10000 3 290 22:55 06.10.2019
6450 Clear 7 1018 93 10000 3 290 22:55 06.10.2019
6451 Clear 6 1018 100 10000 3 300 22:37 06.10.2019
6452 Clear 6 1018 100 10000 3 300 22:18 06.10.2019
6453 Clear 7 1017 87 10000 3 300 21:55 06.10.2019
6454 Clear 7 1017 87 10000 3 300 21:54 06.10.2019
6455 Clear 7 1017 87 10000 3 290 21:36 06.10.2019
6456 Clear 7 1017 87 10000 3 290 21:36 06.10.2019
6457 Clear 7 1017 87 10000 3 290 21:36 06.10.2019
6458 Clear 7 1017 87 10000 3 290 21:18 06.10.2019
6459 Clear 7 1017 87 10000 3 290 21:18 06.10.2019
6460 Clear 7 1017 87 10000 4 280 20:54 06.10.2019
6461 Clear 9 1016 76 10000 4 280 20:36 06.10.2019
6462 Clear 9 1016 76 10000 4 280 20:36 06.10.2019
6463 Clear 9 1016 76 10000 4 280 20:36 06.10.2019
6464 Clear 9 1016 76 10000 4 280 20:18 06.10.2019
6465 Clear 9 1016 76 10000 5 280 19:54 06.10.2019
6466 Clear 9 1015 76 10000 4 260 19:36 06.10.2019
6467 Clear 9 1015 76 10000 4 260 19:18 06.10.2019
6468 Clear 11 1015 66 10000 5 250 18:54 06.10.2019
6469 Clear 11 1015 62 10000 5 250 18:36 06.10.2019
6470 Clear 11 1015 62 10000 5 250 18:18 06.10.2019
6471 Clear 12 1015 58 10000 4 240 17:42 06.10.2019
6472 Clear 12 1014 58 10000 4 240 17:19 06.10.2019
6473 Clear 12 1014 58 10000 4 240 16:54 06.10.2019
6474 Clear 12 1014 58 10000 4 240 16:54 06.10.2019
6475 Clear 12 1014 58 10000 4 240 16:36 06.10.2019
6476 Clear 12 1014 58 10000 4 240 16:18 06.10.2019
6477 Clear 12 1014 58 10000 3 240 15:42 06.10.2019
6478 Clear 13 1013 54 10000 4 240 15:19 06.10.2019
6479 Clear 13 1013 58 10000 3 240 14:44 06.10.2019
6480 Clear 14 1013 54 10000 4 240 14:25 06.10.2019
6481 Clear 15 1012 51 10000 4 230 13:58 06.10.2019
6482 Clear 15 1012 51 10000 4 230 13:39 06.10.2019
6483 Clear 15 1012 51 10000 4 230 13:21 06.10.2019
6484 Clear 15 1011 51 10000 4 220 12:57 06.10.2019
6485 Clear 15 1011 51 10000 6 230 12:39 06.10.2019
6486 Clear 15 1011 51 10000 6 230 12:20 06.10.2019
6487 Clear 16 1011 48 10000 6 230 11:57 06.10.2019
6488 Clear 16 1011 51 10000 6 240 11:38 06.10.2019
6489 Clear 16 1011 51 10000 6 240 11:20 06.10.2019
6490 Clear 15 1011 51 10000 6 240 10:44 06.10.2019
6491 Clear 15 1011 54 10000 6 240 10:26 06.10.2019
6492 Clear 14 1011 58 10000 6 240 09:58 06.10.2019
6493 Clear 14 1011 58 10000 6 240 09:39 06.10.2019
6494 Clear 14 1011 58 10000 6 240 09:19 06.10.2019
6495 Clear 14 1010 58 10000 6 230 08:43 06.10.2019
6496 Clear 14 1010 62 10000 6 230 08:21 06.10.2019
6497 Clear 14 1010 62 10000 6 230 07:56 06.10.2019
6498 Clear 14 1010 62 10000 6 230 07:56 06.10.2019
6499 Clear 13 1010 66 10000 6 230 07:33 06.10.2019
6500 Clear 12 1010 71 10000 5 220 06:20 06.10.2019
6501 Clear 11 1010 76 10000 6 220 05:34 06.10.2019
6502 Clear 11 1010 76 10000 5 210 03:56 06.10.2019
6503 Clear 11 1011 81 10000 5 210 02:44 06.10.2019
6504 Clear 11 1011 81 10000 5 210 02:22 06.10.2019
6505 Clear 11 1011 81 10000 5 210 01:45 06.10.2019
6506 Clear 11 1011 87 10000 4 200 01:27 06.10.2019
6507 Clear 11 1012 87 10000 4 210 00:53 06.10.2019
6508 Clear 11 1012 93 10000 4 200 00:27 06.10.2019
6509 Clear 10 1012 100 10000 4 210 23:45 05.10.2019
6510 Clear 10 1012 100 10000 4 200 23:22 05.10.2019
6511 Clear 10 1012 100 10000 4 190 22:58 05.10.2019
6512 Clear 10 1012 100 10000 4 200 22:40 05.10.2019
6513 Clear 10 1012 100 10000 4 200 22:40 05.10.2019
6514 Clear 10 1012 100 10000 4 200 22:20 05.10.2019
6515 Clear 10 1012 100 10000 4 200 21:57 05.10.2019
6516 Clear 10 1012 100 10000 4 210 21:38 05.10.2019
6517 Clear 10 1012 100 10000 4 210 21:18 05.10.2019
6518 Clear 10 1012 100 10000 4 210 20:56 05.10.2019
6519 Clear 10 1012 100 10000 3 200 20:37 05.10.2019
6520 Clear 10 1012 100 10000 3 200 20:37 05.10.2019
6521 Clear 10 1012 100 10000 3 200 20:18 05.10.2019
6522 Clear 9 1013 100 10000 2 160 19:38 05.10.2019
6523 Clear 9 1013 100 10000 2 160 19:19 05.10.2019
6524 Clear 9 1013 100 10000 2 150 18:55 05.10.2019
6525 Clear 9 1014 100 10000 2 150 18:37 05.10.2019
6526 Clear 9 1014 100 10000 2 150 18:19 05.10.2019
6527 Clear 8 1014 100 10000 2 150 17:43 05.10.2019
6528 Clear 8 1014 93 10000 3 150 17:24 05.10.2019
6529 Clear 9 1014 81 10000 3 160 16:57 05.10.2019
6530 Clear 9 1014 81 10000 3 160 16:57 05.10.2019
6531 Clear 9 1014 81 10000 3 150 16:39 05.10.2019
6532 Clear 9 1014 81 10000 3 150 16:20 05.10.2019
6533 Clear 9 1015 81 10000 3 140 15:57 05.10.2019
6534 Clear 9 1015 81 10000 3 150 15:38 05.10.2019
6535 Clear 9 1015 81 10000 3 150 15:20 05.10.2019
6536 Clear 9 1015 76 10000 3 140 14:44 05.10.2019
6537 Clear 10 1015 71 10000 3 150 14:25 05.10.2019
6538 Clear 10 1015 71 10000 3 140 13:58 05.10.2019
6539 Clouds 10 1015 71 10000 4 150 13:40 05.10.2019
6540 Clouds 10 1015 71 10000 4 150 13:19 05.10.2019
6541 Clouds 10 1015 71 10000 3 150 12:43 05.10.2019
6542 Clouds 10 1015 66 10000 3 160 12:19 05.10.2019
6543 Clouds 9 1015 70 10000 3 160 11:44 05.10.2019
6544 Clouds 9 1015 66 10000 3 140 11:21 05.10.2019
6545 Clouds 9 1015 61 10000 2 190 10:58 05.10.2019
6546 Clouds 9 1016 57 10000 2 170 10:40 05.10.2019
6547 Clouds 9 1016 57 10000 2 170 10:21 05.10.2019
6548 Clouds 9 1016 61 10000 3 190 09:55 05.10.2019
6549 Clear 8 1016 61 10000 3 220 09:37 05.10.2019
6550 Clear 8 1016 61 10000 3 220 09:18 05.10.2019
6551 Clear 8 1016 65 10000 3 190 08:39 05.10.2019
6552 Clear 8 1016 65 10000 3 190 08:19 05.10.2019
6553 Clear 6 1016 75 10000 3 210 07:52 05.10.2019
6554 Clear 6 1016 81 10000 3 210 07:30 05.10.2019
6555 Clear 5 1016 86 10000 2 220 06:56 05.10.2019
6556 Clear 5 1016 86 10000 2 230 06:24 05.10.2019
6557 Clear 5 1016 80 10000 2 230 05:39 05.10.2019
6558 Clear 4 1015 86 10000 2 260 03:34 05.10.2019
6559 Clear 4 1015 86 10000 2 260 02:45 05.10.2019
6560 Clear 4 1015 86 10000 3 270 01:27 05.10.2019
6561 Clear 4 1015 80 10000 3 250 00:49 05.10.2019
6562 Clear 4 1014 80 10000 3 280 00:28 05.10.2019
6563 Clear 5 1015 75 10000 4 260 23:58 04.10.2019
6564 Clear 4 1014 80 10000 3 280 23:40 04.10.2019
6565 Clear 4 1014 80 10000 3 280 23:22 04.10.2019
6566 Clear 5 1014 75 10000 4 280 22:57 04.10.2019
6567 Clear 5 1014 75 10000 4 280 22:57 04.10.2019
6568 Clear 5 1014 75 10000 4 260 22:37 04.10.2019
6569 Clear 5 1014 75 10000 4 260 22:19 04.10.2019
6570 Clear 5 1014 75 10000 4 270 21:40 04.10.2019
6571 Clear 5 1014 75 10000 5 260 21:22 04.10.2019
6572 Clear 5 1014 75 10000 5 260 21:22 04.10.2019
6573 Clear 5 1014 75 10000 5 270 20:59 04.10.2019
6574 Clear 5 1014 75 10000 5 270 20:41 04.10.2019
6575 Clear 5 1013 75 10000 6 270 20:22 04.10.2019
6576 Clear 5 1014 75 10000 5 270 19:56 04.10.2019
6577 Clear 6 1014 70 10000 6 270 19:37 04.10.2019
6578 Clear 6 1014 70 10000 6 270 19:19 04.10.2019
6579 -273 0 0 0 0 0 18:54 04.10.2019
6580 Clear 6 1014 83 10000 7 250 18:36 04.10.2019
6581 Clear 6 1014 78 10000 7 250 18:18 04.10.2019
6582 Clear 6 1014 78 10000 7 250 17:39 04.10.2019
6583 Clear 6 1014 78 10000 7 250 17:21 04.10.2019
6584 Clear 6 1013 78 10000 7 250 16:58 04.10.2019
6585 Clear 6 1013 78 10000 6 250 16:39 04.10.2019
6586 Clear 6 1013 78 10000 6 250 16:18 04.10.2019
6587 Clear 6 1013 78 10000 6 250 16:18 04.10.2019
6588 Clear 6 1013 60 10000 6 240 15:56 04.10.2019
6589 Clear 6 1013 60 10000 4 240 15:37 04.10.2019
6590 Clear 6 1013 60 10000 4 240 15:19 04.10.2019
6591 Clear 6 1013 60 10000 5 250 14:55 04.10.2019
6592 Clear 6 1013 60 10000 5 250 14:55 04.10.2019
6593 Clear 6 1013 60 10000 6 240 14:36 04.10.2019
6594 Clear 6 1013 60 10000 6 240 14:18 04.10.2019
6595 Clear 7 1013 56 10000 7 250 13:43 04.10.2019
6596 Clouds 7 1013 56 10000 7 240 13:21 04.10.2019
6597 Clouds 8 1013 52 10000 6 250 12:47 04.10.2019
6598 Clouds 7 1013 56 10000 7 250 12:29 04.10.2019
6599 Clouds 7 1013 61 10000 8 250 11:59 04.10.2019
6600 Clouds 7 1013 61 10000 8 250 11:59 04.10.2019
6601 Clouds 7 1013 61 10000 8 250 11:59 04.10.2019
6602 Clouds 7 1013 61 10000 8 250 11:59 04.10.2019
6603 Clouds 7 1013 61 10000 8 250 11:41 04.10.2019
6604 Clouds 7 1013 61 10000 8 250 11:40 04.10.2019
6605 Clouds 6 1013 61 10000 7 260 11:20 04.10.2019
6606 Clouds 6 1013 61 10000 8 260 10:41 04.10.2019
6607 Clouds 6 1013 61 10000 9 260 10:21 04.10.2019
6608 Clouds 6 1013 61 10000 7 250 09:47 04.10.2019
6609 Clouds 6 1013 70 10000 8 270 09:28 04.10.2019
6610 Clouds 6 1012 70 10000 8 260 08:56 04.10.2019
6611 Clouds 6 1012 70 10000 7 270 08:38 04.10.2019
6612 Clouds 6 1012 70 10000 7 270 08:19 04.10.2019
6613 Clouds 5 1012 75 10000 8 280 07:44 04.10.2019
6614 Clouds 6 1011 70 10000 9 280 07:22 04.10.2019
6615 Clouds 5 1011 75 10000 8 270 06:44 04.10.2019
6616 Clouds 5 1011 75 10000 8 270 06:44 04.10.2019
6617 Clouds 5 1011 75 10000 9 280 06:25 04.10.2019
6618 Clouds 5 1011 75 10000 9 280 06:25 04.10.2019
6619 Clouds 5 1010 80 10000 8 270 05:42 04.10.2019
6620 Clouds 5 1010 75 10000 9 280 05:18 04.10.2019
6621 Clouds 5 1008 93 10000 10 270 03:48 04.10.2019
6622 Clouds 5 1008 100 10000 6 260 02:53 04.10.2019
6623 Clouds 5 1008 100 10000 6 260 02:53 04.10.2019
6624 Clouds 7 1007 100 10000 8 260 01:56 04.10.2019
6625 Clouds 7 1007 100 10000 8 250 01:30 04.10.2019
6626 Clouds 8 1007 100 10000 7 250 00:58 04.10.2019
6627 Clouds 8 1006 100 10000 6 250 23:58 03.10.2019
6628 Clouds 9 1006 100 10000 5 250 23:37 03.10.2019
6629 Clouds 9 1006 100 10000 5 250 23:18 03.10.2019
6630 Clouds 9 1006 100 10000 6 250 22:56 03.10.2019
6631 Clouds 9 1006 100 10000 5 250 22:37 03.10.2019
6632 Clouds 9 1006 100 10000 5 250 22:19 03.10.2019
6633 Rain 9 1006 100 6000 5 240 21:56 03.10.2019
6634 Rain 9 1006 100 2700 5 240 21:37 03.10.2019
6635 Rain 9 1006 100 2700 5 240 21:19 03.10.2019
6636 Clouds 9 1006 100 10000 6 230 20:55 03.10.2019
6637 Clouds 9 1006 100 10000 6 230 20:55 03.10.2019
6638 Rain 9 1006 100 9000 6 220 20:37 03.10.2019
6639 Rain 9 1006 100 9000 6 220 20:37 03.10.2019
6640 Rain 9 1006 100 9000 6 220 20:19 03.10.2019
6641 Rain 9 1006 100 10000 5 220 19:41 03.10.2019
6642 Rain 9 1006 100 10000 5 220 19:22 03.10.2019
6643 Rain 9 1006 87 10000 6 210 18:58 03.10.2019
6644 Clouds 10 1006 76 10000 6 210 18:39 03.10.2019
6645 Clouds 10 1006 76 10000 6 210 18:19 03.10.2019
6646 Clear 10 1006 76 10000 6 210 17:56 03.10.2019
6647 Clear 10 1006 76 10000 7 200 17:37 03.10.2019
6648 Clear 10 1006 76 10000 7 200 17:19 03.10.2019
6649 Clear 10 1006 76 10000 7 200 17:19 03.10.2019
6650 Clear 10 1006 71 10000 6 210 16:41 03.10.2019
6651 Clouds 10 1006 71 10000 6 200 16:23 03.10.2019
6652 -273 0 0 0 0 0 15:55 03.10.2019
6653 Clouds 10 1007 71 10000 5 200 15:55 03.10.2019
6654 Clouds 10 1007 71 10000 4 200 15:37 03.10.2019
6655 Clouds 10 1007 71 10000 4 200 15:19 03.10.2019
6656 Clouds 10 1007 71 10000 4 200 14:45 03.10.2019
6657 Clear 10 1007 71 10000 5 200 14:26 03.10.2019
6658 Clouds 10 1007 71 10000 5 200 13:57 03.10.2019
6659 Clouds 10 1007 71 10000 6 190 13:39 03.10.2019
6660 Clouds 10 1007 71 10000 6 190 13:19 03.10.2019
6661 Clouds 10 1007 71 10000 6 190 12:55 03.10.2019
6662 Clouds 10 1008 71 10000 6 200 12:36 03.10.2019
6663 Clouds 10 1008 71 10000 6 200 12:18 03.10.2019
6664 Clouds 10 1008 71 10000 7 200 11:41 03.10.2019
6665 Clouds 10 1008 71 10000 6 200 11:22 03.10.2019
6666 Clouds 11 1008 62 10000 6 200 10:58 03.10.2019
6667 Clouds 11 1008 62 10000 6 190 10:40 03.10.2019
6668 Clouds 11 1008 62 10000 6 190 10:18 03.10.2019
6669 Clouds 11 1008 62 10000 6 200 09:57 03.10.2019
6670 Clouds 11 1008 62 10000 7 200 09:39 03.10.2019
6671 Clouds 11 1008 62 10000 7 200 09:20 03.10.2019
6672 Clouds 11 1009 62 10000 6 200 08:44 03.10.2019
6673 Clouds 10 1009 66 10000 6 200 08:26 03.10.2019
6674 Clouds 10 1009 66 10000 6 210 07:57 03.10.2019
6675 Clouds 10 1009 66 10000 6 200 07:38 03.10.2019
6676 Clouds 10 1009 66 10000 6 200 07:19 03.10.2019
6677 Rain 9 1010 76 10000 5 210 06:46 03.10.2019
6678 Rain 9 1010 76 10000 6 210 06:20 03.10.2019
6679 Clouds 9 1010 76 10000 5 200 05:43 03.10.2019
6680 Rain 9 1010 81 10000 6 200 04:51 03.10.2019
6681 Rain 8 1010 87 10000 5 200 04:25 03.10.2019
6682 Rain 9 1010 87 10000 5 210 03:21 03.10.2019
6683 Clouds 10 1010 71 10000 6 210 02:37 03.10.2019
6684 Clouds 11 1010 66 10000 6 220 01:51 03.10.2019
6685 Clouds 11 1010 66 10000 6 210 01:32 03.10.2019
6686 Clouds 11 1010 66 10000 5 210 00:47 03.10.2019
6687 Clouds 11 1010 66 10000 5 220 00:18 03.10.2019
6688 Clouds 11 1010 66 10000 5 230 23:43 02.10.2019
6689 Clouds 11 1010 66 10000 5 220 23:21 02.10.2019
6690 Clouds 11 1010 66 10000 6 220 22:44 02.10.2019
6691 Clouds 11 1010 66 10000 6 220 22:21 02.10.2019
6692 Clouds 11 1010 66 10000 6 210 21:56 02.10.2019
6693 Clouds 11 1010 66 10000 6 210 21:56 02.10.2019
6694 Clouds 11 1010 66 10000 6 210 21:38 02.10.2019
6695 Clouds 11 1010 66 10000 6 210 21:20 02.10.2019
6696 Clouds 11 1010 66 10000 7 220 20:56 02.10.2019
6697 Clouds 11 1011 66 10000 7 220 20:38 02.10.2019
6698 Clouds 11 1011 66 10000 7 220 20:20 02.10.2019
6699 Clouds 11 1011 71 10000 7 210 19:54 02.10.2019
6700 Clouds 10 1011 76 10000 7 220 19:36 02.10.2019
6701 Clouds 10 1011 76 10000 7 220 19:36 02.10.2019
6702 Clouds 10 1011 76 10000 7 220 19:18 02.10.2019
6703 Rain 10 1011 76 10000 7 230 18:55 02.10.2019
6704 Rain 10 1011 76 10000 7 230 18:36 02.10.2019
6705 Rain 10 1011 76 10000 7 230 18:18 02.10.2019
6706 Rain 11 1012 66 10000 7 230 17:42 02.10.2019
6707 Clouds 12 1011 54 10000 6 230 17:21 02.10.2019
6708 Clouds 12 1011 54 10000 6 230 17:21 02.10.2019
6709 Clouds 12 1011 58 10000 6 220 16:58 02.10.2019
6710 Clouds 12 1011 58 10000 6 220 16:39 02.10.2019
6711 Clear 12 1011 62 10000 5 210 16:20 02.10.2019
6712 Clear 12 1011 62 10000 5 210 15:56 02.10.2019
6713 Clouds 11 1011 66 10000 4 210 15:37 02.10.2019
6714 Clouds 11 1011 66 10000 4 210 15:18 02.10.2019
6715 Clouds 11 1011 66 10000 4 200 14:45 02.10.2019
6716 Clouds 11 1011 66 10000 4 210 14:27 02.10.2019
6717 Clear 11 1011 66 10000 4 210 13:58 02.10.2019
6718 Clouds 10 1011 71 10000 4 210 13:40 02.10.2019
6719 Clouds 10 1011 71 10000 4 210 13:21 02.10.2019
6720 Rain 9 1011 76 10000 5 210 12:41 02.10.2019
6721 Rain 9 1011 76 10000 5 210 12:22 02.10.2019
6722 Rain 9 1011 76 10000 6 210 11:59 02.10.2019
6723 Rain 9 1011 70 10000 6 210 11:41 02.10.2019
6724 Rain 9 1011 70 10000 6 210 11:20 02.10.2019
6725 Clear 9 1011 70 10000 7 210 10:39 02.10.2019
6726 Clear 9 1011 70 10000 7 210 10:19 02.10.2019
6727 Clear 9 1011 70 10000 7 210 10:19 02.10.2019
6728 Clouds 9 1011 76 10000 6 220 09:41 02.10.2019
6729 Clouds 9 1011 76 10000 6 220 09:20 02.10.2019
6730 Clouds 8 1011 87 10000 5 210 08:56 02.10.2019
6731 Clouds 8 1011 87 10000 5 210 08:56 02.10.2019
6732 Rain 7 1011 93 10000 6 210 08:38 02.10.2019
6733 Rain 7 1011 93 10000 6 210 08:19 02.10.2019
6734 Clouds 7 1011 100 10000 5 210 07:41 02.10.2019
6735 Clouds 7 1011 100 10000 5 210 07:22 02.10.2019
6736 Rain 7 1011 100 10000 5 210 06:57 02.10.2019
6737 Rain 6 1011 100 9000 5 210 06:27 02.10.2019
6738 Rain 6 1011 100 10000 5 210 05:49 02.10.2019
6739 Rain 6 1011 100 10000 5 210 05:20 02.10.2019
6740 Rain 7 1011 100 10000 5 230 03:53 02.10.2019
6741 Rain 7 1011 100 10000 6 230 03:24 02.10.2019
6742 Rain 7 1011 100 10000 6 230 02:26 02.10.2019
6743 Rain 7 1011 100 8000 6 230 01:56 02.10.2019
6744 Rain 7 1011 100 9000 5 230 00:52 02.10.2019
6745 Rain 7 1011 100 9000 4 220 00:29 02.10.2019
6746 Rain 7 1011 100 9000 5 230 23:54 01.10.2019
6747 Rain 7 1011 100 7000 6 230 23:36 01.10.2019
6748 Rain 7 1011 100 7000 6 230 23:18 01.10.2019
6749 Rain 7 1011 100 8000 5 230 22:57 01.10.2019
6750 Rain 6 1011 100 9000 5 230 22:36 01.10.2019
6751 Rain 6 1011 100